<?xml version="1.0" encoding="UTF-8"?>
<gpx version="1.1" creator="https://www.youtrack.es" xsi:schemaLocation="http://www.topografix.com/GPX/1/1 http://www.topografix.com/GPX/1/1/gpx.xsd http://www.garmin.com/xmlschemas/GpxExtensions/v3 http://www.garmin.com/xmlschemas/GpxExtensionsv3.xsd http://www.garmin.com/xmlschemas/TrackPointExtension/v1 http://www.garmin.com/xmlschemas/TrackPointExtensionv1.xsd" xmlns:gpxtpx="http://www.garmin.com/xmlschemas/TrackPointExtension/v1" xmlns:gpxx="http://www.garmin.com/xmlschemas/GpxExtensions/v3" xmlns:xsi="http://www.w3.org/2001/XMLSchema-instance">
  <metadata>
    <link href="https://www.youtrack.es">
      <text>YouTrack.es</text>
    </link>
    <time>2026-05-10T17:52:21Z</time>
  </metadata>
  <trk>
    <src>https://www.youtrack.es</src>
    <link href="https://www.youtrack.es/ruta/20569-semana-santa">
      <text>YouTrack.es</text>
    </link>
    <trkseg>
      <trkpt lat="40.304370" lon="-3.447868">
        <ele>598.009470</ele>
        <time>2021-03-24T21:09:49.069Z</time>
      </trkpt>
      <trkpt lat="40.304368" lon="-3.447885">
        <ele>598.009470</ele>
        <time>2021-03-24T21:09:49.350Z</time>
      </trkpt>
      <trkpt lat="40.304451" lon="-3.447903">
        <ele>598.009470</ele>
        <time>2021-03-24T21:09:50.413Z</time>
      </trkpt>
      <trkpt lat="40.304371" lon="-3.448557">
        <ele>598.009470</ele>
        <time>2021-03-24T21:09:58.518Z</time>
      </trkpt>
      <trkpt lat="40.304289" lon="-3.448540">
        <ele>598.009470</ele>
        <time>2021-03-24T21:09:59.931Z</time>
      </trkpt>
      <trkpt lat="40.304275" lon="-3.448659">
        <ele>598.009470</ele>
        <time>2021-03-24T21:10:00.983Z</time>
      </trkpt>
      <trkpt lat="40.304168" lon="-3.449546">
        <ele>597.150806</ele>
        <time>2021-03-24T21:10:08.542Z</time>
      </trkpt>
      <trkpt lat="40.304230" lon="-3.449596">
        <ele>597.039745</ele>
        <time>2021-03-24T21:10:09.174Z</time>
      </trkpt>
      <trkpt lat="40.304737" lon="-3.449677">
        <ele>596.260426</ele>
        <time>2021-03-24T21:10:14.670Z</time>
      </trkpt>
      <trkpt lat="40.305183" lon="-3.449754">
        <ele>595.574031</ele>
        <time>2021-03-24T21:10:19.095Z</time>
      </trkpt>
      <trkpt lat="40.305292" lon="-3.448842">
        <ele>594.325460</ele>
        <time>2021-03-24T21:10:25.554Z</time>
      </trkpt>
      <trkpt lat="40.305301" lon="-3.448758">
        <ele>594.204260</ele>
        <time>2021-03-24T21:10:26.188Z</time>
      </trkpt>
      <trkpt lat="40.305327" lon="-3.448762">
        <ele>594.155213</ele>
        <time>2021-03-24T21:10:26.443Z</time>
      </trkpt>
      <trkpt lat="40.305750" lon="-3.448843">
        <ele>593.354273</ele>
        <time>2021-03-24T21:10:30.685Z</time>
      </trkpt>
      <trkpt lat="40.305776" lon="-3.448906">
        <ele>593.251922</ele>
        <time>2021-03-24T21:10:31.209Z</time>
      </trkpt>
      <trkpt lat="40.305824" lon="-3.449020">
        <ele>593.065859</ele>
        <time>2021-03-24T21:10:32.255Z</time>
      </trkpt>
      <trkpt lat="40.306057" lon="-3.449236">
        <ele>592.531234</ele>
        <time>2021-03-24T21:10:35.321Z</time>
      </trkpt>
      <trkpt lat="40.306197" lon="-3.449299">
        <ele>592.253914</ele>
        <time>2021-03-24T21:10:36.965Z</time>
      </trkpt>
      <trkpt lat="40.306172" lon="-3.449329">
        <ele>592.190422</ele>
        <time>2021-03-24T21:10:37.345Z</time>
      </trkpt>
      <trkpt lat="40.305964" lon="-3.449360">
        <ele>591.819971</ele>
        <time>2021-03-24T21:10:39.608Z</time>
      </trkpt>
      <trkpt lat="40.305575" lon="-3.449979">
        <ele>590.931396</ele>
        <time>2021-03-24T21:10:46.140Z</time>
      </trkpt>
      <trkpt lat="40.305472" lon="-3.450536">
        <ele>590.296458</ele>
        <time>2021-03-24T21:10:50.639Z</time>
      </trkpt>
      <trkpt lat="40.305467" lon="-3.450603">
        <ele>590.221879</ele>
        <time>2021-03-24T21:10:51.195Z</time>
      </trkpt>
      <trkpt lat="40.305488" lon="-3.450663">
        <ele>590.148744</ele>
        <time>2021-03-24T21:10:51.685Z</time>
      </trkpt>
      <trkpt lat="40.305715" lon="-3.451262">
        <ele>589.407742</ele>
        <time>2021-03-24T21:10:56.869Z</time>
      </trkpt>
      <trkpt lat="40.306311" lon="-3.452487">
        <ele>587.154491</ele>
        <time>2021-03-24T21:11:07.667Z</time>
      </trkpt>
      <trkpt lat="40.306460" lon="-3.452811">
        <ele>586.553623</ele>
        <time>2021-03-24T21:11:10.431Z</time>
      </trkpt>
      <trkpt lat="40.308315" lon="-3.456884">
        <ele>579.603550</ele>
        <time>2021-03-24T21:11:46.687Z</time>
      </trkpt>
      <trkpt lat="40.309531" lon="-3.459529">
        <ele>574.357409</ele>
        <time>2021-03-24T21:12:09.459Z</time>
      </trkpt>
      <trkpt lat="40.311046" lon="-3.462825">
        <ele>568.000186</ele>
        <time>2021-03-24T21:12:38.261Z</time>
      </trkpt>
      <trkpt lat="40.312277" lon="-3.465557">
        <ele>562.299340</ele>
        <time>2021-03-24T21:13:01.608Z</time>
      </trkpt>
      <trkpt lat="40.312380" lon="-3.465791">
        <ele>561.770351</ele>
        <time>2021-03-24T21:13:03.521Z</time>
      </trkpt>
      <trkpt lat="40.312968" lon="-3.467124">
        <ele>558.755325</ele>
        <time>2021-03-24T21:13:14.618Z</time>
      </trkpt>
      <trkpt lat="40.313216" lon="-3.467543">
        <ele>557.733775</ele>
        <time>2021-03-24T21:13:18.463Z</time>
      </trkpt>
      <trkpt lat="40.314854" lon="-3.469586">
        <ele>553.274031</ele>
        <time>2021-03-24T21:13:40.858Z</time>
      </trkpt>
      <trkpt lat="40.315183" lon="-3.470822">
        <ele>551.611404</ele>
        <time>2021-03-24T21:13:50.901Z</time>
      </trkpt>
      <trkpt lat="40.315272" lon="-3.471156">
        <ele>551.162067</ele>
        <time>2021-03-24T21:13:53.657Z</time>
      </trkpt>
      <trkpt lat="40.315877" lon="-3.474108">
        <ele>549.287459</ele>
        <time>2021-03-24T21:14:19.593Z</time>
      </trkpt>
      <trkpt lat="40.315964" lon="-3.474532">
        <ele>549.038084</ele>
        <time>2021-03-24T21:14:23.430Z</time>
      </trkpt>
      <trkpt lat="40.316013" lon="-3.474886">
        <ele>548.833747</ele>
        <time>2021-03-24T21:14:26.437Z</time>
      </trkpt>
      <trkpt lat="40.316006" lon="-3.475022">
        <ele>548.756331</ele>
        <time>2021-03-24T21:14:27.660Z</time>
      </trkpt>
      <trkpt lat="40.316061" lon="-3.475573">
        <ele>548.440725</ele>
        <time>2021-03-24T21:14:32.230Z</time>
      </trkpt>
      <trkpt lat="40.316105" lon="-3.475953">
        <ele>548.115083</ele>
        <time>2021-03-24T21:14:35.407Z</time>
      </trkpt>
      <trkpt lat="40.316115" lon="-3.476026">
        <ele>548.025452</ele>
        <time>2021-03-24T21:14:36.014Z</time>
      </trkpt>
      <trkpt lat="40.316152" lon="-3.476634">
        <ele>547.288366</ele>
        <time>2021-03-24T21:14:41.025Z</time>
      </trkpt>
      <trkpt lat="40.316002" lon="-3.476837">
        <ele>546.946752</ele>
        <time>2021-03-24T21:14:44.684Z</time>
      </trkpt>
      <trkpt lat="40.316006" lon="-3.477009">
        <ele>546.738799</ele>
        <time>2021-03-24T21:14:46.924Z</time>
      </trkpt>
      <trkpt lat="40.316006" lon="-3.477170">
        <ele>546.544235</ele>
        <time>2021-03-24T21:14:48.959Z</time>
      </trkpt>
      <trkpt lat="40.316006" lon="-3.477234">
        <ele>546.466892</ele>
        <time>2021-03-24T21:14:49.736Z</time>
      </trkpt>
      <trkpt lat="40.316014" lon="-3.477937">
        <ele>545.617242</ele>
        <time>2021-03-24T21:14:58.569Z</time>
      </trkpt>
      <trkpt lat="40.316047" lon="-3.478167">
        <ele>545.290696</ele>
        <time>2021-03-24T21:15:01.419Z</time>
      </trkpt>
      <trkpt lat="40.316169" lon="-3.478457">
        <ele>544.758388</ele>
        <time>2021-03-24T21:15:05.607Z</time>
      </trkpt>
      <trkpt lat="40.316270" lon="-3.478566">
        <ele>544.482692</ele>
        <time>2021-03-24T21:15:07.674Z</time>
      </trkpt>
      <trkpt lat="40.316367" lon="-3.480165">
        <ele>541.904739</ele>
        <time>2021-03-24T21:15:19.707Z</time>
      </trkpt>
      <trkpt lat="40.316533" lon="-3.480660">
        <ele>541.227847</ele>
        <time>2021-03-24T21:15:23.743Z</time>
      </trkpt>
      <trkpt lat="40.316696" lon="-3.480935">
        <ele>540.836122</ele>
        <time>2021-03-24T21:15:26.426Z</time>
      </trkpt>
      <trkpt lat="40.316789" lon="-3.481123">
        <ele>540.584095</ele>
        <time>2021-03-24T21:15:28.136Z</time>
      </trkpt>
      <trkpt lat="40.316987" lon="-3.481301">
        <ele>540.230033</ele>
        <time>2021-03-24T21:15:30.620Z</time>
      </trkpt>
      <trkpt lat="40.317289" lon="-3.481499">
        <ele>539.732041</ele>
        <time>2021-03-24T21:15:34.155Z</time>
      </trkpt>
      <trkpt lat="40.317722" lon="-3.481778">
        <ele>539.021760</ele>
        <time>2021-03-24T21:15:39.294Z</time>
      </trkpt>
      <trkpt lat="40.318285" lon="-3.481771">
        <ele>538.635288</ele>
        <time>2021-03-24T21:15:45.449Z</time>
      </trkpt>
      <trkpt lat="40.321667" lon="-3.482775">
        <ele>536.545190</ele>
        <time>2021-03-24T21:16:24.359Z</time>
      </trkpt>
      <trkpt lat="40.321807" lon="-3.482847">
        <ele>536.475559</ele>
        <time>2021-03-24T21:16:26.034Z</time>
      </trkpt>
      <trkpt lat="40.321883" lon="-3.482994">
        <ele>536.412857</ele>
        <time>2021-03-24T21:16:28.468Z</time>
      </trkpt>
      <trkpt lat="40.322221" lon="-3.483884">
        <ele>536.061838</ele>
        <time>2021-03-24T21:16:42.465Z</time>
      </trkpt>
      <trkpt lat="40.322518" lon="-3.484499">
        <ele>535.880704</ele>
        <time>2021-03-24T21:16:52.707Z</time>
      </trkpt>
      <trkpt lat="40.322696" lon="-3.484868">
        <ele>535.833951</ele>
        <time>2021-03-24T21:16:58.965Z</time>
      </trkpt>
      <trkpt lat="40.322748" lon="-3.485007">
        <ele>535.817373</ele>
        <time>2021-03-24T21:17:01.354Z</time>
      </trkpt>
      <trkpt lat="40.322795" lon="-3.485064">
        <ele>535.808384</ele>
        <time>2021-03-24T21:17:02.592Z</time>
      </trkpt>
      <trkpt lat="40.322878" lon="-3.485083">
        <ele>535.796552</ele>
        <time>2021-03-24T21:17:04.123Z</time>
      </trkpt>
      <trkpt lat="40.323142" lon="-3.484816">
        <ele>535.749735</ele>
        <time>2021-03-24T21:17:10.517Z</time>
      </trkpt>
      <trkpt lat="40.323288" lon="-3.484832">
        <ele>535.729160</ele>
        <time>2021-03-24T21:17:13.293Z</time>
      </trkpt>
      <trkpt lat="40.323432" lon="-3.484736">
        <ele>535.706475</ele>
        <time>2021-03-24T21:17:16.433Z</time>
      </trkpt>
      <trkpt lat="40.323724" lon="-3.484710">
        <ele>535.665373</ele>
        <time>2021-03-24T21:17:21.932Z</time>
      </trkpt>
      <trkpt lat="40.324119" lon="-3.485191">
        <ele>535.520159</ele>
        <time>2021-03-24T21:17:31.984Z</time>
      </trkpt>
      <trkpt lat="40.324206" lon="-3.485239">
        <ele>535.494008</ele>
        <time>2021-03-24T21:17:33.749Z</time>
      </trkpt>
      <trkpt lat="40.324623" lon="-3.484890">
        <ele>535.356956</ele>
        <time>2021-03-24T21:17:42.823Z</time>
      </trkpt>
      <trkpt lat="40.324767" lon="-3.484753">
        <ele>535.307668</ele>
        <time>2021-03-24T21:17:46.130Z</time>
      </trkpt>
      <trkpt lat="40.324857" lon="-3.484642">
        <ele>535.273440</ele>
        <time>2021-03-24T21:17:48.345Z</time>
      </trkpt>
      <trkpt lat="40.324982" lon="-3.484544">
        <ele>535.233091</ele>
        <time>2021-03-24T21:17:51.110Z</time>
      </trkpt>
      <trkpt lat="40.325229" lon="-3.484350">
        <ele>535.163569</ele>
        <time>2021-03-24T21:17:56.404Z</time>
      </trkpt>
      <trkpt lat="40.325306" lon="-3.484441">
        <ele>535.165923</ele>
        <time>2021-03-24T21:17:58.554Z</time>
      </trkpt>
      <trkpt lat="40.325421" lon="-3.484558">
        <ele>535.169229</ele>
        <time>2021-03-24T21:18:01.259Z</time>
      </trkpt>
      <trkpt lat="40.325478" lon="-3.484534">
        <ele>535.170588</ele>
        <time>2021-03-24T21:18:02.287Z</time>
      </trkpt>
      <trkpt lat="40.325546" lon="-3.484425">
        <ele>535.173027</ele>
        <time>2021-03-24T21:18:04.513Z</time>
      </trkpt>
      <trkpt lat="40.325679" lon="-3.484379">
        <ele>535.176151</ele>
        <time>2021-03-24T21:18:07.124Z</time>
      </trkpt>
      <trkpt lat="40.325712" lon="-3.484281">
        <ele>535.178006</ele>
        <time>2021-03-24T21:18:08.607Z</time>
      </trkpt>
      <trkpt lat="40.325861" lon="-3.484222">
        <ele>535.181542</ele>
        <time>2021-03-24T21:18:11.659Z</time>
      </trkpt>
      <trkpt lat="40.326038" lon="-3.484240">
        <ele>535.185574</ele>
        <time>2021-03-24T21:18:14.996Z</time>
      </trkpt>
      <trkpt lat="40.326104" lon="-3.484267">
        <ele>535.187144</ele>
        <time>2021-03-24T21:18:16.209Z</time>
      </trkpt>
      <trkpt lat="40.326118" lon="-3.484166">
        <ele>535.188922</ele>
        <time>2021-03-24T21:18:17.883Z</time>
      </trkpt>
      <trkpt lat="40.326145" lon="-3.483970">
        <ele>535.192371</ele>
        <time>2021-03-24T21:18:20.875Z</time>
      </trkpt>
      <trkpt lat="40.326236" lon="-3.483876">
        <ele>535.195001</ele>
        <time>2021-03-24T21:18:23.003Z</time>
      </trkpt>
      <trkpt lat="40.326306" lon="-3.483901">
        <ele>535.196649</ele>
        <time>2021-03-24T21:18:24.493Z</time>
      </trkpt>
      <trkpt lat="40.326381" lon="-3.483938">
        <ele>535.198469</ele>
        <time>2021-03-24T21:18:26.219Z</time>
      </trkpt>
      <trkpt lat="40.326718" lon="-3.483810">
        <ele>535.253669</ele>
        <time>2021-03-24T21:18:33.086Z</time>
      </trkpt>
      <trkpt lat="40.327272" lon="-3.483266">
        <ele>535.535253</ele>
        <time>2021-03-24T21:18:47.136Z</time>
      </trkpt>
      <trkpt lat="40.327372" lon="-3.482915">
        <ele>535.651488</ele>
        <time>2021-03-24T21:18:52.976Z</time>
      </trkpt>
      <trkpt lat="40.327320" lon="-3.482750">
        <ele>535.706871</ele>
        <time>2021-03-24T21:18:55.861Z</time>
      </trkpt>
      <trkpt lat="40.327443" lon="-3.482626">
        <ele>535.769993</ele>
        <time>2021-03-24T21:18:59.013Z</time>
      </trkpt>
      <trkpt lat="40.327765" lon="-3.481935">
        <ele>536.057903</ele>
        <time>2021-03-24T21:19:11.635Z</time>
      </trkpt>
      <trkpt lat="40.327827" lon="-3.481354">
        <ele>536.317788</ele>
        <time>2021-03-24T21:19:20.979Z</time>
      </trkpt>
      <trkpt lat="40.328012" lon="-3.480798">
        <ele>536.586527</ele>
        <time>2021-03-24T21:19:30.711Z</time>
      </trkpt>
      <trkpt lat="40.328185" lon="-3.479939">
        <ele>536.980107</ele>
        <time>2021-03-24T21:19:44.912Z</time>
      </trkpt>
      <trkpt lat="40.328002" lon="-3.479601">
        <ele>537.071832</ele>
        <time>2021-03-24T21:19:51.458Z</time>
      </trkpt>
      <trkpt lat="40.327943" lon="-3.479398">
        <ele>537.119756</ele>
        <time>2021-03-24T21:19:54.816Z</time>
      </trkpt>
      <trkpt lat="40.327929" lon="-3.479112">
        <ele>537.182975</ele>
        <time>2021-03-24T21:19:59.258Z</time>
      </trkpt>
      <trkpt lat="40.328370" lon="-3.478525">
        <ele>537.364771</ele>
        <time>2021-03-24T21:20:11.785Z</time>
      </trkpt>
      <trkpt lat="40.328545" lon="-3.477971">
        <ele>537.497053</ele>
        <time>2021-03-24T21:20:20.669Z</time>
      </trkpt>
      <trkpt lat="40.328803" lon="-3.476697">
        <ele>537.238732</ele>
        <time>2021-03-24T21:20:39.563Z</time>
      </trkpt>
      <trkpt lat="40.328754" lon="-3.476569">
        <ele>537.209821</ele>
        <time>2021-03-24T21:20:41.542Z</time>
      </trkpt>
      <trkpt lat="40.328818" lon="-3.476333">
        <ele>537.159260</ele>
        <time>2021-03-24T21:20:45.067Z</time>
      </trkpt>
      <trkpt lat="40.328858" lon="-3.475727">
        <ele>537.036482</ele>
        <time>2021-03-24T21:20:53.577Z</time>
      </trkpt>
      <trkpt lat="40.328786" lon="-3.475600">
        <ele>537.026990</ele>
        <time>2021-03-24T21:20:55.747Z</time>
      </trkpt>
      <trkpt lat="40.328828" lon="-3.475534">
        <ele>537.028802</ele>
        <time>2021-03-24T21:20:56.963Z</time>
      </trkpt>
      <trkpt lat="40.328742" lon="-3.475111">
        <ele>537.038030</ele>
        <time>2021-03-24T21:21:03.127Z</time>
      </trkpt>
      <trkpt lat="40.328835" lon="-3.474923">
        <ele>537.042754</ele>
        <time>2021-03-24T21:21:06.363Z</time>
      </trkpt>
      <trkpt lat="40.328863" lon="-3.474785">
        <ele>537.045764</ele>
        <time>2021-03-24T21:21:08.378Z</time>
      </trkpt>
      <trkpt lat="40.328931" lon="-3.474635">
        <ele>537.049443</ele>
        <time>2021-03-24T21:21:10.897Z</time>
      </trkpt>
      <trkpt lat="40.329115" lon="-3.474384">
        <ele>537.056783</ele>
        <time>2021-03-24T21:21:15.944Z</time>
      </trkpt>
      <trkpt lat="40.329121" lon="-3.474269">
        <ele>537.059213</ele>
        <time>2021-03-24T21:21:17.696Z</time>
      </trkpt>
      <trkpt lat="40.329113" lon="-3.474187">
        <ele>537.060955</ele>
        <time>2021-03-24T21:21:18.983Z</time>
      </trkpt>
      <trkpt lat="40.329025" lon="-3.474080">
        <ele>537.064273</ele>
        <time>2021-03-24T21:21:21.306Z</time>
      </trkpt>
      <trkpt lat="40.328993" lon="-3.474029">
        <ele>537.065665</ele>
        <time>2021-03-24T21:21:22.288Z</time>
      </trkpt>
      <trkpt lat="40.328983" lon="-3.473938">
        <ele>537.067603</ele>
        <time>2021-03-24T21:21:23.678Z</time>
      </trkpt>
      <trkpt lat="40.329111" lon="-3.473725">
        <ele>537.073320</ele>
        <time>2021-03-24T21:21:27.982Z</time>
      </trkpt>
      <trkpt lat="40.329316" lon="-3.473264">
        <ele>537.524131</ele>
        <time>2021-03-24T21:21:36.553Z</time>
      </trkpt>
      <trkpt lat="40.330064" lon="-3.472190">
        <ele>538.906625</ele>
        <time>2021-03-24T21:22:02.251Z</time>
      </trkpt>
      <trkpt lat="40.330222" lon="-3.472092">
        <ele>539.124501</ele>
        <time>2021-03-24T21:22:06.505Z</time>
      </trkpt>
      <trkpt lat="40.330275" lon="-3.471912">
        <ele>539.307878</ele>
        <time>2021-03-24T21:22:10.095Z</time>
      </trkpt>
      <trkpt lat="40.330689" lon="-3.471674">
        <ele>539.886653</ele>
        <time>2021-03-24T21:22:21.046Z</time>
      </trkpt>
      <trkpt lat="40.330960" lon="-3.471643">
        <ele>540.235119</ele>
        <time>2021-03-24T21:22:27.473Z</time>
      </trkpt>
      <trkpt lat="40.331758" lon="-3.471225">
        <ele>541.335831</ele>
        <time>2021-03-24T21:22:47.115Z</time>
      </trkpt>
      <trkpt lat="40.333211" lon="-3.470631">
        <ele>542.226763</ele>
        <time>2021-03-24T21:23:18.410Z</time>
      </trkpt>
      <trkpt lat="40.334331" lon="-3.469721">
        <ele>542.748074</ele>
        <time>2021-03-24T21:23:44.245Z</time>
      </trkpt>
      <trkpt lat="40.334593" lon="-3.469647">
        <ele>542.842584</ele>
        <time>2021-03-24T21:23:49.648Z</time>
      </trkpt>
      <trkpt lat="40.335736" lon="-3.469975">
        <ele>543.362354</ele>
        <time>2021-03-24T21:24:13.884Z</time>
      </trkpt>
      <trkpt lat="40.335900" lon="-3.469955">
        <ele>543.459013</ele>
        <time>2021-03-24T21:24:17.365Z</time>
      </trkpt>
      <trkpt lat="40.336174" lon="-3.470057">
        <ele>543.626161</ele>
        <time>2021-03-24T21:24:23.392Z</time>
      </trkpt>
      <trkpt lat="40.336552" lon="-3.470366">
        <ele>543.887535</ele>
        <time>2021-03-24T21:24:32.764Z</time>
      </trkpt>
      <trkpt lat="40.336728" lon="-3.470334">
        <ele>543.991810</ele>
        <time>2021-03-24T21:24:36.451Z</time>
      </trkpt>
      <trkpt lat="40.337025" lon="-3.470416">
        <ele>544.156697</ele>
        <time>2021-03-24T21:24:42.711Z</time>
      </trkpt>
      <trkpt lat="40.337936" lon="-3.470998">
        <ele>544.368454</ele>
        <time>2021-03-24T21:25:02.942Z</time>
      </trkpt>
      <trkpt lat="40.338666" lon="-3.471272">
        <ele>544.523866</ele>
        <time>2021-03-24T21:25:17.461Z</time>
      </trkpt>
      <trkpt lat="40.339112" lon="-3.471592">
        <ele>544.444057</ele>
        <time>2021-03-24T21:25:27.041Z</time>
      </trkpt>
      <trkpt lat="40.339580" lon="-3.471819">
        <ele>544.365721</ele>
        <time>2021-03-24T21:25:36.356Z</time>
      </trkpt>
      <trkpt lat="40.340336" lon="-3.472162">
        <ele>544.241785</ele>
        <time>2021-03-24T21:25:51.327Z</time>
      </trkpt>
      <trkpt lat="40.340842" lon="-3.472326">
        <ele>544.209156</ele>
        <time>2021-03-24T21:26:01.136Z</time>
      </trkpt>
      <trkpt lat="40.340982" lon="-3.472451">
        <ele>544.198555</ele>
        <time>2021-03-24T21:26:04.320Z</time>
      </trkpt>
      <trkpt lat="40.341179" lon="-3.472514">
        <ele>544.185861</ele>
        <time>2021-03-24T21:26:08.147Z</time>
      </trkpt>
      <trkpt lat="40.341316" lon="-3.472647">
        <ele>544.175191</ele>
        <time>2021-03-24T21:26:11.363Z</time>
      </trkpt>
      <trkpt lat="40.341499" lon="-3.472765">
        <ele>544.162426</ele>
        <time>2021-03-24T21:26:15.257Z</time>
      </trkpt>
      <trkpt lat="40.342271" lon="-3.472989">
        <ele>544.200257</ele>
        <time>2021-03-24T21:26:30.414Z</time>
      </trkpt>
      <trkpt lat="40.343931" lon="-3.473817">
        <ele>544.770343</ele>
        <time>2021-03-24T21:27:05.733Z</time>
      </trkpt>
      <trkpt lat="40.343991" lon="-3.474006">
        <ele>544.884402</ele>
        <time>2021-03-24T21:27:08.956Z</time>
      </trkpt>
      <trkpt lat="40.345621" lon="-3.474830">
        <ele>546.142481</ele>
        <time>2021-03-24T21:27:46.541Z</time>
      </trkpt>
      <trkpt lat="40.345927" lon="-3.474760">
        <ele>546.353312</ele>
        <time>2021-03-24T21:27:53.354Z</time>
      </trkpt>
      <trkpt lat="40.346213" lon="-3.475029">
        <ele>546.592159</ele>
        <time>2021-03-24T21:28:00.944Z</time>
      </trkpt>
      <trkpt lat="40.346691" lon="-3.475130">
        <ele>546.920783</ele>
        <time>2021-03-24T21:28:11.067Z</time>
      </trkpt>
      <trkpt lat="40.347312" lon="-3.475381">
        <ele>547.076609</ele>
        <time>2021-03-24T21:28:24.093Z</time>
      </trkpt>
      <trkpt lat="40.347441" lon="-3.475501">
        <ele>547.057416</ele>
        <time>2021-03-24T21:28:27.139Z</time>
      </trkpt>
      <trkpt lat="40.349004" lon="-3.476239">
        <ele>546.853422</ele>
        <time>2021-03-24T21:28:57.913Z</time>
      </trkpt>
      <trkpt lat="40.349342" lon="-3.476584">
        <ele>546.798741</ele>
        <time>2021-03-24T21:29:05.775Z</time>
      </trkpt>
      <trkpt lat="40.349833" lon="-3.476786">
        <ele>546.733036</ele>
        <time>2021-03-24T21:29:15.471Z</time>
      </trkpt>
      <trkpt lat="40.350130" lon="-3.477016">
        <ele>546.688999</ele>
        <time>2021-03-24T21:29:22.180Z</time>
      </trkpt>
      <trkpt lat="40.350668" lon="-3.477090">
        <ele>546.796580</ele>
        <time>2021-03-24T21:29:33.008Z</time>
      </trkpt>
      <trkpt lat="40.350752" lon="-3.477312">
        <ele>546.854437</ele>
        <time>2021-03-24T21:29:36.653Z</time>
      </trkpt>
      <trkpt lat="40.350847" lon="-3.477442">
        <ele>546.896480</ele>
        <time>2021-03-24T21:29:39.356Z</time>
      </trkpt>
      <trkpt lat="40.350878" lon="-3.477419">
        <ele>546.907388</ele>
        <time>2021-03-24T21:29:40.277Z</time>
      </trkpt>
      <trkpt lat="40.351289" lon="-3.477517">
        <ele>547.035339</ele>
        <time>2021-03-24T21:29:48.704Z</time>
      </trkpt>
      <trkpt lat="40.352541" lon="-3.478326">
        <ele>547.145772</ele>
        <time>2021-03-24T21:30:16.218Z</time>
      </trkpt>
      <trkpt lat="40.353133" lon="-3.478334">
        <ele>547.087545</ele>
        <time>2021-03-24T21:30:27.107Z</time>
      </trkpt>
      <trkpt lat="40.353656" lon="-3.478565">
        <ele>547.067025</ele>
        <time>2021-03-24T21:30:37.353Z</time>
      </trkpt>
      <trkpt lat="40.354173" lon="-3.478773">
        <ele>547.155678</ele>
        <time>2021-03-24T21:30:47.477Z</time>
      </trkpt>
      <trkpt lat="40.354395" lon="-3.478857">
        <ele>547.193556</ele>
        <time>2021-03-24T21:30:52.040Z</time>
      </trkpt>
      <trkpt lat="40.354639" lon="-3.479003">
        <ele>547.237521</ele>
        <time>2021-03-24T21:30:57.488Z</time>
      </trkpt>
      <trkpt lat="40.354977" lon="-3.479093">
        <ele>547.294063</ele>
        <time>2021-03-24T21:31:04.446Z</time>
      </trkpt>
      <trkpt lat="40.355453" lon="-3.479572">
        <ele>547.538111</ele>
        <time>2021-03-24T21:31:16.684Z</time>
      </trkpt>
      <trkpt lat="40.355528" lon="-3.479642">
        <ele>547.595806</ele>
        <time>2021-03-24T21:31:18.786Z</time>
      </trkpt>
      <trkpt lat="40.355709" lon="-3.479751">
        <ele>547.720650</ele>
        <time>2021-03-24T21:31:22.905Z</time>
      </trkpt>
      <trkpt lat="40.356802" lon="-3.479935">
        <ele>548.411451</ele>
        <time>2021-03-24T21:31:46.371Z</time>
      </trkpt>
      <trkpt lat="40.357538" lon="-3.480221">
        <ele>548.568543</ele>
        <time>2021-03-24T21:32:01.743Z</time>
      </trkpt>
      <trkpt lat="40.359071" lon="-3.481091">
        <ele>548.619314</ele>
        <time>2021-03-24T21:32:33.484Z</time>
      </trkpt>
      <trkpt lat="40.359315" lon="-3.481299">
        <ele>548.558142</ele>
        <time>2021-03-24T21:32:38.925Z</time>
      </trkpt>
      <trkpt lat="40.359667" lon="-3.481500">
        <ele>548.477433</ele>
        <time>2021-03-24T21:32:46.081Z</time>
      </trkpt>
      <trkpt lat="40.359802" lon="-3.481588">
        <ele>548.445742</ele>
        <time>2021-03-24T21:32:48.870Z</time>
      </trkpt>
      <trkpt lat="40.360196" lon="-3.481831">
        <ele>548.347772</ele>
        <time>2021-03-24T21:32:56.943Z</time>
      </trkpt>
      <trkpt lat="40.361052" lon="-3.482893">
        <ele>547.388382</ele>
        <time>2021-03-24T21:33:18.455Z</time>
      </trkpt>
      <trkpt lat="40.361500" lon="-3.483277">
        <ele>546.952580</ele>
        <time>2021-03-24T21:33:27.574Z</time>
      </trkpt>
      <trkpt lat="40.361641" lon="-3.483355">
        <ele>546.823010</ele>
        <time>2021-03-24T21:33:30.083Z</time>
      </trkpt>
      <trkpt lat="40.361777" lon="-3.483406">
        <ele>546.698849</ele>
        <time>2021-03-24T21:33:32.491Z</time>
      </trkpt>
      <trkpt lat="40.361805" lon="-3.483429">
        <ele>546.669852</ele>
        <time>2021-03-24T21:33:33.071Z</time>
      </trkpt>
      <trkpt lat="40.361840" lon="-3.483456">
        <ele>546.634214</ele>
        <time>2021-03-24T21:33:33.763Z</time>
      </trkpt>
      <trkpt lat="40.361912" lon="-3.483523">
        <ele>546.556736</ele>
        <time>2021-03-24T21:33:35.300Z</time>
      </trkpt>
      <trkpt lat="40.361993" lon="-3.483617">
        <ele>546.461821</ele>
        <time>2021-03-24T21:33:37.203Z</time>
      </trkpt>
      <trkpt lat="40.362218" lon="-3.483918">
        <ele>546.179788</ele>
        <time>2021-03-24T21:33:42.841Z</time>
      </trkpt>
      <trkpt lat="40.362437" lon="-3.484229">
        <ele>545.896543</ele>
        <time>2021-03-24T21:33:48.585Z</time>
      </trkpt>
      <trkpt lat="40.362558" lon="-3.484393">
        <ele>545.743852</ele>
        <time>2021-03-24T21:33:51.660Z</time>
      </trkpt>
      <trkpt lat="40.362730" lon="-3.484607">
        <ele>545.535803</ele>
        <time>2021-03-24T21:33:55.941Z</time>
      </trkpt>
      <trkpt lat="40.362885" lon="-3.484825">
        <ele>545.336370</ele>
        <time>2021-03-24T21:34:00.055Z</time>
      </trkpt>
      <trkpt lat="40.362878" lon="-3.484853">
        <ele>545.316660</ele>
        <time>2021-03-24T21:34:00.441Z</time>
      </trkpt>
      <trkpt lat="40.362884" lon="-3.484923">
        <ele>545.315894</ele>
        <time>2021-03-24T21:34:01.768Z</time>
      </trkpt>
      <trkpt lat="40.363054" lon="-3.485474">
        <ele>545.345626</ele>
        <time>2021-03-24T21:34:10.129Z</time>
      </trkpt>
      <trkpt lat="40.363096" lon="-3.485816">
        <ele>545.362952</ele>
        <time>2021-03-24T21:34:15.052Z</time>
      </trkpt>
      <trkpt lat="40.363109" lon="-3.486732">
        <ele>545.408775</ele>
        <time>2021-03-24T21:34:29.220Z</time>
      </trkpt>
      <trkpt lat="40.363162" lon="-3.486776">
        <ele>545.412891</ele>
        <time>2021-03-24T21:34:30.900Z</time>
      </trkpt>
      <trkpt lat="40.363133" lon="-3.486885">
        <ele>545.418666</ele>
        <time>2021-03-24T21:34:32.007Z</time>
      </trkpt>
      <trkpt lat="40.363111" lon="-3.487364">
        <ele>545.428685</ele>
        <time>2021-03-24T21:34:36.738Z</time>
      </trkpt>
      <trkpt lat="40.363125" lon="-3.487430">
        <ele>545.428096</ele>
        <time>2021-03-24T21:34:37.361Z</time>
      </trkpt>
      <trkpt lat="40.363115" lon="-3.487574">
        <ele>545.426854</ele>
        <time>2021-03-24T21:34:39.391Z</time>
      </trkpt>
      <trkpt lat="40.363208" lon="-3.488039">
        <ele>545.422724</ele>
        <time>2021-03-24T21:34:46.463Z</time>
      </trkpt>
      <trkpt lat="40.364093" lon="-3.490066">
        <ele>545.238787</ele>
        <time>2021-03-24T21:35:19.937Z</time>
      </trkpt>
      <trkpt lat="40.364249" lon="-3.490392">
        <ele>545.166011</ele>
        <time>2021-03-24T21:35:25.249Z</time>
      </trkpt>
      <trkpt lat="40.364270" lon="-3.490440">
        <ele>545.155547</ele>
        <time>2021-03-24T21:35:26.016Z</time>
      </trkpt>
      <trkpt lat="40.364316" lon="-3.490546">
        <ele>545.132485</ele>
        <time>2021-03-24T21:35:27.711Z</time>
      </trkpt>
      <trkpt lat="40.364272" lon="-3.490660">
        <ele>545.108327</ele>
        <time>2021-03-24T21:35:29.458Z</time>
      </trkpt>
      <trkpt lat="40.364041" lon="-3.491303">
        <ele>544.973934</ele>
        <time>2021-03-24T21:35:39.768Z</time>
      </trkpt>
      <trkpt lat="40.363996" lon="-3.491428">
        <ele>544.974659</ele>
        <time>2021-03-24T21:35:41.756Z</time>
      </trkpt>
      <trkpt lat="40.363871" lon="-3.491780">
        <ele>545.021582</ele>
        <time>2021-03-24T21:35:47.614Z</time>
      </trkpt>
      <trkpt lat="40.363755" lon="-3.492108">
        <ele>545.065273</ele>
        <time>2021-03-24T21:35:53.045Z</time>
      </trkpt>
      <trkpt lat="40.363871" lon="-3.491780">
        <ele>545.108965</ele>
        <time>2021-03-24T21:35:58.303Z</time>
      </trkpt>
      <trkpt lat="40.363996" lon="-3.491428">
        <ele>545.155887</ele>
        <time>2021-03-24T21:36:03.947Z</time>
      </trkpt>
      <trkpt lat="40.364041" lon="-3.491303">
        <ele>545.172591</ele>
        <time>2021-03-24T21:36:06.236Z</time>
      </trkpt>
      <trkpt lat="40.364056" lon="-3.491310">
        <ele>545.175115</ele>
        <time>2021-03-24T21:36:06.555Z</time>
      </trkpt>
      <trkpt lat="40.364241" lon="-3.491291">
        <ele>545.204541</ele>
        <time>2021-03-24T21:36:10.001Z</time>
      </trkpt>
      <trkpt lat="40.364485" lon="-3.491424">
        <ele>545.246437</ele>
        <time>2021-03-24T21:36:15.441Z</time>
      </trkpt>
      <trkpt lat="40.364829" lon="-3.491883">
        <ele>545.304250</ele>
        <time>2021-03-24T21:36:25.275Z</time>
      </trkpt>
      <trkpt lat="40.364974" lon="-3.492052">
        <ele>545.326791</ele>
        <time>2021-03-24T21:36:29.616Z</time>
      </trkpt>
      <trkpt lat="40.365028" lon="-3.492176">
        <ele>545.339441</ele>
        <time>2021-03-24T21:36:31.660Z</time>
      </trkpt>
      <trkpt lat="40.365604" lon="-3.493444">
        <ele>545.431817</ele>
        <time>2021-03-24T21:36:52.994Z</time>
      </trkpt>
      <trkpt lat="40.365615" lon="-3.493462">
        <ele>545.427166</ele>
        <time>2021-03-24T21:36:53.249Z</time>
      </trkpt>
      <trkpt lat="40.365798" lon="-3.493547">
        <ele>545.375813</ele>
        <time>2021-03-24T21:36:57.169Z</time>
      </trkpt>
      <trkpt lat="40.366077" lon="-3.494033">
        <ele>545.253163</ele>
        <time>2021-03-24T21:37:05.604Z</time>
      </trkpt>
      <trkpt lat="40.366540" lon="-3.494801">
        <ele>545.055771</ele>
        <time>2021-03-24T21:37:19.432Z</time>
      </trkpt>
      <trkpt lat="40.367071" lon="-3.495375">
        <ele>544.982992</ele>
        <time>2021-03-24T21:37:32.440Z</time>
      </trkpt>
      <trkpt lat="40.367211" lon="-3.495530">
        <ele>544.983140</ele>
        <time>2021-03-24T21:37:35.818Z</time>
      </trkpt>
      <trkpt lat="40.367201" lon="-3.495679">
        <ele>544.983232</ele>
        <time>2021-03-24T21:37:38.124Z</time>
      </trkpt>
      <trkpt lat="40.367541" lon="-3.495971">
        <ele>544.983559</ele>
        <time>2021-03-24T21:37:45.869Z</time>
      </trkpt>
      <trkpt lat="40.370347" lon="-3.498281">
        <ele>545.280074</ele>
        <time>2021-03-24T21:38:50.186Z</time>
      </trkpt>
      <trkpt lat="40.370366" lon="-3.498305">
        <ele>545.282631</ele>
        <time>2021-03-24T21:38:50.720Z</time>
      </trkpt>
      <trkpt lat="40.370435" lon="-3.498368">
        <ele>545.290781</ele>
        <time>2021-03-24T21:38:52.317Z</time>
      </trkpt>
      <trkpt lat="40.374391" lon="-3.501553">
        <ele>545.738488</ele>
        <time>2021-03-24T21:40:21.949Z</time>
      </trkpt>
      <trkpt lat="40.374609" lon="-3.501705">
        <ele>545.803213</ele>
        <time>2021-03-24T21:40:26.718Z</time>
      </trkpt>
      <trkpt lat="40.376050" lon="-3.502830">
        <ele>546.390427</ele>
        <time>2021-03-24T21:41:00.048Z</time>
      </trkpt>
      <trkpt lat="40.377603" lon="-3.503884">
        <ele>547.653349</ele>
        <time>2021-03-24T21:41:37.913Z</time>
      </trkpt>
      <trkpt lat="40.378166" lon="-3.504233">
        <ele>548.047066</ele>
        <time>2021-03-24T21:41:51.434Z</time>
      </trkpt>
      <trkpt lat="40.378372" lon="-3.504282">
        <ele>548.179453</ele>
        <time>2021-03-24T21:41:55.896Z</time>
      </trkpt>
      <trkpt lat="40.378599" lon="-3.504310">
        <ele>548.323631</ele>
        <time>2021-03-24T21:42:00.651Z</time>
      </trkpt>
      <trkpt lat="40.378803" lon="-3.504279">
        <ele>548.453493</ele>
        <time>2021-03-24T21:42:04.819Z</time>
      </trkpt>
      <trkpt lat="40.378915" lon="-3.504315">
        <ele>548.526409</ele>
        <time>2021-03-24T21:42:07.186Z</time>
      </trkpt>
      <trkpt lat="40.379201" lon="-3.504589">
        <ele>548.587618</ele>
        <time>2021-03-24T21:42:14.236Z</time>
      </trkpt>
      <trkpt lat="40.381665" lon="-3.506889">
        <ele>547.773621</ele>
        <time>2021-03-24T21:43:10.173Z</time>
      </trkpt>
      <trkpt lat="40.381866" lon="-3.507052">
        <ele>547.691094</ele>
        <time>2021-03-24T21:43:14.486Z</time>
      </trkpt>
      <trkpt lat="40.383130" lon="-3.506948">
        <ele>547.450260</ele>
        <time>2021-03-24T21:43:37.783Z</time>
      </trkpt>
      <trkpt lat="40.384712" lon="-3.506782">
        <ele>547.653799</ele>
        <time>2021-03-24T21:44:08.737Z</time>
      </trkpt>
      <trkpt lat="40.384782" lon="-3.506775">
        <ele>547.678261</ele>
        <time>2021-03-24T21:44:10.009Z</time>
      </trkpt>
      <trkpt lat="40.384884" lon="-3.506764">
        <ele>547.713922</ele>
        <time>2021-03-24T21:44:12.400Z</time>
      </trkpt>
      <trkpt lat="40.385259" lon="-3.506764">
        <ele>547.844590</ele>
        <time>2021-03-24T21:44:20.143Z</time>
      </trkpt>
      <trkpt lat="40.385739" lon="-3.507047">
        <ele>548.065184</ele>
        <time>2021-03-24T21:44:30.924Z</time>
      </trkpt>
      <trkpt lat="40.385945" lon="-3.507047">
        <ele>548.177733</ele>
        <time>2021-03-24T21:44:35.293Z</time>
      </trkpt>
      <trkpt lat="40.386636" lon="-3.506872">
        <ele>548.562226</ele>
        <time>2021-03-24T21:44:50.001Z</time>
      </trkpt>
      <trkpt lat="40.387808" lon="-3.506647">
        <ele>549.101040</ele>
        <time>2021-03-24T21:45:14.351Z</time>
      </trkpt>
      <trkpt lat="40.388129" lon="-3.506585">
        <ele>549.205656</ele>
        <time>2021-03-24T21:45:20.920Z</time>
      </trkpt>
      <trkpt lat="40.388565" lon="-3.506464">
        <ele>549.349344</ele>
        <time>2021-03-24T21:45:29.794Z</time>
      </trkpt>
      <trkpt lat="40.388623" lon="-3.506400">
        <ele>549.373773</ele>
        <time>2021-03-24T21:45:31.317Z</time>
      </trkpt>
      <trkpt lat="40.389168" lon="-3.504890">
        <ele>549.458456</ele>
        <time>2021-03-24T21:45:56.000Z</time>
      </trkpt>
      <trkpt lat="40.389318" lon="-3.504631">
        <ele>549.437936</ele>
        <time>2021-03-24T21:46:00.623Z</time>
      </trkpt>
      <trkpt lat="40.389873" lon="-3.504138">
        <ele>549.382451</ele>
        <time>2021-03-24T21:46:13.092Z</time>
      </trkpt>
      <trkpt lat="40.390440" lon="-3.503856">
        <ele>549.312096</ele>
        <time>2021-03-24T21:46:24.338Z</time>
      </trkpt>
      <trkpt lat="40.391603" lon="-3.503624">
        <ele>549.169904</ele>
        <time>2021-03-24T21:46:46.521Z</time>
      </trkpt>
      <trkpt lat="40.392058" lon="-3.503591">
        <ele>549.285849</ele>
        <time>2021-03-24T21:46:55.419Z</time>
      </trkpt>
      <trkpt lat="40.392409" lon="-3.503671">
        <ele>549.410788</ele>
        <time>2021-03-24T21:47:02.559Z</time>
      </trkpt>
      <trkpt lat="40.392911" lon="-3.503876">
        <ele>549.595161</ele>
        <time>2021-03-24T21:47:13.193Z</time>
      </trkpt>
      <trkpt lat="40.393282" lon="-3.503940">
        <ele>549.726391</ele>
        <time>2021-03-24T21:47:20.770Z</time>
      </trkpt>
      <trkpt lat="40.393467" lon="-3.503927">
        <ele>549.792696</ele>
        <time>2021-03-24T21:47:24.617Z</time>
      </trkpt>
      <trkpt lat="40.393512" lon="-3.504007">
        <ele>549.837788</ele>
        <time>2021-03-24T21:47:25.698Z</time>
      </trkpt>
      <trkpt lat="40.393522" lon="-3.504182">
        <ele>549.917355</ele>
        <time>2021-03-24T21:47:27.550Z</time>
      </trkpt>
      <trkpt lat="40.393553" lon="-3.504336">
        <ele>549.989575</ele>
        <time>2021-03-24T21:47:29.331Z</time>
      </trkpt>
      <trkpt lat="40.393652" lon="-3.504591">
        <ele>550.119345</ele>
        <time>2021-03-24T21:47:32.441Z</time>
      </trkpt>
      <trkpt lat="40.393916" lon="-3.504914">
        <ele>550.334160</ele>
        <time>2021-03-24T21:47:37.595Z</time>
      </trkpt>
      <trkpt lat="40.394036" lon="-3.504933">
        <ele>550.406115</ele>
        <time>2021-03-24T21:47:39.326Z</time>
      </trkpt>
      <trkpt lat="40.394228" lon="-3.504862">
        <ele>550.524860</ele>
        <time>2021-03-24T21:47:42.138Z</time>
      </trkpt>
      <trkpt lat="40.394357" lon="-3.504755">
        <ele>550.615694</ele>
        <time>2021-03-24T21:47:44.273Z</time>
      </trkpt>
      <trkpt lat="40.394407" lon="-3.504691">
        <ele>550.657263</ele>
        <time>2021-03-24T21:47:45.295Z</time>
      </trkpt>
      <trkpt lat="40.394549" lon="-3.504575">
        <ele>550.756822</ele>
        <time>2021-03-24T21:47:47.571Z</time>
      </trkpt>
      <trkpt lat="40.394638" lon="-3.504616">
        <ele>550.812970</ele>
        <time>2021-03-24T21:47:48.901Z</time>
      </trkpt>
      <trkpt lat="40.394629" lon="-3.504637">
        <ele>550.823895</ele>
        <time>2021-03-24T21:47:49.135Z</time>
      </trkpt>
      <trkpt lat="40.394726" lon="-3.504701">
        <ele>550.869261</ele>
        <time>2021-03-24T21:47:51.039Z</time>
      </trkpt>
      <trkpt lat="40.396669" lon="-3.505737">
        <ele>551.172512</ele>
        <time>2021-03-24T21:48:23.648Z</time>
      </trkpt>
      <trkpt lat="40.397133" lon="-3.505821">
        <ele>551.131473</ele>
        <time>2021-03-24T21:48:30.485Z</time>
      </trkpt>
      <trkpt lat="40.397322" lon="-3.505755">
        <ele>551.114338</ele>
        <time>2021-03-24T21:48:33.389Z</time>
      </trkpt>
      <trkpt lat="40.397648" lon="-3.505627">
        <ele>551.084525</ele>
        <time>2021-03-24T21:48:38.422Z</time>
      </trkpt>
      <trkpt lat="40.397645" lon="-3.505969">
        <ele>551.061703</ele>
        <time>2021-03-24T21:48:42.349Z</time>
      </trkpt>
      <trkpt lat="40.397648" lon="-3.506151">
        <ele>551.049556</ele>
        <time>2021-03-24T21:48:44.525Z</time>
      </trkpt>
      <trkpt lat="40.397650" lon="-3.506209">
        <ele>551.045681</ele>
        <time>2021-03-24T21:48:45.166Z</time>
      </trkpt>
      <trkpt lat="40.397686" lon="-3.507183">
        <ele>551.115495</ele>
        <time>2021-03-24T21:48:56.695Z</time>
      </trkpt>
      <trkpt lat="40.397744" lon="-3.507694">
        <ele>551.152976</ele>
        <time>2021-03-24T21:49:02.827Z</time>
      </trkpt>
      <trkpt lat="40.397773" lon="-3.508007">
        <ele>551.175850</ele>
        <time>2021-03-24T21:49:06.695Z</time>
      </trkpt>
      <trkpt lat="40.397900" lon="-3.509317">
        <ele>551.111337</ele>
        <time>2021-03-24T21:49:26.164Z</time>
      </trkpt>
      <trkpt lat="40.397934" lon="-3.509701">
        <ele>551.057753</ele>
        <time>2021-03-24T21:49:31.675Z</time>
      </trkpt>
      <trkpt lat="40.397927" lon="-3.509958">
        <ele>551.022108</ele>
        <time>2021-03-24T21:49:35.414Z</time>
      </trkpt>
      <trkpt lat="40.397858" lon="-3.510132">
        <ele>550.994917</ele>
        <time>2021-03-24T21:49:38.113Z</time>
      </trkpt>
      <trkpt lat="40.397676" lon="-3.510342">
        <ele>550.950820</ele>
        <time>2021-03-24T21:49:42.627Z</time>
      </trkpt>
      <trkpt lat="40.397583" lon="-3.510376">
        <ele>550.933250</ele>
        <time>2021-03-24T21:49:44.327Z</time>
      </trkpt>
      <trkpt lat="40.397515" lon="-3.510391">
        <ele>550.920700</ele>
        <time>2021-03-24T21:49:45.602Z</time>
      </trkpt>
      <trkpt lat="40.397411" lon="-3.510376">
        <ele>550.901658</ele>
        <time>2021-03-24T21:49:47.543Z</time>
      </trkpt>
      <trkpt lat="40.396019" lon="-3.509671">
        <ele>550.571590</ele>
        <time>2021-03-24T21:50:15.164Z</time>
      </trkpt>
      <trkpt lat="40.396321" lon="-3.509597">
        <ele>550.503046</ele>
        <time>2021-03-24T21:50:21.035Z</time>
      </trkpt>
      <trkpt lat="40.397055" lon="-3.509546">
        <ele>550.507637</ele>
        <time>2021-03-24T21:50:35.117Z</time>
      </trkpt>
      <trkpt lat="40.397403" lon="-3.509429">
        <ele>550.518261</ele>
        <time>2021-03-24T21:50:42.034Z</time>
      </trkpt>
      <trkpt lat="40.397752" lon="-3.509200">
        <ele>550.529800</ele>
        <time>2021-03-24T21:50:49.570Z</time>
      </trkpt>
      <trkpt lat="40.398340" lon="-3.509062">
        <ele>550.535490</ele>
        <time>2021-03-24T21:51:01.029Z</time>
      </trkpt>
      <trkpt lat="40.398408" lon="-3.509029">
        <ele>550.533601</ele>
        <time>2021-03-24T21:51:02.419Z</time>
      </trkpt>
      <trkpt lat="40.398340" lon="-3.509062">
        <ele>550.531711</ele>
        <time>2021-03-24T21:51:03.787Z</time>
      </trkpt>
      <trkpt lat="40.397752" lon="-3.509200">
        <ele>550.516140</ele>
        <time>2021-03-24T21:51:15.104Z</time>
      </trkpt>
      <trkpt lat="40.397403" lon="-3.509429">
        <ele>550.505969</ele>
        <time>2021-03-24T21:51:22.478Z</time>
      </trkpt>
      <trkpt lat="40.397055" lon="-3.509546">
        <ele>550.496605</ele>
        <time>2021-03-24T21:51:29.283Z</time>
      </trkpt>
      <trkpt lat="40.396321" lon="-3.509597">
        <ele>550.419528</ele>
        <time>2021-03-24T21:51:43.224Z</time>
      </trkpt>
      <trkpt lat="40.396019" lon="-3.509671">
        <ele>550.383860</ele>
        <time>2021-03-24T21:51:49.035Z</time>
      </trkpt>
      <trkpt lat="40.397411" lon="-3.510376">
        <ele>550.159307</ele>
        <time>2021-03-24T21:52:16.989Z</time>
      </trkpt>
      <trkpt lat="40.397515" lon="-3.510391">
        <ele>550.138817</ele>
        <time>2021-03-24T21:52:18.956Z</time>
      </trkpt>
      <trkpt lat="40.397583" lon="-3.510376">
        <ele>550.125313</ele>
        <time>2021-03-24T21:52:20.292Z</time>
      </trkpt>
      <trkpt lat="40.397594" lon="-3.510429">
        <ele>550.117120</ele>
        <time>2021-03-24T21:52:21.016Z</time>
      </trkpt>
      <trkpt lat="40.399124" lon="-3.511196">
        <ele>550.000445</ele>
        <time>2021-03-24T21:52:51.708Z</time>
      </trkpt>
      <trkpt lat="40.399470" lon="-3.511286">
        <ele>550.034439</ele>
        <time>2021-03-24T21:52:58.523Z</time>
      </trkpt>
      <trkpt lat="40.400379" lon="-3.511347">
        <ele>550.165256</ele>
        <time>2021-03-24T21:53:16.561Z</time>
      </trkpt>
      <trkpt lat="40.400741" lon="-3.511353">
        <ele>550.296127</ele>
        <time>2021-03-24T21:53:23.862Z</time>
      </trkpt>
      <trkpt lat="40.403525" lon="-3.511587">
        <ele>551.363678</ele>
        <time>2021-03-24T21:54:19.974Z</time>
      </trkpt>
      <trkpt lat="40.404790" lon="-3.511524">
        <ele>551.981616</ele>
        <time>2021-03-24T21:54:46.328Z</time>
      </trkpt>
      <trkpt lat="40.406415" lon="-3.511415">
        <ele>552.689150</ele>
        <time>2021-03-24T21:55:19.713Z</time>
      </trkpt>
      <trkpt lat="40.406238" lon="-3.509780">
        <ele>553.082076</ele>
        <time>2021-03-24T21:55:44.587Z</time>
      </trkpt>
      <trkpt lat="40.406368" lon="-3.509733">
        <ele>553.102821</ele>
        <time>2021-03-24T21:55:47.364Z</time>
      </trkpt>
      <trkpt lat="40.406439" lon="-3.509726">
        <ele>553.113775</ele>
        <time>2021-03-24T21:55:48.714Z</time>
      </trkpt>
      <trkpt lat="40.406694" lon="-3.510144">
        <ele>553.176522</ele>
        <time>2021-03-24T21:55:56.514Z</time>
      </trkpt>
      <trkpt lat="40.406769" lon="-3.510399">
        <ele>553.208546</ele>
        <time>2021-03-24T21:56:00.610Z</time>
      </trkpt>
      <trkpt lat="40.407050" lon="-3.510954">
        <ele>553.286626</ele>
        <time>2021-03-24T21:56:10.617Z</time>
      </trkpt>
      <trkpt lat="40.407596" lon="-3.511463">
        <ele>553.225821</ele>
        <time>2021-03-24T21:56:23.747Z</time>
      </trkpt>
      <trkpt lat="40.407915" lon="-3.511662">
        <ele>553.157249</ele>
        <time>2021-03-24T21:56:30.419Z</time>
      </trkpt>
      <trkpt lat="40.408317" lon="-3.511836">
        <ele>553.075063</ele>
        <time>2021-03-24T21:56:38.303Z</time>
      </trkpt>
      <trkpt lat="40.408565" lon="-3.511804">
        <ele>553.026678</ele>
        <time>2021-03-24T21:56:42.879Z</time>
      </trkpt>
      <trkpt lat="40.410072" lon="-3.511865">
        <ele>552.276025</ele>
        <time>2021-03-24T21:57:10.028Z</time>
      </trkpt>
      <trkpt lat="40.410275" lon="-3.511821">
        <ele>552.157919</ele>
        <time>2021-03-24T21:57:13.743Z</time>
      </trkpt>
      <trkpt lat="40.410754" lon="-3.512018">
        <ele>551.939026</ele>
        <time>2021-03-24T21:57:22.866Z</time>
      </trkpt>
      <trkpt lat="40.410911" lon="-3.512228">
        <ele>551.945941</ele>
        <time>2021-03-24T21:57:27.006Z</time>
      </trkpt>
      <trkpt lat="40.411053" lon="-3.512275">
        <ele>551.950460</ele>
        <time>2021-03-24T21:57:29.714Z</time>
      </trkpt>
      <trkpt lat="40.411147" lon="-3.512320">
        <ele>551.953548</ele>
        <time>2021-03-24T21:57:31.563Z</time>
      </trkpt>
      <trkpt lat="40.411225" lon="-3.512349">
        <ele>551.956049</ele>
        <time>2021-03-24T21:57:33.106Z</time>
      </trkpt>
      <trkpt lat="40.411545" lon="-3.512265">
        <ele>551.966120</ele>
        <time>2021-03-24T21:57:39.236Z</time>
      </trkpt>
      <trkpt lat="40.411897" lon="-3.512433">
        <ele>551.977677</ele>
        <time>2021-03-24T21:57:46.432Z</time>
      </trkpt>
      <trkpt lat="40.412481" lon="-3.512498">
        <ele>552.136622</ele>
        <time>2021-03-24T21:57:58.552Z</time>
      </trkpt>
      <trkpt lat="40.412953" lon="-3.512352">
        <ele>552.593948</ele>
        <time>2021-03-24T21:58:09.172Z</time>
      </trkpt>
      <trkpt lat="40.413109" lon="-3.512463">
        <ele>552.761276</ele>
        <time>2021-03-24T21:58:13.038Z</time>
      </trkpt>
      <trkpt lat="40.413338" lon="-3.512876">
        <ele>553.128146</ele>
        <time>2021-03-24T21:58:21.647Z</time>
      </trkpt>
      <trkpt lat="40.413412" lon="-3.512945">
        <ele>553.213735</ele>
        <time>2021-03-24T21:58:23.823Z</time>
      </trkpt>
      <trkpt lat="40.413396" lon="-3.513221">
        <ele>553.412495</ele>
        <time>2021-03-24T21:58:27.578Z</time>
      </trkpt>
      <trkpt lat="40.413396" lon="-3.513221">
        <ele>553.412495</ele>
        <time>2021-03-24T21:58:27.600Z</time>
      </trkpt>
      <trkpt lat="40.413383" lon="-3.513329">
        <ele>553.491010</ele>
        <time>2021-03-24T21:58:29.121Z</time>
      </trkpt>
      <trkpt lat="40.413383" lon="-3.513370">
        <ele>553.520451</ele>
        <time>2021-03-24T21:58:29.788Z</time>
      </trkpt>
      <trkpt lat="40.413385" lon="-3.513458">
        <ele>553.583669</ele>
        <time>2021-03-24T21:58:31.000Z</time>
      </trkpt>
      <trkpt lat="40.413995" lon="-3.517002">
        <ele>556.734722</ele>
        <time>2021-03-24T21:59:22.075Z</time>
      </trkpt>
      <trkpt lat="40.414068" lon="-3.517170">
        <ele>556.917541</ele>
        <time>2021-03-24T21:59:24.921Z</time>
      </trkpt>
      <trkpt lat="40.414778" lon="-3.518130">
        <ele>558.166234</ele>
        <time>2021-03-24T21:59:44.842Z</time>
      </trkpt>
      <trkpt lat="40.415530" lon="-3.519034">
        <ele>559.358396</ele>
        <time>2021-03-24T22:00:04.738Z</time>
      </trkpt>
      <trkpt lat="40.418191" lon="-3.520789">
        <ele>560.908098</ele>
        <time>2021-03-24T22:00:55.113Z</time>
      </trkpt>
      <trkpt lat="40.418368" lon="-3.520842">
        <ele>560.853218</ele>
        <time>2021-03-24T22:00:57.708Z</time>
      </trkpt>
      <trkpt lat="40.418598" lon="-3.520846">
        <ele>560.783683</ele>
        <time>2021-03-24T22:01:00.970Z</time>
      </trkpt>
      <trkpt lat="40.418755" lon="-3.520846">
        <ele>560.736222</ele>
        <time>2021-03-24T22:01:03.128Z</time>
      </trkpt>
      <trkpt lat="40.418892" lon="-3.520779">
        <ele>560.692030</ele>
        <time>2021-03-24T22:01:05.156Z</time>
      </trkpt>
      <trkpt lat="40.419092" lon="-3.520818">
        <ele>560.630908</ele>
        <time>2021-03-24T22:01:07.975Z</time>
      </trkpt>
      <trkpt lat="40.419279" lon="-3.520814">
        <ele>560.574371</ele>
        <time>2021-03-24T22:01:10.562Z</time>
      </trkpt>
      <trkpt lat="40.420318" lon="-3.520754">
        <ele>560.241703</ele>
        <time>2021-03-24T22:01:24.879Z</time>
      </trkpt>
      <trkpt lat="40.420461" lon="-3.520745">
        <ele>560.195730</ele>
        <time>2021-03-24T22:01:26.988Z</time>
      </trkpt>
      <trkpt lat="40.422173" lon="-3.520690">
        <ele>560.483510</ele>
        <time>2021-03-24T22:01:55.524Z</time>
      </trkpt>
      <trkpt lat="40.422244" lon="-3.520688">
        <ele>560.518595</ele>
        <time>2021-03-24T22:01:56.788Z</time>
      </trkpt>
      <trkpt lat="40.422742" lon="-3.520598">
        <ele>560.766950</ele>
        <time>2021-03-24T22:02:04.849Z</time>
      </trkpt>
      <trkpt lat="40.422792" lon="-3.520580">
        <ele>560.792564</ele>
        <time>2021-03-24T22:02:05.908Z</time>
      </trkpt>
      <trkpt lat="40.422855" lon="-3.520571">
        <ele>560.823873</ele>
        <time>2021-03-24T22:02:07.028Z</time>
      </trkpt>
      <trkpt lat="40.423010" lon="-3.520573">
        <ele>560.874428</ele>
        <time>2021-03-24T22:02:10.179Z</time>
      </trkpt>
      <trkpt lat="40.423145" lon="-3.520583">
        <ele>560.892979</ele>
        <time>2021-03-24T22:02:12.818Z</time>
      </trkpt>
      <trkpt lat="40.423189" lon="-3.520735">
        <ele>560.909964</ele>
        <time>2021-03-24T22:02:15.050Z</time>
      </trkpt>
      <trkpt lat="40.423228" lon="-3.520693">
        <ele>560.916883</ele>
        <time>2021-03-24T22:02:15.677Z</time>
      </trkpt>
      <trkpt lat="40.423310" lon="-3.520636">
        <ele>560.929611</ele>
        <time>2021-03-24T22:02:16.697Z</time>
      </trkpt>
      <trkpt lat="40.423389" lon="-3.520614">
        <ele>560.940691</ele>
        <time>2021-03-24T22:02:17.654Z</time>
      </trkpt>
      <trkpt lat="40.423528" lon="-3.520643">
        <ele>560.960000</ele>
        <time>2021-03-24T22:02:19.693Z</time>
      </trkpt>
      <trkpt lat="40.423577" lon="-3.520676">
        <ele>560.967555</ele>
        <time>2021-03-24T22:02:20.331Z</time>
      </trkpt>
      <trkpt lat="40.423601" lon="-3.520699">
        <ele>560.971631</ele>
        <time>2021-03-24T22:02:20.683Z</time>
      </trkpt>
      <trkpt lat="40.423643" lon="-3.520751">
        <ele>560.979549</ele>
        <time>2021-03-24T22:02:21.300Z</time>
      </trkpt>
      <trkpt lat="40.423682" lon="-3.520827">
        <ele>560.989122</ele>
        <time>2021-03-24T22:02:22.108Z</time>
      </trkpt>
      <trkpt lat="40.423813" lon="-3.520914">
        <ele>561.009261</ele>
        <time>2021-03-24T22:02:24.100Z</time>
      </trkpt>
      <trkpt lat="40.424822" lon="-3.521405">
        <ele>561.090600</ele>
        <time>2021-03-24T22:02:36.063Z</time>
      </trkpt>
      <trkpt lat="40.427108" lon="-3.523306">
        <ele>560.882121</ele>
        <time>2021-03-24T22:03:07.147Z</time>
      </trkpt>
      <trkpt lat="40.427194" lon="-3.523333">
        <ele>560.873716</ele>
        <time>2021-03-24T22:03:08.189Z</time>
      </trkpt>
      <trkpt lat="40.427262" lon="-3.523338">
        <ele>560.867242</ele>
        <time>2021-03-24T22:03:08.914Z</time>
      </trkpt>
      <trkpt lat="40.427315" lon="-3.523330">
        <ele>560.862170</ele>
        <time>2021-03-24T22:03:09.502Z</time>
      </trkpt>
      <trkpt lat="40.427380" lon="-3.523326">
        <ele>560.855985</ele>
        <time>2021-03-24T22:03:10.224Z</time>
      </trkpt>
      <trkpt lat="40.427425" lon="-3.523299">
        <ele>560.851282</ele>
        <time>2021-03-24T22:03:10.742Z</time>
      </trkpt>
      <trkpt lat="40.427522" lon="-3.523284">
        <ele>560.841998</ele>
        <time>2021-03-24T22:03:11.831Z</time>
      </trkpt>
      <trkpt lat="40.427570" lon="-3.523296">
        <ele>560.837354</ele>
        <time>2021-03-24T22:03:12.381Z</time>
      </trkpt>
      <trkpt lat="40.427615" lon="-3.523322">
        <ele>560.832681</ele>
        <time>2021-03-24T22:03:12.896Z</time>
      </trkpt>
      <trkpt lat="40.427655" lon="-3.523359">
        <ele>560.824785</ele>
        <time>2021-03-24T22:03:13.439Z</time>
      </trkpt>
      <trkpt lat="40.427775" lon="-3.523334">
        <ele>560.775161</ele>
        <time>2021-03-24T22:03:14.755Z</time>
      </trkpt>
      <trkpt lat="40.427903" lon="-3.523237">
        <ele>560.714806</ele>
        <time>2021-03-24T22:03:16.410Z</time>
      </trkpt>
      <trkpt lat="40.427938" lon="-3.523180">
        <ele>560.692037</ele>
        <time>2021-03-24T22:03:16.984Z</time>
      </trkpt>
      <trkpt lat="40.428226" lon="-3.522429">
        <ele>560.430588</ele>
        <time>2021-03-24T22:03:24.008Z</time>
      </trkpt>
      <trkpt lat="40.428351" lon="-3.522223">
        <ele>560.348681</ele>
        <time>2021-03-24T22:03:26.154Z</time>
      </trkpt>
      <trkpt lat="40.428412" lon="-3.522181">
        <ele>560.320552</ele>
        <time>2021-03-24T22:03:26.863Z</time>
      </trkpt>
      <trkpt lat="40.428476" lon="-3.522229">
        <ele>560.290452</ele>
        <time>2021-03-24T22:03:27.668Z</time>
      </trkpt>
      <trkpt lat="40.428706" lon="-3.522399">
        <ele>560.182664</ele>
        <time>2021-03-24T22:03:30.461Z</time>
      </trkpt>
      <trkpt lat="40.429397" lon="-3.522934">
        <ele>559.991191</ele>
        <time>2021-03-24T22:03:39.051Z</time>
      </trkpt>
      <trkpt lat="40.430182" lon="-3.523553">
        <ele>559.829946</ele>
        <time>2021-03-24T22:03:49.119Z</time>
      </trkpt>
      <trkpt lat="40.430925" lon="-3.524131">
        <ele>560.296687</ele>
        <time>2021-03-24T22:04:00.579Z</time>
      </trkpt>
      <trkpt lat="40.431012" lon="-3.524200">
        <ele>560.389829</ele>
        <time>2021-03-24T22:04:02.034Z</time>
      </trkpt>
      <trkpt lat="40.431323" lon="-3.524450">
        <ele>560.723999</ele>
        <time>2021-03-24T22:04:07.432Z</time>
      </trkpt>
      <trkpt lat="40.431343" lon="-3.524424">
        <ele>560.749787</ele>
        <time>2021-03-24T22:04:07.922Z</time>
      </trkpt>
      <trkpt lat="40.431445" lon="-3.524434">
        <ele>560.843534</ele>
        <time>2021-03-24T22:04:09.433Z</time>
      </trkpt>
      <trkpt lat="40.431469" lon="-3.524534">
        <ele>560.916685</ele>
        <time>2021-03-24T22:04:10.606Z</time>
      </trkpt>
      <trkpt lat="40.431459" lon="-3.524568">
        <ele>560.942114</ele>
        <time>2021-03-24T22:04:11.078Z</time>
      </trkpt>
      <trkpt lat="40.431594" lon="-3.524666">
        <ele>561.083479</ele>
        <time>2021-03-24T22:04:13.553Z</time>
      </trkpt>
      <trkpt lat="40.432098" lon="-3.525022">
        <ele>561.554521</ele>
        <time>2021-03-24T22:04:26.453Z</time>
      </trkpt>
      <trkpt lat="40.432531" lon="-3.525328">
        <ele>561.872735</ele>
        <time>2021-03-24T22:04:37.478Z</time>
      </trkpt>
      <trkpt lat="40.432669" lon="-3.525445">
        <ele>561.979033</ele>
        <time>2021-03-24T22:04:41.086Z</time>
      </trkpt>
      <trkpt lat="40.433989" lon="-3.526483">
        <ele>562.776070</ele>
        <time>2021-03-24T22:05:11.508Z</time>
      </trkpt>
      <trkpt lat="40.434740" lon="-3.527205">
        <ele>563.067202</ele>
        <time>2021-03-24T22:05:30.255Z</time>
      </trkpt>
      <trkpt lat="40.435312" lon="-3.527646">
        <ele>563.301517</ele>
        <time>2021-03-24T22:05:43.494Z</time>
      </trkpt>
      <trkpt lat="40.435352" lon="-3.527647">
        <ele>563.316792</ele>
        <time>2021-03-24T22:05:44.311Z</time>
      </trkpt>
      <trkpt lat="40.435379" lon="-3.527736">
        <ele>563.344633</ele>
        <time>2021-03-24T22:05:45.701Z</time>
      </trkpt>
      <trkpt lat="40.435501" lon="-3.527871">
        <ele>563.405531</ele>
        <time>2021-03-24T22:05:48.728Z</time>
      </trkpt>
      <trkpt lat="40.435501" lon="-3.527935">
        <ele>563.424128</ele>
        <time>2021-03-24T22:05:49.834Z</time>
      </trkpt>
      <trkpt lat="40.435552" lon="-3.528134">
        <ele>563.485146</ele>
        <time>2021-03-24T22:05:53.076Z</time>
      </trkpt>
      <trkpt lat="40.435645" lon="-3.528261">
        <ele>563.536358</ele>
        <time>2021-03-24T22:05:55.629Z</time>
      </trkpt>
      <trkpt lat="40.435731" lon="-3.528315">
        <ele>563.572749</ele>
        <time>2021-03-24T22:05:57.769Z</time>
      </trkpt>
      <trkpt lat="40.435827" lon="-3.528322">
        <ele>563.609457</ele>
        <time>2021-03-24T22:05:59.704Z</time>
      </trkpt>
      <trkpt lat="40.436174" lon="-3.528307">
        <ele>563.742009</ele>
        <time>2021-03-24T22:06:06.889Z</time>
      </trkpt>
      <trkpt lat="40.436253" lon="-3.528383">
        <ele>563.779391</ele>
        <time>2021-03-24T22:06:08.751Z</time>
      </trkpt>
      <trkpt lat="40.436317" lon="-3.528483">
        <ele>563.817358</ele>
        <time>2021-03-24T22:06:10.790Z</time>
      </trkpt>
      <trkpt lat="40.436588" lon="-3.528503">
        <ele>563.942456</ele>
        <time>2021-03-24T22:06:16.499Z</time>
      </trkpt>
      <trkpt lat="40.437015" lon="-3.528753">
        <ele>564.168033</ele>
        <time>2021-03-24T22:06:26.174Z</time>
      </trkpt>
      <trkpt lat="40.437441" lon="-3.529090">
        <ele>564.407982</ele>
        <time>2021-03-24T22:06:36.021Z</time>
      </trkpt>
      <trkpt lat="40.439140" lon="-3.530121">
        <ele>565.352816</ele>
        <time>2021-03-24T22:07:15.275Z</time>
      </trkpt>
      <trkpt lat="40.439763" lon="-3.530622">
        <ele>565.688002</ele>
        <time>2021-03-24T22:07:29.823Z</time>
      </trkpt>
      <trkpt lat="40.440056" lon="-3.530826">
        <ele>565.783337</ele>
        <time>2021-03-24T22:07:36.373Z</time>
      </trkpt>
      <trkpt lat="40.440183" lon="-3.530805">
        <ele>565.820138</ele>
        <time>2021-03-24T22:07:38.821Z</time>
      </trkpt>
      <trkpt lat="40.440461" lon="-3.530778">
        <ele>565.900282</ele>
        <time>2021-03-24T22:07:44.328Z</time>
      </trkpt>
      <trkpt lat="40.441097" lon="-3.530922">
        <ele>566.085829</ele>
        <time>2021-03-24T22:07:57.060Z</time>
      </trkpt>
      <trkpt lat="40.442084" lon="-3.531339">
        <ele>566.537006</ele>
        <time>2021-03-24T22:08:18.088Z</time>
      </trkpt>
      <trkpt lat="40.442580" lon="-3.531689">
        <ele>566.806042</ele>
        <time>2021-03-24T22:08:29.757Z</time>
      </trkpt>
      <trkpt lat="40.443776" lon="-3.532119">
        <ele>567.982967</ele>
        <time>2021-03-24T22:08:55.216Z</time>
      </trkpt>
      <trkpt lat="40.443893" lon="-3.532161">
        <ele>568.128583</ele>
        <time>2021-03-24T22:08:58.835Z</time>
      </trkpt>
      <trkpt lat="40.443949" lon="-3.532187">
        <ele>568.199889</ele>
        <time>2021-03-24T22:09:00.099Z</time>
      </trkpt>
      <trkpt lat="40.444050" lon="-3.532223">
        <ele>568.325529</ele>
        <time>2021-03-24T22:09:02.584Z</time>
      </trkpt>
      <trkpt lat="40.444187" lon="-3.532273">
        <ele>568.496235</ele>
        <time>2021-03-24T22:09:05.803Z</time>
      </trkpt>
      <trkpt lat="40.444581" lon="-3.532208">
        <ele>568.972977</ele>
        <time>2021-03-24T22:09:16.154Z</time>
      </trkpt>
      <trkpt lat="40.444615" lon="-3.532188">
        <ele>569.017701</ele>
        <time>2021-03-24T22:09:16.718Z</time>
      </trkpt>
      <trkpt lat="40.444670" lon="-3.532377">
        <ele>569.208851</ele>
        <time>2021-03-24T22:09:20.402Z</time>
      </trkpt>
      <trkpt lat="40.444727" lon="-3.532748">
        <ele>569.624627</ele>
        <time>2021-03-24T22:09:27.257Z</time>
      </trkpt>
      <trkpt lat="40.444707" lon="-3.533001">
        <ele>569.904049</ele>
        <time>2021-03-24T22:09:31.256Z</time>
      </trkpt>
      <trkpt lat="40.444713" lon="-3.533043">
        <ele>569.950993</ele>
        <time>2021-03-24T22:09:33.141Z</time>
      </trkpt>
      <trkpt lat="40.444741" lon="-3.533096">
        <ele>570.021868</ele>
        <time>2021-03-24T22:09:33.905Z</time>
      </trkpt>
      <trkpt lat="40.444762" lon="-3.533068">
        <ele>570.065054</ele>
        <time>2021-03-24T22:09:34.472Z</time>
      </trkpt>
      <trkpt lat="40.444791" lon="-3.533041">
        <ele>570.116357</ele>
        <time>2021-03-24T22:09:35.047Z</time>
      </trkpt>
      <trkpt lat="40.444823" lon="-3.533021">
        <ele>570.167507</ele>
        <time>2021-03-24T22:09:35.601Z</time>
      </trkpt>
      <trkpt lat="40.444911" lon="-3.532999">
        <ele>570.296811</ele>
        <time>2021-03-24T22:09:36.766Z</time>
      </trkpt>
      <trkpt lat="40.444998" lon="-3.533020">
        <ele>570.424494</ele>
        <time>2021-03-24T22:09:37.766Z</time>
      </trkpt>
      <trkpt lat="40.445023" lon="-3.533036">
        <ele>570.464633</ele>
        <time>2021-03-24T22:09:39.099Z</time>
      </trkpt>
      <trkpt lat="40.445047" lon="-3.533055">
        <ele>570.505078</ele>
        <time>2021-03-24T22:09:39.400Z</time>
      </trkpt>
      <trkpt lat="40.445100" lon="-3.533121">
        <ele>570.610479</ele>
        <time>2021-03-24T22:09:40.276Z</time>
      </trkpt>
      <trkpt lat="40.445130" lon="-3.533187">
        <ele>570.694930</ele>
        <time>2021-03-24T22:09:41.436Z</time>
      </trkpt>
      <trkpt lat="40.445172" lon="-3.533229">
        <ele>570.771115</ele>
        <time>2021-03-24T22:09:42.338Z</time>
      </trkpt>
      <trkpt lat="40.445318" lon="-3.533261">
        <ele>570.984773</ele>
        <time>2021-03-24T22:09:45.063Z</time>
      </trkpt>
      <trkpt lat="40.445453" lon="-3.533237">
        <ele>571.181416</ele>
        <time>2021-03-24T22:09:46.961Z</time>
      </trkpt>
      <trkpt lat="40.445481" lon="-3.533231">
        <ele>571.222367</ele>
        <time>2021-03-24T22:09:47.554Z</time>
      </trkpt>
      <trkpt lat="40.445522" lon="-3.533221">
        <ele>571.282560</ele>
        <time>2021-03-24T22:09:48.310Z</time>
      </trkpt>
      <trkpt lat="40.446222" lon="-3.532933">
        <ele>572.021307</ele>
        <time>2021-03-24T22:09:59.260Z</time>
      </trkpt>
      <trkpt lat="40.446292" lon="-3.532934">
        <ele>572.065962</ele>
        <time>2021-03-24T22:10:00.176Z</time>
      </trkpt>
      <trkpt lat="40.446392" lon="-3.532937">
        <ele>572.129769</ele>
        <time>2021-03-24T22:10:01.317Z</time>
      </trkpt>
      <trkpt lat="40.446465" lon="-3.532950">
        <ele>572.176761</ele>
        <time>2021-03-24T22:10:02.192Z</time>
      </trkpt>
      <trkpt lat="40.446649" lon="-3.533043">
        <ele>572.302518</ele>
        <time>2021-03-24T22:10:04.737Z</time>
      </trkpt>
      <trkpt lat="40.446784" lon="-3.533196">
        <ele>572.416239</ele>
        <time>2021-03-24T22:10:06.891Z</time>
      </trkpt>
      <trkpt lat="40.446855" lon="-3.533322">
        <ele>572.492348</ele>
        <time>2021-03-24T22:10:08.457Z</time>
      </trkpt>
      <trkpt lat="40.446907" lon="-3.533430">
        <ele>572.554388</ele>
        <time>2021-03-24T22:10:09.862Z</time>
      </trkpt>
      <trkpt lat="40.446953" lon="-3.533720">
        <ele>572.698193</ele>
        <time>2021-03-24T22:10:12.723Z</time>
      </trkpt>
      <trkpt lat="40.446928" lon="-3.533978">
        <ele>572.824449</ele>
        <time>2021-03-24T22:10:15.248Z</time>
      </trkpt>
      <trkpt lat="40.446886" lon="-3.534351">
        <ele>572.922693</ele>
        <time>2021-03-24T22:10:19.124Z</time>
      </trkpt>
      <trkpt lat="40.446882" lon="-3.534527">
        <ele>572.929614</ele>
        <time>2021-03-24T22:10:20.685Z</time>
      </trkpt>
      <trkpt lat="40.446879" lon="-3.534636">
        <ele>572.933901</ele>
        <time>2021-03-24T22:10:21.807Z</time>
      </trkpt>
      <trkpt lat="40.446889" lon="-3.534918">
        <ele>572.944997</ele>
        <time>2021-03-24T22:10:24.596Z</time>
      </trkpt>
      <trkpt lat="40.446908" lon="-3.535054">
        <ele>572.950432</ele>
        <time>2021-03-24T22:10:25.937Z</time>
      </trkpt>
      <trkpt lat="40.446923" lon="-3.535164">
        <ele>572.954824</ele>
        <time>2021-03-24T22:10:27.002Z</time>
      </trkpt>
      <trkpt lat="40.446976" lon="-3.535234">
        <ele>572.958705</ele>
        <time>2021-03-24T22:10:28.056Z</time>
      </trkpt>
      <trkpt lat="40.447016" lon="-3.535288">
        <ele>572.961667</ele>
        <time>2021-03-24T22:10:28.738Z</time>
      </trkpt>
      <trkpt lat="40.447055" lon="-3.535307">
        <ele>572.963816</ele>
        <time>2021-03-24T22:10:29.201Z</time>
      </trkpt>
      <trkpt lat="40.447174" lon="-3.535323">
        <ele>572.969994</ele>
        <time>2021-03-24T22:10:30.658Z</time>
      </trkpt>
      <trkpt lat="40.447893" lon="-3.535237">
        <ele>573.007283</ele>
        <time>2021-03-24T22:10:38.600Z</time>
      </trkpt>
      <trkpt lat="40.448463" lon="-3.535268">
        <ele>572.498736</ele>
        <time>2021-03-24T22:10:44.526Z</time>
      </trkpt>
      <trkpt lat="40.448862" lon="-3.535289">
        <ele>572.131760</ele>
        <time>2021-03-24T22:10:48.579Z</time>
      </trkpt>
      <trkpt lat="40.449642" lon="-3.535288">
        <ele>571.414939</ele>
        <time>2021-03-24T22:10:56.387Z</time>
      </trkpt>
      <trkpt lat="40.450920" lon="-3.535185">
        <ele>569.817446</ele>
        <time>2021-03-24T22:11:08.967Z</time>
      </trkpt>
      <trkpt lat="40.452765" lon="-3.534925">
        <ele>567.749442</ele>
        <time>2021-03-24T22:11:27.303Z</time>
      </trkpt>
      <trkpt lat="40.452978" lon="-3.534865">
        <ele>567.521721</ele>
        <time>2021-03-24T22:11:30.351Z</time>
      </trkpt>
      <trkpt lat="40.453087" lon="-3.534685">
        <ele>567.338733</ele>
        <time>2021-03-24T22:11:33.473Z</time>
      </trkpt>
      <trkpt lat="40.454475" lon="-3.533408">
        <ele>566.375209</ele>
        <time>2021-03-24T22:12:04.500Z</time>
      </trkpt>
      <trkpt lat="40.455131" lon="-3.531304">
        <ele>565.361922</ele>
        <time>2021-03-24T22:12:35.810Z</time>
      </trkpt>
      <trkpt lat="40.455136" lon="-3.528618">
        <ele>564.113796</ele>
        <time>2021-03-24T22:13:12.684Z</time>
      </trkpt>
      <trkpt lat="40.455548" lon="-3.527599">
        <ele>564.158330</ele>
        <time>2021-03-24T22:13:29.150Z</time>
      </trkpt>
      <trkpt lat="40.456243" lon="-3.527291">
        <ele>564.231955</ele>
        <time>2021-03-24T22:13:43.706Z</time>
      </trkpt>
      <trkpt lat="40.456336" lon="-3.527325">
        <ele>564.241645</ele>
        <time>2021-03-24T22:13:45.692Z</time>
      </trkpt>
      <trkpt lat="40.458515" lon="-3.529409">
        <ele>565.779284</ele>
        <time>2021-03-24T22:14:43.199Z</time>
      </trkpt>
      <trkpt lat="40.458691" lon="-3.529503">
        <ele>565.838811</ele>
        <time>2021-03-24T22:14:47.010Z</time>
      </trkpt>
      <trkpt lat="40.460587" lon="-3.529866">
        <ele>566.010387</ele>
        <time>2021-03-24T22:15:23.271Z</time>
      </trkpt>
      <trkpt lat="40.461810" lon="-3.529672">
        <ele>565.915869</ele>
        <time>2021-03-24T22:15:46.459Z</time>
      </trkpt>
      <trkpt lat="40.463160" lon="-3.529202">
        <ele>565.874473</ele>
        <time>2021-03-24T22:16:12.914Z</time>
      </trkpt>
      <trkpt lat="40.463734" lon="-3.528937">
        <ele>566.049393</ele>
        <time>2021-03-24T22:16:24.826Z</time>
      </trkpt>
      <trkpt lat="40.464097" lon="-3.528687">
        <ele>566.167222</ele>
        <time>2021-03-24T22:16:32.983Z</time>
      </trkpt>
      <trkpt lat="40.464118" lon="-3.528670">
        <ele>566.174313</ele>
        <time>2021-03-24T22:16:33.389Z</time>
      </trkpt>
      <trkpt lat="40.465108" lon="-3.527823">
        <ele>566.804388</ele>
        <time>2021-03-24T22:16:57.859Z</time>
      </trkpt>
      <trkpt lat="40.466031" lon="-3.527078">
        <ele>567.734478</ele>
        <time>2021-03-24T22:17:21.691Z</time>
      </trkpt>
      <trkpt lat="40.467405" lon="-3.526397">
        <ele>569.106280</ele>
        <time>2021-03-24T22:17:54.112Z</time>
      </trkpt>
      <trkpt lat="40.469039" lon="-3.526696">
        <ele>570.242460</ele>
        <time>2021-03-24T22:18:29.526Z</time>
      </trkpt>
      <trkpt lat="40.470115" lon="-3.528066">
        <ele>570.488462</ele>
        <time>2021-03-24T22:18:59.044Z</time>
      </trkpt>
      <trkpt lat="40.470230" lon="-3.528311">
        <ele>570.450407</ele>
        <time>2021-03-24T22:19:03.120Z</time>
      </trkpt>
      <trkpt lat="40.470376" lon="-3.529272">
        <ele>570.320864</ele>
        <time>2021-03-24T22:19:16.751Z</time>
      </trkpt>
      <trkpt lat="40.470678" lon="-3.529968">
        <ele>569.890590</ele>
        <time>2021-03-24T22:19:27.629Z</time>
      </trkpt>
      <trkpt lat="40.470908" lon="-3.530302">
        <ele>569.641761</ele>
        <time>2021-03-24T22:19:33.712Z</time>
      </trkpt>
      <trkpt lat="40.471522" lon="-3.530942">
        <ele>569.072836</ele>
        <time>2021-03-24T22:19:47.724Z</time>
      </trkpt>
      <trkpt lat="40.471949" lon="-3.531284">
        <ele>568.902304</ele>
        <time>2021-03-24T22:19:56.770Z</time>
      </trkpt>
      <trkpt lat="40.474321" lon="-3.532640">
        <ele>568.627207</ele>
        <time>2021-03-24T22:20:45.483Z</time>
      </trkpt>
      <trkpt lat="40.474615" lon="-3.532951">
        <ele>568.654717</ele>
        <time>2021-03-24T22:20:53.007Z</time>
      </trkpt>
      <trkpt lat="40.475942" lon="-3.535152">
        <ele>569.674260</ele>
        <time>2021-03-24T22:21:37.196Z</time>
      </trkpt>
      <trkpt lat="40.476541" lon="-3.535842">
        <ele>570.017064</ele>
        <time>2021-03-24T22:21:53.757Z</time>
      </trkpt>
      <trkpt lat="40.477107" lon="-3.536670">
        <ele>570.381548</ele>
        <time>2021-03-24T22:22:10.881Z</time>
      </trkpt>
      <trkpt lat="40.477429" lon="-3.537002">
        <ele>570.339969</ele>
        <time>2021-03-24T22:22:18.924Z</time>
      </trkpt>
      <trkpt lat="40.477662" lon="-3.537163">
        <ele>570.299706</ele>
        <time>2021-03-24T22:22:23.972Z</time>
      </trkpt>
      <trkpt lat="40.478782" lon="-3.537426">
        <ele>570.125681</ele>
        <time>2021-03-24T22:22:45.075Z</time>
      </trkpt>
      <trkpt lat="40.479477" lon="-3.537286">
        <ele>569.811126</ele>
        <time>2021-03-24T22:22:57.799Z</time>
      </trkpt>
      <trkpt lat="40.480045" lon="-3.537077">
        <ele>569.540983</ele>
        <time>2021-03-24T22:23:08.479Z</time>
      </trkpt>
      <trkpt lat="40.480577" lon="-3.537061">
        <ele>569.298243</ele>
        <time>2021-03-24T22:23:18.231Z</time>
      </trkpt>
      <trkpt lat="40.481369" lon="-3.536861">
        <ele>569.337302</ele>
        <time>2021-03-24T22:23:33.406Z</time>
      </trkpt>
      <trkpt lat="40.481905" lon="-3.536949">
        <ele>569.363463</ele>
        <time>2021-03-24T22:23:43.944Z</time>
      </trkpt>
      <trkpt lat="40.483386" lon="-3.537560">
        <ele>569.846418</ele>
        <time>2021-03-24T22:24:15.232Z</time>
      </trkpt>
      <trkpt lat="40.486074" lon="-3.537645">
        <ele>571.184226</ele>
        <time>2021-03-24T22:25:10.402Z</time>
      </trkpt>
      <trkpt lat="40.486243" lon="-3.537864">
        <ele>571.350199</ele>
        <time>2021-03-24T22:25:15.412Z</time>
      </trkpt>
      <trkpt lat="40.486697" lon="-3.538778">
        <ele>571.930946</ele>
        <time>2021-03-24T22:25:33.176Z</time>
      </trkpt>
      <trkpt lat="40.487553" lon="-3.539821">
        <ele>572.508577</ele>
        <time>2021-03-24T22:25:57.930Z</time>
      </trkpt>
      <trkpt lat="40.487699" lon="-3.540201">
        <ele>572.612309</ele>
        <time>2021-03-24T22:26:04.466Z</time>
      </trkpt>
      <trkpt lat="40.487792" lon="-3.540688">
        <ele>572.734651</ele>
        <time>2021-03-24T22:26:11.917Z</time>
      </trkpt>
      <trkpt lat="40.488097" lon="-3.541425">
        <ele>572.857275</ele>
        <time>2021-03-24T22:26:24.089Z</time>
      </trkpt>
      <trkpt lat="40.488139" lon="-3.541703">
        <ele>572.825415</ele>
        <time>2021-03-24T22:26:28.149Z</time>
      </trkpt>
      <trkpt lat="40.488302" lon="-3.542228">
        <ele>572.761673</ele>
        <time>2021-03-24T22:26:36.220Z</time>
      </trkpt>
      <trkpt lat="40.489124" lon="-3.543968">
        <ele>572.601972</ele>
        <time>2021-03-24T22:27:05.391Z</time>
      </trkpt>
      <trkpt lat="40.489360" lon="-3.544129">
        <ele>572.594972</ele>
        <time>2021-03-24T22:27:10.610Z</time>
      </trkpt>
      <trkpt lat="40.489772" lon="-3.544116">
        <ele>572.584122</ele>
        <time>2021-03-24T22:27:18.466Z</time>
      </trkpt>
      <trkpt lat="40.490575" lon="-3.543617">
        <ele>572.613535</ele>
        <time>2021-03-24T22:27:35.564Z</time>
      </trkpt>
      <trkpt lat="40.490652" lon="-3.543575">
        <ele>572.623977</ele>
        <time>2021-03-24T22:27:37.305Z</time>
      </trkpt>
      <trkpt lat="40.491014" lon="-3.543321">
        <ele>572.675373</ele>
        <time>2021-03-24T22:27:45.213Z</time>
      </trkpt>
      <trkpt lat="40.491639" lon="-3.542491">
        <ele>572.786640</ele>
        <time>2021-03-24T22:28:02.403Z</time>
      </trkpt>
      <trkpt lat="40.491730" lon="-3.542442">
        <ele>572.806806</ele>
        <time>2021-03-24T22:28:04.370Z</time>
      </trkpt>
      <trkpt lat="40.491822" lon="-3.542437">
        <ele>572.842469</ele>
        <time>2021-03-24T22:28:06.196Z</time>
      </trkpt>
      <trkpt lat="40.492546" lon="-3.542746">
        <ele>573.137282</ele>
        <time>2021-03-24T22:28:21.422Z</time>
      </trkpt>
      <trkpt lat="40.492923" lon="-3.542771">
        <ele>573.283483</ele>
        <time>2021-03-24T22:28:29.174Z</time>
      </trkpt>
      <trkpt lat="40.493763" lon="-3.542619">
        <ele>573.593238</ele>
        <time>2021-03-24T22:28:46.638Z</time>
      </trkpt>
      <trkpt lat="40.494082" lon="-3.542824">
        <ele>573.709390</ele>
        <time>2021-03-24T22:28:53.921Z</time>
      </trkpt>
      <trkpt lat="40.494801" lon="-3.543619">
        <ele>574.016702</ele>
        <time>2021-03-24T22:29:12.814Z</time>
      </trkpt>
      <trkpt lat="40.495425" lon="-3.544797">
        <ele>573.985721</ele>
        <time>2021-03-24T22:29:33.403Z</time>
      </trkpt>
      <trkpt lat="40.496219" lon="-3.546566">
        <ele>573.952718</ele>
        <time>2021-03-24T22:30:02.861Z</time>
      </trkpt>
      <trkpt lat="40.496488" lon="-3.548012">
        <ele>574.058734</ele>
        <time>2021-03-24T22:30:25.222Z</time>
      </trkpt>
      <trkpt lat="40.496711" lon="-3.548618">
        <ele>574.098876</ele>
        <time>2021-03-24T22:30:35.225Z</time>
      </trkpt>
      <trkpt lat="40.496725" lon="-3.548794">
        <ele>574.109404</ele>
        <time>2021-03-24T22:30:38.066Z</time>
      </trkpt>
      <trkpt lat="40.496895" lon="-3.549080">
        <ele>574.131001</ele>
        <time>2021-03-24T22:30:43.309Z</time>
      </trkpt>
      <trkpt lat="40.496870" lon="-3.549380">
        <ele>574.148957</ele>
        <time>2021-03-24T22:30:47.718Z</time>
      </trkpt>
      <trkpt lat="40.497141" lon="-3.549963">
        <ele>574.189610</ele>
        <time>2021-03-24T22:30:57.686Z</time>
      </trkpt>
      <trkpt lat="40.497519" lon="-3.551043">
        <ele>574.290861</ele>
        <time>2021-03-24T22:31:14.820Z</time>
      </trkpt>
      <trkpt lat="40.497759" lon="-3.551516">
        <ele>574.341797</ele>
        <time>2021-03-24T22:31:23.156Z</time>
      </trkpt>
      <trkpt lat="40.497849" lon="-3.551817">
        <ele>574.370769</ele>
        <time>2021-03-24T22:31:27.951Z</time>
      </trkpt>
      <trkpt lat="40.497866" lon="-3.552218">
        <ele>574.406744</ele>
        <time>2021-03-24T22:31:34.131Z</time>
      </trkpt>
      <trkpt lat="40.497621" lon="-3.552836">
        <ele>574.714255</ele>
        <time>2021-03-24T22:31:45.150Z</time>
      </trkpt>
      <trkpt lat="40.498186" lon="-3.553186">
        <ele>575.102427</ele>
        <time>2021-03-24T22:31:58.330Z</time>
      </trkpt>
      <trkpt lat="40.498398" lon="-3.553553">
        <ele>575.320251</ele>
        <time>2021-03-24T22:32:05.757Z</time>
      </trkpt>
      <trkpt lat="40.498655" lon="-3.553961">
        <ele>575.558741</ele>
        <time>2021-03-24T22:32:14.241Z</time>
      </trkpt>
      <trkpt lat="40.498837" lon="-3.554153">
        <ele>575.661530</ele>
        <time>2021-03-24T22:32:19.126Z</time>
      </trkpt>
      <trkpt lat="40.498938" lon="-3.554191">
        <ele>575.707811</ele>
        <time>2021-03-24T22:32:21.295Z</time>
      </trkpt>
      <trkpt lat="40.499094" lon="-3.554162">
        <ele>575.777219</ele>
        <time>2021-03-24T22:32:24.575Z</time>
      </trkpt>
      <trkpt lat="40.499255" lon="-3.554007">
        <ele>575.865121</ele>
        <time>2021-03-24T22:32:28.670Z</time>
      </trkpt>
      <trkpt lat="40.499407" lon="-3.554021">
        <ele>575.932248</ele>
        <time>2021-03-24T22:32:31.849Z</time>
      </trkpt>
      <trkpt lat="40.499697" lon="-3.554377">
        <ele>576.107018</ele>
        <time>2021-03-24T22:32:39.912Z</time>
      </trkpt>
      <trkpt lat="40.499931" lon="-3.554329">
        <ele>576.211352</ele>
        <time>2021-03-24T22:32:44.608Z</time>
      </trkpt>
      <trkpt lat="40.500021" lon="-3.554427">
        <ele>576.262828</ele>
        <time>2021-03-24T22:32:46.921Z</time>
      </trkpt>
      <trkpt lat="40.499888" lon="-3.555154">
        <ele>576.356185</ele>
        <time>2021-03-24T22:32:58.058Z</time>
      </trkpt>
      <trkpt lat="40.499935" lon="-3.555338">
        <ele>576.367764</ele>
        <time>2021-03-24T22:33:00.958Z</time>
      </trkpt>
      <trkpt lat="40.500333" lon="-3.555616">
        <ele>576.403116</ele>
        <time>2021-03-24T22:33:09.646Z</time>
      </trkpt>
      <trkpt lat="40.501192" lon="-3.555983">
        <ele>576.439643</ele>
        <time>2021-03-24T22:33:26.792Z</time>
      </trkpt>
      <trkpt lat="40.501618" lon="-3.556100">
        <ele>576.364550</ele>
        <time>2021-03-24T22:33:34.996Z</time>
      </trkpt>
      <trkpt lat="40.502487" lon="-3.555687">
        <ele>576.205113</ele>
        <time>2021-03-24T22:33:52.311Z</time>
      </trkpt>
      <trkpt lat="40.502949" lon="-3.555398">
        <ele>576.118369</ele>
        <time>2021-03-24T22:34:01.876Z</time>
      </trkpt>
      <trkpt lat="40.503185" lon="-3.555327">
        <ele>576.078372</ele>
        <time>2021-03-24T22:34:06.390Z</time>
      </trkpt>
      <trkpt lat="40.503877" lon="-3.555483">
        <ele>575.962378</ele>
        <time>2021-03-24T22:34:19.504Z</time>
      </trkpt>
      <trkpt lat="40.504073" lon="-3.555481">
        <ele>575.929996</ele>
        <time>2021-03-24T22:34:23.183Z</time>
      </trkpt>
      <trkpt lat="40.504289" lon="-3.555181">
        <ele>575.878095</ele>
        <time>2021-03-24T22:34:29.087Z</time>
      </trkpt>
      <trkpt lat="40.504531" lon="-3.554962">
        <ele>575.867073</ele>
        <time>2021-03-24T22:34:34.644Z</time>
      </trkpt>
      <trkpt lat="40.505822" lon="-3.554705">
        <ele>575.960638</ele>
        <time>2021-03-24T22:34:59.482Z</time>
      </trkpt>
      <trkpt lat="40.508135" lon="-3.553384">
        <ele>577.055442</ele>
        <time>2021-03-24T22:35:50.655Z</time>
      </trkpt>
      <trkpt lat="40.508387" lon="-3.553367">
        <ele>577.248377</ele>
        <time>2021-03-24T22:35:56.200Z</time>
      </trkpt>
      <trkpt lat="40.510154" lon="-3.553563">
        <ele>578.602991</ele>
        <time>2021-03-24T22:36:34.674Z</time>
      </trkpt>
      <trkpt lat="40.510402" lon="-3.553577">
        <ele>578.792285</ele>
        <time>2021-03-24T22:36:39.776Z</time>
      </trkpt>
      <trkpt lat="40.510852" lon="-3.553662">
        <ele>579.138967</ele>
        <time>2021-03-24T22:36:49.663Z</time>
      </trkpt>
      <trkpt lat="40.510922" lon="-3.553831">
        <ele>579.250547</ele>
        <time>2021-03-24T22:36:52.645Z</time>
      </trkpt>
      <trkpt lat="40.511130" lon="-3.553987">
        <ele>579.433138</ele>
        <time>2021-03-24T22:36:57.769Z</time>
      </trkpt>
      <trkpt lat="40.511515" lon="-3.553899">
        <ele>579.718055</ele>
        <time>2021-03-24T22:37:05.789Z</time>
      </trkpt>
      <trkpt lat="40.511967" lon="-3.554144">
        <ele>580.069274</ele>
        <time>2021-03-24T22:37:16.014Z</time>
      </trkpt>
      <trkpt lat="40.512234" lon="-3.554437">
        <ele>580.319084</ele>
        <time>2021-03-24T22:37:23.543Z</time>
      </trkpt>
      <trkpt lat="40.512823" lon="-3.555596">
        <ele>581.055714</ele>
        <time>2021-03-24T22:37:46.266Z</time>
      </trkpt>
      <trkpt lat="40.513184" lon="-3.556171">
        <ele>581.427314</ele>
        <time>2021-03-24T22:37:58.404Z</time>
      </trkpt>
      <trkpt lat="40.513940" lon="-3.556890">
        <ele>581.986422</ele>
        <time>2021-03-24T22:38:17.969Z</time>
      </trkpt>
      <trkpt lat="40.514210" lon="-3.556976">
        <ele>582.015631</ele>
        <time>2021-03-24T22:38:23.614Z</time>
      </trkpt>
      <trkpt lat="40.515121" lon="-3.556654">
        <ele>582.114815</ele>
        <time>2021-03-24T22:38:41.931Z</time>
      </trkpt>
      <trkpt lat="40.516077" lon="-3.556948">
        <ele>581.936984</ele>
        <time>2021-03-24T22:39:00.024Z</time>
      </trkpt>
      <trkpt lat="40.517098" lon="-3.556997">
        <ele>581.469441</ele>
        <time>2021-03-24T22:39:18.551Z</time>
      </trkpt>
      <trkpt lat="40.518001" lon="-3.556690">
        <ele>581.207860</ele>
        <time>2021-03-24T22:39:35.663Z</time>
      </trkpt>
      <trkpt lat="40.519328" lon="-3.555677">
        <ele>581.001708</ele>
        <time>2021-03-24T22:40:04.659Z</time>
      </trkpt>
      <trkpt lat="40.519439" lon="-3.555677">
        <ele>581.009872</ele>
        <time>2021-03-24T22:40:06.791Z</time>
      </trkpt>
      <trkpt lat="40.519770" lon="-3.555775">
        <ele>581.034825</ele>
        <time>2021-03-24T22:40:13.382Z</time>
      </trkpt>
      <trkpt lat="40.520157" lon="-3.556290">
        <ele>581.075312</ele>
        <time>2021-03-24T22:40:24.126Z</time>
      </trkpt>
      <trkpt lat="40.520852" lon="-3.556045">
        <ele>581.111439</ele>
        <time>2021-03-24T22:40:38.121Z</time>
      </trkpt>
      <trkpt lat="40.521882" lon="-3.557086">
        <ele>581.137153</ele>
        <time>2021-03-24T22:41:03.038Z</time>
      </trkpt>
      <trkpt lat="40.524658" lon="-3.557106">
        <ele>580.815072</ele>
        <time>2021-03-24T22:41:55.027Z</time>
      </trkpt>
      <trkpt lat="40.526060" lon="-3.556930">
        <ele>580.839684</ele>
        <time>2021-03-24T22:42:22.039Z</time>
      </trkpt>
      <trkpt lat="40.527662" lon="-3.557465">
        <ele>581.095125</ele>
        <time>2021-03-24T22:42:54.466Z</time>
      </trkpt>
      <trkpt lat="40.528296" lon="-3.557528">
        <ele>581.205376</ele>
        <time>2021-03-24T22:43:06.845Z</time>
      </trkpt>
      <trkpt lat="40.531040" lon="-3.556878">
        <ele>581.812890</ele>
        <time>2021-03-24T22:44:01.452Z</time>
      </trkpt>
      <trkpt lat="40.533597" lon="-3.557236">
        <ele>582.985643</ele>
        <time>2021-03-24T22:44:55.217Z</time>
      </trkpt>
      <trkpt lat="40.534454" lon="-3.557095">
        <ele>583.205263</ele>
        <time>2021-03-24T22:45:11.724Z</time>
      </trkpt>
      <trkpt lat="40.534875" lon="-3.556954">
        <ele>583.142767</ele>
        <time>2021-03-24T22:45:19.815Z</time>
      </trkpt>
      <trkpt lat="40.535737" lon="-3.556156">
        <ele>582.894070</ele>
        <time>2021-03-24T22:45:39.240Z</time>
      </trkpt>
      <trkpt lat="40.537509" lon="-3.555646">
        <ele>582.806196</ele>
        <time>2021-03-24T22:46:13.509Z</time>
      </trkpt>
      <trkpt lat="40.538451" lon="-3.555227">
        <ele>583.108732</ele>
        <time>2021-03-24T22:46:33.275Z</time>
      </trkpt>
      <trkpt lat="40.538561" lon="-3.555298">
        <ele>583.168493</ele>
        <time>2021-03-24T22:46:35.751Z</time>
      </trkpt>
      <trkpt lat="40.539163" lon="-3.556784">
        <ele>583.847363</ele>
        <time>2021-03-24T22:47:02.554Z</time>
      </trkpt>
      <trkpt lat="40.539750" lon="-3.557626">
        <ele>584.485300</ele>
        <time>2021-03-24T22:47:21.312Z</time>
      </trkpt>
      <trkpt lat="40.540532" lon="-3.558398">
        <ele>585.015718</ele>
        <time>2021-03-24T22:47:42.244Z</time>
      </trkpt>
      <trkpt lat="40.541163" lon="-3.558718">
        <ele>585.039889</ele>
        <time>2021-03-24T22:47:55.549Z</time>
      </trkpt>
      <trkpt lat="40.541856" lon="-3.558919">
        <ele>585.065253</ele>
        <time>2021-03-24T22:48:08.720Z</time>
      </trkpt>
      <trkpt lat="40.542391" lon="-3.559394">
        <ele>584.956868</ele>
        <time>2021-03-24T22:48:20.282Z</time>
      </trkpt>
      <trkpt lat="40.543255" lon="-3.558840">
        <ele>584.739196</ele>
        <time>2021-03-24T22:48:38.084Z</time>
      </trkpt>
      <trkpt lat="40.543853" lon="-3.558701">
        <ele>584.855488</ele>
        <time>2021-03-24T22:48:50.124Z</time>
      </trkpt>
      <trkpt lat="40.544012" lon="-3.559007">
        <ele>585.055502</ele>
        <time>2021-03-24T22:48:56.098Z</time>
      </trkpt>
      <trkpt lat="40.544362" lon="-3.559384">
        <ele>585.376649</ele>
        <time>2021-03-24T22:49:05.767Z</time>
      </trkpt>
      <trkpt lat="40.544659" lon="-3.559225">
        <ele>585.604312</ele>
        <time>2021-03-24T22:49:12.775Z</time>
      </trkpt>
      <trkpt lat="40.544982" lon="-3.559347">
        <ele>585.842913</ele>
        <time>2021-03-24T22:49:20.261Z</time>
      </trkpt>
      <trkpt lat="40.545765" lon="-3.559641">
        <ele>586.366744</ele>
        <time>2021-03-24T22:49:38.142Z</time>
      </trkpt>
      <trkpt lat="40.546560" lon="-3.559967">
        <ele>586.891215</ele>
        <time>2021-03-24T22:49:55.104Z</time>
      </trkpt>
      <trkpt lat="40.547142" lon="-3.560395">
        <ele>587.144369</ele>
        <time>2021-03-24T22:50:08.443Z</time>
      </trkpt>
      <trkpt lat="40.547600" lon="-3.560780">
        <ele>587.246943</ele>
        <time>2021-03-24T22:50:19.259Z</time>
      </trkpt>
      <trkpt lat="40.547760" lon="-3.560915">
        <ele>587.282815</ele>
        <time>2021-03-24T22:50:23.080Z</time>
      </trkpt>
      <trkpt lat="40.548040" lon="-3.561464">
        <ele>587.377642</ele>
        <time>2021-03-24T22:50:32.782Z</time>
      </trkpt>
      <trkpt lat="40.548517" lon="-3.561907">
        <ele>587.331033</ele>
        <time>2021-03-24T22:50:43.766Z</time>
      </trkpt>
      <trkpt lat="40.548732" lon="-3.562353">
        <ele>587.249135</ele>
        <time>2021-03-24T22:50:51.291Z</time>
      </trkpt>
      <trkpt lat="40.548881" lon="-3.563045">
        <ele>587.137611</ele>
        <time>2021-03-24T22:51:01.412Z</time>
      </trkpt>
      <trkpt lat="40.548849" lon="-3.563252">
        <ele>587.104857</ele>
        <time>2021-03-24T22:51:04.436Z</time>
      </trkpt>
      <trkpt lat="40.549112" lon="-3.563635">
        <ele>587.080205</ele>
        <time>2021-03-24T22:51:11.766Z</time>
      </trkpt>
      <trkpt lat="40.549982" lon="-3.563946">
        <ele>587.389860</ele>
        <time>2021-03-24T22:51:28.777Z</time>
      </trkpt>
      <trkpt lat="40.550748" lon="-3.564529">
        <ele>587.801896</ele>
        <time>2021-03-24T22:51:47.637Z</time>
      </trkpt>
      <trkpt lat="40.550939" lon="-3.564792">
        <ele>588.232938</ele>
        <time>2021-03-24T22:51:54.060Z</time>
      </trkpt>
      <trkpt lat="40.550987" lon="-3.565056">
        <ele>588.554556</ele>
        <time>2021-03-24T22:51:58.946Z</time>
      </trkpt>
      <trkpt lat="40.550854" lon="-3.565837">
        <ele>589.502841</ele>
        <time>2021-03-24T22:52:13.807Z</time>
      </trkpt>
      <trkpt lat="40.551411" lon="-3.566500">
        <ele>590.623401</ele>
        <time>2021-03-24T22:52:27.008Z</time>
      </trkpt>
      <trkpt lat="40.551161" lon="-3.567083">
        <ele>591.222122</ele>
        <time>2021-03-24T22:52:39.225Z</time>
      </trkpt>
      <trkpt lat="40.551119" lon="-3.567571">
        <ele>591.661363</ele>
        <time>2021-03-24T22:52:47.914Z</time>
      </trkpt>
      <trkpt lat="40.551124" lon="-3.567621">
        <ele>591.706467</ele>
        <time>2021-03-24T22:52:48.827Z</time>
      </trkpt>
      <trkpt lat="40.551283" lon="-3.569122">
        <ele>592.700721</ele>
        <time>2021-03-24T22:53:13.165Z</time>
      </trkpt>
      <trkpt lat="40.551414" lon="-3.569735">
        <ele>592.838915</ele>
        <time>2021-03-24T22:53:22.578Z</time>
      </trkpt>
      <trkpt lat="40.551723" lon="-3.570405">
        <ele>593.009005</ele>
        <time>2021-03-24T22:53:34.087Z</time>
      </trkpt>
      <trkpt lat="40.552418" lon="-3.570755">
        <ele>593.287580</ele>
        <time>2021-03-24T22:53:48.711Z</time>
      </trkpt>
      <trkpt lat="40.552645" lon="-3.570932">
        <ele>593.403458</ele>
        <time>2021-03-24T22:53:53.968Z</time>
      </trkpt>
      <trkpt lat="40.552773" lon="-3.571178">
        <ele>593.502951</ele>
        <time>2021-03-24T22:53:58.539Z</time>
      </trkpt>
      <trkpt lat="40.552858" lon="-3.571718">
        <ele>593.686973</ele>
        <time>2021-03-24T22:54:07.147Z</time>
      </trkpt>
      <trkpt lat="40.553048" lon="-3.572219">
        <ele>593.873823</ele>
        <time>2021-03-24T22:54:16.142Z</time>
      </trkpt>
      <trkpt lat="40.553485" lon="-3.572859">
        <ele>594.568537</ele>
        <time>2021-03-24T22:54:30.398Z</time>
      </trkpt>
      <trkpt lat="40.553571" lon="-3.573109">
        <ele>594.797187</ele>
        <time>2021-03-24T22:54:35.015Z</time>
      </trkpt>
      <trkpt lat="40.553551" lon="-3.573697">
        <ele>595.287591</ele>
        <time>2021-03-24T22:54:45.007Z</time>
      </trkpt>
      <trkpt lat="40.553708" lon="-3.573951">
        <ele>595.560405</ele>
        <time>2021-03-24T22:54:50.670Z</time>
      </trkpt>
      <trkpt lat="40.553744" lon="-3.574310">
        <ele>595.862654</ele>
        <time>2021-03-24T22:54:57.038Z</time>
      </trkpt>
      <trkpt lat="40.553692" lon="-3.574547">
        <ele>596.171480</ele>
        <time>2021-03-24T22:55:01.488Z</time>
      </trkpt>
      <trkpt lat="40.553443" lon="-3.575126">
        <ele>597.004392</ele>
        <time>2021-03-24T22:55:13.691Z</time>
      </trkpt>
      <trkpt lat="40.553410" lon="-3.575658">
        <ele>597.672627</ele>
        <time>2021-03-24T22:55:23.562Z</time>
      </trkpt>
      <trkpt lat="40.553534" lon="-3.576051">
        <ele>598.205365</ele>
        <time>2021-03-24T22:55:31.437Z</time>
      </trkpt>
      <trkpt lat="40.553669" lon="-3.576340">
        <ele>598.630076</ele>
        <time>2021-03-24T22:55:37.694Z</time>
      </trkpt>
      <trkpt lat="40.553790" lon="-3.576362">
        <ele>598.831011</ele>
        <time>2021-03-24T22:55:40.656Z</time>
      </trkpt>
      <trkpt lat="40.553964" lon="-3.576176">
        <ele>599.182220</ele>
        <time>2021-03-24T22:55:46.080Z</time>
      </trkpt>
      <trkpt lat="40.554335" lon="-3.576284">
        <ele>599.777541</ele>
        <time>2021-03-24T22:55:55.268Z</time>
      </trkpt>
      <trkpt lat="40.554568" lon="-3.576491">
        <ele>600.217982</ele>
        <time>2021-03-24T22:56:02.059Z</time>
      </trkpt>
      <trkpt lat="40.554837" lon="-3.577100">
        <ele>601.056551</ele>
        <time>2021-03-24T22:56:14.799Z</time>
      </trkpt>
      <trkpt lat="40.554906" lon="-3.577744">
        <ele>601.766693</ele>
        <time>2021-03-24T22:56:26.149Z</time>
      </trkpt>
      <trkpt lat="40.555041" lon="-3.578189">
        <ele>602.142769</ele>
        <time>2021-03-24T22:56:34.352Z</time>
      </trkpt>
      <trkpt lat="40.555136" lon="-3.579083">
        <ele>602.851264</ele>
        <time>2021-03-24T22:56:49.627Z</time>
      </trkpt>
      <trkpt lat="40.554929" lon="-3.581195">
        <ele>604.140563</ele>
        <time>2021-03-24T22:57:24.501Z</time>
      </trkpt>
      <trkpt lat="40.555005" lon="-3.581744">
        <ele>604.414797</ele>
        <time>2021-03-24T22:57:33.100Z</time>
      </trkpt>
      <trkpt lat="40.555109" lon="-3.582384">
        <ele>604.738594</ele>
        <time>2021-03-24T22:57:43.364Z</time>
      </trkpt>
      <trkpt lat="40.555324" lon="-3.582453">
        <ele>604.886029</ele>
        <time>2021-03-24T22:57:47.825Z</time>
      </trkpt>
      <trkpt lat="40.555456" lon="-3.582522">
        <ele>604.980653</ele>
        <time>2021-03-24T22:57:50.833Z</time>
      </trkpt>
      <trkpt lat="40.555738" lon="-3.582502">
        <ele>605.168801</ele>
        <time>2021-03-24T22:57:56.604Z</time>
      </trkpt>
      <trkpt lat="40.556224" lon="-3.582362">
        <ele>605.500250</ele>
        <time>2021-03-24T22:58:07.045Z</time>
      </trkpt>
      <trkpt lat="40.557332" lon="-3.582251">
        <ele>606.511669</ele>
        <time>2021-03-24T22:58:31.454Z</time>
      </trkpt>
      <trkpt lat="40.558350" lon="-3.581942">
        <ele>607.706631</ele>
        <time>2021-03-24T22:58:55.472Z</time>
      </trkpt>
      <trkpt lat="40.559276" lon="-3.581744">
        <ele>608.290332</ele>
        <time>2021-03-24T22:59:16.032Z</time>
      </trkpt>
      <trkpt lat="40.561238" lon="-3.581538">
        <ele>608.502237</ele>
        <time>2021-03-24T22:59:53.945Z</time>
      </trkpt>
      <trkpt lat="40.565542" lon="-3.579959">
        <ele>605.435515</ele>
        <time>2021-03-24T23:01:13.558Z</time>
      </trkpt>
      <trkpt lat="40.566383" lon="-3.579358">
        <ele>604.760293</ele>
        <time>2021-03-24T23:01:30.924Z</time>
      </trkpt>
      <trkpt lat="40.568317" lon="-3.578714">
        <ele>602.851291</ele>
        <time>2021-03-24T23:02:06.484Z</time>
      </trkpt>
      <trkpt lat="40.568600" lon="-3.578620">
        <ele>602.517655</ele>
        <time>2021-03-24T23:02:11.410Z</time>
      </trkpt>
      <trkpt lat="40.569389" lon="-3.578483">
        <ele>601.219379</ele>
        <time>2021-03-24T23:02:24.576Z</time>
      </trkpt>
      <trkpt lat="40.569649" lon="-3.578345">
        <ele>600.648997</ele>
        <time>2021-03-24T23:02:29.147Z</time>
      </trkpt>
      <trkpt lat="40.569904" lon="-3.577976">
        <ele>599.878004</ele>
        <time>2021-03-24T23:02:35.288Z</time>
      </trkpt>
      <trkpt lat="40.570191" lon="-3.577770">
        <ele>599.212910</ele>
        <time>2021-03-24T23:02:40.583Z</time>
      </trkpt>
      <trkpt lat="40.571266" lon="-3.579178">
        <ele>597.072968</ele>
        <time>2021-03-24T23:03:05.713Z</time>
      </trkpt>
      <trkpt lat="40.571481" lon="-3.579384">
        <ele>596.752500</ele>
        <time>2021-03-24T23:03:10.425Z</time>
      </trkpt>
      <trkpt lat="40.571697" lon="-3.579710">
        <ele>596.356489</ele>
        <time>2021-03-24T23:03:16.595Z</time>
      </trkpt>
      <trkpt lat="40.571762" lon="-3.580071">
        <ele>596.548463</ele>
        <time>2021-03-24T23:03:22.444Z</time>
      </trkpt>
      <trkpt lat="40.572075" lon="-3.580545">
        <ele>597.139900</ele>
        <time>2021-03-24T23:03:32.904Z</time>
      </trkpt>
      <trkpt lat="40.572570" lon="-3.579993">
        <ele>597.944118</ele>
        <time>2021-03-24T23:03:43.756Z</time>
      </trkpt>
      <trkpt lat="40.572979" lon="-3.579705">
        <ele>598.521540</ele>
        <time>2021-03-24T23:03:51.949Z</time>
      </trkpt>
      <trkpt lat="40.573183" lon="-3.580521">
        <ele>599.517394</ele>
        <time>2021-03-24T23:04:08.761Z</time>
      </trkpt>
      <trkpt lat="40.573029" lon="-3.581779">
        <ele>600.994528</ele>
        <time>2021-03-24T23:04:31.593Z</time>
      </trkpt>
      <trkpt lat="40.572888" lon="-3.582474">
        <ele>601.345966</ele>
        <time>2021-03-24T23:04:42.951Z</time>
      </trkpt>
      <trkpt lat="40.572849" lon="-3.583014">
        <ele>601.446897</ele>
        <time>2021-03-24T23:04:51.189Z</time>
      </trkpt>
      <trkpt lat="40.573072" lon="-3.584664">
        <ele>601.667316</ele>
        <time>2021-03-24T23:05:15.399Z</time>
      </trkpt>
      <trkpt lat="40.573246" lon="-3.585061">
        <ele>601.631562</ele>
        <time>2021-03-24T23:05:21.830Z</time>
      </trkpt>
      <trkpt lat="40.573646" lon="-3.585429">
        <ele>601.581447</ele>
        <time>2021-03-24T23:05:30.853Z</time>
      </trkpt>
      <trkpt lat="40.573997" lon="-3.585588">
        <ele>601.543326</ele>
        <time>2021-03-24T23:05:37.969Z</time>
      </trkpt>
      <trkpt lat="40.574548" lon="-3.585744">
        <ele>601.631097</ele>
        <time>2021-03-24T23:05:49.060Z</time>
      </trkpt>
      <trkpt lat="40.574711" lon="-3.585810">
        <ele>601.719171</ele>
        <time>2021-03-24T23:05:52.392Z</time>
      </trkpt>
      <trkpt lat="40.574824" lon="-3.585856">
        <ele>601.780258</ele>
        <time>2021-03-24T23:05:54.806Z</time>
      </trkpt>
      <trkpt lat="40.575188" lon="-3.586448">
        <ele>602.079042</ele>
        <time>2021-03-24T23:06:06.659Z</time>
      </trkpt>
      <trkpt lat="40.575411" lon="-3.586405">
        <ele>602.195441</ele>
        <time>2021-03-24T23:06:11.397Z</time>
      </trkpt>
      <trkpt lat="40.575936" lon="-3.586759">
        <ele>602.546803</ele>
        <time>2021-03-24T23:06:24.021Z</time>
      </trkpt>
      <trkpt lat="40.576740" lon="-3.587027">
        <ele>603.300375</ele>
        <time>2021-03-24T23:06:42.246Z</time>
      </trkpt>
      <trkpt lat="40.577212" lon="-3.587377">
        <ele>603.792580</ele>
        <time>2021-03-24T23:06:54.417Z</time>
      </trkpt>
      <trkpt lat="40.577764" lon="-3.588159">
        <ele>604.350316</ele>
        <time>2021-03-24T23:07:11.535Z</time>
      </trkpt>
      <trkpt lat="40.578035" lon="-3.588437">
        <ele>604.540067</ele>
        <time>2021-03-24T23:07:18.391Z</time>
      </trkpt>
      <trkpt lat="40.578049" lon="-3.588476">
        <ele>604.558164</ele>
        <time>2021-03-24T23:07:19.119Z</time>
      </trkpt>
      <trkpt lat="40.578112" lon="-3.588656">
        <ele>604.641306</ele>
        <time>2021-03-24T23:07:22.293Z</time>
      </trkpt>
      <trkpt lat="40.578488" lon="-3.589052">
        <ele>604.907251</ele>
        <time>2021-03-24T23:07:32.009Z</time>
      </trkpt>
      <trkpt lat="40.578563" lon="-3.589417">
        <ele>605.065875</ele>
        <time>2021-03-24T23:07:38.017Z</time>
      </trkpt>
      <trkpt lat="40.578822" lon="-3.589821">
        <ele>605.326488</ele>
        <time>2021-03-24T23:07:46.334Z</time>
      </trkpt>
      <trkpt lat="40.578849" lon="-3.589980">
        <ele>605.406822</ele>
        <time>2021-03-24T23:07:48.822Z</time>
      </trkpt>
      <trkpt lat="40.578881" lon="-3.590166">
        <ele>605.500857</ele>
        <time>2021-03-24T23:07:51.886Z</time>
      </trkpt>
      <trkpt lat="40.578985" lon="-3.590494">
        <ele>605.676112</ele>
        <time>2021-03-24T23:07:57.061Z</time>
      </trkpt>
      <trkpt lat="40.579210" lon="-3.590982">
        <ele>605.957596</ele>
        <time>2021-03-24T23:08:06.130Z</time>
      </trkpt>
      <trkpt lat="40.579907" lon="-3.592239">
        <ele>606.903225</ele>
        <time>2021-03-24T23:08:32.832Z</time>
      </trkpt>
      <trkpt lat="40.580077" lon="-3.592879">
        <ele>607.358872</ele>
        <time>2021-03-24T23:08:44.133Z</time>
      </trkpt>
      <trkpt lat="40.580051" lon="-3.593116">
        <ele>607.519797</ele>
        <time>2021-03-24T23:08:47.962Z</time>
      </trkpt>
      <trkpt lat="40.580132" lon="-3.593694">
        <ele>607.827093</ele>
        <time>2021-03-24T23:08:57.281Z</time>
      </trkpt>
      <trkpt lat="40.580258" lon="-3.593932">
        <ele>607.830733</ele>
        <time>2021-03-24T23:09:01.738Z</time>
      </trkpt>
      <trkpt lat="40.580308" lon="-3.594578">
        <ele>607.838879</ele>
        <time>2021-03-24T23:09:11.484Z</time>
      </trkpt>
      <trkpt lat="40.580533" lon="-3.595512">
        <ele>607.851171</ele>
        <time>2021-03-24T23:09:25.415Z</time>
      </trkpt>
      <trkpt lat="40.580849" lon="-3.595929">
        <ele>607.813801</ele>
        <time>2021-03-24T23:09:33.649Z</time>
      </trkpt>
      <trkpt lat="40.581037" lon="-3.596780">
        <ele>607.679692</ele>
        <time>2021-03-24T23:09:46.077Z</time>
      </trkpt>
      <trkpt lat="40.581224" lon="-3.597218">
        <ele>607.603661</ele>
        <time>2021-03-24T23:09:53.185Z</time>
      </trkpt>
      <trkpt lat="40.581469" lon="-3.597697">
        <ele>607.516276</ele>
        <time>2021-03-24T23:10:01.484Z</time>
      </trkpt>
      <trkpt lat="40.581748" lon="-3.598518">
        <ele>607.708886</ele>
        <time>2021-03-24T23:10:15.154Z</time>
      </trkpt>
      <trkpt lat="40.582070" lon="-3.599973">
        <ele>608.126042</ele>
        <time>2021-03-24T23:10:38.810Z</time>
      </trkpt>
      <trkpt lat="40.582098" lon="-3.600594">
        <ele>608.166405</ele>
        <time>2021-03-24T23:10:48.193Z</time>
      </trkpt>
      <trkpt lat="40.582293" lon="-3.601447">
        <ele>608.195684</ele>
        <time>2021-03-24T23:11:01.370Z</time>
      </trkpt>
      <trkpt lat="40.582319" lon="-3.602015">
        <ele>608.214387</ele>
        <time>2021-03-24T23:11:09.626Z</time>
      </trkpt>
      <trkpt lat="40.582690" lon="-3.602906">
        <ele>608.295371</ele>
        <time>2021-03-24T23:11:23.811Z</time>
      </trkpt>
      <trkpt lat="40.582949" lon="-3.604250">
        <ele>608.442833</ele>
        <time>2021-03-24T23:11:44.100Z</time>
      </trkpt>
      <trkpt lat="40.583323" lon="-3.604896">
        <ele>609.335341</ele>
        <time>2021-03-24T23:11:57.751Z</time>
      </trkpt>
      <trkpt lat="40.583354" lon="-3.604924">
        <ele>609.424047</ele>
        <time>2021-03-24T23:11:58.545Z</time>
      </trkpt>
      <trkpt lat="40.583635" lon="-3.605181">
        <ele>610.231377</ele>
        <time>2021-03-24T23:12:06.524Z</time>
      </trkpt>
      <trkpt lat="40.584343" lon="-3.605725">
        <ele>612.165670</ele>
        <time>2021-03-24T23:12:28.202Z</time>
      </trkpt>
      <trkpt lat="40.584426" lon="-3.605790">
        <ele>612.393545</ele>
        <time>2021-03-24T23:12:31.119Z</time>
      </trkpt>
      <trkpt lat="40.584784" lon="-3.606069">
        <ele>614.539664</ele>
        <time>2021-03-24T23:12:45.134Z</time>
      </trkpt>
      <trkpt lat="40.584892" lon="-3.606130">
        <ele>615.311780</ele>
        <time>2021-03-24T23:12:49.092Z</time>
      </trkpt>
      <trkpt lat="40.584994" lon="-3.606175">
        <ele>616.018563</ele>
        <time>2021-03-24T23:12:53.278Z</time>
      </trkpt>
      <trkpt lat="40.585087" lon="-3.606225">
        <ele>616.678570</ele>
        <time>2021-03-24T23:12:57.159Z</time>
      </trkpt>
      <trkpt lat="40.585096" lon="-3.606237">
        <ele>616.762724</ele>
        <time>2021-03-24T23:12:57.676Z</time>
      </trkpt>
      <trkpt lat="40.585124" lon="-3.606273">
        <ele>617.019845</ele>
        <time>2021-03-24T23:12:59.131Z</time>
      </trkpt>
      <trkpt lat="40.585167" lon="-3.606286">
        <ele>617.309718</ele>
        <time>2021-03-24T23:13:00.916Z</time>
      </trkpt>
      <trkpt lat="40.585185" lon="-3.606277">
        <ele>617.436222</ele>
        <time>2021-03-24T23:13:01.534Z</time>
      </trkpt>
      <trkpt lat="40.585388" lon="-3.606168">
        <ele>618.876617</ele>
        <time>2021-03-24T23:13:10.116Z</time>
      </trkpt>
      <trkpt lat="40.585589" lon="-3.606076">
        <ele>620.274752</ele>
        <time>2021-03-24T23:13:18.273Z</time>
      </trkpt>
      <trkpt lat="40.585673" lon="-3.606037">
        <ele>620.859957</ele>
        <time>2021-03-24T23:13:22.197Z</time>
      </trkpt>
      <trkpt lat="40.585899" lon="-3.605913">
        <ele>622.468588</ele>
        <time>2021-03-24T23:13:32.130Z</time>
      </trkpt>
      <trkpt lat="40.586127" lon="-3.605787">
        <ele>624.093191</ele>
        <time>2021-03-24T23:13:42.866Z</time>
      </trkpt>
      <trkpt lat="40.587160" lon="-3.605231">
        <ele>633.764760</ele>
        <time>2021-03-24T23:14:35.152Z</time>
      </trkpt>
      <trkpt lat="40.587772" lon="-3.604969">
        <ele>639.429535</ele>
        <time>2021-03-24T23:15:04.433Z</time>
      </trkpt>
      <trkpt lat="40.587872" lon="-3.604845">
        <ele>640.602897</ele>
        <time>2021-03-24T23:15:10.980Z</time>
      </trkpt>
      <trkpt lat="40.588362" lon="-3.604233">
        <ele>645.747577</ele>
        <time>2021-03-24T23:15:39.770Z</time>
      </trkpt>
      <trkpt lat="40.588611" lon="-3.603613">
        <ele>649.804944</ele>
        <time>2021-03-24T23:16:01.575Z</time>
      </trkpt>
      <trkpt lat="40.588867" lon="-3.603138">
        <ele>653.174479</ele>
        <time>2021-03-24T23:16:20.103Z</time>
      </trkpt>
      <trkpt lat="40.589067" lon="-3.602899">
        <ele>655.140723</ele>
        <time>2021-03-24T23:16:30.191Z</time>
      </trkpt>
      <trkpt lat="40.589504" lon="-3.602567">
        <ele>658.681312</ele>
        <time>2021-03-24T23:16:50.753Z</time>
      </trkpt>
      <trkpt lat="40.589555" lon="-3.602262">
        <ele>660.345681</ele>
        <time>2021-03-24T23:17:00.105Z</time>
      </trkpt>
      <trkpt lat="40.589588" lon="-3.602109">
        <ele>661.193312</ele>
        <time>2021-03-24T23:17:05.485Z</time>
      </trkpt>
      <trkpt lat="40.589793" lon="-3.601893">
        <ele>663.035815</ele>
        <time>2021-03-24T23:17:13.948Z</time>
      </trkpt>
      <trkpt lat="40.590027" lon="-3.601596">
        <ele>665.316595</ele>
        <time>2021-03-24T23:17:24.525Z</time>
      </trkpt>
      <trkpt lat="40.590226" lon="-3.601283">
        <ele>667.327456</ele>
        <time>2021-03-24T23:17:34.776Z</time>
      </trkpt>
      <trkpt lat="40.590468" lon="-3.601503">
        <ele>668.963705</ele>
        <time>2021-03-24T23:17:44.649Z</time>
      </trkpt>
      <trkpt lat="40.590952" lon="-3.601763">
        <ele>671.872253</ele>
        <time>2021-03-24T23:18:01.211Z</time>
      </trkpt>
      <trkpt lat="40.592136" lon="-3.601657">
        <ele>677.510221</ele>
        <time>2021-03-24T23:18:31.797Z</time>
      </trkpt>
      <trkpt lat="40.592425" lon="-3.601823">
        <ele>678.307902</ele>
        <time>2021-03-24T23:18:37.515Z</time>
      </trkpt>
      <trkpt lat="40.592994" lon="-3.603056">
        <ele>681.079778</ele>
        <time>2021-03-24T23:18:57.455Z</time>
      </trkpt>
      <trkpt lat="40.593010" lon="-3.603091">
        <ele>681.158261</ele>
        <time>2021-03-24T23:18:58.068Z</time>
      </trkpt>
      <trkpt lat="40.593257" lon="-3.603468">
        <ele>681.753316</ele>
        <time>2021-03-24T23:19:04.610Z</time>
      </trkpt>
      <trkpt lat="40.593349" lon="-3.603571">
        <ele>681.930238</ele>
        <time>2021-03-24T23:19:06.654Z</time>
      </trkpt>
      <trkpt lat="40.593518" lon="-3.603683">
        <ele>682.207435</ele>
        <time>2021-03-24T23:19:09.716Z</time>
      </trkpt>
      <trkpt lat="40.593844" lon="-3.603872">
        <ele>682.729312</ele>
        <time>2021-03-24T23:19:15.498Z</time>
      </trkpt>
      <trkpt lat="40.594378" lon="-3.604421">
        <ele>683.721887</ele>
        <time>2021-03-24T23:19:26.310Z</time>
      </trkpt>
      <trkpt lat="40.594548" lon="-3.604627">
        <ele>684.038119</ele>
        <time>2021-03-24T23:19:29.895Z</time>
      </trkpt>
      <trkpt lat="40.594932" lon="-3.604687">
        <ele>684.530214</ele>
        <time>2021-03-24T23:19:36.311Z</time>
      </trkpt>
      <trkpt lat="40.595779" lon="-3.604644">
        <ele>685.608883</ele>
        <time>2021-03-24T23:19:49.428Z</time>
      </trkpt>
      <trkpt lat="40.595946" lon="-3.604750">
        <ele>685.844797</ele>
        <time>2021-03-24T23:19:52.174Z</time>
      </trkpt>
      <trkpt lat="40.596347" lon="-3.605005">
        <ele>686.594147</ele>
        <time>2021-03-24T23:19:59.452Z</time>
      </trkpt>
      <trkpt lat="40.596516" lon="-3.605142">
        <ele>687.046033</ele>
        <time>2021-03-24T23:20:02.796Z</time>
      </trkpt>
      <trkpt lat="40.596579" lon="-3.605466">
        <ele>687.624309</ele>
        <time>2021-03-24T23:20:07.516Z</time>
      </trkpt>
      <trkpt lat="40.596698" lon="-3.606129">
        <ele>688.802233</ele>
        <time>2021-03-24T23:20:17.937Z</time>
      </trkpt>
      <trkpt lat="40.597024" lon="-3.607082">
        <ele>690.421573</ele>
        <time>2021-03-24T23:20:34.646Z</time>
      </trkpt>
      <trkpt lat="40.597465" lon="-3.607493">
        <ele>690.959221</ele>
        <time>2021-03-24T23:20:44.010Z</time>
      </trkpt>
      <trkpt lat="40.597840" lon="-3.607967">
        <ele>691.476484</ele>
        <time>2021-03-24T23:20:55.274Z</time>
      </trkpt>
      <trkpt lat="40.598152" lon="-3.608269">
        <ele>691.861821</ele>
        <time>2021-03-24T23:21:02.906Z</time>
      </trkpt>
      <trkpt lat="40.598185" lon="-3.608304">
        <ele>691.903987</ele>
        <time>2021-03-24T23:21:03.717Z</time>
      </trkpt>
      <trkpt lat="40.598302" lon="-3.608429">
        <ele>692.053917</ele>
        <time>2021-03-24T23:21:06.330Z</time>
      </trkpt>
      <trkpt lat="40.598448" lon="-3.608651">
        <ele>691.837469</ele>
        <time>2021-03-24T23:21:10.553Z</time>
      </trkpt>
      <trkpt lat="40.598547" lon="-3.609162">
        <ele>691.404741</ele>
        <time>2021-03-24T23:21:17.452Z</time>
      </trkpt>
      <trkpt lat="40.598700" lon="-3.609627">
        <ele>690.988908</ele>
        <time>2021-03-24T23:21:23.969Z</time>
      </trkpt>
      <trkpt lat="40.598660" lon="-3.609906">
        <ele>690.755934</ele>
        <time>2021-03-24T23:21:27.664Z</time>
      </trkpt>
      <trkpt lat="40.598753" lon="-3.610152">
        <ele>690.530447</ele>
        <time>2021-03-24T23:21:31.008Z</time>
      </trkpt>
      <trkpt lat="40.598955" lon="-3.610432">
        <ele>690.213530</ele>
        <time>2021-03-24T23:21:36.072Z</time>
      </trkpt>
      <trkpt lat="40.599364" lon="-3.610845">
        <ele>690.300284</ele>
        <time>2021-03-24T23:21:45.527Z</time>
      </trkpt>
      <trkpt lat="40.599475" lon="-3.611433">
        <ele>690.490792</ele>
        <time>2021-03-24T23:21:54.461Z</time>
      </trkpt>
      <trkpt lat="40.599602" lon="-3.611936">
        <ele>690.657460</ele>
        <time>2021-03-24T23:22:02.904Z</time>
      </trkpt>
      <trkpt lat="40.599888" lon="-3.612286">
        <ele>690.819130</ele>
        <time>2021-03-24T23:22:11.794Z</time>
      </trkpt>
      <trkpt lat="40.600508" lon="-3.613748">
        <ele>693.390273</ele>
        <time>2021-03-24T23:22:44.244Z</time>
      </trkpt>
      <trkpt lat="40.600843" lon="-3.615207">
        <ele>695.661447</ele>
        <time>2021-03-24T23:23:15.173Z</time>
      </trkpt>
      <trkpt lat="40.601095" lon="-3.615636">
        <ele>696.356782</ele>
        <time>2021-03-24T23:23:25.399Z</time>
      </trkpt>
      <trkpt lat="40.601433" lon="-3.615988">
        <ele>697.084316</ele>
        <time>2021-03-24T23:23:35.243Z</time>
      </trkpt>
      <trkpt lat="40.601628" lon="-3.616283">
        <ele>697.585730</ele>
        <time>2021-03-24T23:23:41.899Z</time>
      </trkpt>
      <trkpt lat="40.601884" lon="-3.616244">
        <ele>697.957061</ele>
        <time>2021-03-24T23:23:47.322Z</time>
      </trkpt>
      <trkpt lat="40.602337" lon="-3.616059">
        <ele>698.492024</ele>
        <time>2021-03-24T23:23:57.858Z</time>
      </trkpt>
      <trkpt lat="40.602811" lon="-3.616025">
        <ele>699.027467</ele>
        <time>2021-03-24T23:24:08.188Z</time>
      </trkpt>
      <trkpt lat="40.602980" lon="-3.616064">
        <ele>699.220995</ele>
        <time>2021-03-24T23:24:11.882Z</time>
      </trkpt>
      <trkpt lat="40.603852" lon="-3.616355">
        <ele>700.415303</ele>
        <time>2021-03-24T23:24:32.878Z</time>
      </trkpt>
      <trkpt lat="40.604341" lon="-3.616669">
        <ele>701.320432</ele>
        <time>2021-03-24T23:24:45.853Z</time>
      </trkpt>
      <trkpt lat="40.604492" lon="-3.616727">
        <ele>701.582128</ele>
        <time>2021-03-24T23:24:50.156Z</time>
      </trkpt>
      <trkpt lat="40.604721" lon="-3.616815">
        <ele>701.979020</ele>
        <time>2021-03-24T23:24:55.930Z</time>
      </trkpt>
      <trkpt lat="40.605569" lon="-3.616972">
        <ele>703.182962</ele>
        <time>2021-03-24T23:25:16.599Z</time>
      </trkpt>
      <trkpt lat="40.606351" lon="-3.616880">
        <ele>703.968319</ele>
        <time>2021-03-24T23:25:33.909Z</time>
      </trkpt>
      <trkpt lat="40.606743" lon="-3.616719">
        <ele>704.379061</ele>
        <time>2021-03-24T23:25:42.391Z</time>
      </trkpt>
      <trkpt lat="40.607115" lon="-3.616702">
        <ele>704.729948</ele>
        <time>2021-03-24T23:25:50.034Z</time>
      </trkpt>
      <trkpt lat="40.607199" lon="-3.616783">
        <ele>704.812218</ele>
        <time>2021-03-24T23:25:52.293Z</time>
      </trkpt>
      <trkpt lat="40.607579" lon="-3.617144">
        <ele>705.182475</ele>
        <time>2021-03-24T23:26:01.931Z</time>
      </trkpt>
      <trkpt lat="40.608061" lon="-3.617389">
        <ele>705.590760</ele>
        <time>2021-03-24T23:26:12.693Z</time>
      </trkpt>
      <trkpt lat="40.608432" lon="-3.617756">
        <ele>705.957420</ele>
        <time>2021-03-24T23:26:22.860Z</time>
      </trkpt>
      <trkpt lat="40.608630" lon="-3.617816">
        <ele>706.172887</ele>
        <time>2021-03-24T23:26:27.403Z</time>
      </trkpt>
      <trkpt lat="40.609530" lon="-3.617630">
        <ele>707.727918</ele>
        <time>2021-03-24T23:26:49.658Z</time>
      </trkpt>
      <trkpt lat="40.610119" lon="-3.617738">
        <ele>708.742994</ele>
        <time>2021-03-24T23:27:04.600Z</time>
      </trkpt>
      <trkpt lat="40.610605" lon="-3.617862">
        <ele>709.227043</ele>
        <time>2021-03-24T23:27:16.849Z</time>
      </trkpt>
      <trkpt lat="40.611035" lon="-3.617923">
        <ele>709.369409</ele>
        <time>2021-03-24T23:27:26.288Z</time>
      </trkpt>
      <trkpt lat="40.611634" lon="-3.617796">
        <ele>709.569127</ele>
        <time>2021-03-24T23:27:38.455Z</time>
      </trkpt>
      <trkpt lat="40.611987" lon="-3.617706">
        <ele>709.687484</ele>
        <time>2021-03-24T23:27:44.952Z</time>
      </trkpt>
      <trkpt lat="40.611849" lon="-3.618295">
        <ele>709.334245</ele>
        <time>2021-03-24T23:27:49.760Z</time>
      </trkpt>
      <trkpt lat="40.611871" lon="-3.618470">
        <ele>709.171589</ele>
        <time>2021-03-24T23:27:51.121Z</time>
      </trkpt>
      <trkpt lat="40.612572" lon="-3.619480">
        <ele>707.916711</ele>
        <time>2021-03-24T23:28:01.749Z</time>
      </trkpt>
      <trkpt lat="40.612988" lon="-3.620094">
        <ele>707.520645</ele>
        <time>2021-03-24T23:28:08.672Z</time>
      </trkpt>
      <trkpt lat="40.613481" lon="-3.620289">
        <ele>707.458770</ele>
        <time>2021-03-24T23:28:15.049Z</time>
      </trkpt>
      <trkpt lat="40.615380" lon="-3.621059">
        <ele>707.414320</ele>
        <time>2021-03-24T23:28:39.996Z</time>
      </trkpt>
      <trkpt lat="40.615677" lon="-3.619987">
        <ele>707.560345</ele>
        <time>2021-03-24T23:28:50.267Z</time>
      </trkpt>
      <trkpt lat="40.616504" lon="-3.619719">
        <ele>708.357830</ele>
        <time>2021-03-24T23:29:02.017Z</time>
      </trkpt>
      <trkpt lat="40.617067" lon="-3.620555">
        <ele>709.152690</ele>
        <time>2021-03-24T23:29:16.064Z</time>
      </trkpt>
      <trkpt lat="40.616338" lon="-3.621976">
        <ele>710.752982</ele>
        <time>2021-03-24T23:29:38.735Z</time>
      </trkpt>
      <trkpt lat="40.616278" lon="-3.622104">
        <ele>710.893352</ele>
        <time>2021-03-24T23:29:40.501Z</time>
      </trkpt>
      <trkpt lat="40.616273" lon="-3.622275">
        <ele>711.053025</ele>
        <time>2021-03-24T23:29:42.430Z</time>
      </trkpt>
      <trkpt lat="40.617157" lon="-3.624397">
        <ele>710.973018</ele>
        <time>2021-03-24T23:30:03.994Z</time>
      </trkpt>
      <trkpt lat="40.617673" lon="-3.624600">
        <ele>710.747225</ele>
        <time>2021-03-24T23:30:10.027Z</time>
      </trkpt>
      <trkpt lat="40.617850" lon="-3.624577">
        <ele>710.652476</ele>
        <time>2021-03-24T23:30:11.845Z</time>
      </trkpt>
      <trkpt lat="40.617699" lon="-3.625103">
        <ele>710.425075</ele>
        <time>2021-03-24T23:30:16.768Z</time>
      </trkpt>
      <trkpt lat="40.617543" lon="-3.625414">
        <ele>710.274338</ele>
        <time>2021-03-24T23:30:19.851Z</time>
      </trkpt>
      <trkpt lat="40.616927" lon="-3.625708">
        <ele>709.968714</ele>
        <time>2021-03-24T23:30:27.349Z</time>
      </trkpt>
      <trkpt lat="40.616839" lon="-3.625776">
        <ele>709.977182</ele>
        <time>2021-03-24T23:30:28.414Z</time>
      </trkpt>
      <trkpt lat="40.616844" lon="-3.625828">
        <ele>709.980484</ele>
        <time>2021-03-24T23:30:29.443Z</time>
      </trkpt>
      <trkpt lat="40.616888" lon="-3.626129">
        <ele>709.999797</ele>
        <time>2021-03-24T23:30:33.924Z</time>
      </trkpt>
      <trkpt lat="40.616853" lon="-3.626211">
        <ele>710.005724</ele>
        <time>2021-03-24T23:30:35.239Z</time>
      </trkpt>
      <trkpt lat="40.616976" lon="-3.626744">
        <ele>710.040823</ele>
        <time>2021-03-24T23:30:43.670Z</time>
      </trkpt>
      <trkpt lat="40.617138" lon="-3.627178">
        <ele>710.071294</ele>
        <time>2021-03-24T23:30:50.850Z</time>
      </trkpt>
      <trkpt lat="40.617344" lon="-3.627627">
        <ele>710.104348</ele>
        <time>2021-03-24T23:30:58.715Z</time>
      </trkpt>
      <trkpt lat="40.617714" lon="-3.628131">
        <ele>710.240498</ele>
        <time>2021-03-24T23:31:09.179Z</time>
      </trkpt>
      <trkpt lat="40.618000" lon="-3.628360">
        <ele>710.338524</ele>
        <time>2021-03-24T23:31:15.854Z</time>
      </trkpt>
      <trkpt lat="40.619353" lon="-3.628568">
        <ele>710.571717</ele>
        <time>2021-03-24T23:31:43.354Z</time>
      </trkpt>
      <trkpt lat="40.619597" lon="-3.628686">
        <ele>710.519764</ele>
        <time>2021-03-24T23:31:48.460Z</time>
      </trkpt>
      <trkpt lat="40.620465" lon="-3.629285">
        <ele>710.323906</ele>
        <time>2021-03-24T23:32:06.737Z</time>
      </trkpt>
      <trkpt lat="40.621467" lon="-3.629091">
        <ele>709.453993</ele>
        <time>2021-03-24T23:32:24.459Z</time>
      </trkpt>
      <trkpt lat="40.622416" lon="-3.628803">
        <ele>708.436864</ele>
        <time>2021-03-24T23:32:41.172Z</time>
      </trkpt>
      <trkpt lat="40.623065" lon="-3.628993">
        <ele>708.179552</ele>
        <time>2021-03-24T23:32:53.000Z</time>
      </trkpt>
      <trkpt lat="40.623447" lon="-3.629232">
        <ele>708.031079</ele>
        <time>2021-03-24T23:33:00.777Z</time>
      </trkpt>
      <trkpt lat="40.623908" lon="-3.629409">
        <ele>707.862491</ele>
        <time>2021-03-24T23:33:10.020Z</time>
      </trkpt>
      <trkpt lat="40.624146" lon="-3.629429">
        <ele>707.778761</ele>
        <time>2021-03-24T23:33:14.808Z</time>
      </trkpt>
      <trkpt lat="40.625823" lon="-3.630147">
        <ele>708.172758</ele>
        <time>2021-03-24T23:33:50.601Z</time>
      </trkpt>
      <trkpt lat="40.626772" lon="-3.629618">
        <ele>706.935820</ele>
        <time>2021-03-24T23:34:08.935Z</time>
      </trkpt>
      <trkpt lat="40.627302" lon="-3.629624">
        <ele>706.250926</ele>
        <time>2021-03-24T23:34:17.777Z</time>
      </trkpt>
      <trkpt lat="40.628275" lon="-3.630093">
        <ele>704.013145</ele>
        <time>2021-03-24T23:34:34.336Z</time>
      </trkpt>
      <trkpt lat="40.629006" lon="-3.631051">
        <ele>701.421249</ele>
        <time>2021-03-24T23:34:50.669Z</time>
      </trkpt>
      <trkpt lat="40.629294" lon="-3.631267">
        <ele>700.811004</ele>
        <time>2021-03-24T23:34:55.989Z</time>
      </trkpt>
      <trkpt lat="40.630125" lon="-3.632269">
        <ele>698.817103</ele>
        <time>2021-03-24T23:35:14.639Z</time>
      </trkpt>
      <trkpt lat="40.630432" lon="-3.632524">
        <ele>698.174720</ele>
        <time>2021-03-24T23:35:20.976Z</time>
      </trkpt>
      <trkpt lat="40.630602" lon="-3.632777">
        <ele>698.093600</ele>
        <time>2021-03-24T23:35:25.570Z</time>
      </trkpt>
      <trkpt lat="40.630937" lon="-3.633051">
        <ele>697.991460</ele>
        <time>2021-03-24T23:35:32.760Z</time>
      </trkpt>
      <trkpt lat="40.631222" lon="-3.633158">
        <ele>697.914694</ele>
        <time>2021-03-24T23:35:38.279Z</time>
      </trkpt>
      <trkpt lat="40.631975" lon="-3.633585">
        <ele>697.702336</ele>
        <time>2021-03-24T23:35:54.165Z</time>
      </trkpt>
      <trkpt lat="40.632726" lon="-3.634098">
        <ele>698.034401</ele>
        <time>2021-03-24T23:36:11.524Z</time>
      </trkpt>
      <trkpt lat="40.632932" lon="-3.634151">
        <ele>698.123852</ele>
        <time>2021-03-24T23:36:15.871Z</time>
      </trkpt>
      <trkpt lat="40.633574" lon="-3.634623">
        <ele>698.437162</ele>
        <time>2021-03-24T23:36:30.889Z</time>
      </trkpt>
      <trkpt lat="40.634139" lon="-3.635141">
        <ele>698.550299</ele>
        <time>2021-03-24T23:36:44.571Z</time>
      </trkpt>
      <trkpt lat="40.634374" lon="-3.635482">
        <ele>698.600713</ele>
        <time>2021-03-24T23:36:51.407Z</time>
      </trkpt>
      <trkpt lat="40.635233" lon="-3.636217">
        <ele>698.733267</ele>
        <time>2021-03-24T23:37:10.908Z</time>
      </trkpt>
      <trkpt lat="40.636690" lon="-3.636612">
        <ele>698.842537</ele>
        <time>2021-03-24T23:37:39.708Z</time>
      </trkpt>
      <trkpt lat="40.636771" lon="-3.636667">
        <ele>698.849231</ele>
        <time>2021-03-24T23:37:41.541Z</time>
      </trkpt>
      <trkpt lat="40.636867" lon="-3.636734">
        <ele>698.813295</ele>
        <time>2021-03-24T23:37:43.577Z</time>
      </trkpt>
      <trkpt lat="40.636922" lon="-3.636796">
        <ele>698.787709</ele>
        <time>2021-03-24T23:37:44.962Z</time>
      </trkpt>
      <trkpt lat="40.637050" lon="-3.636917">
        <ele>698.732024</ele>
        <time>2021-03-24T23:37:47.967Z</time>
      </trkpt>
      <trkpt lat="40.637624" lon="-3.637396">
        <ele>698.491856</ele>
        <time>2021-03-24T23:38:00.604Z</time>
      </trkpt>
      <trkpt lat="40.637817" lon="-3.637695">
        <ele>698.386559</ele>
        <time>2021-03-24T23:38:06.056Z</time>
      </trkpt>
      <trkpt lat="40.638147" lon="-3.638189">
        <ele>698.212540</ele>
        <time>2021-03-24T23:38:14.980Z</time>
      </trkpt>
      <trkpt lat="40.638407" lon="-3.638386">
        <ele>698.176430</ele>
        <time>2021-03-24T23:38:20.221Z</time>
      </trkpt>
      <trkpt lat="40.638730" lon="-3.638671">
        <ele>698.129627</ele>
        <time>2021-03-24T23:38:27.458Z</time>
      </trkpt>
      <trkpt lat="40.638960" lon="-3.638956">
        <ele>698.091614</ele>
        <time>2021-03-24T23:38:33.438Z</time>
      </trkpt>
      <trkpt lat="40.639038" lon="-3.639300">
        <ele>698.058811</ele>
        <time>2021-03-24T23:38:38.976Z</time>
      </trkpt>
      <trkpt lat="40.639363" lon="-3.639626">
        <ele>698.009634</ele>
        <time>2021-03-24T23:38:47.018Z</time>
      </trkpt>
      <trkpt lat="40.639567" lon="-3.640045">
        <ele>698.140441</ele>
        <time>2021-03-24T23:38:54.753Z</time>
      </trkpt>
      <trkpt lat="40.639737" lon="-3.640444">
        <ele>698.321091</ele>
        <time>2021-03-24T23:39:01.803Z</time>
      </trkpt>
      <trkpt lat="40.639920" lon="-3.640620">
        <ele>698.438956</ele>
        <time>2021-03-24T23:39:06.762Z</time>
      </trkpt>
      <trkpt lat="40.640121" lon="-3.641139">
        <ele>698.668991</ele>
        <time>2021-03-24T23:39:15.965Z</time>
      </trkpt>
      <trkpt lat="40.640334" lon="-3.641799">
        <ele>698.942014</ele>
        <time>2021-03-24T23:39:27.522Z</time>
      </trkpt>
      <trkpt lat="40.640545" lon="-3.642800">
        <ele>699.134752</ele>
        <time>2021-03-24T23:39:42.578Z</time>
      </trkpt>
      <trkpt lat="40.640783" lon="-3.643140">
        <ele>699.220570</ele>
        <time>2021-03-24T23:39:49.272Z</time>
      </trkpt>
      <trkpt lat="40.640914" lon="-3.643470">
        <ele>699.289663</ele>
        <time>2021-03-24T23:39:54.777Z</time>
      </trkpt>
      <trkpt lat="40.641018" lon="-3.643837">
        <ele>699.362342</ele>
        <time>2021-03-24T23:40:00.728Z</time>
      </trkpt>
      <trkpt lat="40.641075" lon="-3.644041">
        <ele>699.483537</ele>
        <time>2021-03-24T23:40:04.308Z</time>
      </trkpt>
      <trkpt lat="40.641305" lon="-3.644331">
        <ele>699.771975</ele>
        <time>2021-03-24T23:40:10.964Z</time>
      </trkpt>
      <trkpt lat="40.641606" lon="-3.645032">
        <ele>700.325792</ele>
        <time>2021-03-24T23:40:24.235Z</time>
      </trkpt>
      <trkpt lat="40.641820" lon="-3.645206">
        <ele>700.553644</ele>
        <time>2021-03-24T23:40:29.947Z</time>
      </trkpt>
      <trkpt lat="40.642058" lon="-3.645709">
        <ele>700.961227</ele>
        <time>2021-03-24T23:40:40.198Z</time>
      </trkpt>
      <trkpt lat="40.642219" lon="-3.646394">
        <ele>701.434799</ele>
        <time>2021-03-24T23:40:52.572Z</time>
      </trkpt>
      <trkpt lat="40.642750" lon="-3.647536">
        <ele>702.315956</ele>
        <time>2021-03-24T23:41:14.504Z</time>
      </trkpt>
      <trkpt lat="40.642937" lon="-3.647676">
        <ele>702.502426</ele>
        <time>2021-03-24T23:41:19.105Z</time>
      </trkpt>
      <trkpt lat="40.643291" lon="-3.648193">
        <ele>702.998185</ele>
        <time>2021-03-24T23:41:29.576Z</time>
      </trkpt>
      <trkpt lat="40.643565" lon="-3.648476">
        <ele>703.328511</ele>
        <time>2021-03-24T23:41:36.574Z</time>
      </trkpt>
      <trkpt lat="40.643864" lon="-3.649099">
        <ele>703.859262</ele>
        <time>2021-03-24T23:41:49.090Z</time>
      </trkpt>
      <trkpt lat="40.643910" lon="-3.649505">
        <ele>704.154819</ele>
        <time>2021-03-24T23:41:56.357Z</time>
      </trkpt>
      <trkpt lat="40.643853" lon="-3.649967">
        <ele>704.993021</ele>
        <time>2021-03-24T23:42:04.939Z</time>
      </trkpt>
      <trkpt lat="40.643890" lon="-3.650150">
        <ele>705.435833</ele>
        <time>2021-03-24T23:42:08.364Z</time>
      </trkpt>
      <trkpt lat="40.643949" lon="-3.650587">
        <ele>706.473653</ele>
        <time>2021-03-24T23:42:17.351Z</time>
      </trkpt>
      <trkpt lat="40.644023" lon="-3.650841">
        <ele>707.109815</ele>
        <time>2021-03-24T23:42:23.631Z</time>
      </trkpt>
      <trkpt lat="40.644264" lon="-3.651183">
        <ele>708.201118</ele>
        <time>2021-03-24T23:42:34.213Z</time>
      </trkpt>
      <trkpt lat="40.644683" lon="-3.651631">
        <ele>709.842947</ele>
        <time>2021-03-24T23:42:51.593Z</time>
      </trkpt>
      <trkpt lat="40.644907" lon="-3.651668">
        <ele>710.262762</ele>
        <time>2021-03-24T23:42:58.446Z</time>
      </trkpt>
      <trkpt lat="40.645072" lon="-3.651821">
        <ele>710.637937</ele>
        <time>2021-03-24T23:43:04.674Z</time>
      </trkpt>
      <trkpt lat="40.645275" lon="-3.651995">
        <ele>711.088256</ele>
        <time>2021-03-24T23:43:11.523Z</time>
      </trkpt>
      <trkpt lat="40.645575" lon="-3.651990">
        <ele>711.646189</ele>
        <time>2021-03-24T23:43:18.637Z</time>
      </trkpt>
      <trkpt lat="40.645748" lon="-3.652011">
        <ele>711.969266</ele>
        <time>2021-03-24T23:43:23.003Z</time>
      </trkpt>
      <trkpt lat="40.645983" lon="-3.652116">
        <ele>712.430709</ele>
        <time>2021-03-24T23:43:28.459Z</time>
      </trkpt>
      <trkpt lat="40.646343" lon="-3.652415">
        <ele>713.043924</ele>
        <time>2021-03-24T23:43:36.949Z</time>
      </trkpt>
      <trkpt lat="40.646895" lon="-3.652967">
        <ele>710.849871</ele>
        <time>2021-03-24T23:43:48.746Z</time>
      </trkpt>
      <trkpt lat="40.647001" lon="-3.653141">
        <ele>710.313763</ele>
        <time>2021-03-24T23:43:51.446Z</time>
      </trkpt>
      <trkpt lat="40.646980" lon="-3.654008">
        <ele>708.229730</ele>
        <time>2021-03-24T23:44:00.983Z</time>
      </trkpt>
      <trkpt lat="40.647104" lon="-3.654296">
        <ele>707.407226</ele>
        <time>2021-03-24T23:44:04.614Z</time>
      </trkpt>
      <trkpt lat="40.647376" lon="-3.654659">
        <ele>704.941974</ele>
        <time>2021-03-24T23:44:10.097Z</time>
      </trkpt>
      <trkpt lat="40.647473" lon="-3.654933">
        <ele>703.480952</ele>
        <time>2021-03-24T23:44:13.290Z</time>
      </trkpt>
      <trkpt lat="40.647499" lon="-3.655120">
        <ele>702.562305</ele>
        <time>2021-03-24T23:44:15.322Z</time>
      </trkpt>
      <trkpt lat="40.647384" lon="-3.655184">
        <ele>701.767297</ele>
        <time>2021-03-24T23:44:16.995Z</time>
      </trkpt>
      <trkpt lat="40.647118" lon="-3.655852">
        <ele>698.121913</ele>
        <time>2021-03-24T23:44:24.928Z</time>
      </trkpt>
      <trkpt lat="40.646866" lon="-3.656174">
        <ele>695.903949</ele>
        <time>2021-03-24T23:44:29.720Z</time>
      </trkpt>
      <trkpt lat="40.646775" lon="-3.656364">
        <ele>694.976181</ele>
        <time>2021-03-24T23:44:32.007Z</time>
      </trkpt>
      <trkpt lat="40.646779" lon="-3.657611">
        <ele>689.827087</ele>
        <time>2021-03-24T23:44:45.256Z</time>
      </trkpt>
      <trkpt lat="40.646545" lon="-3.659370">
        <ele>684.938130</ele>
        <time>2021-03-24T23:45:05.764Z</time>
      </trkpt>
      <trkpt lat="40.646554" lon="-3.659710">
        <ele>684.460710</ele>
        <time>2021-03-24T23:45:10.122Z</time>
      </trkpt>
      <trkpt lat="40.646760" lon="-3.660181">
        <ele>683.697795</ele>
        <time>2021-03-24T23:45:17.424Z</time>
      </trkpt>
      <trkpt lat="40.646523" lon="-3.660576">
        <ele>682.991110</ele>
        <time>2021-03-24T23:45:24.575Z</time>
      </trkpt>
      <trkpt lat="40.646389" lon="-3.661121">
        <ele>683.305267</ele>
        <time>2021-03-24T23:45:33.539Z</time>
      </trkpt>
      <trkpt lat="40.646417" lon="-3.661669">
        <ele>683.759237</ele>
        <time>2021-03-24T23:45:42.881Z</time>
      </trkpt>
      <trkpt lat="40.646684" lon="-3.662828">
        <ele>684.760378</ele>
        <time>2021-03-24T23:46:04.496Z</time>
      </trkpt>
      <trkpt lat="40.646750" lon="-3.663294">
        <ele>685.346859</ele>
        <time>2021-03-24T23:46:13.144Z</time>
      </trkpt>
      <trkpt lat="40.646709" lon="-3.663902">
        <ele>686.176545</ele>
        <time>2021-03-24T23:46:24.297Z</time>
      </trkpt>
      <trkpt lat="40.646826" lon="-3.664581">
        <ele>687.122982</ele>
        <time>2021-03-24T23:46:37.137Z</time>
      </trkpt>
      <trkpt lat="40.647020" lon="-3.665310">
        <ele>688.203690</ele>
        <time>2021-03-24T23:46:51.711Z</time>
      </trkpt>
      <trkpt lat="40.647040" lon="-3.665619">
        <ele>688.753475</ele>
        <time>2021-03-24T23:46:57.714Z</time>
      </trkpt>
      <trkpt lat="40.646880" lon="-3.666580">
        <ele>690.497672</ele>
        <time>2021-03-24T23:47:17.354Z</time>
      </trkpt>
      <trkpt lat="40.646924" lon="-3.667238">
        <ele>691.668698</ele>
        <time>2021-03-24T23:47:30.665Z</time>
      </trkpt>
      <trkpt lat="40.646736" lon="-3.668569">
        <ele>694.534262</ele>
        <time>2021-03-24T23:47:58.183Z</time>
      </trkpt>
      <trkpt lat="40.646341" lon="-3.670141">
        <ele>698.395041</ele>
        <time>2021-03-24T23:48:33.865Z</time>
      </trkpt>
      <trkpt lat="40.646336" lon="-3.670158">
        <ele>698.445772</ele>
        <time>2021-03-24T23:48:34.867Z</time>
      </trkpt>
      <trkpt lat="40.646099" lon="-3.671873">
        <ele>703.296144</ele>
        <time>2021-03-24T23:49:14.775Z</time>
      </trkpt>
      <trkpt lat="40.646049" lon="-3.672237">
        <ele>704.309858</ele>
        <time>2021-03-24T23:49:23.867Z</time>
      </trkpt>
      <trkpt lat="40.645746" lon="-3.675667">
        <ele>712.798120</ele>
        <time>2021-03-24T23:50:39.220Z</time>
      </trkpt>
      <trkpt lat="40.645355" lon="-3.676645">
        <ele>715.388566</ele>
        <time>2021-03-24T23:51:02.625Z</time>
      </trkpt>
      <trkpt lat="40.645041" lon="-3.677954">
        <ele>718.661048</ele>
        <time>2021-03-24T23:51:31.958Z</time>
      </trkpt>
      <trkpt lat="40.645083" lon="-3.679053">
        <ele>721.288484</ele>
        <time>2021-03-24T23:51:56.113Z</time>
      </trkpt>
      <trkpt lat="40.644861" lon="-3.680072">
        <ele>724.040635</ele>
        <time>2021-03-24T23:52:20.021Z</time>
      </trkpt>
      <trkpt lat="40.644862" lon="-3.680676">
        <ele>725.611206</ele>
        <time>2021-03-24T23:52:33.868Z</time>
      </trkpt>
      <trkpt lat="40.644529" lon="-3.681551">
        <ele>727.719063</ele>
        <time>2021-03-24T23:52:55.424Z</time>
      </trkpt>
      <trkpt lat="40.644121" lon="-3.682028">
        <ele>728.335066</ele>
        <time>2021-03-24T23:53:10.477Z</time>
      </trkpt>
      <trkpt lat="40.643230" lon="-3.683989">
        <ele>727.043899</ele>
        <time>2021-03-24T23:53:43.028Z</time>
      </trkpt>
      <trkpt lat="40.643543" lon="-3.686074">
        <ele>719.131238</ele>
        <time>2021-03-24T23:54:05.881Z</time>
      </trkpt>
      <trkpt lat="40.643618" lon="-3.687712">
        <ele>709.565237</ele>
        <time>2021-03-24T23:54:22.349Z</time>
      </trkpt>
      <trkpt lat="40.643539" lon="-3.688116">
        <ele>707.440792</ele>
        <time>2021-03-24T23:54:26.594Z</time>
      </trkpt>
      <trkpt lat="40.643369" lon="-3.688544">
        <ele>705.078076</ele>
        <time>2021-03-24T23:54:31.548Z</time>
      </trkpt>
      <trkpt lat="40.643246" lon="-3.688763">
        <ele>703.745492</ele>
        <time>2021-03-24T23:54:34.343Z</time>
      </trkpt>
      <trkpt lat="40.643049" lon="-3.689008">
        <ele>701.999592</ele>
        <time>2021-03-24T23:54:38.093Z</time>
      </trkpt>
      <trkpt lat="40.642651" lon="-3.689185">
        <ele>699.292107</ele>
        <time>2021-03-24T23:54:43.969Z</time>
      </trkpt>
      <trkpt lat="40.642574" lon="-3.689299">
        <ele>698.545650</ele>
        <time>2021-03-24T23:54:45.641Z</time>
      </trkpt>
      <trkpt lat="40.642214" lon="-3.691038">
        <ele>694.526812</ele>
        <time>2021-03-24T23:55:06.816Z</time>
      </trkpt>
      <trkpt lat="40.642227" lon="-3.691217">
        <ele>694.193809</ele>
        <time>2021-03-24T23:55:09.186Z</time>
      </trkpt>
      <trkpt lat="40.642479" lon="-3.691478">
        <ele>693.411583</ele>
        <time>2021-03-24T23:55:14.923Z</time>
      </trkpt>
      <trkpt lat="40.642700" lon="-3.691941">
        <ele>693.487368</ele>
        <time>2021-03-24T23:55:22.771Z</time>
      </trkpt>
      <trkpt lat="40.642700" lon="-3.692061">
        <ele>693.630741</ele>
        <time>2021-03-24T23:55:24.596Z</time>
      </trkpt>
      <trkpt lat="40.642705" lon="-3.692325">
        <ele>693.946259</ele>
        <time>2021-03-24T23:55:28.927Z</time>
      </trkpt>
      <trkpt lat="40.642739" lon="-3.692742">
        <ele>694.447347</ele>
        <time>2021-03-24T23:55:36.231Z</time>
      </trkpt>
      <trkpt lat="40.642562" lon="-3.692919">
        <ele>694.797199</ele>
        <time>2021-03-24T23:55:41.613Z</time>
      </trkpt>
      <trkpt lat="40.642479" lon="-3.693177">
        <ele>695.132011</ele>
        <time>2021-03-24T23:55:47.169Z</time>
      </trkpt>
      <trkpt lat="40.642460" lon="-3.693897">
        <ele>696.178760</ele>
        <time>2021-03-24T23:56:02.604Z</time>
      </trkpt>
      <trkpt lat="40.642538" lon="-3.694243">
        <ele>697.410103</ele>
        <time>2021-03-24T23:56:10.972Z</time>
      </trkpt>
      <trkpt lat="40.642831" lon="-3.694725">
        <ele>699.516993</ele>
        <time>2021-03-24T23:56:25.636Z</time>
      </trkpt>
      <trkpt lat="40.642891" lon="-3.695012">
        <ele>700.532547</ele>
        <time>2021-03-24T23:56:33.015Z</time>
      </trkpt>
      <trkpt lat="40.642901" lon="-3.695667">
        <ele>702.767467</ele>
        <time>2021-03-24T23:56:50.004Z</time>
      </trkpt>
      <trkpt lat="40.642845" lon="-3.696461">
        <ele>705.933059</ele>
        <time>2021-03-24T23:57:11.732Z</time>
      </trkpt>
      <trkpt lat="40.642881" lon="-3.697338">
        <ele>709.813443</ele>
        <time>2021-03-24T23:57:36.582Z</time>
      </trkpt>
      <trkpt lat="40.642775" lon="-3.699384">
        <ele>718.177262</ele>
        <time>2021-03-24T23:58:33.583Z</time>
      </trkpt>
      <trkpt lat="40.642850" lon="-3.699983">
        <ele>720.436895</ele>
        <time>2021-03-24T23:58:49.123Z</time>
      </trkpt>
      <trkpt lat="40.643158" lon="-3.701047">
        <ele>724.075600</ele>
        <time>2021-03-24T23:59:15.933Z</time>
      </trkpt>
      <trkpt lat="40.643165" lon="-3.701221">
        <ele>724.446404</ele>
        <time>2021-03-24T23:59:19.772Z</time>
      </trkpt>
      <trkpt lat="40.643102" lon="-3.701436">
        <ele>724.936871</ele>
        <time>2021-03-24T23:59:24.712Z</time>
      </trkpt>
      <trkpt lat="40.642913" lon="-3.701722">
        <ele>725.743965</ele>
        <time>2021-03-24T23:59:32.624Z</time>
      </trkpt>
      <trkpt lat="40.642755" lon="-3.701875">
        <ele>726.293849</ele>
        <time>2021-03-24T23:59:37.835Z</time>
      </trkpt>
      <trkpt lat="40.641754" lon="-3.703375">
        <ele>729.899780</ele>
        <time>2021-03-25T00:00:16.316Z</time>
      </trkpt>
      <trkpt lat="40.641521" lon="-3.703648">
        <ele>730.520741</ele>
        <time>2021-03-25T00:00:23.939Z</time>
      </trkpt>
      <trkpt lat="40.641401" lon="-3.704700">
        <ele>732.128303</ele>
        <time>2021-03-25T00:00:44.075Z</time>
      </trkpt>
      <trkpt lat="40.641193" lon="-3.705658">
        <ele>733.632848</ele>
        <time>2021-03-25T00:01:03.288Z</time>
      </trkpt>
      <trkpt lat="40.641124" lon="-3.706356">
        <ele>734.695675</ele>
        <time>2021-03-25T00:01:16.665Z</time>
      </trkpt>
      <trkpt lat="40.641268" lon="-3.706704">
        <ele>735.294176</ele>
        <time>2021-03-25T00:01:24.112Z</time>
      </trkpt>
      <trkpt lat="40.641940" lon="-3.707722">
        <ele>736.919018</ele>
        <time>2021-03-25T00:01:49.171Z</time>
      </trkpt>
      <trkpt lat="40.642435" lon="-3.708081">
        <ele>737.792751</ele>
        <time>2021-03-25T00:02:02.194Z</time>
      </trkpt>
      <trkpt lat="40.642651" lon="-3.708255">
        <ele>738.184235</ele>
        <time>2021-03-25T00:02:07.978Z</time>
      </trkpt>
      <trkpt lat="40.642988" lon="-3.708988">
        <ele>739.092156</ele>
        <time>2021-03-25T00:02:22.608Z</time>
      </trkpt>
      <trkpt lat="40.643230" lon="-3.709637">
        <ele>739.851287</ele>
        <time>2021-03-25T00:02:35.030Z</time>
      </trkpt>
      <trkpt lat="40.643424" lon="-3.710521">
        <ele>740.868902</ele>
        <time>2021-03-25T00:02:51.704Z</time>
      </trkpt>
      <trkpt lat="40.643452" lon="-3.711499">
        <ele>742.688908</ele>
        <time>2021-03-25T00:03:10.512Z</time>
      </trkpt>
      <trkpt lat="40.643534" lon="-3.712232">
        <ele>744.066746</ele>
        <time>2021-03-25T00:03:25.702Z</time>
      </trkpt>
      <trkpt lat="40.643661" lon="-3.712689">
        <ele>744.971797</ele>
        <time>2021-03-25T00:03:35.986Z</time>
      </trkpt>
      <trkpt lat="40.643834" lon="-3.713296">
        <ele>746.514627</ele>
        <time>2021-03-25T00:03:50.073Z</time>
      </trkpt>
      <trkpt lat="40.644890" lon="-3.715859">
        <ele>754.004632</ele>
        <time>2021-03-25T00:04:54.717Z</time>
      </trkpt>
      <trkpt lat="40.645131" lon="-3.716680">
        <ele>756.402439</ele>
        <time>2021-03-25T00:05:14.722Z</time>
      </trkpt>
      <trkpt lat="40.645286" lon="-3.717210">
        <ele>758.012598</ele>
        <time>2021-03-25T00:05:28.025Z</time>
      </trkpt>
      <trkpt lat="40.645357" lon="-3.717394">
        <ele>758.650582</ele>
        <time>2021-03-25T00:05:33.137Z</time>
      </trkpt>
      <trkpt lat="40.645423" lon="-3.717673">
        <ele>759.553795</ele>
        <time>2021-03-25T00:05:38.847Z</time>
      </trkpt>
      <trkpt lat="40.645435" lon="-3.717814">
        <ele>759.992302</ele>
        <time>2021-03-25T00:05:41.971Z</time>
      </trkpt>
      <trkpt lat="40.645470" lon="-3.718165">
        <ele>761.086429</ele>
        <time>2021-03-25T00:05:50.047Z</time>
      </trkpt>
      <trkpt lat="40.645468" lon="-3.718282">
        <ele>761.448121</ele>
        <time>2021-03-25T00:05:53.041Z</time>
      </trkpt>
      <trkpt lat="40.645470" lon="-3.718706">
        <ele>762.758558</ele>
        <time>2021-03-25T00:06:03.064Z</time>
      </trkpt>
      <trkpt lat="40.645420" lon="-3.719099">
        <ele>763.990120</ele>
        <time>2021-03-25T00:06:12.436Z</time>
      </trkpt>
      <trkpt lat="40.645434" lon="-3.719624">
        <ele>765.813608</ele>
        <time>2021-03-25T00:06:25.292Z</time>
      </trkpt>
      <trkpt lat="40.645301" lon="-3.719995">
        <ele>767.396461</ele>
        <time>2021-03-25T00:06:35.639Z</time>
      </trkpt>
      <trkpt lat="40.644747" lon="-3.720598">
        <ele>771.049389</ele>
        <time>2021-03-25T00:07:00.721Z</time>
      </trkpt>
      <trkpt lat="40.644670" lon="-3.720911">
        <ele>772.318693</ele>
        <time>2021-03-25T00:07:09.319Z</time>
      </trkpt>
      <trkpt lat="40.644713" lon="-3.721206">
        <ele>773.477492</ele>
        <time>2021-03-25T00:07:17.746Z</time>
      </trkpt>
      <trkpt lat="40.644821" lon="-3.721698">
        <ele>775.479454</ele>
        <time>2021-03-25T00:07:31.693Z</time>
      </trkpt>
      <trkpt lat="40.644859" lon="-3.721919">
        <ele>776.368855</ele>
        <time>2021-03-25T00:07:37.584Z</time>
      </trkpt>
      <trkpt lat="40.644880" lon="-3.722058">
        <ele>776.925129</ele>
        <time>2021-03-25T00:07:41.870Z</time>
      </trkpt>
      <trkpt lat="40.644877" lon="-3.722207">
        <ele>777.510148</ele>
        <time>2021-03-25T00:07:45.457Z</time>
      </trkpt>
      <trkpt lat="40.644772" lon="-3.722835">
        <ele>780.034134</ele>
        <time>2021-03-25T00:08:02.204Z</time>
      </trkpt>
      <trkpt lat="40.644653" lon="-3.723292">
        <ele>781.930514</ele>
        <time>2021-03-25T00:08:14.822Z</time>
      </trkpt>
      <trkpt lat="40.644558" lon="-3.723387">
        <ele>782.547377</ele>
        <time>2021-03-25T00:08:19.581Z</time>
      </trkpt>
      <trkpt lat="40.644254" lon="-3.723470">
        <ele>783.883037</ele>
        <time>2021-03-25T00:08:29.834Z</time>
      </trkpt>
      <trkpt lat="40.643524" lon="-3.724010">
        <ele>786.908370</ele>
        <time>2021-03-25T00:08:55.499Z</time>
      </trkpt>
      <trkpt lat="40.643353" lon="-3.724221">
        <ele>787.754940</ele>
        <time>2021-03-25T00:09:01.886Z</time>
      </trkpt>
      <trkpt lat="40.643337" lon="-3.724352">
        <ele>788.118790</ele>
        <time>2021-03-25T00:09:05.108Z</time>
      </trkpt>
      <trkpt lat="40.643291" lon="-3.724472">
        <ele>788.487461</ele>
        <time>2021-03-25T00:09:07.629Z</time>
      </trkpt>
      <trkpt lat="40.643320" lon="-3.724804">
        <ele>789.403878</ele>
        <time>2021-03-25T00:09:14.707Z</time>
      </trkpt>
      <trkpt lat="40.643412" lon="-3.725853">
        <ele>791.134129</ele>
        <time>2021-03-25T00:09:36.162Z</time>
      </trkpt>
      <trkpt lat="40.643525" lon="-3.726300">
        <ele>791.833983</ele>
        <time>2021-03-25T00:09:45.664Z</time>
      </trkpt>
      <trkpt lat="40.643765" lon="-3.726727">
        <ele>792.623305</ele>
        <time>2021-03-25T00:09:54.950Z</time>
      </trkpt>
      <trkpt lat="40.643932" lon="-3.727145">
        <ele>793.291035</ele>
        <time>2021-03-25T00:10:02.807Z</time>
      </trkpt>
      <trkpt lat="40.644124" lon="-3.727721">
        <ele>793.553934</ele>
        <time>2021-03-25T00:10:13.083Z</time>
      </trkpt>
      <trkpt lat="40.644334" lon="-3.728499">
        <ele>793.898998</ele>
        <time>2021-03-25T00:10:26.015Z</time>
      </trkpt>
      <trkpt lat="40.644479" lon="-3.728848">
        <ele>794.065267</ele>
        <time>2021-03-25T00:10:32.098Z</time>
      </trkpt>
      <trkpt lat="40.644677" lon="-3.729042">
        <ele>794.201144</ele>
        <time>2021-03-25T00:10:37.030Z</time>
      </trkpt>
      <trkpt lat="40.644770" lon="-3.729224">
        <ele>794.264291</ele>
        <time>2021-03-25T00:10:40.346Z</time>
      </trkpt>
      <trkpt lat="40.644870" lon="-3.729912">
        <ele>794.216499</ele>
        <time>2021-03-25T00:10:50.653Z</time>
      </trkpt>
      <trkpt lat="40.644969" lon="-3.730294">
        <ele>794.188959</ele>
        <time>2021-03-25T00:10:56.594Z</time>
      </trkpt>
      <trkpt lat="40.645001" lon="-3.730793">
        <ele>794.154793</ele>
        <time>2021-03-25T00:11:03.804Z</time>
      </trkpt>
      <trkpt lat="40.645115" lon="-3.731228">
        <ele>794.123395</ele>
        <time>2021-03-25T00:11:10.315Z</time>
      </trkpt>
      <trkpt lat="40.645337" lon="-3.731778">
        <ele>793.938644</ele>
        <time>2021-03-25T00:11:18.935Z</time>
      </trkpt>
      <trkpt lat="40.645576" lon="-3.732145">
        <ele>793.722858</ele>
        <time>2021-03-25T00:11:25.484Z</time>
      </trkpt>
      <trkpt lat="40.646723" lon="-3.733543">
        <ele>792.857182</ele>
        <time>2021-03-25T00:11:43.030Z</time>
      </trkpt>
      <trkpt lat="40.646804" lon="-3.733699">
        <ele>792.791108</ele>
        <time>2021-03-25T00:11:44.615Z</time>
      </trkpt>
      <trkpt lat="40.646750" lon="-3.733826">
        <ele>792.740221</ele>
        <time>2021-03-25T00:11:46.051Z</time>
      </trkpt>
      <trkpt lat="40.646588" lon="-3.734117">
        <ele>792.614061</ele>
        <time>2021-03-25T00:11:49.198Z</time>
      </trkpt>
      <trkpt lat="40.646563" lon="-3.734226">
        <ele>792.574258</ele>
        <time>2021-03-25T00:11:50.277Z</time>
      </trkpt>
      <trkpt lat="40.646619" lon="-3.734360">
        <ele>792.520784</ele>
        <time>2021-03-25T00:11:51.588Z</time>
      </trkpt>
      <trkpt lat="40.646947" lon="-3.734639">
        <ele>792.340941</ele>
        <time>2021-03-25T00:11:55.946Z</time>
      </trkpt>
      <trkpt lat="40.646974" lon="-3.734703">
        <ele>792.315345</ele>
        <time>2021-03-25T00:11:56.590Z</time>
      </trkpt>
      <trkpt lat="40.646630" lon="-3.734603">
        <ele>792.082126</ele>
        <time>2021-03-25T00:12:00.548Z</time>
      </trkpt>
      <trkpt lat="40.646315" lon="-3.734329">
        <ele>791.724834</ele>
        <time>2021-03-25T00:12:05.027Z</time>
      </trkpt>
      <trkpt lat="40.646195" lon="-3.734069">
        <ele>791.506244</ele>
        <time>2021-03-25T00:12:07.639Z</time>
      </trkpt>
      <trkpt lat="40.646062" lon="-3.734072">
        <ele>791.380319</ele>
        <time>2021-03-25T00:12:09.982Z</time>
      </trkpt>
      <trkpt lat="40.645711" lon="-3.733280">
        <ele>790.721504</ele>
        <time>2021-03-25T00:12:17.228Z</time>
      </trkpt>
      <trkpt lat="40.645347" lon="-3.732689">
        <ele>790.023865</ele>
        <time>2021-03-25T00:12:23.171Z</time>
      </trkpt>
      <trkpt lat="40.644298" lon="-3.731433">
        <ele>788.091742</ele>
        <time>2021-03-25T00:12:38.004Z</time>
      </trkpt>
      <trkpt lat="40.643782" lon="-3.731078">
        <ele>786.957989</ele>
        <time>2021-03-25T00:12:43.914Z</time>
      </trkpt>
      <trkpt lat="40.643263" lon="-3.730918">
        <ele>785.909159</ele>
        <time>2021-03-25T00:12:49.217Z</time>
      </trkpt>
      <trkpt lat="40.642725" lon="-3.730943">
        <ele>784.849854</ele>
        <time>2021-03-25T00:12:54.469Z</time>
      </trkpt>
      <trkpt lat="40.641263" lon="-3.731406">
        <ele>780.944427</ele>
        <time>2021-03-25T00:13:08.606Z</time>
      </trkpt>
      <trkpt lat="40.641085" lon="-3.731459">
        <ele>780.456336</ele>
        <time>2021-03-25T00:13:10.275Z</time>
      </trkpt>
      <trkpt lat="40.640873" lon="-3.731519">
        <ele>779.876378</ele>
        <time>2021-03-25T00:13:12.371Z</time>
      </trkpt>
      <trkpt lat="40.640539" lon="-3.731628">
        <ele>778.962199</ele>
        <time>2021-03-25T00:13:15.624Z</time>
      </trkpt>
      <trkpt lat="40.640277" lon="-3.731676">
        <ele>778.260421</ele>
        <time>2021-03-25T00:13:18.119Z</time>
      </trkpt>
      <trkpt lat="40.640118" lon="-3.731694">
        <ele>777.837036</ele>
        <time>2021-03-25T00:13:19.653Z</time>
      </trkpt>
      <trkpt lat="40.639996" lon="-3.731716">
        <ele>777.510351</ele>
        <time>2021-03-25T00:13:20.781Z</time>
      </trkpt>
      <trkpt lat="40.639852" lon="-3.731781">
        <ele>777.106526</ele>
        <time>2021-03-25T00:13:22.280Z</time>
      </trkpt>
      <trkpt lat="40.639499" lon="-3.732099">
        <ele>775.972105</ele>
        <time>2021-03-25T00:13:26.317Z</time>
      </trkpt>
      <trkpt lat="40.639050" lon="-3.732505">
        <ele>774.450544</ele>
        <time>2021-03-25T00:13:31.440Z</time>
      </trkpt>
      <trkpt lat="40.638885" lon="-3.732568">
        <ele>773.910578</ele>
        <time>2021-03-25T00:13:33.079Z</time>
      </trkpt>
      <trkpt lat="40.638697" lon="-3.732528">
        <ele>773.311996</ele>
        <time>2021-03-25T00:13:34.837Z</time>
      </trkpt>
      <trkpt lat="40.638515" lon="-3.732460">
        <ele>772.717376</ele>
        <time>2021-03-25T00:13:36.614Z</time>
      </trkpt>
      <trkpt lat="40.638354" lon="-3.732278">
        <ele>772.050632</ele>
        <time>2021-03-25T00:13:38.591Z</time>
      </trkpt>
      <trkpt lat="40.638256" lon="-3.731631">
        <ele>770.476958</ele>
        <time>2021-03-25T00:13:43.193Z</time>
      </trkpt>
      <trkpt lat="40.638141" lon="-3.731503">
        <ele>770.003804</ele>
        <time>2021-03-25T00:13:44.523Z</time>
      </trkpt>
      <trkpt lat="40.636993" lon="-3.731005">
        <ele>766.057350</ele>
        <time>2021-03-25T00:13:55.370Z</time>
      </trkpt>
      <trkpt lat="40.636796" lon="-3.730910">
        <ele>765.366442</ele>
        <time>2021-03-25T00:13:57.255Z</time>
      </trkpt>
      <trkpt lat="40.636649" lon="-3.730840">
        <ele>764.851649</ele>
        <time>2021-03-25T00:13:58.746Z</time>
      </trkpt>
      <trkpt lat="40.636581" lon="-3.730811">
        <ele>764.616252</ele>
        <time>2021-03-25T00:13:59.390Z</time>
      </trkpt>
      <trkpt lat="40.636190" lon="-3.730641">
        <ele>763.299379</ele>
        <time>2021-03-25T00:14:03.272Z</time>
      </trkpt>
      <trkpt lat="40.635755" lon="-3.730448">
        <ele>762.346871</ele>
        <time>2021-03-25T00:14:07.610Z</time>
      </trkpt>
      <trkpt lat="40.635052" lon="-3.730179">
        <ele>760.827740</ele>
        <time>2021-03-25T00:14:14.784Z</time>
      </trkpt>
      <trkpt lat="40.634954" lon="-3.730143">
        <ele>760.616615</ele>
        <time>2021-03-25T00:14:15.820Z</time>
      </trkpt>
      <trkpt lat="40.634818" lon="-3.730092">
        <ele>760.323182</ele>
        <time>2021-03-25T00:14:17.283Z</time>
      </trkpt>
      <trkpt lat="40.634307" lon="-3.729951">
        <ele>759.388750</ele>
        <time>2021-03-25T00:14:22.631Z</time>
      </trkpt>
      <trkpt lat="40.633210" lon="-3.729920">
        <ele>757.973219</ele>
        <time>2021-03-25T00:14:33.950Z</time>
      </trkpt>
      <trkpt lat="40.629065" lon="-3.730539">
        <ele>753.825340</ele>
        <time>2021-03-25T00:15:18.760Z</time>
      </trkpt>
      <trkpt lat="40.628545" lon="-3.730714">
        <ele>753.654581</ele>
        <time>2021-03-25T00:15:24.840Z</time>
      </trkpt>
      <trkpt lat="40.628353" lon="-3.730722">
        <ele>753.593462</ele>
        <time>2021-03-25T00:15:27.033Z</time>
      </trkpt>
      <trkpt lat="40.628128" lon="-3.730663">
        <ele>753.520470</ele>
        <time>2021-03-25T00:15:29.719Z</time>
      </trkpt>
      <trkpt lat="40.627456" lon="-3.730649">
        <ele>753.306634</ele>
        <time>2021-03-25T00:15:37.783Z</time>
      </trkpt>
      <trkpt lat="40.627222" lon="-3.730611">
        <ele>753.321372</ele>
        <time>2021-03-25T00:15:40.754Z</time>
      </trkpt>
      <trkpt lat="40.626530" lon="-3.730497">
        <ele>753.580808</ele>
        <time>2021-03-25T00:15:50.119Z</time>
      </trkpt>
      <trkpt lat="40.626145" lon="-3.730657">
        <ele>753.730987</ele>
        <time>2021-03-25T00:15:55.679Z</time>
      </trkpt>
      <trkpt lat="40.626002" lon="-3.730663">
        <ele>753.784211</ele>
        <time>2021-03-25T00:15:57.624Z</time>
      </trkpt>
      <trkpt lat="40.625343" lon="-3.730499">
        <ele>753.935917</ele>
        <time>2021-03-25T00:16:06.440Z</time>
      </trkpt>
      <trkpt lat="40.624605" lon="-3.730488">
        <ele>753.917360</ele>
        <time>2021-03-25T00:16:15.417Z</time>
      </trkpt>
      <trkpt lat="40.623986" lon="-3.730655">
        <ele>753.901473</ele>
        <time>2021-03-25T00:16:22.891Z</time>
      </trkpt>
      <trkpt lat="40.623477" lon="-3.730611">
        <ele>753.852680</ele>
        <time>2021-03-25T00:16:28.788Z</time>
      </trkpt>
      <trkpt lat="40.622683" lon="-3.730853">
        <ele>753.742699</ele>
        <time>2021-03-25T00:16:38.166Z</time>
      </trkpt>
      <trkpt lat="40.621276" lon="-3.730771">
        <ele>754.073224</ele>
        <time>2021-03-25T00:16:56.277Z</time>
      </trkpt>
      <trkpt lat="40.620915" lon="-3.730973">
        <ele>754.291719</ele>
        <time>2021-03-25T00:17:02.151Z</time>
      </trkpt>
      <trkpt lat="40.620887" lon="-3.730989">
        <ele>754.308721</ele>
        <time>2021-03-25T00:17:02.630Z</time>
      </trkpt>
      <trkpt lat="40.620773" lon="-3.730998">
        <ele>754.372343</ele>
        <time>2021-03-25T00:17:04.094Z</time>
      </trkpt>
      <trkpt lat="40.620674" lon="-3.730959">
        <ele>754.429907</ele>
        <time>2021-03-25T00:17:05.584Z</time>
      </trkpt>
      <trkpt lat="40.620348" lon="-3.730834">
        <ele>754.619052</ele>
        <time>2021-03-25T00:17:10.438Z</time>
      </trkpt>
      <trkpt lat="40.620249" lon="-3.730780">
        <ele>754.665551</ele>
        <time>2021-03-25T00:17:12.171Z</time>
      </trkpt>
      <trkpt lat="40.620000" lon="-3.730568">
        <ele>754.734273</ele>
        <time>2021-03-25T00:17:16.247Z</time>
      </trkpt>
      <trkpt lat="40.619865" lon="-3.730526">
        <ele>754.766426</ele>
        <time>2021-03-25T00:17:18.372Z</time>
      </trkpt>
      <trkpt lat="40.619557" lon="-3.730457">
        <ele>754.838845</ele>
        <time>2021-03-25T00:17:22.440Z</time>
      </trkpt>
      <trkpt lat="40.619318" lon="-3.730385">
        <ele>754.895675</ele>
        <time>2021-03-25T00:17:25.503Z</time>
      </trkpt>
      <trkpt lat="40.618796" lon="-3.730154">
        <ele>755.023317</ele>
        <time>2021-03-25T00:17:32.449Z</time>
      </trkpt>
      <trkpt lat="40.618473" lon="-3.730097">
        <ele>754.981911</ele>
        <time>2021-03-25T00:17:36.242Z</time>
      </trkpt>
      <trkpt lat="40.618311" lon="-3.730057">
        <ele>754.846832</ele>
        <time>2021-03-25T00:17:38.032Z</time>
      </trkpt>
      <trkpt lat="40.618188" lon="-3.730022">
        <ele>754.743703</ele>
        <time>2021-03-25T00:17:39.439Z</time>
      </trkpt>
      <trkpt lat="40.617910" lon="-3.729938">
        <ele>754.509951</ele>
        <time>2021-03-25T00:17:42.516Z</time>
      </trkpt>
      <trkpt lat="40.616981" lon="-3.729563">
        <ele>753.713648</ele>
        <time>2021-03-25T00:17:52.996Z</time>
      </trkpt>
      <trkpt lat="40.616050" lon="-3.728980">
        <ele>752.370052</ele>
        <time>2021-03-25T00:18:03.924Z</time>
      </trkpt>
      <trkpt lat="40.615824" lon="-3.728771">
        <ele>751.989165</ele>
        <time>2021-03-25T00:18:06.789Z</time>
      </trkpt>
      <trkpt lat="40.615550" lon="-3.728420">
        <ele>751.461978</ele>
        <time>2021-03-25T00:18:10.718Z</time>
      </trkpt>
      <trkpt lat="40.615170" lon="-3.727630">
        <ele>749.992024</ele>
        <time>2021-03-25T00:18:17.805Z</time>
      </trkpt>
      <trkpt lat="40.614998" lon="-3.727412">
        <ele>749.408499</ele>
        <time>2021-03-25T00:18:20.107Z</time>
      </trkpt>
      <trkpt lat="40.614358" lon="-3.727176">
        <ele>747.783692</ele>
        <time>2021-03-25T00:18:26.332Z</time>
      </trkpt>
      <trkpt lat="40.614253" lon="-3.727054">
        <ele>747.441406</ele>
        <time>2021-03-25T00:18:27.630Z</time>
      </trkpt>
      <trkpt lat="40.614328" lon="-3.725951">
        <ele>745.874431</ele>
        <time>2021-03-25T00:18:35.564Z</time>
      </trkpt>
      <trkpt lat="40.614168" lon="-3.725612">
        <ele>745.404648</ele>
        <time>2021-03-25T00:18:38.511Z</time>
      </trkpt>
      <trkpt lat="40.614010" lon="-3.725400">
        <ele>745.055006</ele>
        <time>2021-03-25T00:18:40.750Z</time>
      </trkpt>
      <trkpt lat="40.613670" lon="-3.725050">
        <ele>744.386044</ele>
        <time>2021-03-25T00:18:45.154Z</time>
      </trkpt>
      <trkpt lat="40.611990" lon="-3.723720">
        <ele>745.628139</ele>
        <time>2021-03-25T00:19:14.635Z</time>
      </trkpt>
      <trkpt lat="40.611160" lon="-3.723270">
        <ele>746.699603</ele>
        <time>2021-03-25T00:19:31.297Z</time>
      </trkpt>
      <trkpt lat="40.610642" lon="-3.722942">
        <ele>747.403102</ele>
        <time>2021-03-25T00:19:40.449Z</time>
      </trkpt>
      <trkpt lat="40.610512" lon="-3.722638">
        <ele>747.727321</ele>
        <time>2021-03-25T00:19:44.542Z</time>
      </trkpt>
      <trkpt lat="40.610459" lon="-3.722542">
        <ele>747.837622</ele>
        <time>2021-03-25T00:19:45.583Z</time>
      </trkpt>
      <trkpt lat="40.610309" lon="-3.722444">
        <ele>747.907683</ele>
        <time>2021-03-25T00:19:47.785Z</time>
      </trkpt>
      <trkpt lat="40.609862" lon="-3.721948">
        <ele>747.404963</ele>
        <time>2021-03-25T00:19:54.528Z</time>
      </trkpt>
      <trkpt lat="40.609540" lon="-3.721740">
        <ele>747.096485</ele>
        <time>2021-03-25T00:19:58.411Z</time>
      </trkpt>
      <trkpt lat="40.609418" lon="-3.721729">
        <ele>746.991302</ele>
        <time>2021-03-25T00:19:59.604Z</time>
      </trkpt>
      <trkpt lat="40.608787" lon="-3.721674">
        <ele>746.447363</ele>
        <time>2021-03-25T00:20:06.120Z</time>
      </trkpt>
      <trkpt lat="40.608693" lon="-3.721619">
        <ele>746.306536</ele>
        <time>2021-03-25T00:20:07.069Z</time>
      </trkpt>
      <trkpt lat="40.608491" lon="-3.721611">
        <ele>745.974060</ele>
        <time>2021-03-25T00:20:09.258Z</time>
      </trkpt>
      <trkpt lat="40.608285" lon="-3.721605">
        <ele>745.635069</ele>
        <time>2021-03-25T00:20:11.311Z</time>
      </trkpt>
      <trkpt lat="40.608117" lon="-3.721408">
        <ele>745.265026</ele>
        <time>2021-03-25T00:20:13.674Z</time>
      </trkpt>
      <trkpt lat="40.607934" lon="-3.721234">
        <ele>744.893715</ele>
        <time>2021-03-25T00:20:15.960Z</time>
      </trkpt>
      <trkpt lat="40.607641" lon="-3.721116">
        <ele>744.389649</ele>
        <time>2021-03-25T00:20:19.063Z</time>
      </trkpt>
      <trkpt lat="40.607278" lon="-3.721101">
        <ele>743.792155</ele>
        <time>2021-03-25T00:20:22.696Z</time>
      </trkpt>
      <trkpt lat="40.607082" lon="-3.721269">
        <ele>743.408542</ele>
        <time>2021-03-25T00:20:25.061Z</time>
      </trkpt>
      <trkpt lat="40.606930" lon="-3.721300">
        <ele>743.161118</ele>
        <time>2021-03-25T00:20:26.590Z</time>
      </trkpt>
      <trkpt lat="40.606410" lon="-3.721230">
        <ele>742.320276</ele>
        <time>2021-03-25T00:20:31.745Z</time>
      </trkpt>
      <trkpt lat="40.605539" lon="-3.721150">
        <ele>740.915762</ele>
        <time>2021-03-25T00:20:40.449Z</time>
      </trkpt>
      <trkpt lat="40.605430" lon="-3.721130">
        <ele>740.738729</ele>
        <time>2021-03-25T00:20:41.614Z</time>
      </trkpt>
      <trkpt lat="40.603190" lon="-3.720850">
        <ele>739.886782</ele>
        <time>2021-03-25T00:21:07.483Z</time>
      </trkpt>
      <trkpt lat="40.602746" lon="-3.720773">
        <ele>740.092359</ele>
        <time>2021-03-25T00:21:13.624Z</time>
      </trkpt>
      <trkpt lat="40.600231" lon="-3.720339">
        <ele>741.931487</ele>
        <time>2021-03-25T00:21:50.257Z</time>
      </trkpt>
      <trkpt lat="40.598359" lon="-3.719248">
        <ele>744.693981</ele>
        <time>2021-03-25T00:22:23.826Z</time>
      </trkpt>
      <trkpt lat="40.597704" lon="-3.718727">
        <ele>745.573535</ele>
        <time>2021-03-25T00:22:36.670Z</time>
      </trkpt>
      <trkpt lat="40.597562" lon="-3.718391">
        <ele>745.906854</ele>
        <time>2021-03-25T00:22:41.422Z</time>
      </trkpt>
      <trkpt lat="40.597437" lon="-3.718343">
        <ele>746.055493</ele>
        <time>2021-03-25T00:22:43.251Z</time>
      </trkpt>
      <trkpt lat="40.597313" lon="-3.718376">
        <ele>746.199910</ele>
        <time>2021-03-25T00:22:45.088Z</time>
      </trkpt>
      <trkpt lat="40.597255" lon="-3.718476">
        <ele>746.308986</ele>
        <time>2021-03-25T00:22:46.813Z</time>
      </trkpt>
      <trkpt lat="40.597128" lon="-3.718706">
        <ele>746.555493</ele>
        <time>2021-03-25T00:22:49.671Z</time>
      </trkpt>
      <trkpt lat="40.596980" lon="-3.718903">
        <ele>746.782696</ele>
        <time>2021-03-25T00:22:52.899Z</time>
      </trkpt>
      <trkpt lat="40.596809" lon="-3.718885">
        <ele>746.832860</ele>
        <time>2021-03-25T00:22:55.094Z</time>
      </trkpt>
      <trkpt lat="40.596602" lon="-3.718455">
        <ele>746.945908</ele>
        <time>2021-03-25T00:23:00.325Z</time>
      </trkpt>
      <trkpt lat="40.596562" lon="-3.718251">
        <ele>746.992690</ele>
        <time>2021-03-25T00:23:02.601Z</time>
      </trkpt>
      <trkpt lat="40.596467" lon="-3.718094">
        <ele>747.037265</ele>
        <time>2021-03-25T00:23:04.381Z</time>
      </trkpt>
      <trkpt lat="40.596440" lon="-3.718051">
        <ele>747.049655</ele>
        <time>2021-03-25T00:23:04.920Z</time>
      </trkpt>
      <trkpt lat="40.596232" lon="-3.717437">
        <ele>747.198940</ele>
        <time>2021-03-25T00:23:10.749Z</time>
      </trkpt>
      <trkpt lat="40.595818" lon="-3.715857">
        <ele>748.139451</ele>
        <time>2021-03-25T00:23:26.410Z</time>
      </trkpt>
      <trkpt lat="40.595668" lon="-3.715506">
        <ele>748.420397</ele>
        <time>2021-03-25T00:23:30.886Z</time>
      </trkpt>
      <trkpt lat="40.595002" lon="-3.714538">
        <ele>749.708564</ele>
        <time>2021-03-25T00:23:47.772Z</time>
      </trkpt>
      <trkpt lat="40.594327" lon="-3.713847">
        <ele>751.283299</ele>
        <time>2021-03-25T00:24:03.106Z</time>
      </trkpt>
      <trkpt lat="40.593953" lon="-3.713679">
        <ele>752.011145</ele>
        <time>2021-03-25T00:24:09.684Z</time>
      </trkpt>
      <trkpt lat="40.593909" lon="-3.713638">
        <ele>752.110425</ele>
        <time>2021-03-25T00:24:11.289Z</time>
      </trkpt>
      <trkpt lat="40.593845" lon="-3.713592">
        <ele>752.244721</ele>
        <time>2021-03-25T00:24:12.073Z</time>
      </trkpt>
      <trkpt lat="40.593411" lon="-3.713317">
        <ele>752.380874</ele>
        <time>2021-03-25T00:24:19.152Z</time>
      </trkpt>
      <trkpt lat="40.592374" lon="-3.713070">
        <ele>752.631762</ele>
        <time>2021-03-25T00:24:31.887Z</time>
      </trkpt>
      <trkpt lat="40.591435" lon="-3.712757">
        <ele>751.680576</ele>
        <time>2021-03-25T00:24:41.479Z</time>
      </trkpt>
      <trkpt lat="40.590675" lon="-3.712366">
        <ele>750.481421</ele>
        <time>2021-03-25T00:24:49.233Z</time>
      </trkpt>
      <trkpt lat="40.590253" lon="-3.712148">
        <ele>749.807956</ele>
        <time>2021-03-25T00:24:53.477Z</time>
      </trkpt>
      <trkpt lat="40.589515" lon="-3.711674">
        <ele>748.564587</ele>
        <time>2021-03-25T00:25:01.155Z</time>
      </trkpt>
      <trkpt lat="40.589091" lon="-3.711322">
        <ele>747.805594</ele>
        <time>2021-03-25T00:25:05.990Z</time>
      </trkpt>
      <trkpt lat="40.588604" lon="-3.710804">
        <ele>747.365332</ele>
        <time>2021-03-25T00:25:12.268Z</time>
      </trkpt>
      <trkpt lat="40.587017" lon="-3.708685">
        <ele>748.631251</ele>
        <time>2021-03-25T00:25:41.564Z</time>
      </trkpt>
      <trkpt lat="40.586541" lon="-3.708197">
        <ele>749.489260</ele>
        <time>2021-03-25T00:25:52.626Z</time>
      </trkpt>
      <trkpt lat="40.585772" lon="-3.707593">
        <ele>750.836655</ele>
        <time>2021-03-25T00:26:08.386Z</time>
      </trkpt>
      <trkpt lat="40.585620" lon="-3.707484">
        <ele>751.109802</ele>
        <time>2021-03-25T00:26:11.688Z</time>
      </trkpt>
      <trkpt lat="40.585451" lon="-3.707371">
        <ele>751.408928</ele>
        <time>2021-03-25T00:26:14.744Z</time>
      </trkpt>
      <trkpt lat="40.584543" lon="-3.706797">
        <ele>752.930183</ele>
        <time>2021-03-25T00:26:30.445Z</time>
      </trkpt>
      <trkpt lat="40.584456" lon="-3.706818">
        <ele>752.935555</ele>
        <time>2021-03-25T00:26:31.642Z</time>
      </trkpt>
      <trkpt lat="40.584324" lon="-3.707011">
        <ele>752.947535</ele>
        <time>2021-03-25T00:26:34.428Z</time>
      </trkpt>
      <trkpt lat="40.584162" lon="-3.707126">
        <ele>752.958713</ele>
        <time>2021-03-25T00:26:36.612Z</time>
      </trkpt>
      <trkpt lat="40.584120" lon="-3.707152">
        <ele>752.961532</ele>
        <time>2021-03-25T00:26:37.114Z</time>
      </trkpt>
      <trkpt lat="40.584089" lon="-3.707172">
        <ele>752.963629</ele>
        <time>2021-03-25T00:26:37.478Z</time>
      </trkpt>
      <trkpt lat="40.584081" lon="-3.707199">
        <ele>752.964965</ele>
        <time>2021-03-25T00:26:37.907Z</time>
      </trkpt>
      <trkpt lat="40.583921" lon="-3.707345">
        <ele>752.976789</ele>
        <time>2021-03-25T00:26:41.610Z</time>
      </trkpt>
      <trkpt lat="40.583903" lon="-3.707376">
        <ele>752.978589</ele>
        <time>2021-03-25T00:26:42.177Z</time>
      </trkpt>
      <trkpt lat="40.583866" lon="-3.707376">
        <ele>752.980836</ele>
        <time>2021-03-25T00:26:42.844Z</time>
      </trkpt>
      <trkpt lat="40.583600" lon="-3.707415">
        <ele>752.997092</ele>
        <time>2021-03-25T00:26:47.838Z</time>
      </trkpt>
      <trkpt lat="40.583447" lon="-3.707397">
        <ele>753.006421</ele>
        <time>2021-03-25T00:26:50.655Z</time>
      </trkpt>
      <trkpt lat="40.583432" lon="-3.707395">
        <ele>753.007337</ele>
        <time>2021-03-25T00:26:50.914Z</time>
      </trkpt>
      <trkpt lat="40.583365" lon="-3.707376">
        <ele>753.011500</ele>
        <time>2021-03-25T00:26:52.213Z</time>
      </trkpt>
      <trkpt lat="40.582615" lon="-3.706920">
        <ele>752.855314</ele>
        <time>2021-03-25T00:27:07.452Z</time>
      </trkpt>
      <trkpt lat="40.582027" lon="-3.707253">
        <ele>752.573059</ele>
        <time>2021-03-25T00:27:19.179Z</time>
      </trkpt>
      <trkpt lat="40.581557" lon="-3.707386">
        <ele>752.361072</ele>
        <time>2021-03-25T00:27:27.931Z</time>
      </trkpt>
      <trkpt lat="40.581387" lon="-3.707384">
        <ele>752.286104</ele>
        <time>2021-03-25T00:27:31.025Z</time>
      </trkpt>
      <trkpt lat="40.580449" lon="-3.707091">
        <ele>751.760729</ele>
        <time>2021-03-25T00:27:48.574Z</time>
      </trkpt>
      <trkpt lat="40.580111" lon="-3.707083">
        <ele>751.572586</ele>
        <time>2021-03-25T00:27:54.702Z</time>
      </trkpt>
      <trkpt lat="40.579901" lon="-3.706902">
        <ele>751.432897</ele>
        <time>2021-03-25T00:27:59.242Z</time>
      </trkpt>
      <trkpt lat="40.579636" lon="-3.706923">
        <ele>751.285146</ele>
        <time>2021-03-25T00:28:04.028Z</time>
      </trkpt>
      <trkpt lat="40.579351" lon="-3.706818">
        <ele>751.122159</ele>
        <time>2021-03-25T00:28:09.384Z</time>
      </trkpt>
      <trkpt lat="40.579347" lon="-3.706816">
        <ele>751.119811</ele>
        <time>2021-03-25T00:28:09.455Z</time>
      </trkpt>
      <trkpt lat="40.579066" lon="-3.706808">
        <ele>750.965590</ele>
        <time>2021-03-25T00:28:14.487Z</time>
      </trkpt>
      <trkpt lat="40.578874" lon="-3.706635">
        <ele>750.837932</ele>
        <time>2021-03-25T00:28:18.697Z</time>
      </trkpt>
      <trkpt lat="40.578662" lon="-3.706550">
        <ele>750.716334</ele>
        <time>2021-03-25T00:28:22.685Z</time>
      </trkpt>
      <trkpt lat="40.578440" lon="-3.706535">
        <ele>750.594362</ele>
        <time>2021-03-25T00:28:26.711Z</time>
      </trkpt>
      <trkpt lat="40.578232" lon="-3.706616">
        <ele>750.475345</ele>
        <time>2021-03-25T00:28:30.671Z</time>
      </trkpt>
      <trkpt lat="40.578064" lon="-3.706773">
        <ele>750.362303</ele>
        <time>2021-03-25T00:28:34.426Z</time>
      </trkpt>
      <trkpt lat="40.577881" lon="-3.706958">
        <ele>750.248520</ele>
        <time>2021-03-25T00:28:38.657Z</time>
      </trkpt>
      <trkpt lat="40.577805" lon="-3.707036">
        <ele>750.229691</ele>
        <time>2021-03-25T00:28:40.442Z</time>
      </trkpt>
      <trkpt lat="40.577436" lon="-3.707545">
        <ele>750.125260</ele>
        <time>2021-03-25T00:28:50.406Z</time>
      </trkpt>
      <trkpt lat="40.577226" lon="-3.707953">
        <ele>750.052112</ele>
        <time>2021-03-25T00:28:57.435Z</time>
      </trkpt>
      <trkpt lat="40.576895" lon="-3.708253">
        <ele>749.973590</ele>
        <time>2021-03-25T00:29:04.985Z</time>
      </trkpt>
      <trkpt lat="40.576825" lon="-3.708303">
        <ele>749.958028</ele>
        <time>2021-03-25T00:29:06.455Z</time>
      </trkpt>
      <trkpt lat="40.576891" lon="-3.708364">
        <ele>749.942271</ele>
        <time>2021-03-25T00:29:07.980Z</time>
      </trkpt>
      <trkpt lat="40.576955" lon="-3.708597">
        <ele>749.905498</ele>
        <time>2021-03-25T00:29:11.512Z</time>
      </trkpt>
      <trkpt lat="40.576974" lon="-3.708640">
        <ele>749.899590</ele>
        <time>2021-03-25T00:29:12.365Z</time>
      </trkpt>
      <trkpt lat="40.576948" lon="-3.708654">
        <ele>749.895444</ele>
        <time>2021-03-25T00:29:12.843Z</time>
      </trkpt>
      <trkpt lat="40.576784" lon="-3.708780">
        <ele>749.867417</ele>
        <time>2021-03-25T00:29:16.426Z</time>
      </trkpt>
      <trkpt lat="40.576664" lon="-3.708764">
        <ele>749.849614</ele>
        <time>2021-03-25T00:29:18.797Z</time>
      </trkpt>
      <trkpt lat="40.575938" lon="-3.709085">
        <ele>749.736572</ele>
        <time>2021-03-25T00:29:33.524Z</time>
      </trkpt>
      <trkpt lat="40.575735" lon="-3.709184">
        <ele>749.704619</ele>
        <time>2021-03-25T00:29:37.630Z</time>
      </trkpt>
      <trkpt lat="40.575728" lon="-3.709187">
        <ele>749.703532</ele>
        <time>2021-03-25T00:29:37.815Z</time>
      </trkpt>
      <trkpt lat="40.575534" lon="-3.709274">
        <ele>749.673281</ele>
        <time>2021-03-25T00:29:41.731Z</time>
      </trkpt>
      <trkpt lat="40.573713" lon="-3.710053">
        <ele>748.337954</ele>
        <time>2021-03-25T00:30:15.962Z</time>
      </trkpt>
      <trkpt lat="40.573622" lon="-3.710097">
        <ele>748.262905</ele>
        <time>2021-03-25T00:30:17.698Z</time>
      </trkpt>
      <trkpt lat="40.573530" lon="-3.710133">
        <ele>748.207287</ele>
        <time>2021-03-25T00:30:19.239Z</time>
      </trkpt>
      <trkpt lat="40.572499" lon="-3.710576">
        <ele>747.639949</ele>
        <time>2021-03-25T00:30:38.042Z</time>
      </trkpt>
      <trkpt lat="40.572315" lon="-3.710657">
        <ele>747.538455</ele>
        <time>2021-03-25T00:30:41.526Z</time>
      </trkpt>
      <trkpt lat="40.572313" lon="-3.710658">
        <ele>747.537336</ele>
        <time>2021-03-25T00:30:41.572Z</time>
      </trkpt>
      <trkpt lat="40.572250" lon="-3.710683">
        <ele>747.502915</ele>
        <time>2021-03-25T00:30:42.827Z</time>
      </trkpt>
      <trkpt lat="40.569274" lon="-3.711973">
        <ele>750.327953</ele>
        <time>2021-03-25T00:31:51.988Z</time>
      </trkpt>
      <trkpt lat="40.569170" lon="-3.712032">
        <ele>750.482433</ele>
        <time>2021-03-25T00:31:54.738Z</time>
      </trkpt>
      <trkpt lat="40.569076" lon="-3.712189">
        <ele>750.689575</ele>
        <time>2021-03-25T00:31:58.621Z</time>
      </trkpt>
      <trkpt lat="40.568877" lon="-3.712340">
        <ele>751.002898</ele>
        <time>2021-03-25T00:32:03.876Z</time>
      </trkpt>
      <trkpt lat="40.568718" lon="-3.712351">
        <ele>751.220090</ele>
        <time>2021-03-25T00:32:07.919Z</time>
      </trkpt>
      <trkpt lat="40.568468" lon="-3.712514">
        <ele>751.621674</ele>
        <time>2021-03-25T00:32:14.460Z</time>
      </trkpt>
      <trkpt lat="40.568400" lon="-3.712508">
        <ele>751.730362</ele>
        <time>2021-03-25T00:32:16.350Z</time>
      </trkpt>
      <trkpt lat="40.568310" lon="-3.712613">
        <ele>751.922145</ele>
        <time>2021-03-25T00:32:19.344Z</time>
      </trkpt>
      <trkpt lat="40.568101" lon="-3.712815">
        <ele>752.335638</ele>
        <time>2021-03-25T00:32:25.951Z</time>
      </trkpt>
      <trkpt lat="40.568037" lon="-3.712807">
        <ele>752.438162</ele>
        <time>2021-03-25T00:32:27.521Z</time>
      </trkpt>
      <trkpt lat="40.567952" lon="-3.712772">
        <ele>752.580194</ele>
        <time>2021-03-25T00:32:29.616Z</time>
      </trkpt>
      <trkpt lat="40.567890" lon="-3.712765">
        <ele>752.679433</ele>
        <time>2021-03-25T00:32:30.988Z</time>
      </trkpt>
      <trkpt lat="40.567841" lon="-3.712797">
        <ele>752.766664</ele>
        <time>2021-03-25T00:32:32.489Z</time>
      </trkpt>
      <trkpt lat="40.567232" lon="-3.713198">
        <ele>753.852598</ele>
        <time>2021-03-25T00:32:48.802Z</time>
      </trkpt>
      <trkpt lat="40.567139" lon="-3.713243">
        <ele>754.010613</ele>
        <time>2021-03-25T00:32:51.060Z</time>
      </trkpt>
      <trkpt lat="40.567093" lon="-3.713309">
        <ele>754.119124</ele>
        <time>2021-03-25T00:32:52.845Z</time>
      </trkpt>
      <trkpt lat="40.566434" lon="-3.713930">
        <ele>754.537439</ele>
        <time>2021-03-25T00:33:10.253Z</time>
      </trkpt>
      <trkpt lat="40.566394" lon="-3.714007">
        <ele>754.557849</ele>
        <time>2021-03-25T00:33:11.746Z</time>
      </trkpt>
      <trkpt lat="40.566283" lon="-3.714082">
        <ele>754.593787</ele>
        <time>2021-03-25T00:33:14.049Z</time>
      </trkpt>
      <trkpt lat="40.565641" lon="-3.714597">
        <ele>754.810335</ele>
        <time>2021-03-25T00:33:28.786Z</time>
      </trkpt>
      <trkpt lat="40.565252" lon="-3.714702">
        <ele>754.537397</ele>
        <time>2021-03-25T00:33:36.062Z</time>
      </trkpt>
      <trkpt lat="40.565164" lon="-3.714725">
        <ele>754.401507</ele>
        <time>2021-03-25T00:33:37.682Z</time>
      </trkpt>
      <trkpt lat="40.565108" lon="-3.714738">
        <ele>754.315379</ele>
        <time>2021-03-25T00:33:38.563Z</time>
      </trkpt>
      <trkpt lat="40.565033" lon="-3.714784">
        <ele>754.190055</ele>
        <time>2021-03-25T00:33:40.000Z</time>
      </trkpt>
      <trkpt lat="40.564740" lon="-3.714972">
        <ele>753.696354</ele>
        <time>2021-03-25T00:33:45.448Z</time>
      </trkpt>
      <trkpt lat="40.563848" lon="-3.715016">
        <ele>752.344350</ele>
        <time>2021-03-25T00:34:00.219Z</time>
      </trkpt>
      <trkpt lat="40.563774" lon="-3.714988">
        <ele>752.227728</ele>
        <time>2021-03-25T00:34:01.540Z</time>
      </trkpt>
      <trkpt lat="40.563711" lon="-3.714932">
        <ele>752.104130</ele>
        <time>2021-03-25T00:34:02.663Z</time>
      </trkpt>
      <trkpt lat="40.563338" lon="-3.714655">
        <ele>751.244041</ele>
        <time>2021-03-25T00:34:09.851Z</time>
      </trkpt>
      <trkpt lat="40.562949" lon="-3.714776">
        <ele>750.441292</ele>
        <time>2021-03-25T00:34:16.485Z</time>
      </trkpt>
      <trkpt lat="40.562841" lon="-3.714795">
        <ele>750.222466</ele>
        <time>2021-03-25T00:34:18.207Z</time>
      </trkpt>
      <trkpt lat="40.562792" lon="-3.714784">
        <ele>750.122638</ele>
        <time>2021-03-25T00:34:19.070Z</time>
      </trkpt>
      <trkpt lat="40.562358" lon="-3.714562">
        <ele>749.187533</ele>
        <time>2021-03-25T00:34:26.572Z</time>
      </trkpt>
      <trkpt lat="40.562054" lon="-3.714516">
        <ele>748.572986</ele>
        <time>2021-03-25T00:34:31.580Z</time>
      </trkpt>
      <trkpt lat="40.561795" lon="-3.714363">
        <ele>748.108217</ele>
        <time>2021-03-25T00:34:36.247Z</time>
      </trkpt>
      <trkpt lat="40.561555" lon="-3.714310">
        <ele>747.717861</ele>
        <time>2021-03-25T00:34:40.387Z</time>
      </trkpt>
      <trkpt lat="40.561237" lon="-3.714307">
        <ele>747.207755</ele>
        <time>2021-03-25T00:34:45.663Z</time>
      </trkpt>
      <trkpt lat="40.560691" lon="-3.714422">
        <ele>746.320794</ele>
        <time>2021-03-25T00:34:55.136Z</time>
      </trkpt>
      <trkpt lat="40.560155" lon="-3.714257">
        <ele>745.487385</ele>
        <time>2021-03-25T00:35:04.517Z</time>
      </trkpt>
      <trkpt lat="40.559986" lon="-3.714170">
        <ele>745.267260</ele>
        <time>2021-03-25T00:35:07.569Z</time>
      </trkpt>
      <trkpt lat="40.558911" lon="-3.713239">
        <ele>743.706290</ele>
        <time>2021-03-25T00:35:29.699Z</time>
      </trkpt>
      <trkpt lat="40.558858" lon="-3.713211">
        <ele>743.637013</ele>
        <time>2021-03-25T00:35:30.788Z</time>
      </trkpt>
      <trkpt lat="40.558780" lon="-3.713204">
        <ele>743.542176</ele>
        <time>2021-03-25T00:35:32.124Z</time>
      </trkpt>
      <trkpt lat="40.558438" lon="-3.713252">
        <ele>743.486458</ele>
        <time>2021-03-25T00:35:38.289Z</time>
      </trkpt>
      <trkpt lat="40.558372" lon="-3.713237">
        <ele>743.493049</ele>
        <time>2021-03-25T00:35:39.426Z</time>
      </trkpt>
      <trkpt lat="40.558264" lon="-3.713210">
        <ele>743.503868</ele>
        <time>2021-03-25T00:35:41.412Z</time>
      </trkpt>
      <trkpt lat="40.558020" lon="-3.713108">
        <ele>743.529063</ele>
        <time>2021-03-25T00:35:46.081Z</time>
      </trkpt>
      <trkpt lat="40.557213" lon="-3.712558">
        <ele>743.618498</ele>
        <time>2021-03-25T00:36:04.650Z</time>
      </trkpt>
      <trkpt lat="40.556923" lon="-3.712495">
        <ele>743.841129</ele>
        <time>2021-03-25T00:36:10.966Z</time>
      </trkpt>
      <trkpt lat="40.556671" lon="-3.712523">
        <ele>744.301036</ele>
        <time>2021-03-25T00:36:16.768Z</time>
      </trkpt>
      <trkpt lat="40.556566" lon="-3.712533">
        <ele>744.492484</ele>
        <time>2021-03-25T00:36:19.415Z</time>
      </trkpt>
      <trkpt lat="40.556481" lon="-3.712566">
        <ele>744.653646</ele>
        <time>2021-03-25T00:36:21.730Z</time>
      </trkpt>
      <trkpt lat="40.555945" lon="-3.712729">
        <ele>745.654074</ele>
        <time>2021-03-25T00:36:35.075Z</time>
      </trkpt>
      <trkpt lat="40.555814" lon="-3.712734">
        <ele>745.892406</ele>
        <time>2021-03-25T00:36:38.593Z</time>
      </trkpt>
      <trkpt lat="40.555750" lon="-3.712735">
        <ele>746.008802</ele>
        <time>2021-03-25T00:36:40.333Z</time>
      </trkpt>
      <trkpt lat="40.555181" lon="-3.712647">
        <ele>747.076142</ele>
        <time>2021-03-25T00:36:54.900Z</time>
      </trkpt>
      <trkpt lat="40.554635" lon="-3.712469">
        <ele>748.280699</ele>
        <time>2021-03-25T00:37:10.086Z</time>
      </trkpt>
      <trkpt lat="40.553334" lon="-3.711926">
        <ele>750.492313</ele>
        <time>2021-03-25T00:37:45.397Z</time>
      </trkpt>
      <trkpt lat="40.553247" lon="-3.711889">
        <ele>750.374854</ele>
        <time>2021-03-25T00:37:47.488Z</time>
      </trkpt>
      <trkpt lat="40.553113" lon="-3.711860">
        <ele>750.200393</ele>
        <time>2021-03-25T00:37:50.456Z</time>
      </trkpt>
      <trkpt lat="40.553021" lon="-3.711917">
        <ele>750.069760</ele>
        <time>2021-03-25T00:37:52.067Z</time>
      </trkpt>
      <trkpt lat="40.552780" lon="-3.712338">
        <ele>749.555236</ele>
        <time>2021-03-25T00:37:58.722Z</time>
      </trkpt>
      <trkpt lat="40.552656" lon="-3.712403">
        <ele>749.383763</ele>
        <time>2021-03-25T00:38:01.055Z</time>
      </trkpt>
      <trkpt lat="40.552485" lon="-3.712374">
        <ele>749.162264</ele>
        <time>2021-03-25T00:38:03.911Z</time>
      </trkpt>
      <trkpt lat="40.552412" lon="-3.712355">
        <ele>749.066665</ele>
        <time>2021-03-25T00:38:05.013Z</time>
      </trkpt>
      <trkpt lat="40.551765" lon="-3.712184">
        <ele>747.814765</ele>
        <time>2021-03-25T00:38:15.525Z</time>
      </trkpt>
      <trkpt lat="40.551591" lon="-3.712160">
        <ele>747.194036</ele>
        <time>2021-03-25T00:38:18.027Z</time>
      </trkpt>
      <trkpt lat="40.551576" lon="-3.712153">
        <ele>747.137569</ele>
        <time>2021-03-25T00:38:18.241Z</time>
      </trkpt>
      <trkpt lat="40.551119" lon="-3.711945">
        <ele>745.421922</ele>
        <time>2021-03-25T00:38:25.382Z</time>
      </trkpt>
      <trkpt lat="40.550718" lon="-3.711885">
        <ele>743.990017</ele>
        <time>2021-03-25T00:38:31.286Z</time>
      </trkpt>
      <trkpt lat="40.550075" lon="-3.711640">
        <ele>741.910974</ele>
        <time>2021-03-25T00:38:41.721Z</time>
      </trkpt>
      <trkpt lat="40.549427" lon="-3.711484">
        <ele>741.105213</ele>
        <time>2021-03-25T00:38:53.088Z</time>
      </trkpt>
      <trkpt lat="40.549346" lon="-3.711330">
        <ele>740.931138</ele>
        <time>2021-03-25T00:38:55.648Z</time>
      </trkpt>
      <trkpt lat="40.549253" lon="-3.711416">
        <ele>740.792110</ele>
        <time>2021-03-25T00:38:57.660Z</time>
      </trkpt>
      <trkpt lat="40.548804" lon="-3.711221">
        <ele>740.213778</ele>
        <time>2021-03-25T00:39:06.119Z</time>
      </trkpt>
      <trkpt lat="40.548705" lon="-3.711191">
        <ele>740.089517</ele>
        <time>2021-03-25T00:39:07.991Z</time>
      </trkpt>
      <trkpt lat="40.548134" lon="-3.711014">
        <ele>739.553953</ele>
        <time>2021-03-25T00:39:18.629Z</time>
      </trkpt>
      <trkpt lat="40.547847" lon="-3.710871">
        <ele>739.316666</ele>
        <time>2021-03-25T00:39:24.208Z</time>
      </trkpt>
      <trkpt lat="40.547711" lon="-3.710883">
        <ele>739.211271</ele>
        <time>2021-03-25T00:39:26.652Z</time>
      </trkpt>
      <trkpt lat="40.547454" lon="-3.710792">
        <ele>739.005486</ele>
        <time>2021-03-25T00:39:31.427Z</time>
      </trkpt>
      <trkpt lat="40.547068" lon="-3.710592">
        <ele>738.684723</ele>
        <time>2021-03-25T00:39:38.566Z</time>
      </trkpt>
      <trkpt lat="40.546970" lon="-3.710655">
        <ele>738.600390</ele>
        <time>2021-03-25T00:39:40.600Z</time>
      </trkpt>
      <trkpt lat="40.546922" lon="-3.710584">
        <ele>738.544553</ele>
        <time>2021-03-25T00:39:41.895Z</time>
      </trkpt>
      <trkpt lat="40.546744" lon="-3.710508">
        <ele>738.441740</ele>
        <time>2021-03-25T00:39:45.018Z</time>
      </trkpt>
      <trkpt lat="40.546552" lon="-3.710426">
        <ele>738.371595</ele>
        <time>2021-03-25T00:39:48.750Z</time>
      </trkpt>
      <trkpt lat="40.546489" lon="-3.710316">
        <ele>738.335223</ele>
        <time>2021-03-25T00:39:50.613Z</time>
      </trkpt>
      <trkpt lat="40.546303" lon="-3.710324">
        <ele>738.270555</ele>
        <time>2021-03-25T00:39:53.835Z</time>
      </trkpt>
      <trkpt lat="40.545820" lon="-3.710042">
        <ele>738.086938</ele>
        <time>2021-03-25T00:40:03.513Z</time>
      </trkpt>
      <trkpt lat="40.545766" lon="-3.710038">
        <ele>738.068144</ele>
        <time>2021-03-25T00:40:04.346Z</time>
      </trkpt>
      <trkpt lat="40.545698" lon="-3.710007">
        <ele>738.043136</ele>
        <time>2021-03-25T00:40:05.992Z</time>
      </trkpt>
      <trkpt lat="40.545095" lon="-3.709731">
        <ele>737.938651</ele>
        <time>2021-03-25T00:40:18.541Z</time>
      </trkpt>
      <trkpt lat="40.544463" lon="-3.709318">
        <ele>738.664967</ele>
        <time>2021-03-25T00:40:34.011Z</time>
      </trkpt>
      <trkpt lat="40.544029" lon="-3.709114">
        <ele>739.139330</ele>
        <time>2021-03-25T00:40:44.858Z</time>
      </trkpt>
      <trkpt lat="40.543545" lon="-3.708740">
        <ele>739.711392</ele>
        <time>2021-03-25T00:40:57.851Z</time>
      </trkpt>
      <trkpt lat="40.543332" lon="-3.708755">
        <ele>739.846840</ele>
        <time>2021-03-25T00:41:02.654Z</time>
      </trkpt>
      <trkpt lat="40.543179" lon="-3.708594">
        <ele>739.971238</ele>
        <time>2021-03-25T00:41:06.989Z</time>
      </trkpt>
      <trkpt lat="40.542842" lon="-3.708470">
        <ele>740.193440</ele>
        <time>2021-03-25T00:41:14.485Z</time>
      </trkpt>
      <trkpt lat="40.542141" lon="-3.708095">
        <ele>740.673949</ele>
        <time>2021-03-25T00:41:29.722Z</time>
      </trkpt>
      <trkpt lat="40.541040" lon="-3.707215">
        <ele>741.095640</ele>
        <time>2021-03-25T00:41:55.062Z</time>
      </trkpt>
      <trkpt lat="40.540749" lon="-3.707089">
        <ele>741.171115</ele>
        <time>2021-03-25T00:42:01.071Z</time>
      </trkpt>
      <trkpt lat="40.540366" lon="-3.706660">
        <ele>741.293697</ele>
        <time>2021-03-25T00:42:11.026Z</time>
      </trkpt>
      <trkpt lat="40.539208" lon="-3.705128">
        <ele>741.626274</ele>
        <time>2021-03-25T00:42:43.835Z</time>
      </trkpt>
      <trkpt lat="40.539192" lon="-3.705115">
        <ele>741.630082</ele>
        <time>2021-03-25T00:42:44.200Z</time>
      </trkpt>
      <trkpt lat="40.539028" lon="-3.704982">
        <ele>741.608687</ele>
        <time>2021-03-25T00:42:47.826Z</time>
      </trkpt>
      <trkpt lat="40.538991" lon="-3.704906">
        <ele>741.574007</ele>
        <time>2021-03-25T00:42:49.091Z</time>
      </trkpt>
      <trkpt lat="40.538974" lon="-3.704949">
        <ele>741.555383</ele>
        <time>2021-03-25T00:42:49.795Z</time>
      </trkpt>
      <trkpt lat="40.538323" lon="-3.705751">
        <ele>741.104500</ele>
        <time>2021-03-25T00:43:06.275Z</time>
      </trkpt>
      <trkpt lat="40.538175" lon="-3.705896">
        <ele>741.011208</ele>
        <time>2021-03-25T00:43:09.567Z</time>
      </trkpt>
      <trkpt lat="40.538133" lon="-3.706122">
        <ele>740.921811</ele>
        <time>2021-03-25T00:43:12.818Z</time>
      </trkpt>
      <trkpt lat="40.538072" lon="-3.706375">
        <ele>740.819824</ele>
        <time>2021-03-25T00:43:16.385Z</time>
      </trkpt>
      <trkpt lat="40.537996" lon="-3.706490">
        <ele>740.761266</ele>
        <time>2021-03-25T00:43:18.495Z</time>
      </trkpt>
      <trkpt lat="40.537674" lon="-3.706680">
        <ele>740.294121</ele>
        <time>2021-03-25T00:43:24.629Z</time>
      </trkpt>
      <trkpt lat="40.536655" lon="-3.707583">
        <ele>738.549228</ele>
        <time>2021-03-25T00:43:45.437Z</time>
      </trkpt>
      <trkpt lat="40.536608" lon="-3.707634">
        <ele>738.462703</ele>
        <time>2021-03-25T00:43:46.431Z</time>
      </trkpt>
      <trkpt lat="40.535453" lon="-3.708875">
        <ele>736.300211</ele>
        <time>2021-03-25T00:44:11.375Z</time>
      </trkpt>
      <trkpt lat="40.535266" lon="-3.708980">
        <ele>736.004456</ele>
        <time>2021-03-25T00:44:14.906Z</time>
      </trkpt>
      <trkpt lat="40.534869" lon="-3.709331">
        <ele>735.558365</ele>
        <time>2021-03-25T00:44:23.311Z</time>
      </trkpt>
      <trkpt lat="40.534445" lon="-3.709682">
        <ele>735.522176</ele>
        <time>2021-03-25T00:44:32.445Z</time>
      </trkpt>
      <trkpt lat="40.532313" lon="-3.711475">
        <ele>735.571286</ele>
        <time>2021-03-25T00:45:23.513Z</time>
      </trkpt>
      <trkpt lat="40.530925" lon="-3.712618">
        <ele>734.501644</ele>
        <time>2021-03-25T00:45:52.806Z</time>
      </trkpt>
      <trkpt lat="40.530479" lon="-3.712999">
        <ele>734.032301</ele>
        <time>2021-03-25T00:46:01.956Z</time>
      </trkpt>
      <trkpt lat="40.530264" lon="-3.713213">
        <ele>733.595000</ele>
        <time>2021-03-25T00:46:06.603Z</time>
      </trkpt>
      <trkpt lat="40.530032" lon="-3.713461">
        <ele>733.097230</ele>
        <time>2021-03-25T00:46:11.785Z</time>
      </trkpt>
      <trkpt lat="40.529979" lon="-3.713672">
        <ele>732.815968</ele>
        <time>2021-03-25T00:46:14.648Z</time>
      </trkpt>
      <trkpt lat="40.529921" lon="-3.713805">
        <ele>732.621895</ele>
        <time>2021-03-25T00:46:16.598Z</time>
      </trkpt>
      <trkpt lat="40.529758" lon="-3.714152">
        <ele>732.105599</ele>
        <time>2021-03-25T00:46:21.753Z</time>
      </trkpt>
      <trkpt lat="40.529587" lon="-3.714545">
        <ele>731.532449</ele>
        <time>2021-03-25T00:46:27.457Z</time>
      </trkpt>
      <trkpt lat="40.529306" lon="-3.715172">
        <ele>730.466237</ele>
        <time>2021-03-25T00:46:36.580Z</time>
      </trkpt>
      <trkpt lat="40.529169" lon="-3.715505">
        <ele>729.818730</ele>
        <time>2021-03-25T00:46:41.201Z</time>
      </trkpt>
      <trkpt lat="40.528224" lon="-3.717864">
        <ele>726.010259</ele>
        <time>2021-03-25T00:47:14.030Z</time>
      </trkpt>
      <trkpt lat="40.527939" lon="-3.718577">
        <ele>725.235026</ele>
        <time>2021-03-25T00:47:24.738Z</time>
      </trkpt>
      <trkpt lat="40.524759" lon="-3.726532">
        <ele>727.523230</ele>
        <time>2021-03-25T00:49:40.484Z</time>
      </trkpt>
      <trkpt lat="40.524647" lon="-3.726883">
        <ele>727.948700</ele>
        <time>2021-03-25T00:49:48.556Z</time>
      </trkpt>
      <trkpt lat="40.524605" lon="-3.727017">
        <ele>728.110702</ele>
        <time>2021-03-25T00:49:51.283Z</time>
      </trkpt>
      <trkpt lat="40.524557" lon="-3.727103">
        <ele>728.229952</ele>
        <time>2021-03-25T00:49:53.467Z</time>
      </trkpt>
      <trkpt lat="40.524456" lon="-3.727184">
        <ele>728.403881</ele>
        <time>2021-03-25T00:49:57.233Z</time>
      </trkpt>
      <trkpt lat="40.523928" lon="-3.728394">
        <ele>729.860121</ele>
        <time>2021-03-25T00:50:27.597Z</time>
      </trkpt>
      <trkpt lat="40.523595" lon="-3.728810">
        <ele>730.481168</ele>
        <time>2021-03-25T00:50:38.597Z</time>
      </trkpt>
      <trkpt lat="40.523523" lon="-3.728924">
        <ele>730.633535</ele>
        <time>2021-03-25T00:50:41.262Z</time>
      </trkpt>
      <trkpt lat="40.523457" lon="-3.728955">
        <ele>730.728311</ele>
        <time>2021-03-25T00:50:42.460Z</time>
      </trkpt>
      <trkpt lat="40.523312" lon="-3.728985">
        <ele>730.926819</ele>
        <time>2021-03-25T00:50:44.869Z</time>
      </trkpt>
      <trkpt lat="40.523070" lon="-3.729261">
        <ele>730.347339</ele>
        <time>2021-03-25T00:50:49.951Z</time>
      </trkpt>
      <trkpt lat="40.522947" lon="-3.729280">
        <ele>729.835940</ele>
        <time>2021-03-25T00:50:52.151Z</time>
      </trkpt>
      <trkpt lat="40.522785" lon="-3.729316">
        <ele>729.157509</ele>
        <time>2021-03-25T00:50:54.594Z</time>
      </trkpt>
      <trkpt lat="40.522264" lon="-3.729990">
        <ele>726.140163</ele>
        <time>2021-03-25T00:51:05.415Z</time>
      </trkpt>
      <trkpt lat="40.522237" lon="-3.730025">
        <ele>725.983637</ele>
        <time>2021-03-25T00:51:05.895Z</time>
      </trkpt>
      <trkpt lat="40.522145" lon="-3.730143">
        <ele>725.453056</ele>
        <time>2021-03-25T00:51:07.862Z</time>
      </trkpt>
      <trkpt lat="40.522062" lon="-3.730228">
        <ele>725.018711</ele>
        <time>2021-03-25T00:51:09.396Z</time>
      </trkpt>
      <trkpt lat="40.521990" lon="-3.730339">
        <ele>724.560679</ele>
        <time>2021-03-25T00:51:10.865Z</time>
      </trkpt>
      <trkpt lat="40.521630" lon="-3.730718">
        <ele>722.548276</ele>
        <time>2021-03-25T00:51:17.332Z</time>
      </trkpt>
      <trkpt lat="40.520626" lon="-3.731772">
        <ele>716.683754</ele>
        <time>2021-03-25T00:51:35.867Z</time>
      </trkpt>
      <trkpt lat="40.520471" lon="-3.731818">
        <ele>715.958304</ele>
        <time>2021-03-25T00:51:38.338Z</time>
      </trkpt>
      <trkpt lat="40.520268" lon="-3.731744">
        <ele>715.342050</ele>
        <time>2021-03-25T00:51:41.912Z</time>
      </trkpt>
      <trkpt lat="40.519840" lon="-3.731281">
        <ele>714.654109</ele>
        <time>2021-03-25T00:51:51.303Z</time>
      </trkpt>
      <trkpt lat="40.519769" lon="-3.731257">
        <ele>714.563100</ele>
        <time>2021-03-25T00:51:52.883Z</time>
      </trkpt>
      <trkpt lat="40.519706" lon="-3.731267">
        <ele>714.484320</ele>
        <time>2021-03-25T00:51:53.907Z</time>
      </trkpt>
      <trkpt lat="40.519544" lon="-3.731291">
        <ele>714.281929</ele>
        <time>2021-03-25T00:51:56.703Z</time>
      </trkpt>
      <trkpt lat="40.519480" lon="-3.731338">
        <ele>714.190932</ele>
        <time>2021-03-25T00:51:58.043Z</time>
      </trkpt>
      <trkpt lat="40.519447" lon="-3.731411">
        <ele>714.110777</ele>
        <time>2021-03-25T00:51:59.552Z</time>
      </trkpt>
      <trkpt lat="40.519379" lon="-3.731504">
        <ele>713.988998</ele>
        <time>2021-03-25T00:52:01.202Z</time>
      </trkpt>
      <trkpt lat="40.517801" lon="-3.732288">
        <ele>711.740494</ele>
        <time>2021-03-25T00:52:31.766Z</time>
      </trkpt>
      <trkpt lat="40.517699" lon="-3.732359">
        <ele>711.580761</ele>
        <time>2021-03-25T00:52:33.570Z</time>
      </trkpt>
      <trkpt lat="40.517576" lon="-3.732404">
        <ele>711.404047</ele>
        <time>2021-03-25T00:52:35.671Z</time>
      </trkpt>
      <trkpt lat="40.517457" lon="-3.732463">
        <ele>711.228020</ele>
        <time>2021-03-25T00:52:37.855Z</time>
      </trkpt>
      <trkpt lat="40.517282" lon="-3.732549">
        <ele>710.969440</ele>
        <time>2021-03-25T00:52:40.713Z</time>
      </trkpt>
      <trkpt lat="40.517191" lon="-3.732684">
        <ele>710.779584</ele>
        <time>2021-03-25T00:52:42.895Z</time>
      </trkpt>
      <trkpt lat="40.517192" lon="-3.732599">
        <ele>710.686908</ele>
        <time>2021-03-25T00:52:43.996Z</time>
      </trkpt>
      <trkpt lat="40.517171" lon="-3.732558">
        <ele>710.632014</ele>
        <time>2021-03-25T00:52:44.479Z</time>
      </trkpt>
      <trkpt lat="40.517116" lon="-3.732403">
        <ele>710.442079</ele>
        <time>2021-03-25T00:52:46.656Z</time>
      </trkpt>
      <trkpt lat="40.516794" lon="-3.732376">
        <ele>709.970805</ele>
        <time>2021-03-25T00:52:51.818Z</time>
      </trkpt>
      <trkpt lat="40.516268" lon="-3.732505">
        <ele>709.189280</ele>
        <time>2021-03-25T00:53:00.724Z</time>
      </trkpt>
      <trkpt lat="40.515874" lon="-3.732532">
        <ele>708.613015</ele>
        <time>2021-03-25T00:53:07.531Z</time>
      </trkpt>
      <trkpt lat="40.515440" lon="-3.732682">
        <ele>708.297476</ele>
        <time>2021-03-25T00:53:15.746Z</time>
      </trkpt>
      <trkpt lat="40.515014" lon="-3.732806">
        <ele>708.982819</ele>
        <time>2021-03-25T00:53:25.484Z</time>
      </trkpt>
      <trkpt lat="40.514849" lon="-3.732778">
        <ele>709.244146</ele>
        <time>2021-03-25T00:53:29.476Z</time>
      </trkpt>
      <trkpt lat="40.514674" lon="-3.732794">
        <ele>709.519697</ele>
        <time>2021-03-25T00:53:33.676Z</time>
      </trkpt>
      <trkpt lat="40.514506" lon="-3.732923">
        <ele>709.825262</ele>
        <time>2021-03-25T00:53:38.586Z</time>
      </trkpt>
      <trkpt lat="40.514082" lon="-3.733052">
        <ele>710.508859</ele>
        <time>2021-03-25T00:53:50.423Z</time>
      </trkpt>
      <trkpt lat="40.513825" lon="-3.733518">
        <ele>711.313017</ele>
        <time>2021-03-25T00:54:02.080Z</time>
      </trkpt>
      <trkpt lat="40.513989" lon="-3.734225">
        <ele>712.608125</ele>
        <time>2021-03-25T00:54:16.338Z</time>
      </trkpt>
      <trkpt lat="40.514019" lon="-3.734458">
        <ele>713.022175</ele>
        <time>2021-03-25T00:54:20.810Z</time>
      </trkpt>
      <trkpt lat="40.514212" lon="-3.734998">
        <ele>714.067641</ele>
        <time>2021-03-25T00:54:32.672Z</time>
      </trkpt>
      <trkpt lat="40.514206" lon="-3.735335">
        <ele>714.658255</ele>
        <time>2021-03-25T00:54:39.659Z</time>
      </trkpt>
      <trkpt lat="40.514269" lon="-3.735783">
        <ele>715.388841</ele>
        <time>2021-03-25T00:54:48.570Z</time>
      </trkpt>
      <trkpt lat="40.514446" lon="-3.736477">
        <ele>716.433401</ele>
        <time>2021-03-25T00:55:02.850Z</time>
      </trkpt>
      <trkpt lat="40.514489" lon="-3.736674">
        <ele>716.725871</ele>
        <time>2021-03-25T00:55:07.309Z</time>
      </trkpt>
      <trkpt lat="40.514537" lon="-3.737107">
        <ele>717.350283</ele>
        <time>2021-03-25T00:55:15.685Z</time>
      </trkpt>
      <trkpt lat="40.514675" lon="-3.737606">
        <ele>718.107989</ele>
        <time>2021-03-25T00:55:25.227Z</time>
      </trkpt>
      <trkpt lat="40.514775" lon="-3.737881">
        <ele>718.460814</ele>
        <time>2021-03-25T00:55:30.157Z</time>
      </trkpt>
      <trkpt lat="40.514800" lon="-3.738133">
        <ele>718.426621</ele>
        <time>2021-03-25T00:55:34.492Z</time>
      </trkpt>
      <trkpt lat="40.514801" lon="-3.738280">
        <ele>718.406842</ele>
        <time>2021-03-25T00:55:36.611Z</time>
      </trkpt>
      <trkpt lat="40.514801" lon="-3.738359">
        <ele>718.396213</ele>
        <time>2021-03-25T00:55:37.911Z</time>
      </trkpt>
      <trkpt lat="40.514759" lon="-3.738422">
        <ele>718.384940</ele>
        <time>2021-03-25T00:55:39.478Z</time>
      </trkpt>
      <trkpt lat="40.514215" lon="-3.738825">
        <ele>718.274445</ele>
        <time>2021-03-25T00:55:50.954Z</time>
      </trkpt>
      <trkpt lat="40.513296" lon="-3.739359">
        <ele>717.983912</ele>
        <time>2021-03-25T00:56:08.809Z</time>
      </trkpt>
      <trkpt lat="40.513232" lon="-3.739397">
        <ele>717.945021</ele>
        <time>2021-03-25T00:56:09.719Z</time>
      </trkpt>
      <trkpt lat="40.513296" lon="-3.739359">
        <ele>717.906129</ele>
        <time>2021-03-25T00:56:10.724Z</time>
      </trkpt>
      <trkpt lat="40.513309" lon="-3.739421">
        <ele>717.879048</ele>
        <time>2021-03-25T00:56:11.208Z</time>
      </trkpt>
      <trkpt lat="40.513323" lon="-3.739500">
        <ele>717.844891</ele>
        <time>2021-03-25T00:56:11.819Z</time>
      </trkpt>
      <trkpt lat="40.513265" lon="-3.739509">
        <ele>717.812544</ele>
        <time>2021-03-25T00:56:12.844Z</time>
      </trkpt>
      <trkpt lat="40.513215" lon="-3.739630">
        <ele>717.754554</ele>
        <time>2021-03-25T00:56:14.642Z</time>
      </trkpt>
      <trkpt lat="40.513194" lon="-3.739701">
        <ele>717.722475</ele>
        <time>2021-03-25T00:56:15.709Z</time>
      </trkpt>
      <trkpt lat="40.513066" lon="-3.739768">
        <ele>717.646173</ele>
        <time>2021-03-25T00:56:17.131Z</time>
      </trkpt>
      <trkpt lat="40.512091" lon="-3.740283">
        <ele>717.124888</ele>
        <time>2021-03-25T00:56:28.768Z</time>
      </trkpt>
      <trkpt lat="40.511972" lon="-3.740331">
        <ele>717.102854</ele>
        <time>2021-03-25T00:56:31.234Z</time>
      </trkpt>
      <trkpt lat="40.511832" lon="-3.740360">
        <ele>717.077766</ele>
        <time>2021-03-25T00:56:34.078Z</time>
      </trkpt>
      <trkpt lat="40.511742" lon="-3.740458">
        <ele>717.057084</ele>
        <time>2021-03-25T00:56:36.339Z</time>
      </trkpt>
      <trkpt lat="40.510167" lon="-3.741378">
        <ele>716.212396</ele>
        <time>2021-03-25T00:57:08.569Z</time>
      </trkpt>
      <trkpt lat="40.509664" lon="-3.741692">
        <ele>715.472732</ele>
        <time>2021-03-25T00:57:18.220Z</time>
      </trkpt>
      <trkpt lat="40.509424" lon="-3.741850">
        <ele>715.116190</ele>
        <time>2021-03-25T00:57:22.661Z</time>
      </trkpt>
      <trkpt lat="40.507890" lon="-3.742860">
        <ele>711.299188</ele>
        <time>2021-03-25T00:57:50.365Z</time>
      </trkpt>
      <trkpt lat="40.507715" lon="-3.742974">
        <ele>710.791650</ele>
        <time>2021-03-25T00:57:53.401Z</time>
      </trkpt>
      <trkpt lat="40.507475" lon="-3.743092">
        <ele>710.125754</ele>
        <time>2021-03-25T00:57:57.656Z</time>
      </trkpt>
      <trkpt lat="40.507059" lon="-3.743440">
        <ele>708.607251</ele>
        <time>2021-03-25T00:58:05.023Z</time>
      </trkpt>
      <trkpt lat="40.506937" lon="-3.743646">
        <ele>707.959190</ele>
        <time>2021-03-25T00:58:08.045Z</time>
      </trkpt>
      <trkpt lat="40.506797" lon="-3.743694">
        <ele>707.486928</ele>
        <time>2021-03-25T00:58:10.133Z</time>
      </trkpt>
      <trkpt lat="40.506593" lon="-3.743637">
        <ele>706.806167</ele>
        <time>2021-03-25T00:58:13.339Z</time>
      </trkpt>
      <trkpt lat="40.506497" lon="-3.743698">
        <ele>706.458147</ele>
        <time>2021-03-25T00:58:14.896Z</time>
      </trkpt>
      <trkpt lat="40.506508" lon="-3.743732">
        <ele>706.366441</ele>
        <time>2021-03-25T00:58:15.275Z</time>
      </trkpt>
      <trkpt lat="40.506497" lon="-3.743698">
        <ele>706.274735</ele>
        <time>2021-03-25T00:58:15.927Z</time>
      </trkpt>
      <trkpt lat="40.506412" lon="-3.743785">
        <ele>705.923158</ele>
        <time>2021-03-25T00:58:17.581Z</time>
      </trkpt>
      <trkpt lat="40.506293" lon="-3.743780">
        <ele>705.534519</ele>
        <time>2021-03-25T00:58:19.552Z</time>
      </trkpt>
      <trkpt lat="40.506194" lon="-3.743776">
        <ele>705.211209</ele>
        <time>2021-03-25T00:58:20.973Z</time>
      </trkpt>
      <trkpt lat="40.505834" lon="-3.743942">
        <ele>703.965962</ele>
        <time>2021-03-25T00:58:27.090Z</time>
      </trkpt>
      <trkpt lat="40.505670" lon="-3.744050">
        <ele>703.808015</ele>
        <time>2021-03-25T00:58:30.034Z</time>
      </trkpt>
      <trkpt lat="40.505662" lon="-3.744177">
        <ele>703.753467</ele>
        <time>2021-03-25T00:58:31.723Z</time>
      </trkpt>
      <trkpt lat="40.505721" lon="-3.744272">
        <ele>703.700962</ele>
        <time>2021-03-25T00:58:33.232Z</time>
      </trkpt>
      <trkpt lat="40.505695" lon="-3.744426">
        <ele>703.633438</ele>
        <time>2021-03-25T00:58:35.162Z</time>
      </trkpt>
      <trkpt lat="40.505806" lon="-3.744623">
        <ele>703.528484</ele>
        <time>2021-03-25T00:58:38.291Z</time>
      </trkpt>
      <trkpt lat="40.505627" lon="-3.744884">
        <ele>703.378033</ele>
        <time>2021-03-25T00:58:43.005Z</time>
      </trkpt>
      <trkpt lat="40.505598" lon="-3.745052">
        <ele>703.304291</ele>
        <time>2021-03-25T00:58:45.315Z</time>
      </trkpt>
      <trkpt lat="40.505465" lon="-3.745162">
        <ele>703.215844</ele>
        <time>2021-03-25T00:58:48.025Z</time>
      </trkpt>
      <trkpt lat="40.505435" lon="-3.745408">
        <ele>703.109199</ele>
        <time>2021-03-25T00:58:52.818Z</time>
      </trkpt>
      <trkpt lat="40.505318" lon="-3.745621">
        <ele>702.996723</ele>
        <time>2021-03-25T00:58:56.506Z</time>
      </trkpt>
      <trkpt lat="40.505321" lon="-3.745970">
        <ele>703.010241</ele>
        <time>2021-03-25T00:59:03.646Z</time>
      </trkpt>
      <trkpt lat="40.505131" lon="-3.746847">
        <ele>704.210552</ele>
        <time>2021-03-25T00:59:21.632Z</time>
      </trkpt>
      <trkpt lat="40.504920" lon="-3.747181">
        <ele>704.782130</ele>
        <time>2021-03-25T00:59:30.097Z</time>
      </trkpt>
      <trkpt lat="40.504779" lon="-3.747614">
        <ele>705.402146</ele>
        <time>2021-03-25T00:59:38.880Z</time>
      </trkpt>
      <trkpt lat="40.504645" lon="-3.747736">
        <ele>705.684279</ele>
        <time>2021-03-25T00:59:42.583Z</time>
      </trkpt>
      <trkpt lat="40.504577" lon="-3.748007">
        <ele>705.982456</ele>
        <time>2021-03-25T00:59:47.763Z</time>
      </trkpt>
      <trkpt lat="40.504183" lon="-3.748556">
        <ele>705.669493</ele>
        <time>2021-03-25T00:59:59.628Z</time>
      </trkpt>
      <trkpt lat="40.504135" lon="-3.748569">
        <ele>705.642773</ele>
        <time>2021-03-25T01:00:00.775Z</time>
      </trkpt>
      <trkpt lat="40.504021" lon="-3.748759">
        <ele>705.542436</ele>
        <time>2021-03-25T01:00:04.164Z</time>
      </trkpt>
      <trkpt lat="40.503886" lon="-3.749173">
        <ele>705.355689</ele>
        <time>2021-03-25T01:00:10.345Z</time>
      </trkpt>
      <trkpt lat="40.503859" lon="-3.749285">
        <ele>705.306980</ele>
        <time>2021-03-25T01:00:11.838Z</time>
      </trkpt>
      <trkpt lat="40.503968" lon="-3.749329">
        <ele>705.244814</ele>
        <time>2021-03-25T01:00:13.890Z</time>
      </trkpt>
      <trkpt lat="40.503859" lon="-3.749285">
        <ele>705.182649</ele>
        <time>2021-03-25T01:00:15.770Z</time>
      </trkpt>
      <trkpt lat="40.503823" lon="-3.749224">
        <ele>705.150637</ele>
        <time>2021-03-25T01:00:16.723Z</time>
      </trkpt>
      <trkpt lat="40.503791" lon="-3.749170">
        <ele>705.122254</ele>
        <time>2021-03-25T01:00:17.562Z</time>
      </trkpt>
      <trkpt lat="40.503769" lon="-3.749040">
        <ele>705.067042</ele>
        <time>2021-03-25T01:00:19.280Z</time>
      </trkpt>
      <trkpt lat="40.503747" lon="-3.748912">
        <ele>704.956114</ele>
        <time>2021-03-25T01:00:20.872Z</time>
      </trkpt>
      <trkpt lat="40.503635" lon="-3.748371">
        <ele>703.019669</ele>
        <time>2021-03-25T01:00:27.672Z</time>
      </trkpt>
      <trkpt lat="40.503555" lon="-3.748191">
        <ele>702.299601</ele>
        <time>2021-03-25T01:00:30.109Z</time>
      </trkpt>
      <trkpt lat="40.503338" lon="-3.747705">
        <ele>700.353118</ele>
        <time>2021-03-25T01:00:36.555Z</time>
      </trkpt>
      <trkpt lat="40.503020" lon="-3.747116">
        <ele>697.858259</ele>
        <time>2021-03-25T01:00:44.314Z</time>
      </trkpt>
      <trkpt lat="40.502958" lon="-3.746934">
        <ele>697.169486</ele>
        <time>2021-03-25T01:00:46.410Z</time>
      </trkpt>
      <trkpt lat="40.502867" lon="-3.746805">
        <ele>696.261968</ele>
        <time>2021-03-25T01:00:48.295Z</time>
      </trkpt>
      <trkpt lat="40.502701" lon="-3.746463">
        <ele>693.406831</ele>
        <time>2021-03-25T01:00:52.494Z</time>
      </trkpt>
      <trkpt lat="40.502671" lon="-3.746401">
        <ele>692.889698</ele>
        <time>2021-03-25T01:00:53.272Z</time>
      </trkpt>
      <trkpt lat="40.501864" lon="-3.746340">
        <ele>685.409008</ele>
        <time>2021-03-25T01:01:03.569Z</time>
      </trkpt>
      <trkpt lat="40.501207" lon="-3.746396">
        <ele>679.350318</ele>
        <time>2021-03-25T01:01:12.108Z</time>
      </trkpt>
      <trkpt lat="40.501168" lon="-3.746383">
        <ele>678.992327</ele>
        <time>2021-03-25T01:01:12.575Z</time>
      </trkpt>
      <trkpt lat="40.501119" lon="-3.746367">
        <ele>678.543091</ele>
        <time>2021-03-25T01:01:13.253Z</time>
      </trkpt>
      <trkpt lat="40.501105" lon="-3.746355">
        <ele>678.394398</ele>
        <time>2021-03-25T01:01:13.473Z</time>
      </trkpt>
      <trkpt lat="40.501076" lon="-3.746332">
        <ele>678.093067</ele>
        <time>2021-03-25T01:01:13.932Z</time>
      </trkpt>
      <trkpt lat="40.500842" lon="-3.746270">
        <ele>675.969122</ele>
        <time>2021-03-25T01:01:16.986Z</time>
      </trkpt>
      <trkpt lat="40.499226" lon="-3.746999">
        <ele>661.841080</ele>
        <time>2021-03-25T01:01:39.606Z</time>
      </trkpt>
      <trkpt lat="40.499158" lon="-3.747025">
        <ele>661.407966</ele>
        <time>2021-03-25T01:01:40.515Z</time>
      </trkpt>
      <trkpt lat="40.499118" lon="-3.747041">
        <ele>661.152257</ele>
        <time>2021-03-25T01:01:41.161Z</time>
      </trkpt>
      <trkpt lat="40.498737" lon="-3.747189">
        <ele>658.722505</ele>
        <time>2021-03-25T01:01:46.820Z</time>
      </trkpt>
      <trkpt lat="40.498458" lon="-3.747188">
        <ele>657.016117</ele>
        <time>2021-03-25T01:01:50.735Z</time>
      </trkpt>
      <trkpt lat="40.498163" lon="-3.747198">
        <ele>655.211280</ele>
        <time>2021-03-25T01:01:55.133Z</time>
      </trkpt>
      <trkpt lat="40.498098" lon="-3.747244">
        <ele>654.759826</ele>
        <time>2021-03-25T01:01:56.074Z</time>
      </trkpt>
      <trkpt lat="40.497635" lon="-3.747104">
        <ele>652.361663</ele>
        <time>2021-03-25T01:02:02.983Z</time>
      </trkpt>
      <trkpt lat="40.497538" lon="-3.747082">
        <ele>651.986573</ele>
        <time>2021-03-25T01:02:04.422Z</time>
      </trkpt>
      <trkpt lat="40.497369" lon="-3.746772">
        <ele>650.881279</ele>
        <time>2021-03-25T01:02:08.843Z</time>
      </trkpt>
      <trkpt lat="40.497256" lon="-3.746355">
        <ele>649.598487</ele>
        <time>2021-03-25T01:02:13.966Z</time>
      </trkpt>
      <trkpt lat="40.497135" lon="-3.746211">
        <ele>648.976617</ele>
        <time>2021-03-25T01:02:16.472Z</time>
      </trkpt>
      <trkpt lat="40.497113" lon="-3.746196">
        <ele>648.882185</ele>
        <time>2021-03-25T01:02:16.813Z</time>
      </trkpt>
      <trkpt lat="40.497016" lon="-3.746129">
        <ele>648.464666</ele>
        <time>2021-03-25T01:02:18.528Z</time>
      </trkpt>
      <trkpt lat="40.496828" lon="-3.745997">
        <ele>647.652546</ele>
        <time>2021-03-25T01:02:21.757Z</time>
      </trkpt>
      <trkpt lat="40.495799" lon="-3.746806">
        <ele>644.126535</ele>
        <time>2021-03-25T01:02:40.339Z</time>
      </trkpt>
      <trkpt lat="40.495419" lon="-3.746850">
        <ele>643.137393</ele>
        <time>2021-03-25T01:02:46.565Z</time>
      </trkpt>
      <trkpt lat="40.495290" lon="-3.746731">
        <ele>642.728803</ele>
        <time>2021-03-25T01:02:49.225Z</time>
      </trkpt>
      <trkpt lat="40.495134" lon="-3.746867">
        <ele>642.243479</ele>
        <time>2021-03-25T01:02:51.021Z</time>
      </trkpt>
      <trkpt lat="40.494914" lon="-3.747111">
        <ele>641.682643</ele>
        <time>2021-03-25T01:02:53.842Z</time>
      </trkpt>
      <trkpt lat="40.494700" lon="-3.747492">
        <ele>641.682643</ele>
        <time>2021-03-25T01:02:57.400Z</time>
      </trkpt>
      <trkpt lat="40.494400" lon="-3.748025">
        <ele>641.682643</ele>
        <time>2021-03-25T01:03:02.491Z</time>
      </trkpt>
      <trkpt lat="40.494210" lon="-3.748407">
        <ele>641.682643</ele>
        <time>2021-03-25T01:03:06.116Z</time>
      </trkpt>
      <trkpt lat="40.494119" lon="-3.748554">
        <ele>641.682643</ele>
        <time>2021-03-25T01:03:07.619Z</time>
      </trkpt>
      <trkpt lat="40.494026" lon="-3.748706">
        <ele>630.979898</ele>
        <time>2021-03-24T21:40:22.969Z</time>
      </trkpt>
      <trkpt lat="40.493804" lon="-3.749091">
        <ele>630.979898</ele>
        <time>2021-03-24T21:40:26.314Z</time>
      </trkpt>
      <trkpt lat="40.493561" lon="-3.749526">
        <ele>630.979898</ele>
        <time>2021-03-24T21:40:30.050Z</time>
      </trkpt>
      <trkpt lat="40.493495" lon="-3.749413">
        <ele>630.979898</ele>
        <time>2021-03-24T21:40:31.763Z</time>
      </trkpt>
      <trkpt lat="40.493474" lon="-3.749380">
        <ele>630.898418</ele>
        <time>2021-03-24T21:40:32.233Z</time>
      </trkpt>
      <trkpt lat="40.493449" lon="-3.749433">
        <ele>630.701787</ele>
        <time>2021-03-24T21:40:32.854Z</time>
      </trkpt>
      <trkpt lat="40.492991" lon="-3.749964">
        <ele>628.170375</ele>
        <time>2021-03-24T21:40:42.195Z</time>
      </trkpt>
      <trkpt lat="40.492960" lon="-3.750021">
        <ele>627.949439</ele>
        <time>2021-03-24T21:40:42.903Z</time>
      </trkpt>
      <trkpt lat="40.492910" lon="-3.750113">
        <ele>627.592924</ele>
        <time>2021-03-24T21:40:44.078Z</time>
      </trkpt>
      <trkpt lat="40.492466" lon="-3.750695">
        <ele>624.993831</ele>
        <time>2021-03-24T21:40:53.470Z</time>
      </trkpt>
      <trkpt lat="40.492193" lon="-3.750934">
        <ele>623.634136</ele>
        <time>2021-03-24T21:40:58.366Z</time>
      </trkpt>
      <trkpt lat="40.492138" lon="-3.750978">
        <ele>623.391376</ele>
        <time>2021-03-24T21:40:59.215Z</time>
      </trkpt>
      <trkpt lat="40.492132" lon="-3.750911">
        <ele>623.211619</ele>
        <time>2021-03-24T21:41:00.014Z</time>
      </trkpt>
      <trkpt lat="40.492142" lon="-3.750822">
        <ele>622.971900</ele>
        <time>2021-03-24T21:41:01.168Z</time>
      </trkpt>
      <trkpt lat="40.492043" lon="-3.750875">
        <ele>622.597389</ele>
        <time>2021-03-24T21:41:02.819Z</time>
      </trkpt>
      <trkpt lat="40.491905" lon="-3.751033">
        <ele>621.956280</ele>
        <time>2021-03-24T21:41:05.428Z</time>
      </trkpt>
      <trkpt lat="40.491661" lon="-3.751185">
        <ele>621.010294</ele>
        <time>2021-03-24T21:41:09.642Z</time>
      </trkpt>
      <trkpt lat="40.491565" lon="-3.751481">
        <ele>620.152858</ele>
        <time>2021-03-24T21:41:13.558Z</time>
      </trkpt>
      <trkpt lat="40.491545" lon="-3.751535">
        <ele>619.992815</ele>
        <time>2021-03-24T21:41:14.205Z</time>
      </trkpt>
      <trkpt lat="40.491393" lon="-3.751757">
        <ele>619.196867</ele>
        <time>2021-03-24T21:41:17.790Z</time>
      </trkpt>
      <trkpt lat="40.490769" lon="-3.752549">
        <ele>616.460143</ele>
        <time>2021-03-24T21:41:31.026Z</time>
      </trkpt>
      <trkpt lat="40.490523" lon="-3.752711">
        <ele>615.769986</ele>
        <time>2021-03-24T21:41:35.362Z</time>
      </trkpt>
      <trkpt lat="40.490317" lon="-3.752713">
        <ele>615.253220</ele>
        <time>2021-03-24T21:41:38.469Z</time>
      </trkpt>
      <trkpt lat="40.490100" lon="-3.753382">
        <ele>613.865693</ele>
        <time>2021-03-24T21:41:47.709Z</time>
      </trkpt>
      <trkpt lat="40.490081" lon="-3.753545">
        <ele>613.551096</ele>
        <time>2021-03-24T21:41:49.733Z</time>
      </trkpt>
      <trkpt lat="40.490063" lon="-3.753566">
        <ele>613.490732</ele>
        <time>2021-03-24T21:41:50.163Z</time>
      </trkpt>
      <trkpt lat="40.490014" lon="-3.753536">
        <ele>613.355144</ele>
        <time>2021-03-24T21:41:51.139Z</time>
      </trkpt>
      <trkpt lat="40.489839" lon="-3.753514">
        <ele>612.914154</ele>
        <time>2021-03-24T21:41:54.040Z</time>
      </trkpt>
      <trkpt lat="40.489510" lon="-3.753386">
        <ele>612.456692</ele>
        <time>2021-03-24T21:41:59.577Z</time>
      </trkpt>
      <trkpt lat="40.489474" lon="-3.753371">
        <ele>612.420201</ele>
        <time>2021-03-24T21:42:00.239Z</time>
      </trkpt>
      <trkpt lat="40.488720" lon="-3.753105">
        <ele>611.665848</ele>
        <time>2021-03-24T21:42:13.353Z</time>
      </trkpt>
      <trkpt lat="40.488630" lon="-3.753082">
        <ele>611.577254</ele>
        <time>2021-03-24T21:42:15.259Z</time>
      </trkpt>
      <trkpt lat="40.488565" lon="-3.753108">
        <ele>611.511603</ele>
        <time>2021-03-24T21:42:16.312Z</time>
      </trkpt>
      <trkpt lat="40.488535" lon="-3.753323">
        <ele>611.350963</ele>
        <time>2021-03-24T21:42:19.674Z</time>
      </trkpt>
      <trkpt lat="40.488433" lon="-3.753503">
        <ele>611.185999</ele>
        <time>2021-03-24T21:42:23.498Z</time>
      </trkpt>
      <trkpt lat="40.488367" lon="-3.753538">
        <ele>611.117232</ele>
        <time>2021-03-24T21:42:24.626Z</time>
      </trkpt>
      <trkpt lat="40.488299" lon="-3.753534">
        <ele>611.051458</ele>
        <time>2021-03-24T21:42:26.192Z</time>
      </trkpt>
      <trkpt lat="40.488013" lon="-3.753447">
        <ele>611.208841</ele>
        <time>2021-03-24T21:42:32.196Z</time>
      </trkpt>
      <trkpt lat="40.487915" lon="-3.753445">
        <ele>611.319381</ele>
        <time>2021-03-24T21:42:34.373Z</time>
      </trkpt>
      <trkpt lat="40.487847" lon="-3.753426">
        <ele>611.397785</ele>
        <time>2021-03-24T21:42:36.280Z</time>
      </trkpt>
      <trkpt lat="40.487337" lon="-3.753156">
        <ele>612.017849</ele>
        <time>2021-03-24T21:42:47.241Z</time>
      </trkpt>
      <trkpt lat="40.487269" lon="-3.753094">
        <ele>612.111175</ele>
        <time>2021-03-24T21:42:49.144Z</time>
      </trkpt>
      <trkpt lat="40.487058" lon="-3.752967">
        <ele>612.372895</ele>
        <time>2021-03-24T21:42:54.910Z</time>
      </trkpt>
      <trkpt lat="40.486341" lon="-3.752459">
        <ele>613.300087</ele>
        <time>2021-03-24T21:43:15.287Z</time>
      </trkpt>
      <trkpt lat="40.486114" lon="-3.752431">
        <ele>613.564822</ele>
        <time>2021-03-24T21:43:20.623Z</time>
      </trkpt>
      <trkpt lat="40.485815" lon="-3.752301">
        <ele>613.930490</ele>
        <time>2021-03-24T21:43:28.163Z</time>
      </trkpt>
      <trkpt lat="40.485635" lon="-3.752156">
        <ele>614.175603</ele>
        <time>2021-03-24T21:43:33.276Z</time>
      </trkpt>
      <trkpt lat="40.485519" lon="-3.752165">
        <ele>614.310529</ele>
        <time>2021-03-24T21:43:35.451Z</time>
      </trkpt>
      <trkpt lat="40.485401" lon="-3.752168">
        <ele>614.447568</ele>
        <time>2021-03-24T21:43:38.095Z</time>
      </trkpt>
      <trkpt lat="40.484952" lon="-3.751959">
        <ele>615.000625</ele>
        <time>2021-03-24T21:43:48.203Z</time>
      </trkpt>
      <trkpt lat="40.484899" lon="-3.751923">
        <ele>615.069893</ele>
        <time>2021-03-24T21:43:49.250Z</time>
      </trkpt>
      <trkpt lat="40.484864" lon="-3.751884">
        <ele>615.068871</ele>
        <time>2021-03-24T21:43:50.109Z</time>
      </trkpt>
      <trkpt lat="40.484641" lon="-3.751726">
        <ele>614.904646</ele>
        <time>2021-03-24T21:43:55.476Z</time>
      </trkpt>
      <trkpt lat="40.484608" lon="-3.751696">
        <ele>614.878636</ele>
        <time>2021-03-24T21:43:56.208Z</time>
      </trkpt>
      <trkpt lat="40.484590" lon="-3.751739">
        <ele>614.854434</ele>
        <time>2021-03-24T21:43:56.830Z</time>
      </trkpt>
      <trkpt lat="40.484522" lon="-3.751691">
        <ele>614.804398</ele>
        <time>2021-03-24T21:43:58.300Z</time>
      </trkpt>
      <trkpt lat="40.484255" lon="-3.751796">
        <ele>614.623726</ele>
        <time>2021-03-24T21:44:03.689Z</time>
      </trkpt>
      <trkpt lat="40.484060" lon="-3.751728">
        <ele>614.492938</ele>
        <time>2021-03-24T21:44:07.397Z</time>
      </trkpt>
      <trkpt lat="40.483874" lon="-3.751539">
        <ele>614.340540</ele>
        <time>2021-03-24T21:44:11.488Z</time>
      </trkpt>
      <trkpt lat="40.483555" lon="-3.751489">
        <ele>614.132269</ele>
        <time>2021-03-24T21:44:16.907Z</time>
      </trkpt>
      <trkpt lat="40.483445" lon="-3.751392">
        <ele>614.046402</ele>
        <time>2021-03-24T21:44:19.269Z</time>
      </trkpt>
      <trkpt lat="40.482903" lon="-3.751469">
        <ele>613.392832</ele>
        <time>2021-03-24T21:44:28.342Z</time>
      </trkpt>
      <trkpt lat="40.482877" lon="-3.751462">
        <ele>613.353104</ele>
        <time>2021-03-24T21:44:28.804Z</time>
      </trkpt>
      <trkpt lat="40.482794" lon="-3.751439">
        <ele>613.226128</ele>
        <time>2021-03-24T21:44:30.324Z</time>
      </trkpt>
      <trkpt lat="40.482672" lon="-3.751383">
        <ele>613.032692</ele>
        <time>2021-03-24T21:44:32.488Z</time>
      </trkpt>
      <trkpt lat="40.482653" lon="-3.751415">
        <ele>612.986471</ele>
        <time>2021-03-24T21:44:32.924Z</time>
      </trkpt>
      <trkpt lat="40.482631" lon="-3.751551">
        <ele>612.828161</ele>
        <time>2021-03-24T21:44:34.793Z</time>
      </trkpt>
      <trkpt lat="40.482542" lon="-3.751680">
        <ele>612.629864</ele>
        <time>2021-03-24T21:44:37.167Z</time>
      </trkpt>
      <trkpt lat="40.482529" lon="-3.751784">
        <ele>612.509863</ele>
        <time>2021-03-24T21:44:38.489Z</time>
      </trkpt>
      <trkpt lat="40.482509" lon="-3.751864">
        <ele>612.413983</ele>
        <time>2021-03-24T21:44:39.457Z</time>
      </trkpt>
      <trkpt lat="40.482031" lon="-3.751792">
        <ele>611.693767</ele>
        <time>2021-03-24T21:44:47.711Z</time>
      </trkpt>
      <trkpt lat="40.481663" lon="-3.751795">
        <ele>611.194241</ele>
        <time>2021-03-24T21:44:53.958Z</time>
      </trkpt>
      <trkpt lat="40.481547" lon="-3.751923">
        <ele>611.101466</ele>
        <time>2021-03-24T21:44:56.576Z</time>
      </trkpt>
      <trkpt lat="40.481467" lon="-3.751920">
        <ele>611.052437</ele>
        <time>2021-03-24T21:44:57.813Z</time>
      </trkpt>
      <trkpt lat="40.481162" lon="-3.751669">
        <ele>610.832004</ele>
        <time>2021-03-24T21:45:04.212Z</time>
      </trkpt>
      <trkpt lat="40.480143" lon="-3.751622">
        <ele>610.207368</ele>
        <time>2021-03-24T21:45:23.569Z</time>
      </trkpt>
      <trkpt lat="40.479872" lon="-3.751627">
        <ele>609.940726</ele>
        <time>2021-03-24T21:45:28.503Z</time>
      </trkpt>
      <trkpt lat="40.479494" lon="-3.751617">
        <ele>609.440075</ele>
        <time>2021-03-24T21:45:35.156Z</time>
      </trkpt>
      <trkpt lat="40.479345" lon="-3.751653">
        <ele>609.239464</ele>
        <time>2021-03-24T21:45:37.234Z</time>
      </trkpt>
      <trkpt lat="40.479304" lon="-3.751586">
        <ele>609.152851</ele>
        <time>2021-03-24T21:45:38.173Z</time>
      </trkpt>
      <trkpt lat="40.478556" lon="-3.751664">
        <ele>608.159234</ele>
        <time>2021-03-24T21:46:30.255Z</time>
      </trkpt>
      <trkpt lat="40.478528" lon="-3.751629">
        <ele>608.108071</ele>
        <time>2021-03-24T21:46:32.926Z</time>
      </trkpt>
      <trkpt lat="40.478386" lon="-3.751650">
        <ele>607.918848</ele>
        <time>2021-03-24T21:46:35.252Z</time>
      </trkpt>
      <trkpt lat="40.476695" lon="-3.751893">
        <ele>603.501329</ele>
        <time>2021-03-24T21:47:02.030Z</time>
      </trkpt>
      <trkpt lat="40.476344" lon="-3.751888">
        <ele>602.634972</ele>
        <time>2021-03-24T21:47:07.617Z</time>
      </trkpt>
      <trkpt lat="40.476292" lon="-3.751913">
        <ele>602.522367</ele>
        <time>2021-03-24T21:47:08.386Z</time>
      </trkpt>
      <trkpt lat="40.476265" lon="-3.752109">
        <ele>602.214218</ele>
        <time>2021-03-24T21:47:10.874Z</time>
      </trkpt>
      <trkpt lat="40.476173" lon="-3.752305">
        <ele>601.857920</ele>
        <time>2021-03-24T21:47:13.705Z</time>
      </trkpt>
      <trkpt lat="40.476112" lon="-3.752314">
        <ele>601.733082</ele>
        <time>2021-03-24T21:47:14.623Z</time>
      </trkpt>
      <trkpt lat="40.475682" lon="-3.752031">
        <ele>600.755099</ele>
        <time>2021-03-24T21:47:22.445Z</time>
      </trkpt>
      <trkpt lat="40.474927" lon="-3.751962">
        <ele>599.228359</ele>
        <time>2021-03-24T21:47:35.031Z</time>
      </trkpt>
      <trkpt lat="40.474865" lon="-3.751875">
        <ele>599.246657</ele>
        <time>2021-03-24T21:47:36.684Z</time>
      </trkpt>
      <trkpt lat="40.473975" lon="-3.751775">
        <ele>599.426892</ele>
        <time>2021-03-24T21:47:53.429Z</time>
      </trkpt>
      <trkpt lat="40.472107" lon="-3.751222">
        <ele>600.919365</ele>
        <time>2021-03-24T21:48:36.210Z</time>
      </trkpt>
      <trkpt lat="40.471739" lon="-3.751119">
        <ele>601.371695</ele>
        <time>2021-03-24T21:48:45.174Z</time>
      </trkpt>
      <trkpt lat="40.471541" lon="-3.750999">
        <ele>601.633813</ele>
        <time>2021-03-24T21:49:00.309Z</time>
      </trkpt>
      <trkpt lat="40.471489" lon="-3.750986">
        <ele>601.697448</ele>
        <time>2021-03-24T21:49:03.970Z</time>
      </trkpt>
      <trkpt lat="40.471056" lon="-3.750899">
        <ele>602.043132</ele>
        <time>2021-03-24T21:49:34.402Z</time>
      </trkpt>
      <trkpt lat="40.471198" lon="-3.750907">
        <ele>602.148445</ele>
        <time>2021-03-24T21:49:44.300Z</time>
      </trkpt>
      <trkpt lat="40.471243" lon="-3.750307">
        <ele>602.488287</ele>
        <time>2021-03-24T21:50:16.247Z</time>
      </trkpt>
      <trkpt lat="40.471516" lon="-3.750323">
        <ele>602.690770</ele>
        <time>2021-03-24T21:50:35.243Z</time>
      </trkpt>
      <trkpt lat="40.471299" lon="-3.750309">
        <ele>602.851752</ele>
        <time>2021-03-24T21:50:50.333Z</time>
      </trkpt>
      <trkpt lat="40.471299" lon="-3.750239">
        <ele>602.891209</ele>
        <time>2021-03-24T21:50:51.163Z</time>
      </trkpt>
      <trkpt lat="40.471299" lon="-3.750152">
        <ele>602.940248</ele>
        <time>2021-03-24T21:50:52.334Z</time>
      </trkpt>
      <trkpt lat="40.471196" lon="-3.750138">
        <ele>603.016974</ele>
        <time>2021-03-24T21:50:54.030Z</time>
      </trkpt>
      <trkpt lat="40.470794" lon="-3.750054">
        <ele>603.194066</ele>
        <time>2021-03-24T21:51:00.646Z</time>
      </trkpt>
      <trkpt lat="40.470781" lon="-3.749968">
        <ele>603.217118</ele>
        <time>2021-03-24T21:51:01.621Z</time>
      </trkpt>
      <trkpt lat="40.470725" lon="-3.749944">
        <ele>603.237475</ele>
        <time>2021-03-24T21:51:02.581Z</time>
      </trkpt>
      <trkpt lat="40.470680" lon="-3.749915">
        <ele>603.254795</ele>
        <time>2021-03-24T21:51:03.388Z</time>
      </trkpt>
      <trkpt lat="40.470666" lon="-3.749957">
        <ele>603.266851</ele>
        <time>2021-03-24T21:51:03.948Z</time>
      </trkpt>
      <trkpt lat="40.470590" lon="-3.750045">
        <ele>603.301853</ele>
        <time>2021-03-24T21:51:05.149Z</time>
      </trkpt>
      <trkpt lat="40.469920" lon="-3.749884">
        <ele>603.537244</ele>
        <time>2021-03-24T21:51:13.444Z</time>
      </trkpt>
      <trkpt lat="40.469139" lon="-3.749414">
        <ele>603.816831</ele>
        <time>2021-03-24T21:51:24.715Z</time>
      </trkpt>
      <trkpt lat="40.468849" lon="-3.749325">
        <ele>603.905786</ele>
        <time>2021-03-24T21:51:28.822Z</time>
      </trkpt>
      <trkpt lat="40.467748" lon="-3.749395">
        <ele>604.235045</ele>
        <time>2021-03-24T21:51:42.385Z</time>
      </trkpt>
      <trkpt lat="40.467257" lon="-3.749357">
        <ele>603.865047</ele>
        <time>2021-03-24T21:51:47.741Z</time>
      </trkpt>
      <trkpt lat="40.465457" lon="-3.748847">
        <ele>602.194949</ele>
        <time>2021-03-24T21:52:06.109Z</time>
      </trkpt>
      <trkpt lat="40.465031" lon="-3.748651">
        <ele>601.683007</ele>
        <time>2021-03-24T21:52:10.541Z</time>
      </trkpt>
      <trkpt lat="40.464118" lon="-3.748127">
        <ele>600.653013</ele>
        <time>2021-03-24T21:52:20.551Z</time>
      </trkpt>
      <trkpt lat="40.463738" lon="-3.747848">
        <ele>600.443480</ele>
        <time>2021-03-24T21:52:25.072Z</time>
      </trkpt>
      <trkpt lat="40.463548" lon="-3.747846">
        <ele>600.352014</ele>
        <time>2021-03-24T21:52:27.072Z</time>
      </trkpt>
      <trkpt lat="40.462999" lon="-3.747475">
        <ele>600.054846</ele>
        <time>2021-03-24T21:52:33.763Z</time>
      </trkpt>
      <trkpt lat="40.462535" lon="-3.747008">
        <ele>599.948286</ele>
        <time>2021-03-24T21:52:40.486Z</time>
      </trkpt>
      <trkpt lat="40.462124" lon="-3.746715">
        <ele>600.173357</ele>
        <time>2021-03-24T21:52:46.297Z</time>
      </trkpt>
      <trkpt lat="40.461404" lon="-3.746036">
        <ele>600.599927</ele>
        <time>2021-03-24T21:52:58.159Z</time>
      </trkpt>
      <trkpt lat="40.460904" lon="-3.745647">
        <ele>600.678143</ele>
        <time>2021-03-24T21:53:06.345Z</time>
      </trkpt>
      <trkpt lat="40.460613" lon="-3.745214">
        <ele>600.610933</ele>
        <time>2021-03-24T21:53:12.444Z</time>
      </trkpt>
      <trkpt lat="40.460491" lon="-3.745125">
        <ele>600.589598</ele>
        <time>2021-03-24T21:53:13.942Z</time>
      </trkpt>
      <trkpt lat="40.460118" lon="-3.744904">
        <ele>600.527039</ele>
        <time>2021-03-24T21:53:18.410Z</time>
      </trkpt>
      <trkpt lat="40.459640" lon="-3.744828">
        <ele>600.453420</ele>
        <time>2021-03-24T21:53:23.292Z</time>
      </trkpt>
      <trkpt lat="40.459588" lon="-3.744813">
        <ele>600.371856</ele>
        <time>2021-03-24T21:53:23.870Z</time>
      </trkpt>
      <trkpt lat="40.459581" lon="-3.744860">
        <ele>600.302541</ele>
        <time>2021-03-24T21:53:24.222Z</time>
      </trkpt>
      <trkpt lat="40.459576" lon="-3.744889">
        <ele>600.259505</ele>
        <time>2021-03-24T21:53:24.464Z</time>
      </trkpt>
      <trkpt lat="40.459573" lon="-3.744908">
        <ele>600.231421</ele>
        <time>2021-03-24T21:53:24.597Z</time>
      </trkpt>
      <trkpt lat="40.459557" lon="-3.744976">
        <ele>600.128405</ele>
        <time>2021-03-24T21:53:25.145Z</time>
      </trkpt>
      <trkpt lat="40.459429" lon="-3.745779">
        <ele>598.940985</ele>
        <time>2021-03-24T21:53:31.467Z</time>
      </trkpt>
      <trkpt lat="40.459694" lon="-3.745844">
        <ele>598.428202</ele>
        <time>2021-03-24T21:53:34.070Z</time>
      </trkpt>
      <trkpt lat="40.459696" lon="-3.745809">
        <ele>598.377404</ele>
        <time>2021-03-24T21:53:34.375Z</time>
      </trkpt>
      <trkpt lat="40.459400" lon="-3.745735">
        <ele>597.804260</ele>
        <time>2021-03-24T21:53:37.224Z</time>
      </trkpt>
      <trkpt lat="40.459380" lon="-3.745716">
        <ele>597.757319</ele>
        <time>2021-03-24T21:53:37.478Z</time>
      </trkpt>
      <trkpt lat="40.459377" lon="-3.745681">
        <ele>597.706342</ele>
        <time>2021-03-24T21:53:37.778Z</time>
      </trkpt>
      <trkpt lat="40.459399" lon="-3.745663">
        <ele>597.657048</ele>
        <time>2021-03-24T21:53:37.998Z</time>
      </trkpt>
      <trkpt lat="40.459569" lon="-3.745612">
        <ele>597.325358</ele>
        <time>2021-03-24T21:53:39.559Z</time>
      </trkpt>
      <trkpt lat="40.459693" lon="-3.745676">
        <ele>597.071951</ele>
        <time>2021-03-24T21:53:40.723Z</time>
      </trkpt>
      <trkpt lat="40.459753" lon="-3.745804">
        <ele>596.920024</ele>
        <time>2021-03-24T21:53:41.751Z</time>
      </trkpt>
      <trkpt lat="40.459757" lon="-3.745959">
        <ele>596.779315</ele>
        <time>2021-03-24T21:53:42.860Z</time>
      </trkpt>
      <trkpt lat="40.459751" lon="-3.746030">
        <ele>596.714503</ele>
        <time>2021-03-24T21:53:43.327Z</time>
      </trkpt>
      <trkpt lat="40.459716" lon="-3.746202">
        <ele>596.552968</ele>
        <time>2021-03-24T21:53:44.603Z</time>
      </trkpt>
      <trkpt lat="40.459474" lon="-3.747660">
        <ele>595.199052</ele>
        <time>2021-03-24T21:53:56.171Z</time>
      </trkpt>
      <trkpt lat="40.459458" lon="-3.747779">
        <ele>595.089413</ele>
        <time>2021-03-24T21:53:57.169Z</time>
      </trkpt>
      <trkpt lat="40.459441" lon="-3.747821">
        <ele>595.046251</ele>
        <time>2021-03-24T21:53:57.635Z</time>
      </trkpt>
      <trkpt lat="40.459365" lon="-3.747904">
        <ele>594.928423</ele>
        <time>2021-03-24T21:53:58.646Z</time>
      </trkpt>
      <trkpt lat="40.459140" lon="-3.747963">
        <ele>594.835060</ele>
        <time>2021-03-24T21:54:01.181Z</time>
      </trkpt>
      <trkpt lat="40.459100" lon="-3.747946">
        <ele>594.824084</ele>
        <time>2021-03-24T21:54:01.824Z</time>
      </trkpt>
      <trkpt lat="40.458941" lon="-3.747866">
        <ele>594.779630</ele>
        <time>2021-03-24T21:54:03.681Z</time>
      </trkpt>
      <trkpt lat="40.458825" lon="-3.747803">
        <ele>594.746857</ele>
        <time>2021-03-24T21:54:04.970Z</time>
      </trkpt>
      <trkpt lat="40.458695" lon="-3.747533">
        <ele>594.683379</ele>
        <time>2021-03-24T21:54:07.749Z</time>
      </trkpt>
      <trkpt lat="40.458634" lon="-3.747499">
        <ele>594.666079</ele>
        <time>2021-03-24T21:54:08.413Z</time>
      </trkpt>
      <trkpt lat="40.458145" lon="-3.748006">
        <ele>594.503451</ele>
        <time>2021-03-24T21:54:15.649Z</time>
      </trkpt>
      <trkpt lat="40.458067" lon="-3.747994">
        <ele>594.482946</ele>
        <time>2021-03-24T21:54:16.414Z</time>
      </trkpt>
      <trkpt lat="40.457961" lon="-3.747830">
        <ele>594.440195</ele>
        <time>2021-03-24T21:54:18.432Z</time>
      </trkpt>
      <trkpt lat="40.457889" lon="-3.747703">
        <ele>594.407806</ele>
        <time>2021-03-24T21:54:19.841Z</time>
      </trkpt>
      <trkpt lat="40.457849" lon="-3.747647">
        <ele>594.390594</ele>
        <time>2021-03-24T21:54:20.390Z</time>
      </trkpt>
      <trkpt lat="40.457587" lon="-3.747407">
        <ele>594.296536</ele>
        <time>2021-03-24T21:54:24.029Z</time>
      </trkpt>
      <trkpt lat="40.456492" lon="-3.747153">
        <ele>593.969053</ele>
        <time>2021-03-24T21:54:36.085Z</time>
      </trkpt>
      <trkpt lat="40.455703" lon="-3.747172">
        <ele>593.706470</ele>
        <time>2021-03-24T21:54:44.903Z</time>
      </trkpt>
      <trkpt lat="40.454035" lon="-3.747044">
        <ele>593.065545</ele>
        <time>2021-03-24T21:55:03.008Z</time>
      </trkpt>
      <trkpt lat="40.453668" lon="-3.747065">
        <ele>592.887613</ele>
        <time>2021-03-24T21:55:06.900Z</time>
      </trkpt>
      <trkpt lat="40.452638" lon="-3.747281">
        <ele>592.382401</ele>
        <time>2021-03-24T21:55:18.023Z</time>
      </trkpt>
      <trkpt lat="40.451239" lon="-3.747009">
        <ele>592.131328</ele>
        <time>2021-03-24T21:55:33.802Z</time>
      </trkpt>
      <trkpt lat="40.450258" lon="-3.746746">
        <ele>592.121451</ele>
        <time>2021-03-24T21:55:45.677Z</time>
      </trkpt>
      <trkpt lat="40.448989" lon="-3.745752">
        <ele>592.219317</ele>
        <time>2021-03-24T21:56:03.026Z</time>
      </trkpt>
      <trkpt lat="40.448373" lon="-3.744643">
        <ele>592.154804</ele>
        <time>2021-03-24T21:56:14.899Z</time>
      </trkpt>
      <trkpt lat="40.448068" lon="-3.743916">
        <ele>592.090643</ele>
        <time>2021-03-24T21:56:22.050Z</time>
      </trkpt>
      <trkpt lat="40.447591" lon="-3.743196">
        <ele>591.935196</ele>
        <time>2021-03-24T21:56:30.232Z</time>
      </trkpt>
      <trkpt lat="40.447229" lon="-3.742752">
        <ele>591.829236</ele>
        <time>2021-03-24T21:56:35.769Z</time>
      </trkpt>
      <trkpt lat="40.447024" lon="-3.742682">
        <ele>591.783913</ele>
        <time>2021-03-24T21:56:38.067Z</time>
      </trkpt>
      <trkpt lat="40.446613" lon="-3.742417">
        <ele>591.612031</ele>
        <time>2021-03-24T21:56:43.067Z</time>
      </trkpt>
      <trkpt lat="40.446518" lon="-3.742359">
        <ele>591.559586</ele>
        <time>2021-03-24T21:56:44.263Z</time>
      </trkpt>
      <trkpt lat="40.446443" lon="-3.742316">
        <ele>591.518618</ele>
        <time>2021-03-24T21:56:45.082Z</time>
      </trkpt>
      <trkpt lat="40.445475" lon="-3.742094">
        <ele>591.026659</ele>
        <time>2021-03-24T21:56:55.639Z</time>
      </trkpt>
      <trkpt lat="40.445097" lon="-3.742071">
        <ele>590.836870</ele>
        <time>2021-03-24T21:56:59.636Z</time>
      </trkpt>
      <trkpt lat="40.445071" lon="-3.742074">
        <ele>590.822509</ele>
        <time>2021-03-24T21:56:59.884Z</time>
      </trkpt>
      <trkpt lat="40.444430" lon="-3.742144">
        <ele>590.468609</ele>
        <time>2021-03-24T21:57:06.655Z</time>
      </trkpt>
      <trkpt lat="40.443809" lon="-3.741869">
        <ele>590.108046</ele>
        <time>2021-03-24T21:57:13.642Z</time>
      </trkpt>
      <trkpt lat="40.442147" lon="-3.741269">
        <ele>589.462394</ele>
        <time>2021-03-24T21:57:32.420Z</time>
      </trkpt>
      <trkpt lat="40.441706" lon="-3.741167">
        <ele>589.323897</ele>
        <time>2021-03-24T21:57:37.361Z</time>
      </trkpt>
      <trkpt lat="40.441452" lon="-3.741030">
        <ele>589.264515</ele>
        <time>2021-03-24T21:57:40.428Z</time>
      </trkpt>
      <trkpt lat="40.440998" lon="-3.741017">
        <ele>589.188456</ele>
        <time>2021-03-24T21:57:45.514Z</time>
      </trkpt>
      <trkpt lat="40.440208" lon="-3.740679">
        <ele>589.049301</ele>
        <time>2021-03-24T21:57:54.897Z</time>
      </trkpt>
      <trkpt lat="40.439149" lon="-3.740387">
        <ele>588.714932</ele>
        <time>2021-03-24T21:58:06.944Z</time>
      </trkpt>
      <trkpt lat="40.438837" lon="-3.740229">
        <ele>588.590516</ele>
        <time>2021-03-24T21:58:10.620Z</time>
      </trkpt>
      <trkpt lat="40.438501" lon="-3.739937">
        <ele>588.440622</ele>
        <time>2021-03-24T21:58:14.982Z</time>
      </trkpt>
      <trkpt lat="40.437362" lon="-3.739343">
        <ele>588.396862</ele>
        <time>2021-03-24T21:58:27.799Z</time>
      </trkpt>
      <trkpt lat="40.437057" lon="-3.739107">
        <ele>588.425058</ele>
        <time>2021-03-24T21:58:32.092Z</time>
      </trkpt>
      <trkpt lat="40.436933" lon="-3.739031">
        <ele>588.435958</ele>
        <time>2021-03-24T21:58:33.732Z</time>
      </trkpt>
      <trkpt lat="40.436896" lon="-3.739037">
        <ele>588.438927</ele>
        <time>2021-03-24T21:58:34.219Z</time>
      </trkpt>
      <trkpt lat="40.436615" lon="-3.738881">
        <ele>588.463227</ele>
        <time>2021-03-24T21:58:38.716Z</time>
      </trkpt>
      <trkpt lat="40.436464" lon="-3.738784">
        <ele>588.713807</ele>
        <time>2021-03-24T21:58:41.330Z</time>
      </trkpt>
      <trkpt lat="40.436427" lon="-3.738755">
        <ele>588.806056</ele>
        <time>2021-03-24T21:58:42.128Z</time>
      </trkpt>
      <trkpt lat="40.436360" lon="-3.738714">
        <ele>588.964312</ele>
        <time>2021-03-24T21:58:43.368Z</time>
      </trkpt>
      <trkpt lat="40.436268" lon="-3.738782">
        <ele>589.190332</ele>
        <time>2021-03-24T21:58:44.983Z</time>
      </trkpt>
      <trkpt lat="40.435532" lon="-3.740401">
        <ele>592.263629</ele>
        <time>2021-03-24T21:59:12.251Z</time>
      </trkpt>
      <trkpt lat="40.435443" lon="-3.740451">
        <ele>592.405689</ele>
        <time>2021-03-24T21:59:14.110Z</time>
      </trkpt>
      <trkpt lat="40.435330" lon="-3.740371">
        <ele>592.562830</ele>
        <time>2021-03-24T21:59:16.643Z</time>
      </trkpt>
      <trkpt lat="40.434985" lon="-3.740100">
        <ele>593.054914</ele>
        <time>2021-03-24T21:59:23.863Z</time>
      </trkpt>
      <trkpt lat="40.434943" lon="-3.740061">
        <ele>593.117877</ele>
        <time>2021-03-24T21:59:24.586Z</time>
      </trkpt>
      <trkpt lat="40.434943" lon="-3.739913">
        <ele>593.255783</ele>
        <time>2021-03-24T21:59:26.419Z</time>
      </trkpt>
      <trkpt lat="40.434683" lon="-3.739683">
        <ele>593.639504</ele>
        <time>2021-03-24T21:59:31.103Z</time>
      </trkpt>
      <trkpt lat="40.434397" lon="-3.739617">
        <ele>593.994989</ele>
        <time>2021-03-24T21:59:35.055Z</time>
      </trkpt>
      <trkpt lat="40.434276" lon="-3.739524">
        <ele>594.166605</ele>
        <time>2021-03-24T21:59:36.871Z</time>
      </trkpt>
      <trkpt lat="40.434140" lon="-3.739449">
        <ele>594.347170</ele>
        <time>2021-03-24T21:59:38.694Z</time>
      </trkpt>
      <trkpt lat="40.433897" lon="-3.739279">
        <ele>594.465756</ele>
        <time>2021-03-24T21:59:41.843Z</time>
      </trkpt>
      <trkpt lat="40.433642" lon="-3.739144">
        <ele>594.353021</ele>
        <time>2021-03-24T21:59:44.797Z</time>
      </trkpt>
      <trkpt lat="40.433571" lon="-3.739095">
        <ele>594.320134</ele>
        <time>2021-03-24T21:59:45.659Z</time>
      </trkpt>
      <trkpt lat="40.433480" lon="-3.739039">
        <ele>594.278928</ele>
        <time>2021-03-24T21:59:46.703Z</time>
      </trkpt>
      <trkpt lat="40.432710" lon="-3.738275">
        <ele>593.883255</ele>
        <time>2021-03-24T21:59:56.997Z</time>
      </trkpt>
      <trkpt lat="40.432496" lon="-3.738210">
        <ele>593.793188</ele>
        <time>2021-03-24T21:59:59.313Z</time>
      </trkpt>
      <trkpt lat="40.432015" lon="-3.738224">
        <ele>593.622861</ele>
        <time>2021-03-24T22:00:04.473Z</time>
      </trkpt>
      <trkpt lat="40.431914" lon="-3.738224">
        <ele>593.587412</ele>
        <time>2021-03-24T22:00:05.605Z</time>
      </trkpt>
      <trkpt lat="40.431905" lon="-3.738090">
        <ele>593.551474</ele>
        <time>2021-03-24T22:00:07.062Z</time>
      </trkpt>
      <trkpt lat="40.431686" lon="-3.738090">
        <ele>593.474610</ele>
        <time>2021-03-24T22:00:11.127Z</time>
      </trkpt>
      <trkpt lat="40.431380" lon="-3.738025">
        <ele>593.365815</ele>
        <time>2021-03-24T22:00:16.835Z</time>
      </trkpt>
      <trkpt lat="40.430294" lon="-3.737526">
        <ele>593.117907</ele>
        <time>2021-03-24T22:00:38.253Z</time>
      </trkpt>
      <trkpt lat="40.429999" lon="-3.737328">
        <ele>593.097177</ele>
        <time>2021-03-24T22:00:44.554Z</time>
      </trkpt>
      <trkpt lat="40.429215" lon="-3.736523">
        <ele>593.051462</ele>
        <time>2021-03-24T22:01:03.661Z</time>
      </trkpt>
      <trkpt lat="40.427958" lon="-3.735520">
        <ele>593.316212</ele>
        <time>2021-03-24T22:01:32.349Z</time>
      </trkpt>
      <trkpt lat="40.427517" lon="-3.735263">
        <ele>593.409146</ele>
        <time>2021-03-24T22:01:41.904Z</time>
      </trkpt>
      <trkpt lat="40.426109" lon="-3.734812">
        <ele>593.709635</ele>
        <time>2021-03-24T22:02:10.866Z</time>
      </trkpt>
      <trkpt lat="40.425776" lon="-3.734430">
        <ele>593.659699</ele>
        <time>2021-03-24T22:02:19.290Z</time>
      </trkpt>
      <trkpt lat="40.425616" lon="-3.734176">
        <ele>593.599081</ele>
        <time>2021-03-24T22:02:24.025Z</time>
      </trkpt>
      <trkpt lat="40.425526" lon="-3.734055">
        <ele>593.567976</ele>
        <time>2021-03-24T22:02:26.313Z</time>
      </trkpt>
      <trkpt lat="40.425323" lon="-3.733693">
        <ele>593.485306</ele>
        <time>2021-03-24T22:02:32.697Z</time>
      </trkpt>
      <trkpt lat="40.425300" lon="-3.733650">
        <ele>593.475643</ele>
        <time>2021-03-24T22:02:33.368Z</time>
      </trkpt>
      <trkpt lat="40.425277" lon="-3.733683">
        <ele>593.467416</ele>
        <time>2021-03-24T22:02:34.001Z</time>
      </trkpt>
      <trkpt lat="40.425261" lon="-3.733710">
        <ele>593.461125</ele>
        <time>2021-03-24T22:02:34.500Z</time>
      </trkpt>
      <trkpt lat="40.425245" lon="-3.733686">
        <ele>593.455259</ele>
        <time>2021-03-24T22:02:34.765Z</time>
      </trkpt>
      <trkpt lat="40.425192" lon="-3.733601">
        <ele>593.435057</ele>
        <time>2021-03-24T22:02:35.758Z</time>
      </trkpt>
      <trkpt lat="40.425176" lon="-3.733619">
        <ele>593.429969</ele>
        <time>2021-03-24T22:02:36.109Z</time>
      </trkpt>
      <trkpt lat="40.425035" lon="-3.733638">
        <ele>593.395734</ele>
        <time>2021-03-24T22:02:37.571Z</time>
      </trkpt>
      <trkpt lat="40.425017" lon="-3.733625">
        <ele>593.390772</ele>
        <time>2021-03-24T22:02:37.778Z</time>
      </trkpt>
      <trkpt lat="40.424998" lon="-3.733608">
        <ele>593.385220</ele>
        <time>2021-03-24T22:02:37.991Z</time>
      </trkpt>
      <trkpt lat="40.424950" lon="-3.733508">
        <ele>593.363483</ele>
        <time>2021-03-24T22:02:39.007Z</time>
      </trkpt>
      <trkpt lat="40.424946" lon="-3.733479">
        <ele>593.358064</ele>
        <time>2021-03-24T22:02:39.245Z</time>
      </trkpt>
      <trkpt lat="40.424851" lon="-3.733473">
        <ele>593.335091</ele>
        <time>2021-03-24T22:02:40.631Z</time>
      </trkpt>
      <trkpt lat="40.424794" lon="-3.733468">
        <ele>593.321293</ele>
        <time>2021-03-24T22:02:41.318Z</time>
      </trkpt>
      <trkpt lat="40.424788" lon="-3.733423">
        <ele>593.312893</ele>
        <time>2021-03-24T22:02:41.696Z</time>
      </trkpt>
      <trkpt lat="40.424781" lon="-3.733366">
        <ele>593.302277</ele>
        <time>2021-03-24T22:02:42.163Z</time>
      </trkpt>
      <trkpt lat="40.424750" lon="-3.733261">
        <ele>593.284125</ele>
        <time>2021-03-24T22:02:43.210Z</time>
      </trkpt>
      <trkpt lat="40.424720" lon="-3.733232">
        <ele>593.276285</ele>
        <time>2021-03-24T22:02:43.660Z</time>
      </trkpt>
      <trkpt lat="40.422776" lon="-3.731639">
        <ele>593.091795</ele>
        <time>2021-03-24T22:03:12.327Z</time>
      </trkpt>
      <trkpt lat="40.420667" lon="-3.729898">
        <ele>594.312562</ele>
        <time>2021-03-24T22:03:48.277Z</time>
      </trkpt>
      <trkpt lat="40.420615" lon="-3.729853">
        <ele>594.355208</ele>
        <time>2021-03-24T22:03:49.700Z</time>
      </trkpt>
      <trkpt lat="40.420587" lon="-3.729815">
        <ele>594.382780</ele>
        <time>2021-03-24T22:03:50.733Z</time>
      </trkpt>
      <trkpt lat="40.420606" lon="-3.729799">
        <ele>594.398236</ele>
        <time>2021-03-24T22:03:51.154Z</time>
      </trkpt>
      <trkpt lat="40.420556" lon="-3.729759">
        <ele>594.438329</ele>
        <time>2021-03-24T22:03:52.003Z</time>
      </trkpt>
      <trkpt lat="40.420521" lon="-3.729721">
        <ele>594.469427</ele>
        <time>2021-03-24T22:03:52.619Z</time>
      </trkpt>
      <trkpt lat="40.420467" lon="-3.729658">
        <ele>594.518889</ele>
        <time>2021-03-24T22:03:53.591Z</time>
      </trkpt>
      <trkpt lat="40.420373" lon="-3.729540">
        <ele>594.607935</ele>
        <time>2021-03-24T22:03:55.502Z</time>
      </trkpt>
      <trkpt lat="40.420306" lon="-3.729456">
        <ele>594.664615</ele>
        <time>2021-03-24T22:03:57.032Z</time>
      </trkpt>
      <trkpt lat="40.420201" lon="-3.729340">
        <ele>594.727419</ele>
        <time>2021-03-24T22:03:58.861Z</time>
      </trkpt>
      <trkpt lat="40.420107" lon="-3.729274">
        <ele>594.776210</ele>
        <time>2021-03-24T22:04:00.327Z</time>
      </trkpt>
      <trkpt lat="40.420032" lon="-3.729258">
        <ele>594.810992</ele>
        <time>2021-03-24T22:04:01.669Z</time>
      </trkpt>
      <trkpt lat="40.419470" lon="-3.729161">
        <ele>595.070464</ele>
        <time>2021-03-24T22:04:09.333Z</time>
      </trkpt>
      <trkpt lat="40.419249" lon="-3.729107">
        <ele>595.173364</ele>
        <time>2021-03-24T22:04:12.560Z</time>
      </trkpt>
      <trkpt lat="40.419248" lon="-3.729158">
        <ele>595.191144</ele>
        <time>2021-03-24T22:04:13.364Z</time>
      </trkpt>
      <trkpt lat="40.419250" lon="-3.729219">
        <ele>595.212422</ele>
        <time>2021-03-24T22:04:14.331Z</time>
      </trkpt>
      <trkpt lat="40.418697" lon="-3.729070">
        <ele>595.470834</ele>
        <time>2021-03-24T22:04:25.578Z</time>
      </trkpt>
      <trkpt lat="40.418481" lon="-3.728982">
        <ele>594.965396</ele>
        <time>2021-03-24T22:04:29.438Z</time>
      </trkpt>
      <trkpt lat="40.418389" lon="-3.728955">
        <ele>594.745781</ele>
        <time>2021-03-24T22:04:31.118Z</time>
      </trkpt>
      <trkpt lat="40.418298" lon="-3.728939">
        <ele>594.531890</ele>
        <time>2021-03-24T22:04:32.667Z</time>
      </trkpt>
      <trkpt lat="40.418197" lon="-3.728872">
        <ele>594.268287</ele>
        <time>2021-03-24T22:04:34.546Z</time>
      </trkpt>
      <trkpt lat="40.418104" lon="-3.728833">
        <ele>594.040853</ele>
        <time>2021-03-24T22:04:36.178Z</time>
      </trkpt>
      <trkpt lat="40.418139" lon="-3.728713">
        <ele>593.812930</ele>
        <time>2021-03-24T22:04:37.083Z</time>
      </trkpt>
      <trkpt lat="40.418200" lon="-3.728440">
        <ele>593.308298</ele>
        <time>2021-03-24T22:04:38.999Z</time>
      </trkpt>
      <trkpt lat="40.418235" lon="-3.728279">
        <ele>593.011326</ele>
        <time>2021-03-24T22:04:40.108Z</time>
      </trkpt>
      <trkpt lat="40.418393" lon="-3.727557">
        <ele>591.678897</ele>
        <time>2021-03-24T22:04:45.014Z</time>
      </trkpt>
      <trkpt lat="40.418468" lon="-3.727069">
        <ele>590.708310</ele>
        <time>2021-03-24T22:04:48.286Z</time>
      </trkpt>
      <trkpt lat="40.418503" lon="-3.726328">
        <ele>589.155270</ele>
        <time>2021-03-24T22:04:53.115Z</time>
      </trkpt>
      <trkpt lat="40.418523" lon="-3.725858">
        <ele>588.170566</ele>
        <time>2021-03-24T22:04:56.191Z</time>
      </trkpt>
      <trkpt lat="40.418565" lon="-3.724891">
        <ele>586.285056</ele>
        <time>2021-03-24T22:05:02.997Z</time>
      </trkpt>
      <trkpt lat="40.418604" lon="-3.724431">
        <ele>586.005614</ele>
        <time>2021-03-24T22:05:06.511Z</time>
      </trkpt>
      <trkpt lat="40.418657" lon="-3.724114">
        <ele>585.809665</ele>
        <time>2021-03-24T22:05:10.344Z</time>
      </trkpt>
      <trkpt lat="40.418783" lon="-3.723673">
        <ele>585.525281</ele>
        <time>2021-03-24T22:05:15.846Z</time>
      </trkpt>
      <trkpt lat="40.418796" lon="-3.723629">
        <ele>585.496786</ele>
        <time>2021-03-24T22:05:16.472Z</time>
      </trkpt>
      <trkpt lat="40.418763" lon="-3.723605">
        <ele>585.466872</ele>
        <time>2021-03-24T22:05:17.014Z</time>
      </trkpt>
      <trkpt lat="40.418732" lon="-3.723560">
        <ele>585.430232</ele>
        <time>2021-03-24T22:05:17.646Z</time>
      </trkpt>
      <trkpt lat="40.418707" lon="-3.723485">
        <ele>585.380801</ele>
        <time>2021-03-24T22:05:18.436Z</time>
      </trkpt>
      <trkpt lat="40.418734" lon="-3.723236">
        <ele>585.228951</ele>
        <time>2021-03-24T22:05:21.302Z</time>
      </trkpt>
      <trkpt lat="40.418814" lon="-3.723171">
        <ele>585.154353</ele>
        <time>2021-03-24T22:05:22.660Z</time>
      </trkpt>
      <trkpt lat="40.418868" lon="-3.723164">
        <ele>585.111322</ele>
        <time>2021-03-24T22:05:23.351Z</time>
      </trkpt>
      <trkpt lat="40.418895" lon="-3.722613">
        <ele>584.729936</ele>
        <time>2021-03-24T22:05:29.227Z</time>
      </trkpt>
      <trkpt lat="40.418892" lon="-3.722574">
        <ele>584.698019</ele>
        <time>2021-03-24T22:05:29.684Z</time>
      </trkpt>
      <trkpt lat="40.418874" lon="-3.722322">
        <ele>584.491929</ele>
        <time>2021-03-24T22:05:32.474Z</time>
      </trkpt>
      <trkpt lat="40.418694" lon="-3.722355">
        <ele>584.297551</ele>
        <time>2021-03-24T22:05:34.157Z</time>
      </trkpt>
      <trkpt lat="40.418669" lon="-3.722360">
        <ele>584.270505</ele>
        <time>2021-03-24T22:05:34.406Z</time>
      </trkpt>
      <trkpt lat="40.418511" lon="-3.722382">
        <ele>584.100576</ele>
        <time>2021-03-24T22:05:36.028Z</time>
      </trkpt>
      <trkpt lat="40.418322" lon="-3.722410">
        <ele>583.897157</ele>
        <time>2021-03-24T22:05:37.771Z</time>
      </trkpt>
      <trkpt lat="40.417751" lon="-3.722540">
        <ele>583.277361</ele>
        <time>2021-03-24T22:05:43.629Z</time>
      </trkpt>
      <trkpt lat="40.417370" lon="-3.722667">
        <ele>582.992791</ele>
        <time>2021-03-24T22:05:47.680Z</time>
      </trkpt>
      <trkpt lat="40.417257" lon="-3.722698">
        <ele>582.993449</ele>
        <time>2021-03-24T22:05:48.810Z</time>
      </trkpt>
      <trkpt lat="40.417090" lon="-3.722777">
        <ele>582.994461</ele>
        <time>2021-03-24T22:05:50.639Z</time>
      </trkpt>
      <trkpt lat="40.416788" lon="-3.722904">
        <ele>582.996267</ele>
        <time>2021-03-24T22:05:54.159Z</time>
      </trkpt>
      <trkpt lat="40.416515" lon="-3.723031">
        <ele>582.997917</ele>
        <time>2021-03-24T22:05:57.737Z</time>
      </trkpt>
      <trkpt lat="40.416229" lon="-3.723185">
        <ele>582.999679</ele>
        <time>2021-03-24T22:06:01.716Z</time>
      </trkpt>
      <trkpt lat="40.415285" lon="-3.723724">
        <ele>583.438295</ele>
        <time>2021-03-24T22:06:17.667Z</time>
      </trkpt>
      <trkpt lat="40.414815" lon="-3.723901">
        <ele>583.815054</ele>
        <time>2021-03-24T22:06:25.317Z</time>
      </trkpt>
      <trkpt lat="40.414342" lon="-3.723918">
        <ele>584.179668</ele>
        <time>2021-03-24T22:06:31.776Z</time>
      </trkpt>
      <trkpt lat="40.414203" lon="-3.723922">
        <ele>584.286803</ele>
        <time>2021-03-24T22:06:33.629Z</time>
      </trkpt>
      <trkpt lat="40.414150" lon="-3.723923">
        <ele>584.327647</ele>
        <time>2021-03-24T22:06:34.302Z</time>
      </trkpt>
      <trkpt lat="40.414045" lon="-3.723926">
        <ele>584.378115</ele>
        <time>2021-03-24T22:06:35.627Z</time>
      </trkpt>
      <trkpt lat="40.413925" lon="-3.723929">
        <ele>584.331701</ele>
        <time>2021-03-24T22:06:37.442Z</time>
      </trkpt>
      <trkpt lat="40.413903" lon="-3.723929">
        <ele>584.323193</ele>
        <time>2021-03-24T22:06:37.800Z</time>
      </trkpt>
      <trkpt lat="40.413732" lon="-3.723934">
        <ele>584.257049</ele>
        <time>2021-03-24T22:06:40.391Z</time>
      </trkpt>
      <trkpt lat="40.413707" lon="-3.723934">
        <ele>584.247381</ele>
        <time>2021-03-24T22:06:40.758Z</time>
      </trkpt>
      <trkpt lat="40.413300" lon="-3.723925">
        <ele>584.089966</ele>
        <time>2021-03-24T22:06:46.693Z</time>
      </trkpt>
      <trkpt lat="40.412961" lon="-3.723862">
        <ele>583.957565</ele>
        <time>2021-03-24T22:06:51.548Z</time>
      </trkpt>
      <trkpt lat="40.412336" lon="-3.723536">
        <ele>583.697506</ele>
        <time>2021-03-24T22:07:00.984Z</time>
      </trkpt>
      <trkpt lat="40.412031" lon="-3.723312">
        <ele>583.613155</ele>
        <time>2021-03-24T22:07:05.843Z</time>
      </trkpt>
      <trkpt lat="40.411749" lon="-3.723124">
        <ele>583.538499</ele>
        <time>2021-03-24T22:07:10.380Z</time>
      </trkpt>
      <trkpt lat="40.410933" lon="-3.722774">
        <ele>583.335856</ele>
        <time>2021-03-24T22:07:23.271Z</time>
      </trkpt>
      <trkpt lat="40.410382" lon="-3.722579">
        <ele>583.293888</ele>
        <time>2021-03-24T22:07:32.477Z</time>
      </trkpt>
      <trkpt lat="40.409261" lon="-3.722149">
        <ele>583.399865</ele>
        <time>2021-03-24T22:07:50.542Z</time>
      </trkpt>
      <trkpt lat="40.409125" lon="-3.722129">
        <ele>583.412283</ele>
        <time>2021-03-24T22:07:52.663Z</time>
      </trkpt>
      <trkpt lat="40.408854" lon="-3.722105">
        <ele>583.434097</ele>
        <time>2021-03-24T22:07:56.575Z</time>
      </trkpt>
      <trkpt lat="40.408356" lon="-3.722123">
        <ele>583.456327</ele>
        <time>2021-03-24T22:08:04.235Z</time>
      </trkpt>
      <trkpt lat="40.407825" lon="-3.722259">
        <ele>583.480467</ele>
        <time>2021-03-24T22:08:12.467Z</time>
      </trkpt>
      <trkpt lat="40.407617" lon="-3.722324">
        <ele>583.490008</ele>
        <time>2021-03-24T22:08:15.681Z</time>
      </trkpt>
      <trkpt lat="40.407360" lon="-3.722440">
        <ele>583.502134</ele>
        <time>2021-03-24T22:08:19.790Z</time>
      </trkpt>
      <trkpt lat="40.407100" lon="-3.722540">
        <ele>583.504055</ele>
        <time>2021-03-24T22:08:24.337Z</time>
      </trkpt>
      <trkpt lat="40.406515" lon="-3.722785">
        <ele>583.424687</ele>
        <time>2021-03-24T22:08:34.079Z</time>
      </trkpt>
      <trkpt lat="40.405827" lon="-3.722965">
        <ele>583.334010</ele>
        <time>2021-03-24T22:08:44.579Z</time>
      </trkpt>
      <trkpt lat="40.405587" lon="-3.722998">
        <ele>583.302819</ele>
        <time>2021-03-24T22:08:48.071Z</time>
      </trkpt>
      <trkpt lat="40.405226" lon="-3.723048">
        <ele>583.202742</ele>
        <time>2021-03-24T22:08:53.128Z</time>
      </trkpt>
      <trkpt lat="40.405016" lon="-3.723066">
        <ele>583.113286</ele>
        <time>2021-03-24T22:08:55.969Z</time>
      </trkpt>
      <trkpt lat="40.404814" lon="-3.723070">
        <ele>583.027411</ele>
        <time>2021-03-24T22:08:58.237Z</time>
      </trkpt>
      <trkpt lat="40.404450" lon="-3.723054">
        <ele>582.872597</ele>
        <time>2021-03-24T22:09:02.255Z</time>
      </trkpt>
      <trkpt lat="40.404326" lon="-3.723043">
        <ele>582.819768</ele>
        <time>2021-03-24T22:09:03.573Z</time>
      </trkpt>
      <trkpt lat="40.404096" lon="-3.723022">
        <ele>582.721765</ele>
        <time>2021-03-24T22:09:06.242Z</time>
      </trkpt>
      <trkpt lat="40.403440" lon="-3.722941">
        <ele>582.707774</ele>
        <time>2021-03-24T22:09:13.899Z</time>
      </trkpt>
      <trkpt lat="40.401569" lon="-3.722441">
        <ele>584.959175</ele>
        <time>2021-03-24T22:09:45.107Z</time>
      </trkpt>
      <trkpt lat="40.400890" lon="-3.722111">
        <ele>586.031168</ele>
        <time>2021-03-24T22:09:57.739Z</time>
      </trkpt>
      <trkpt lat="40.400537" lon="-3.721850">
        <ele>586.630986</ele>
        <time>2021-03-24T22:10:04.533Z</time>
      </trkpt>
      <trkpt lat="40.400205" lon="-3.721450">
        <ele>587.212653</ele>
        <time>2021-03-24T22:10:11.738Z</time>
      </trkpt>
      <trkpt lat="40.399796" lon="-3.720677">
        <ele>587.304870</ele>
        <time>2021-03-24T22:10:22.217Z</time>
      </trkpt>
      <trkpt lat="40.399567" lon="-3.719871">
        <ele>587.389151</ele>
        <time>2021-03-24T22:10:30.385Z</time>
      </trkpt>
      <trkpt lat="40.399532" lon="-3.719072">
        <ele>586.871460</ele>
        <time>2021-03-24T22:10:36.951Z</time>
      </trkpt>
      <trkpt lat="40.399532" lon="-3.718819">
        <ele>586.429341</ele>
        <time>2021-03-24T22:10:38.937Z</time>
      </trkpt>
      <trkpt lat="40.399533" lon="-3.718660">
        <ele>586.151478</ele>
        <time>2021-03-24T22:10:40.084Z</time>
      </trkpt>
      <trkpt lat="40.399546" lon="-3.718454">
        <ele>585.790258</ele>
        <time>2021-03-24T22:10:41.557Z</time>
      </trkpt>
      <trkpt lat="40.399549" lon="-3.718363">
        <ele>585.631087</ele>
        <time>2021-03-24T22:10:42.258Z</time>
      </trkpt>
      <trkpt lat="40.399590" lon="-3.717832">
        <ele>584.698405</ele>
        <time>2021-03-24T22:10:46.053Z</time>
      </trkpt>
      <trkpt lat="40.399634" lon="-3.716934">
        <ele>583.164591</ele>
        <time>2021-03-24T22:10:52.493Z</time>
      </trkpt>
      <trkpt lat="40.399621" lon="-3.716591">
        <ele>582.691551</ele>
        <time>2021-03-24T22:10:54.919Z</time>
      </trkpt>
      <trkpt lat="40.399594" lon="-3.716339">
        <ele>582.341023</ele>
        <time>2021-03-24T22:10:56.773Z</time>
      </trkpt>
      <trkpt lat="40.399586" lon="-3.716270">
        <ele>582.244886</ele>
        <time>2021-03-24T22:10:57.240Z</time>
      </trkpt>
      <trkpt lat="40.399544" lon="-3.715931">
        <ele>581.771800</ele>
        <time>2021-03-24T22:10:59.754Z</time>
      </trkpt>
      <trkpt lat="40.399503" lon="-3.715657">
        <ele>581.387170</ele>
        <time>2021-03-24T22:11:01.781Z</time>
      </trkpt>
      <trkpt lat="40.399495" lon="-3.715606">
        <ele>581.315447</ele>
        <time>2021-03-24T22:11:02.195Z</time>
      </trkpt>
      <trkpt lat="40.399434" lon="-3.715622">
        <ele>581.202935</ele>
        <time>2021-03-24T22:11:03.035Z</time>
      </trkpt>
      <trkpt lat="40.399424" lon="-3.715570">
        <ele>581.129060</ele>
        <time>2021-03-24T22:11:03.555Z</time>
      </trkpt>
      <trkpt lat="40.399285" lon="-3.715418">
        <ele>580.801885</ele>
        <time>2021-03-24T22:11:06.008Z</time>
      </trkpt>
      <trkpt lat="40.399233" lon="-3.715411">
        <ele>580.707339</ele>
        <time>2021-03-24T22:11:06.722Z</time>
      </trkpt>
      <trkpt lat="40.399249" lon="-3.715360">
        <ele>580.631362</ele>
        <time>2021-03-24T22:11:07.281Z</time>
      </trkpt>
      <trkpt lat="40.399176" lon="-3.714844">
        <ele>580.110288</ele>
        <time>2021-03-24T22:11:12.950Z</time>
      </trkpt>
      <trkpt lat="40.398967" lon="-3.714414">
        <ele>580.373130</ele>
        <time>2021-03-24T22:11:20.056Z</time>
      </trkpt>
      <trkpt lat="40.398825" lon="-3.714192">
        <ele>580.522513</ele>
        <time>2021-03-24T22:11:24.299Z</time>
      </trkpt>
      <trkpt lat="40.398692" lon="-3.714054">
        <ele>580.637204</ele>
        <time>2021-03-24T22:11:26.655Z</time>
      </trkpt>
      <trkpt lat="40.398644" lon="-3.714000">
        <ele>580.679969</ele>
        <time>2021-03-24T22:11:28.137Z</time>
      </trkpt>
      <trkpt lat="40.397937" lon="-3.713577">
        <ele>581.205638</ele>
        <time>2021-03-24T22:11:41.251Z</time>
      </trkpt>
      <trkpt lat="40.397767" lon="-3.713464">
        <ele>581.392083</ele>
        <time>2021-03-24T22:11:44.440Z</time>
      </trkpt>
      <trkpt lat="40.397651" lon="-3.713385">
        <ele>581.562183</ele>
        <time>2021-03-24T22:11:47.084Z</time>
      </trkpt>
      <trkpt lat="40.397503" lon="-3.713239">
        <ele>581.803148</ele>
        <time>2021-03-24T22:11:50.442Z</time>
      </trkpt>
      <trkpt lat="40.397369" lon="-3.713048">
        <ele>582.060593</ele>
        <time>2021-03-24T22:11:54.493Z</time>
      </trkpt>
      <trkpt lat="40.397357" lon="-3.712913">
        <ele>582.195334</ele>
        <time>2021-03-24T22:11:56.388Z</time>
      </trkpt>
      <trkpt lat="40.397220" lon="-3.712460">
        <ele>582.678528</ele>
        <time>2021-03-24T22:12:03.307Z</time>
      </trkpt>
      <trkpt lat="40.397260" lon="-3.712286">
        <ele>582.858709</ele>
        <time>2021-03-24T22:12:06.005Z</time>
      </trkpt>
      <trkpt lat="40.397369" lon="-3.712162">
        <ele>583.046441</ele>
        <time>2021-03-24T22:12:08.778Z</time>
      </trkpt>
      <trkpt lat="40.397431" lon="-3.712105">
        <ele>583.144962</ele>
        <time>2021-03-24T22:12:10.279Z</time>
      </trkpt>
      <trkpt lat="40.397339" lon="-3.711973">
        <ele>583.322348</ele>
        <time>2021-03-24T22:12:12.690Z</time>
      </trkpt>
      <trkpt lat="40.397188" lon="-3.711718">
        <ele>583.655607</ele>
        <time>2021-03-24T22:12:16.801Z</time>
      </trkpt>
      <trkpt lat="40.396702" lon="-3.710864">
        <ele>585.188549</ele>
        <time>2021-03-24T22:12:31.154Z</time>
      </trkpt>
      <trkpt lat="40.396349" lon="-3.710093">
        <ele>586.482101</ele>
        <time>2021-03-24T22:12:44.447Z</time>
      </trkpt>
      <trkpt lat="40.396100" lon="-3.709382">
        <ele>586.898810</ele>
        <time>2021-03-24T22:12:54.514Z</time>
      </trkpt>
      <trkpt lat="40.395989" lon="-3.708970">
        <ele>586.782357</ele>
        <time>2021-03-24T22:12:59.571Z</time>
      </trkpt>
      <trkpt lat="40.395904" lon="-3.708617">
        <ele>586.683702</ele>
        <time>2021-03-24T22:13:02.943Z</time>
      </trkpt>
      <trkpt lat="40.395685" lon="-3.707831">
        <ele>586.460678</ele>
        <time>2021-03-24T22:13:09.386Z</time>
      </trkpt>
      <trkpt lat="40.395491" lon="-3.707136">
        <ele>585.643663</ele>
        <time>2021-03-24T22:13:14.960Z</time>
      </trkpt>
      <trkpt lat="40.395252" lon="-3.706331">
        <ele>584.192040</ele>
        <time>2021-03-24T22:13:21.283Z</time>
      </trkpt>
      <trkpt lat="40.394951" lon="-3.705356">
        <ele>582.424461</ele>
        <time>2021-03-24T22:13:29.022Z</time>
      </trkpt>
      <trkpt lat="40.394685" lon="-3.704541">
        <ele>581.395526</ele>
        <time>2021-03-24T22:13:35.801Z</time>
      </trkpt>
      <trkpt lat="40.394648" lon="-3.704426">
        <ele>581.251188</ele>
        <time>2021-03-24T22:13:36.839Z</time>
      </trkpt>
      <trkpt lat="40.394403" lon="-3.703941">
        <ele>580.578307</ele>
        <time>2021-03-24T22:13:41.717Z</time>
      </trkpt>
      <trkpt lat="40.393846" lon="-3.703149">
        <ele>579.421013</ele>
        <time>2021-03-24T22:13:50.094Z</time>
      </trkpt>
      <trkpt lat="40.393435" lon="-3.702685">
        <ele>578.807664</ele>
        <time>2021-03-24T22:13:55.733Z</time>
      </trkpt>
      <trkpt lat="40.393083" lon="-3.702347">
        <ele>578.314203</ele>
        <time>2021-03-24T22:14:00.207Z</time>
      </trkpt>
      <trkpt lat="40.393024" lon="-3.702294">
        <ele>578.233311</ele>
        <time>2021-03-24T22:14:00.925Z</time>
      </trkpt>
      <trkpt lat="40.392889" lon="-3.702154">
        <ele>578.038648</ele>
        <time>2021-03-24T22:14:02.749Z</time>
      </trkpt>
      <trkpt lat="40.391298" lon="-3.700730">
        <ele>577.728238</ele>
        <time>2021-03-24T22:14:25.598Z</time>
      </trkpt>
      <trkpt lat="40.390945" lon="-3.700432">
        <ele>577.850648</ele>
        <time>2021-03-24T22:14:32.112Z</time>
      </trkpt>
      <trkpt lat="40.390752" lon="-3.700307">
        <ele>577.970118</ele>
        <time>2021-03-24T22:14:35.592Z</time>
      </trkpt>
      <trkpt lat="40.390515" lon="-3.700145">
        <ele>578.118449</ele>
        <time>2021-03-24T22:14:39.773Z</time>
      </trkpt>
      <trkpt lat="40.389862" lon="-3.699520">
        <ele>578.567056</ele>
        <time>2021-03-24T22:14:51.308Z</time>
      </trkpt>
      <trkpt lat="40.389187" lon="-3.698995">
        <ele>578.098186</ele>
        <time>2021-03-24T22:15:00.539Z</time>
      </trkpt>
      <trkpt lat="40.388584" lon="-3.698300">
        <ele>577.020493</ele>
        <time>2021-03-24T22:15:08.445Z</time>
      </trkpt>
      <trkpt lat="40.388129" lon="-3.697680">
        <ele>576.191560</ele>
        <time>2021-03-24T22:15:15.046Z</time>
      </trkpt>
      <trkpt lat="40.388049" lon="-3.697539">
        <ele>576.062750</ele>
        <time>2021-03-24T22:15:16.302Z</time>
      </trkpt>
      <trkpt lat="40.387900" lon="-3.697458">
        <ele>575.907633</ele>
        <time>2021-03-24T22:15:18.016Z</time>
      </trkpt>
      <trkpt lat="40.387830" lon="-3.697501">
        <ele>575.833297</ele>
        <time>2021-03-24T22:15:18.837Z</time>
      </trkpt>
      <trkpt lat="40.386599" lon="-3.696069">
        <ele>574.525062</ele>
        <time>2021-03-24T22:15:37.174Z</time>
      </trkpt>
      <trkpt lat="40.386505" lon="-3.696056">
        <ele>574.507138</ele>
        <time>2021-03-24T22:15:38.296Z</time>
      </trkpt>
      <trkpt lat="40.386436" lon="-3.696123">
        <ele>574.490862</ele>
        <time>2021-03-24T22:15:39.446Z</time>
      </trkpt>
      <trkpt lat="40.386183" lon="-3.696510">
        <ele>574.417195</ele>
        <time>2021-03-24T22:15:44.194Z</time>
      </trkpt>
      <trkpt lat="40.386084" lon="-3.696539">
        <ele>574.397959</ele>
        <time>2021-03-24T22:15:45.539Z</time>
      </trkpt>
      <trkpt lat="40.386032" lon="-3.696496">
        <ele>574.386304</ele>
        <time>2021-03-24T22:15:46.177Z</time>
      </trkpt>
      <trkpt lat="40.385558" lon="-3.695941">
        <ele>574.265858</ele>
        <time>2021-03-24T22:15:53.946Z</time>
      </trkpt>
      <trkpt lat="40.385528" lon="-3.695911">
        <ele>574.258707</ele>
        <time>2021-03-24T22:15:54.437Z</time>
      </trkpt>
      <trkpt lat="40.385478" lon="-3.695859">
        <ele>574.248315</ele>
        <time>2021-03-24T22:15:55.084Z</time>
      </trkpt>
      <trkpt lat="40.385818" lon="-3.695383">
        <ele>574.189134</ele>
        <time>2021-03-24T22:16:01.096Z</time>
      </trkpt>
      <trkpt lat="40.385811" lon="-3.695248">
        <ele>574.176863</ele>
        <time>2021-03-24T22:16:02.415Z</time>
      </trkpt>
      <trkpt lat="40.384197" lon="-3.693360">
        <ele>573.717062</ele>
        <time>2021-03-24T22:16:28.001Z</time>
      </trkpt>
      <trkpt lat="40.384107" lon="-3.693057">
        <ele>573.636782</ele>
        <time>2021-03-24T22:16:30.846Z</time>
      </trkpt>
      <trkpt lat="40.383946" lon="-3.692843">
        <ele>573.562535</ele>
        <time>2021-03-24T22:16:33.388Z</time>
      </trkpt>
      <trkpt lat="40.383771" lon="-3.692668">
        <ele>573.491244</ele>
        <time>2021-03-24T22:16:35.966Z</time>
      </trkpt>
      <trkpt lat="40.383595" lon="-3.692639">
        <ele>573.447397</ele>
        <time>2021-03-24T22:16:37.921Z</time>
      </trkpt>
      <trkpt lat="40.383218" lon="-3.692216">
        <ele>573.394119</ele>
        <time>2021-03-24T22:16:43.608Z</time>
      </trkpt>
      <trkpt lat="40.383042" lon="-3.692128">
        <ele>573.373886</ele>
        <time>2021-03-24T22:16:45.647Z</time>
      </trkpt>
      <trkpt lat="40.382551" lon="-3.692006">
        <ele>573.320201</ele>
        <time>2021-03-24T22:16:51.530Z</time>
      </trkpt>
      <trkpt lat="40.382012" lon="-3.691888">
        <ele>573.261496</ele>
        <time>2021-03-24T22:16:58.353Z</time>
      </trkpt>
      <trkpt lat="40.381490" lon="-3.691764">
        <ele>573.713738</ele>
        <time>2021-03-24T22:17:06.470Z</time>
      </trkpt>
      <trkpt lat="40.381100" lon="-3.691587">
        <ele>574.069507</ele>
        <time>2021-03-24T22:17:14.118Z</time>
      </trkpt>
      <trkpt lat="40.380498" lon="-3.691281">
        <ele>574.626077</ele>
        <time>2021-03-24T22:17:24.353Z</time>
      </trkpt>
      <trkpt lat="40.380390" lon="-3.691257">
        <ele>574.720515</ele>
        <time>2021-03-24T22:17:25.848Z</time>
      </trkpt>
      <trkpt lat="40.380266" lon="-3.691255">
        <ele>574.805827</ele>
        <time>2021-03-24T22:17:27.146Z</time>
      </trkpt>
      <trkpt lat="40.380102" lon="-3.691212">
        <ele>574.752655</ele>
        <time>2021-03-24T22:17:29.018Z</time>
      </trkpt>
      <trkpt lat="40.379994" lon="-3.691183">
        <ele>574.717607</ele>
        <time>2021-03-24T22:17:30.110Z</time>
      </trkpt>
      <trkpt lat="40.379700" lon="-3.691103">
        <ele>574.622146</ele>
        <time>2021-03-24T22:17:33.519Z</time>
      </trkpt>
      <trkpt lat="40.379601" lon="-3.691074">
        <ele>574.589896</ele>
        <time>2021-03-24T22:17:34.514Z</time>
      </trkpt>
      <trkpt lat="40.379281" lon="-3.690932">
        <ele>574.482500</ele>
        <time>2021-03-24T22:17:38.246Z</time>
      </trkpt>
      <trkpt lat="40.379140" lon="-3.690834">
        <ele>574.431775</ele>
        <time>2021-03-24T22:17:40.213Z</time>
      </trkpt>
      <trkpt lat="40.378672" lon="-3.690486">
        <ele>574.260766</ele>
        <time>2021-03-24T22:17:46.595Z</time>
      </trkpt>
      <trkpt lat="40.378002" lon="-3.689975">
        <ele>574.861107</ele>
        <time>2021-03-24T22:17:56.405Z</time>
      </trkpt>
      <trkpt lat="40.377704" lon="-3.689800">
        <ele>575.147235</ele>
        <time>2021-03-24T22:18:00.570Z</time>
      </trkpt>
      <trkpt lat="40.377312" lon="-3.689617">
        <ele>575.511885</ele>
        <time>2021-03-24T22:18:07.513Z</time>
      </trkpt>
      <trkpt lat="40.376731" lon="-3.689424">
        <ele>575.980801</ele>
        <time>2021-03-24T22:18:19.238Z</time>
      </trkpt>
      <trkpt lat="40.375765" lon="-3.689223">
        <ele>576.619370</ele>
        <time>2021-03-24T22:18:34.649Z</time>
      </trkpt>
      <trkpt lat="40.374975" lon="-3.689066">
        <ele>576.519576</ele>
        <time>2021-03-24T22:18:43.461Z</time>
      </trkpt>
      <trkpt lat="40.374045" lon="-3.688845">
        <ele>574.588499</ele>
        <time>2021-03-24T22:18:52.474Z</time>
      </trkpt>
      <trkpt lat="40.373937" lon="-3.688819">
        <ele>574.364151</ele>
        <time>2021-03-24T22:18:53.544Z</time>
      </trkpt>
      <trkpt lat="40.373813" lon="-3.688759">
        <ele>574.094126</ele>
        <time>2021-03-24T22:18:54.860Z</time>
      </trkpt>
      <trkpt lat="40.373868" lon="-3.687636">
        <ele>572.362821</ele>
        <time>2021-03-24T22:19:54.595Z</time>
      </trkpt>
      <trkpt lat="40.373695" lon="-3.687484">
        <ele>571.946365</ele>
        <time>2021-03-24T22:19:56.527Z</time>
      </trkpt>
      <trkpt lat="40.373424" lon="-3.687273">
        <ele>571.316038</ele>
        <time>2021-03-24T22:19:59.348Z</time>
      </trkpt>
      <trkpt lat="40.373307" lon="-3.687190">
        <ele>571.049988</ele>
        <time>2021-03-24T22:20:00.551Z</time>
      </trkpt>
      <trkpt lat="40.372418" lon="-3.686853">
        <ele>569.503251</ele>
        <time>2021-03-24T22:20:09.373Z</time>
      </trkpt>
      <trkpt lat="40.372115" lon="-3.686689">
        <ele>569.232472</ele>
        <time>2021-03-24T22:20:12.958Z</time>
      </trkpt>
      <trkpt lat="40.371897" lon="-3.686469">
        <ele>569.005287</ele>
        <time>2021-03-24T22:20:15.946Z</time>
      </trkpt>
      <trkpt lat="40.371547" lon="-3.685979">
        <ele>568.582514</ele>
        <time>2021-03-24T22:20:21.263Z</time>
      </trkpt>
      <trkpt lat="40.370710" lon="-3.683380">
        <ele>567.166435</ele>
        <time>2021-03-24T22:20:43.938Z</time>
      </trkpt>
      <trkpt lat="40.370128" lon="-3.682736">
        <ele>566.880409</ele>
        <time>2021-03-24T22:20:52.261Z</time>
      </trkpt>
      <trkpt lat="40.369807" lon="-3.682603">
        <ele>566.762679</ele>
        <time>2021-03-24T22:20:55.922Z</time>
      </trkpt>
      <trkpt lat="40.369482" lon="-3.682621">
        <ele>566.648909</ele>
        <time>2021-03-24T22:20:59.500Z</time>
      </trkpt>
      <trkpt lat="40.368973" lon="-3.682638">
        <ele>566.480465</ele>
        <time>2021-03-24T22:21:05.133Z</time>
      </trkpt>
      <trkpt lat="40.368728" lon="-3.682612">
        <ele>566.434154</ele>
        <time>2021-03-24T22:21:07.821Z</time>
      </trkpt>
      <trkpt lat="40.367579" lon="-3.682245">
        <ele>566.211352</ele>
        <time>2021-03-24T22:21:20.866Z</time>
      </trkpt>
      <trkpt lat="40.366965" lon="-3.682180">
        <ele>566.182925</ele>
        <time>2021-03-24T22:21:28.029Z</time>
      </trkpt>
      <trkpt lat="40.366632" lon="-3.682220">
        <ele>566.215869</ele>
        <time>2021-03-24T22:21:32.086Z</time>
      </trkpt>
      <trkpt lat="40.366257" lon="-3.682411">
        <ele>566.255499</ele>
        <time>2021-03-24T22:21:37.112Z</time>
      </trkpt>
      <trkpt lat="40.365802" lon="-3.682931">
        <ele>566.314939</ele>
        <time>2021-03-24T22:21:44.759Z</time>
      </trkpt>
      <trkpt lat="40.365482" lon="-3.683175">
        <ele>566.201786</ele>
        <time>2021-03-24T22:21:48.821Z</time>
      </trkpt>
      <trkpt lat="40.365113" lon="-3.683356">
        <ele>565.968765</ele>
        <time>2021-03-24T22:21:52.922Z</time>
      </trkpt>
      <trkpt lat="40.364715" lon="-3.683478">
        <ele>565.726999</ele>
        <time>2021-03-24T22:21:57.151Z</time>
      </trkpt>
      <trkpt lat="40.364204" lon="-3.683441">
        <ele>565.424267</ele>
        <time>2021-03-24T22:22:02.407Z</time>
      </trkpt>
      <trkpt lat="40.364000" lon="-3.683348">
        <ele>565.296522</ele>
        <time>2021-03-24T22:22:04.595Z</time>
      </trkpt>
      <trkpt lat="40.363805" lon="-3.683259">
        <ele>565.258627</ele>
        <time>2021-03-24T22:22:06.711Z</time>
      </trkpt>
      <trkpt lat="40.362076" lon="-3.682571">
        <ele>565.384013</ele>
        <time>2021-03-24T22:22:27.248Z</time>
      </trkpt>
      <trkpt lat="40.361899" lon="-3.682483">
        <ele>565.621337</ele>
        <time>2021-03-24T22:22:30.512Z</time>
      </trkpt>
      <trkpt lat="40.361445" lon="-3.682271">
        <ele>566.225550</ele>
        <time>2021-03-24T22:22:38.586Z</time>
      </trkpt>
      <trkpt lat="40.360931" lon="-3.682117">
        <ele>566.886616</ele>
        <time>2021-03-24T22:22:47.441Z</time>
      </trkpt>
      <trkpt lat="40.360429" lon="-3.681919">
        <ele>567.433414</ele>
        <time>2021-03-24T22:22:55.176Z</time>
      </trkpt>
      <trkpt lat="40.360348" lon="-3.681898">
        <ele>567.432122</ele>
        <time>2021-03-24T22:22:56.401Z</time>
      </trkpt>
      <trkpt lat="40.360301" lon="-3.681872">
        <ele>567.431324</ele>
        <time>2021-03-24T22:22:57.726Z</time>
      </trkpt>
      <trkpt lat="40.360093" lon="-3.681758">
        <ele>567.427798</ele>
        <time>2021-03-24T22:23:00.386Z</time>
      </trkpt>
      <trkpt lat="40.359889" lon="-3.681567">
        <ele>567.423877</ele>
        <time>2021-03-24T22:23:04.208Z</time>
      </trkpt>
      <trkpt lat="40.359509" lon="-3.680909">
        <ele>567.414035</ele>
        <time>2021-03-24T22:23:11.536Z</time>
      </trkpt>
      <trkpt lat="40.359020" lon="-3.680519">
        <ele>567.256419</ele>
        <time>2021-03-24T22:23:17.000Z</time>
      </trkpt>
      <trkpt lat="40.358770" lon="-3.680277">
        <ele>566.786380</ele>
        <time>2021-03-24T22:23:20.026Z</time>
      </trkpt>
      <trkpt lat="40.358731" lon="-3.680238">
        <ele>566.712190</ele>
        <time>2021-03-24T22:23:20.429Z</time>
      </trkpt>
      <trkpt lat="40.358102" lon="-3.679566">
        <ele>565.484964</ele>
        <time>2021-03-24T22:23:28.195Z</time>
      </trkpt>
      <trkpt lat="40.357707" lon="-3.678869">
        <ele>564.605010</ele>
        <time>2021-03-24T22:23:34.610Z</time>
      </trkpt>
      <trkpt lat="40.357660" lon="-3.678857">
        <ele>564.576222</ele>
        <time>2021-03-24T22:23:35.094Z</time>
      </trkpt>
      <trkpt lat="40.357629" lon="-3.678849">
        <ele>564.557227</ele>
        <time>2021-03-24T22:23:35.411Z</time>
      </trkpt>
      <trkpt lat="40.357532" lon="-3.678600">
        <ele>564.429102</ele>
        <time>2021-03-24T22:23:37.552Z</time>
      </trkpt>
      <trkpt lat="40.357449" lon="-3.678695">
        <ele>564.362885</ele>
        <time>2021-03-24T22:23:39.483Z</time>
      </trkpt>
      <trkpt lat="40.357365" lon="-3.678711">
        <ele>564.311851</ele>
        <time>2021-03-24T22:23:40.986Z</time>
      </trkpt>
      <trkpt lat="40.357148" lon="-3.678759">
        <ele>564.179541</ele>
        <time>2021-03-24T22:23:44.857Z</time>
      </trkpt>
      <trkpt lat="40.357001" lon="-3.678717">
        <ele>564.089088</ele>
        <time>2021-03-24T22:23:47.572Z</time>
      </trkpt>
      <trkpt lat="40.356609" lon="-3.678465">
        <ele>563.826640</ele>
        <time>2021-03-24T22:23:55.619Z</time>
      </trkpt>
      <trkpt lat="40.356110" lon="-3.678041">
        <ele>563.705263</ele>
        <time>2021-03-24T22:24:07.606Z</time>
      </trkpt>
      <trkpt lat="40.355877" lon="-3.677942">
        <ele>563.816391</ele>
        <time>2021-03-24T22:24:12.571Z</time>
      </trkpt>
      <trkpt lat="40.355518" lon="-3.677807">
        <ele>563.985846</ele>
        <time>2021-03-24T22:24:20.195Z</time>
      </trkpt>
      <trkpt lat="40.355466" lon="-3.677777">
        <ele>564.011621</ele>
        <time>2021-03-24T22:24:21.440Z</time>
      </trkpt>
      <trkpt lat="40.355233" lon="-3.677638">
        <ele>564.127758</ele>
        <time>2021-03-24T22:24:26.677Z</time>
      </trkpt>
      <trkpt lat="40.355072" lon="-3.677547">
        <ele>564.207301</ele>
        <time>2021-03-24T22:24:30.474Z</time>
      </trkpt>
      <trkpt lat="40.354723" lon="-3.677236">
        <ele>564.398724</ele>
        <time>2021-03-24T22:24:39.098Z</time>
      </trkpt>
      <trkpt lat="40.354547" lon="-3.676987">
        <ele>564.457418</ele>
        <time>2021-03-24T22:24:44.403Z</time>
      </trkpt>
      <trkpt lat="40.354422" lon="-3.676943">
        <ele>564.480312</ele>
        <time>2021-03-24T22:24:46.953Z</time>
      </trkpt>
      <trkpt lat="40.354437" lon="-3.676849">
        <ele>564.493259</ele>
        <time>2021-03-24T22:24:48.385Z</time>
      </trkpt>
      <trkpt lat="40.354443" lon="-3.676811">
        <ele>564.498491</ele>
        <time>2021-03-24T22:24:48.969Z</time>
      </trkpt>
      <trkpt lat="40.354239" lon="-3.676753">
        <ele>564.535416</ele>
        <time>2021-03-24T22:24:51.712Z</time>
      </trkpt>
      <trkpt lat="40.354023" lon="-3.676628">
        <ele>564.577178</ele>
        <time>2021-03-24T22:24:54.538Z</time>
      </trkpt>
      <trkpt lat="40.353741" lon="-3.676215">
        <ele>564.651934</ele>
        <time>2021-03-24T22:24:59.084Z</time>
      </trkpt>
      <trkpt lat="40.353246" lon="-3.674717">
        <ele>564.753312</ele>
        <time>2021-03-24T22:25:14.338Z</time>
      </trkpt>
      <trkpt lat="40.353242" lon="-3.674705">
        <ele>564.753513</ele>
        <time>2021-03-24T22:25:14.429Z</time>
      </trkpt>
      <trkpt lat="40.353171" lon="-3.674587">
        <ele>564.755819</ele>
        <time>2021-03-24T22:25:15.528Z</time>
      </trkpt>
      <trkpt lat="40.353062" lon="-3.674536">
        <ele>564.758148</ele>
        <time>2021-03-24T22:25:17.821Z</time>
      </trkpt>
      <trkpt lat="40.353033" lon="-3.674523">
        <ele>564.758765</ele>
        <time>2021-03-24T22:25:18.626Z</time>
      </trkpt>
      <trkpt lat="40.352638" lon="-3.674479">
        <ele>564.766744</ele>
        <time>2021-03-24T22:25:26.273Z</time>
      </trkpt>
      <trkpt lat="40.352571" lon="-3.674442">
        <ele>564.768207</ele>
        <time>2021-03-24T22:25:27.875Z</time>
      </trkpt>
      <trkpt lat="40.352527" lon="-3.674314">
        <ele>564.770361</ele>
        <time>2021-03-24T22:25:29.667Z</time>
      </trkpt>
      <trkpt lat="40.352563" lon="-3.674220">
        <ele>564.771975</ele>
        <time>2021-03-24T22:25:31.197Z</time>
      </trkpt>
      <trkpt lat="40.352545" lon="-3.674075">
        <ele>564.774228</ele>
        <time>2021-03-24T22:25:33.746Z</time>
      </trkpt>
      <trkpt lat="40.352530" lon="-3.674013">
        <ele>564.764618</ele>
        <time>2021-03-24T22:25:34.856Z</time>
      </trkpt>
      <trkpt lat="40.352331" lon="-3.673977">
        <ele>564.723779</ele>
        <time>2021-03-24T22:25:48.741Z</time>
      </trkpt>
      <trkpt lat="40.351786" lon="-3.673894">
        <ele>564.612238</ele>
        <time>2021-03-24T22:26:26.846Z</time>
      </trkpt>
      <trkpt lat="40.351531" lon="-3.673800">
        <ele>564.558390</ele>
        <time>2021-03-24T22:26:45.232Z</time>
      </trkpt>
      <trkpt lat="40.350862" lon="-3.673478">
        <ele>564.413523</ele>
        <time>2021-03-24T22:27:34.695Z</time>
      </trkpt>
      <trkpt lat="40.350408" lon="-3.673168">
        <ele>563.966653</ele>
        <time>2021-03-24T22:28:10.289Z</time>
      </trkpt>
      <trkpt lat="40.350205" lon="-3.672826">
        <ele>563.667226</ele>
        <time>2021-03-24T22:28:33.260Z</time>
      </trkpt>
      <trkpt lat="40.349987" lon="-3.672457">
        <ele>563.344731</ele>
        <time>2021-03-24T22:28:58.049Z</time>
      </trkpt>
      <trkpt lat="40.349639" lon="-3.671494">
        <ele>562.551007</ele>
        <time>2021-03-24T22:29:54.579Z</time>
      </trkpt>
      <trkpt lat="40.349337" lon="-3.670367">
        <ele>561.446195</ele>
        <time>2021-03-24T22:30:57.988Z</time>
      </trkpt>
      <trkpt lat="40.349132" lon="-3.670002">
        <ele>561.026876</ele>
        <time>2021-03-24T22:31:22.022Z</time>
      </trkpt>
      <trkpt lat="40.348931" lon="-3.669897">
        <ele>560.764346</ele>
        <time>2021-03-24T22:31:37.041Z</time>
      </trkpt>
      <trkpt lat="40.348255" lon="-3.669540">
        <ele>560.227346</ele>
        <time>2021-03-24T22:32:27.645Z</time>
      </trkpt>
      <trkpt lat="40.347507" lon="-3.669271">
        <ele>559.742844</ele>
        <time>2021-03-24T22:33:21.506Z</time>
      </trkpt>
      <trkpt lat="40.347026" lon="-3.669316">
        <ele>559.449386</ele>
        <time>2021-03-24T22:33:54.947Z</time>
      </trkpt>
      <trkpt lat="40.346735" lon="-3.669342">
        <ele>559.313541</ele>
        <time>2021-03-24T22:34:15.170Z</time>
      </trkpt>
      <trkpt lat="40.346707" lon="-3.669312">
        <ele>559.296704</ele>
        <time>2021-03-24T22:34:17.685Z</time>
      </trkpt>
      <trkpt lat="40.346696" lon="-3.668926">
        <ele>559.159593</ele>
        <time>2021-03-24T22:34:20.993Z</time>
      </trkpt>
      <trkpt lat="40.346679" lon="-3.668825">
        <ele>559.122878</ele>
        <time>2021-03-24T22:34:22.055Z</time>
      </trkpt>
      <trkpt lat="40.346675" lon="-3.668762">
        <ele>559.100438</ele>
        <time>2021-03-24T22:34:22.651Z</time>
      </trkpt>
      <trkpt lat="40.346742" lon="-3.668750">
        <ele>559.068944</ele>
        <time>2021-03-24T22:34:23.403Z</time>
      </trkpt>
      <trkpt lat="40.346763" lon="-3.668581">
        <ele>559.008164</ele>
        <time>2021-03-24T22:34:25.579Z</time>
      </trkpt>
      <trkpt lat="40.346856" lon="-3.668066">
        <ele>558.820297</ele>
        <time>2021-03-24T22:34:32.865Z</time>
      </trkpt>
      <trkpt lat="40.346930" lon="-3.666794">
        <ele>558.644831</ele>
        <time>2021-03-24T22:34:51.070Z</time>
      </trkpt>
      <trkpt lat="40.346967" lon="-3.666631">
        <ele>558.647172</ele>
        <time>2021-03-24T22:34:53.309Z</time>
      </trkpt>
      <trkpt lat="40.347245" lon="-3.666457">
        <ele>558.652733</ele>
        <time>2021-03-24T22:34:59.143Z</time>
      </trkpt>
      <trkpt lat="40.347367" lon="-3.666494">
        <ele>558.654993</ele>
        <time>2021-03-24T22:35:01.543Z</time>
      </trkpt>
      <trkpt lat="40.347221" lon="-3.666350">
        <ele>558.658291</ele>
        <time>2021-03-24T22:35:05.135Z</time>
      </trkpt>
      <trkpt lat="40.347153" lon="-3.666282">
        <ele>558.659835</ele>
        <time>2021-03-24T22:35:06.735Z</time>
      </trkpt>
      <trkpt lat="40.346039" lon="-3.665181">
        <ele>559.345751</ele>
        <time>2021-03-24T22:35:36.637Z</time>
      </trkpt>
      <trkpt lat="40.345476" lon="-3.664750">
        <ele>559.788066</ele>
        <time>2021-03-24T22:35:50.674Z</time>
      </trkpt>
      <trkpt lat="40.345416" lon="-3.664687">
        <ele>559.840213</ele>
        <time>2021-03-24T22:35:52.125Z</time>
      </trkpt>
      <trkpt lat="40.345263" lon="-3.664534">
        <ele>559.875874</ele>
        <time>2021-03-24T22:35:56.068Z</time>
      </trkpt>
      <trkpt lat="40.344575" lon="-3.663543">
        <ele>559.779234</ele>
        <time>2021-03-24T22:36:15.461Z</time>
      </trkpt>
      <trkpt lat="40.344465" lon="-3.663424">
        <ele>559.765748</ele>
        <time>2021-03-24T22:36:18.185Z</time>
      </trkpt>
      <trkpt lat="40.344271" lon="-3.663250">
        <ele>559.743520</ele>
        <time>2021-03-24T22:36:22.446Z</time>
      </trkpt>
      <trkpt lat="40.343787" lon="-3.663001">
        <ele>559.611822</ele>
        <time>2021-03-24T22:36:31.963Z</time>
      </trkpt>
      <trkpt lat="40.343595" lon="-3.662888">
        <ele>559.520512</ele>
        <time>2021-03-24T22:36:35.719Z</time>
      </trkpt>
      <trkpt lat="40.343453" lon="-3.662768">
        <ele>559.447221</ele>
        <time>2021-03-24T22:36:38.825Z</time>
      </trkpt>
      <trkpt lat="40.342206" lon="-3.661824">
        <ele>558.872996</ele>
        <time>2021-03-24T22:37:05.162Z</time>
      </trkpt>
      <trkpt lat="40.341707" lon="-3.661471">
        <ele>558.735580</ele>
        <time>2021-03-24T22:37:15.800Z</time>
      </trkpt>
      <trkpt lat="40.341162" lon="-3.661086">
        <ele>558.585545</ele>
        <time>2021-03-24T22:37:27.498Z</time>
      </trkpt>
      <trkpt lat="40.340482" lon="-3.660587">
        <ele>558.423463</ele>
        <time>2021-03-24T22:37:42.008Z</time>
      </trkpt>
      <trkpt lat="40.339860" lon="-3.660131">
        <ele>558.295124</ele>
        <time>2021-03-24T22:37:55.207Z</time>
      </trkpt>
      <trkpt lat="40.339519" lon="-3.659813">
        <ele>558.219769</ele>
        <time>2021-03-24T22:38:00.201Z</time>
      </trkpt>
      <trkpt lat="40.339129" lon="-3.659254">
        <ele>558.208055</ele>
        <time>2021-03-24T22:38:11.294Z</time>
      </trkpt>
      <trkpt lat="40.338919" lon="-3.658954">
        <ele>558.236483</ele>
        <time>2021-03-24T22:38:17.281Z</time>
      </trkpt>
      <trkpt lat="40.338754" lon="-3.658755">
        <ele>558.257005</ele>
        <time>2021-03-24T22:38:21.587Z</time>
      </trkpt>
      <trkpt lat="40.338503" lon="-3.658453">
        <ele>558.288190</ele>
        <time>2021-03-24T22:38:28.155Z</time>
      </trkpt>
      <trkpt lat="40.338099" lon="-3.657864">
        <ele>558.342645</ele>
        <time>2021-03-24T22:38:40.122Z</time>
      </trkpt>
      <trkpt lat="40.336612" lon="-3.655946">
        <ele>558.314444</ele>
        <time>2021-03-24T22:39:20.175Z</time>
      </trkpt>
      <trkpt lat="40.334691" lon="-3.654113">
        <ele>557.289025</ele>
        <time>2021-03-24T22:40:03.504Z</time>
      </trkpt>
      <trkpt lat="40.333121" lon="-3.652737">
        <ele>556.228313</ele>
        <time>2021-03-24T22:40:37.858Z</time>
      </trkpt>
      <trkpt lat="40.331984" lon="-3.651847">
        <ele>555.551672</ele>
        <time>2021-03-24T22:41:01.670Z</time>
      </trkpt>
      <trkpt lat="40.331803" lon="-3.651868">
        <ele>555.486555</ele>
        <time>2021-03-24T22:41:04.874Z</time>
      </trkpt>
      <trkpt lat="40.331566" lon="-3.652137">
        <ele>555.374245</ele>
        <time>2021-03-24T22:41:10.643Z</time>
      </trkpt>
      <trkpt lat="40.330919" lon="-3.652467">
        <ele>555.125474</ele>
        <time>2021-03-24T22:41:23.706Z</time>
      </trkpt>
      <trkpt lat="40.330827" lon="-3.652443">
        <ele>555.091860</ele>
        <time>2021-03-24T22:41:25.440Z</time>
      </trkpt>
      <trkpt lat="40.331517" lon="-3.651950">
        <ele>555.344452</ele>
        <time>2021-03-24T22:41:41.041Z</time>
      </trkpt>
      <trkpt lat="40.331647" lon="-3.651734">
        <ele>555.415031</ele>
        <time>2021-03-24T22:41:45.319Z</time>
      </trkpt>
      <trkpt lat="40.331705" lon="-3.651628">
        <ele>555.448494</ele>
        <time>2021-03-24T22:41:47.302Z</time>
      </trkpt>
      <trkpt lat="40.331938" lon="-3.650992">
        <ele>555.629461</ele>
        <time>2021-03-24T22:41:58.329Z</time>
      </trkpt>
      <trkpt lat="40.332180" lon="-3.650403">
        <ele>555.734717</ele>
        <time>2021-03-24T22:42:09.084Z</time>
      </trkpt>
      <trkpt lat="40.332245" lon="-3.650190">
        <ele>555.758116</ele>
        <time>2021-03-24T22:42:12.563Z</time>
      </trkpt>
      <trkpt lat="40.332250" lon="-3.649950">
        <ele>555.782603</ele>
        <time>2021-03-24T22:42:16.291Z</time>
      </trkpt>
      <trkpt lat="40.332193" lon="-3.649831">
        <ele>555.796937</ele>
        <time>2021-03-24T22:42:18.364Z</time>
      </trkpt>
      <trkpt lat="40.332077" lon="-3.649608">
        <ele>555.824471</ele>
        <time>2021-03-24T22:42:22.337Z</time>
      </trkpt>
      <trkpt lat="40.331869" lon="-3.649284">
        <ele>555.867673</ele>
        <time>2021-03-24T22:42:28.458Z</time>
      </trkpt>
      <trkpt lat="40.331798" lon="-3.649175">
        <ele>555.882296</ele>
        <time>2021-03-24T22:42:30.493Z</time>
      </trkpt>
      <trkpt lat="40.331678" lon="-3.648818">
        <ele>555.922089</ele>
        <time>2021-03-24T22:42:36.114Z</time>
      </trkpt>
      <trkpt lat="40.330053" lon="-3.645691">
        <ele>555.190819</ele>
        <time>2021-03-24T22:43:29.750Z</time>
      </trkpt>
      <trkpt lat="40.328961" lon="-3.643717">
        <ele>554.943613</ele>
        <time>2021-03-24T22:44:04.798Z</time>
      </trkpt>
      <trkpt lat="40.328704" lon="-3.643100">
        <ele>554.907290</ele>
        <time>2021-03-24T22:44:14.861Z</time>
      </trkpt>
      <trkpt lat="40.327845" lon="-3.641608">
        <ele>555.413743</ele>
        <time>2021-03-24T22:44:42.914Z</time>
      </trkpt>
      <trkpt lat="40.327559" lon="-3.641372">
        <ele>555.555310</ele>
        <time>2021-03-24T22:44:50.221Z</time>
      </trkpt>
      <trkpt lat="40.327522" lon="-3.641201">
        <ele>555.612087</ele>
        <time>2021-03-24T22:44:53.179Z</time>
      </trkpt>
      <trkpt lat="40.327521" lon="-3.641022">
        <ele>555.714980</ele>
        <time>2021-03-24T22:44:56.193Z</time>
      </trkpt>
      <trkpt lat="40.327573" lon="-3.640989">
        <ele>555.791850</ele>
        <time>2021-03-24T22:44:57.464Z</time>
      </trkpt>
      <trkpt lat="40.327767" lon="-3.640858">
        <ele>556.082205</ele>
        <time>2021-03-24T22:45:02.267Z</time>
      </trkpt>
      <trkpt lat="40.327970" lon="-3.640678">
        <ele>556.408266</ele>
        <time>2021-03-24T22:45:07.872Z</time>
      </trkpt>
      <trkpt lat="40.327901" lon="-3.640582">
        <ele>556.542114</ele>
        <time>2021-03-24T22:45:10.032Z</time>
      </trkpt>
      <trkpt lat="40.327845" lon="-3.640486">
        <ele>556.664742</ele>
        <time>2021-03-24T22:45:12.188Z</time>
      </trkpt>
      <trkpt lat="40.327715" lon="-3.640304">
        <ele>556.917755</ele>
        <time>2021-03-24T22:45:16.644Z</time>
      </trkpt>
      <trkpt lat="40.327626" lon="-3.640143">
        <ele>557.119504</ele>
        <time>2021-03-24T22:45:20.317Z</time>
      </trkpt>
      <trkpt lat="40.327257" lon="-3.639610">
        <ele>557.849903</ele>
        <time>2021-03-24T22:45:33.607Z</time>
      </trkpt>
      <trkpt lat="40.326889" lon="-3.639265">
        <ele>558.537823</ele>
        <time>2021-03-24T22:45:44.268Z</time>
      </trkpt>
      <trkpt lat="40.326963" lon="-3.638977">
        <ele>558.910801</ele>
        <time>2021-03-24T22:45:49.490Z</time>
      </trkpt>
      <trkpt lat="40.326910" lon="-3.638717">
        <ele>559.241092</ele>
        <time>2021-03-24T22:45:54.272Z</time>
      </trkpt>
      <trkpt lat="40.326450" lon="-3.638097">
        <ele>560.302828</ele>
        <time>2021-03-24T22:46:10.088Z</time>
      </trkpt>
      <trkpt lat="40.325923" lon="-3.637312">
        <ele>561.355168</ele>
        <time>2021-03-24T22:46:29.776Z</time>
      </trkpt>
      <trkpt lat="40.325867" lon="-3.637188">
        <ele>561.469034</ele>
        <time>2021-03-24T22:46:32.513Z</time>
      </trkpt>
      <trkpt lat="40.325725" lon="-3.637025">
        <ele>561.664581</ele>
        <time>2021-03-24T22:46:36.949Z</time>
      </trkpt>
      <trkpt lat="40.325419" lon="-3.636570">
        <ele>562.143938</ele>
        <time>2021-03-24T22:46:47.331Z</time>
      </trkpt>
      <trkpt lat="40.325104" lon="-3.636048">
        <ele>562.669909</ele>
        <time>2021-03-24T22:46:58.508Z</time>
      </trkpt>
      <trkpt lat="40.323272" lon="-3.633806">
        <ele>560.887213</ele>
        <time>2021-03-24T22:47:43.185Z</time>
      </trkpt>
      <trkpt lat="40.322770" lon="-3.633222">
        <ele>560.017452</ele>
        <time>2021-03-24T22:47:54.504Z</time>
      </trkpt>
      <trkpt lat="40.322089" lon="-3.631558">
        <ele>558.138164</ele>
        <time>2021-03-24T22:48:19.009Z</time>
      </trkpt>
      <trkpt lat="40.321633" lon="-3.630680">
        <ele>557.076573</ele>
        <time>2021-03-24T22:48:33.037Z</time>
      </trkpt>
      <trkpt lat="40.321225" lon="-3.629458">
        <ele>556.178711</ele>
        <time>2021-03-24T22:48:50.855Z</time>
      </trkpt>
      <trkpt lat="40.321048" lon="-3.629051">
        <ele>555.879298</ele>
        <time>2021-03-24T22:48:57.193Z</time>
      </trkpt>
      <trkpt lat="40.320862" lon="-3.628358">
        <ele>555.436341</ele>
        <time>2021-03-24T22:49:07.326Z</time>
      </trkpt>
      <trkpt lat="40.320771" lon="-3.627861">
        <ele>555.369548</ele>
        <time>2021-03-24T22:49:14.573Z</time>
      </trkpt>
      <trkpt lat="40.320451" lon="-3.626978">
        <ele>555.241788</ele>
        <time>2021-03-24T22:49:28.770Z</time>
      </trkpt>
      <trkpt lat="40.320172" lon="-3.625512">
        <ele>554.931792</ele>
        <time>2021-03-24T22:49:50.639Z</time>
      </trkpt>
      <trkpt lat="40.320062" lon="-3.625140">
        <ele>554.814842</ele>
        <time>2021-03-24T22:49:56.318Z</time>
      </trkpt>
      <trkpt lat="40.319853" lon="-3.624683">
        <ele>554.658642</ele>
        <time>2021-03-24T22:50:03.845Z</time>
      </trkpt>
      <trkpt lat="40.319241" lon="-3.622308">
        <ele>553.717467</ele>
        <time>2021-03-24T22:50:38.084Z</time>
      </trkpt>
      <trkpt lat="40.318914" lon="-3.620334">
        <ele>553.745347</ele>
        <time>2021-03-24T22:51:07.749Z</time>
      </trkpt>
      <trkpt lat="40.318866" lon="-3.619937">
        <ele>553.820482</ele>
        <time>2021-03-24T22:51:14.170Z</time>
      </trkpt>
      <trkpt lat="40.318721" lon="-3.619460">
        <ele>553.916470</ele>
        <time>2021-03-24T22:51:22.291Z</time>
      </trkpt>
      <trkpt lat="40.318540" lon="-3.618796">
        <ele>554.280813</ele>
        <time>2021-03-24T22:51:33.552Z</time>
      </trkpt>
      <trkpt lat="40.318120" lon="-3.617909">
        <ele>554.825161</ele>
        <time>2021-03-24T22:51:50.343Z</time>
      </trkpt>
      <trkpt lat="40.317697" lon="-3.616670">
        <ele>555.395499</ele>
        <time>2021-03-24T22:52:12.642Z</time>
      </trkpt>
      <trkpt lat="40.317614" lon="-3.616418">
        <ele>555.487503</ele>
        <time>2021-03-24T22:52:16.686Z</time>
      </trkpt>
      <trkpt lat="40.317568" lon="-3.616244">
        <ele>555.549227</ele>
        <time>2021-03-24T22:52:19.897Z</time>
      </trkpt>
      <trkpt lat="40.317348" lon="-3.615769">
        <ele>555.735499</ele>
        <time>2021-03-24T22:52:28.471Z</time>
      </trkpt>
      <trkpt lat="40.317113" lon="-3.615397">
        <ele>555.897412</ele>
        <time>2021-03-24T22:52:35.878Z</time>
      </trkpt>
      <trkpt lat="40.315735" lon="-3.614280">
        <ele>555.178467</ele>
        <time>2021-03-24T22:53:05.714Z</time>
      </trkpt>
      <trkpt lat="40.315045" lon="-3.613327">
        <ele>554.053123</ele>
        <time>2021-03-24T22:53:22.964Z</time>
      </trkpt>
      <trkpt lat="40.314848" lon="-3.612908">
        <ele>553.543886</ele>
        <time>2021-03-24T22:53:29.347Z</time>
      </trkpt>
      <trkpt lat="40.314543" lon="-3.612430">
        <ele>552.899092</ele>
        <time>2021-03-24T22:53:37.377Z</time>
      </trkpt>
      <trkpt lat="40.314182" lon="-3.611327">
        <ele>551.786093</ele>
        <time>2021-03-24T22:53:53.005Z</time>
      </trkpt>
      <trkpt lat="40.313503" lon="-3.607507">
        <ele>548.736120</ele>
        <time>2021-03-24T22:54:45.586Z</time>
      </trkpt>
      <trkpt lat="40.313175" lon="-3.606435">
        <ele>548.408623</ele>
        <time>2021-03-24T22:55:01.691Z</time>
      </trkpt>
      <trkpt lat="40.312606" lon="-3.603021">
        <ele>548.095617</ele>
        <time>2021-03-24T22:55:52.528Z</time>
      </trkpt>
      <trkpt lat="40.312520" lon="-3.602663">
        <ele>548.062735</ele>
        <time>2021-03-24T22:55:58.155Z</time>
      </trkpt>
      <trkpt lat="40.312480" lon="-3.602500">
        <ele>548.047734</ele>
        <time>2021-03-24T22:56:00.590Z</time>
      </trkpt>
      <trkpt lat="40.312263" lon="-3.601381">
        <ele>547.946584</ele>
        <time>2021-03-24T22:56:17.424Z</time>
      </trkpt>
      <trkpt lat="40.312158" lon="-3.599737">
        <ele>547.386813</ele>
        <time>2021-03-24T22:56:40.517Z</time>
      </trkpt>
      <trkpt lat="40.311939" lon="-3.598609">
        <ele>546.821133</ele>
        <time>2021-03-24T22:56:56.329Z</time>
      </trkpt>
      <trkpt lat="40.311976" lon="-3.597848">
        <ele>546.500695</ele>
        <time>2021-03-24T22:57:06.739Z</time>
      </trkpt>
      <trkpt lat="40.311949" lon="-3.597599">
        <ele>546.399141</ele>
        <time>2021-03-24T22:57:10.179Z</time>
      </trkpt>
      <trkpt lat="40.312042" lon="-3.596509">
        <ele>545.956267</ele>
        <time>2021-03-24T22:57:25.439Z</time>
      </trkpt>
      <trkpt lat="40.312270" lon="-3.595709">
        <ele>545.727840</ele>
        <time>2021-03-24T22:57:37.681Z</time>
      </trkpt>
      <trkpt lat="40.312204" lon="-3.595325">
        <ele>545.669915</ele>
        <time>2021-03-24T22:57:43.409Z</time>
      </trkpt>
      <trkpt lat="40.312303" lon="-3.594661">
        <ele>545.570354</ele>
        <time>2021-03-24T22:57:53.220Z</time>
      </trkpt>
      <trkpt lat="40.312263" lon="-3.593681">
        <ele>545.401955</ele>
        <time>2021-03-24T22:58:07.255Z</time>
      </trkpt>
      <trkpt lat="40.312407" lon="-3.591964">
        <ele>544.865033</ele>
        <time>2021-03-24T22:58:31.345Z</time>
      </trkpt>
      <trkpt lat="40.312507" lon="-3.591351">
        <ele>544.702272</ele>
        <time>2021-03-24T22:58:40.117Z</time>
      </trkpt>
      <trkpt lat="40.312419" lon="-3.591012">
        <ele>544.671926</ele>
        <time>2021-03-24T22:58:45.245Z</time>
      </trkpt>
      <trkpt lat="40.312349" lon="-3.590241">
        <ele>544.606129</ele>
        <time>2021-03-24T22:58:56.424Z</time>
      </trkpt>
      <trkpt lat="40.312356" lon="-3.589941">
        <ele>544.580694</ele>
        <time>2021-03-24T22:59:00.746Z</time>
      </trkpt>
      <trkpt lat="40.312399" lon="-3.589556">
        <ele>544.547721</ele>
        <time>2021-03-24T22:59:06.530Z</time>
      </trkpt>
      <trkpt lat="40.312475" lon="-3.589198">
        <ele>544.516230</ele>
        <time>2021-03-24T22:59:12.024Z</time>
      </trkpt>
      <trkpt lat="40.312656" lon="-3.587050">
        <ele>544.504084</ele>
        <time>2021-03-24T22:59:43.766Z</time>
      </trkpt>
      <trkpt lat="40.313080" lon="-3.583797">
        <ele>544.025431</ele>
        <time>2021-03-24T23:00:30.585Z</time>
      </trkpt>
      <trkpt lat="40.313117" lon="-3.583383">
        <ele>544.003978</ele>
        <time>2021-03-24T23:00:36.634Z</time>
      </trkpt>
      <trkpt lat="40.313059" lon="-3.583015">
        <ele>543.984639</ele>
        <time>2021-03-24T23:00:42.108Z</time>
      </trkpt>
      <trkpt lat="40.313068" lon="-3.582770">
        <ele>543.972015</ele>
        <time>2021-03-24T23:00:45.676Z</time>
      </trkpt>
      <trkpt lat="40.313127" lon="-3.582291">
        <ele>543.947044</ele>
        <time>2021-03-24T23:00:52.829Z</time>
      </trkpt>
      <trkpt lat="40.313309" lon="-3.581580">
        <ele>543.974188</ele>
        <time>2021-03-24T23:01:04.010Z</time>
      </trkpt>
      <trkpt lat="40.313506" lon="-3.578850">
        <ele>544.136404</ele>
        <time>2021-03-24T23:01:44.526Z</time>
      </trkpt>
      <trkpt lat="40.313605" lon="-3.578200">
        <ele>544.183826</ele>
        <time>2021-03-24T23:01:54.334Z</time>
      </trkpt>
      <trkpt lat="40.313971" lon="-3.577111">
        <ele>544.167184</ele>
        <time>2021-03-24T23:02:11.915Z</time>
      </trkpt>
      <trkpt lat="40.314694" lon="-3.576044">
        <ele>543.986636</ele>
        <time>2021-03-24T23:02:32.419Z</time>
      </trkpt>
      <trkpt lat="40.314986" lon="-3.574613">
        <ele>543.472157</ele>
        <time>2021-03-24T23:02:53.092Z</time>
      </trkpt>
      <trkpt lat="40.315007" lon="-3.574322">
        <ele>543.345316</ele>
        <time>2021-03-24T23:02:57.109Z</time>
      </trkpt>
      <trkpt lat="40.315211" lon="-3.573462">
        <ele>542.954484</ele>
        <time>2021-03-24T23:03:09.455Z</time>
      </trkpt>
      <trkpt lat="40.316142" lon="-3.570712">
        <ele>542.014210</ele>
        <time>2021-03-24T23:03:51.452Z</time>
      </trkpt>
      <trkpt lat="40.317419" lon="-3.568661">
        <ele>541.989513</ele>
        <time>2021-03-24T23:04:30.376Z</time>
      </trkpt>
      <trkpt lat="40.318081" lon="-3.567688">
        <ele>542.071604</ele>
        <time>2021-03-24T23:04:49.687Z</time>
      </trkpt>
      <trkpt lat="40.318624" lon="-3.567113">
        <ele>542.117598</ele>
        <time>2021-03-24T23:05:03.096Z</time>
      </trkpt>
      <trkpt lat="40.318787" lon="-3.566878">
        <ele>542.132300</ele>
        <time>2021-03-24T23:05:07.752Z</time>
      </trkpt>
      <trkpt lat="40.319812" lon="-3.565857">
        <ele>542.202882</ele>
        <time>2021-03-24T23:05:32.585Z</time>
      </trkpt>
      <trkpt lat="40.320087" lon="-3.565476">
        <ele>542.215668</ele>
        <time>2021-03-24T23:05:40.344Z</time>
      </trkpt>
      <trkpt lat="40.321901" lon="-3.563484">
        <ele>542.128038</ele>
        <time>2021-03-24T23:06:25.303Z</time>
      </trkpt>
      <trkpt lat="40.321955" lon="-3.563337">
        <ele>542.115497</ele>
        <time>2021-03-24T23:06:27.642Z</time>
      </trkpt>
      <trkpt lat="40.321902" lon="-3.563212">
        <ele>542.104505</ele>
        <time>2021-03-24T23:06:29.740Z</time>
      </trkpt>
      <trkpt lat="40.321938" lon="-3.563127">
        <ele>542.097032</ele>
        <time>2021-03-24T23:06:31.158Z</time>
      </trkpt>
      <trkpt lat="40.322025" lon="-3.563028">
        <ele>542.085422</ele>
        <time>2021-03-24T23:06:33.198Z</time>
      </trkpt>
      <trkpt lat="40.322000" lon="-3.562938">
        <ele>542.078060</ele>
        <time>2021-03-24T23:06:34.709Z</time>
      </trkpt>
      <trkpt lat="40.322015" lon="-3.562449">
        <ele>541.972365</ele>
        <time>2021-03-24T23:06:41.703Z</time>
      </trkpt>
      <trkpt lat="40.322135" lon="-3.561916">
        <ele>541.833461</ele>
        <time>2021-03-24T23:06:49.630Z</time>
      </trkpt>
      <trkpt lat="40.322238" lon="-3.561672">
        <ele>541.763752</ele>
        <time>2021-03-24T23:06:53.499Z</time>
      </trkpt>
      <trkpt lat="40.324339" lon="-3.558430">
        <ele>540.543480</ele>
        <time>2021-03-24T23:07:53.296Z</time>
      </trkpt>
      <trkpt lat="40.324446" lon="-3.558157">
        <ele>540.439366</ele>
        <time>2021-03-24T23:07:57.540Z</time>
      </trkpt>
      <trkpt lat="40.324493" lon="-3.557906">
        <ele>540.351704</ele>
        <time>2021-03-24T23:08:01.055Z</time>
      </trkpt>
      <trkpt lat="40.324434" lon="-3.557609">
        <ele>540.247607</ele>
        <time>2021-03-24T23:08:05.349Z</time>
      </trkpt>
      <trkpt lat="40.324414" lon="-3.557412">
        <ele>540.180200</ele>
        <time>2021-03-24T23:08:08.052Z</time>
      </trkpt>
      <trkpt lat="40.324510" lon="-3.557465">
        <ele>540.133863</ele>
        <time>2021-03-24T23:08:09.238Z</time>
      </trkpt>
      <trkpt lat="40.324637" lon="-3.557448">
        <ele>540.077070</ele>
        <time>2021-03-24T23:08:10.610Z</time>
      </trkpt>
      <trkpt lat="40.324917" lon="-3.557233">
        <ele>540.019951</ele>
        <time>2021-03-24T23:08:14.134Z</time>
      </trkpt>
      <trkpt lat="40.326147" lon="-3.555522">
        <ele>540.213748</ele>
        <time>2021-03-24T23:08:35.920Z</time>
      </trkpt>
      <trkpt lat="40.326391" lon="-3.555244">
        <ele>540.241972</ele>
        <time>2021-03-24T23:08:40.204Z</time>
      </trkpt>
      <trkpt lat="40.327392" lon="-3.554112">
        <ele>540.357391</ele>
        <time>2021-03-24T23:08:55.543Z</time>
      </trkpt>
      <trkpt lat="40.327744" lon="-3.553590">
        <ele>540.064014</ele>
        <time>2021-03-24T23:09:01.301Z</time>
      </trkpt>
      <trkpt lat="40.327882" lon="-3.553363">
        <ele>539.941157</ele>
        <time>2021-03-24T23:09:03.605Z</time>
      </trkpt>
      <trkpt lat="40.328232" lon="-3.552899">
        <ele>539.664948</ele>
        <time>2021-03-24T23:09:08.811Z</time>
      </trkpt>
      <trkpt lat="40.328868" lon="-3.551505">
        <ele>539.297666</ele>
        <time>2021-03-24T23:09:21.869Z</time>
      </trkpt>
      <trkpt lat="40.329389" lon="-3.550766">
        <ele>539.228959</ele>
        <time>2021-03-24T23:09:30.918Z</time>
      </trkpt>
      <trkpt lat="40.329842" lon="-3.550005">
        <ele>539.497468</ele>
        <time>2021-03-24T23:09:40.471Z</time>
      </trkpt>
      <trkpt lat="40.330630" lon="-3.548388">
        <ele>540.581259</ele>
        <time>2021-03-24T23:10:01.255Z</time>
      </trkpt>
      <trkpt lat="40.330748" lon="-3.547817">
        <ele>540.673112</ele>
        <time>2021-03-24T23:10:07.678Z</time>
      </trkpt>
      <trkpt lat="40.330907" lon="-3.547408">
        <ele>540.744394</ele>
        <time>2021-03-24T23:10:12.366Z</time>
      </trkpt>
      <trkpt lat="40.331269" lon="-3.546649">
        <ele>540.883400</ele>
        <time>2021-03-24T23:10:20.172Z</time>
      </trkpt>
      <trkpt lat="40.331315" lon="-3.546555">
        <ele>540.900742</ele>
        <time>2021-03-24T23:10:21.086Z</time>
      </trkpt>
      <trkpt lat="40.331524" lon="-3.545938">
        <ele>540.587482</ele>
        <time>2021-03-24T23:10:26.423Z</time>
      </trkpt>
      <trkpt lat="40.331612" lon="-3.545033">
        <ele>539.877837</ele>
        <time>2021-03-24T23:10:33.407Z</time>
      </trkpt>
      <trkpt lat="40.331680" lon="-3.544126">
        <ele>539.168936</ele>
        <time>2021-03-24T23:10:40.221Z</time>
      </trkpt>
      <trkpt lat="40.331906" lon="-3.542367">
        <ele>538.195302</ele>
        <time>2021-03-24T23:10:54.143Z</time>
      </trkpt>
      <trkpt lat="40.332196" lon="-3.540710">
        <ele>537.843314</ele>
        <time>2021-03-24T23:11:09.115Z</time>
      </trkpt>
      <trkpt lat="40.332287" lon="-3.540053">
        <ele>537.844679</ele>
        <time>2021-03-24T23:11:14.954Z</time>
      </trkpt>
      <trkpt lat="40.332316" lon="-3.539837">
        <ele>537.845127</ele>
        <time>2021-03-24T23:11:16.888Z</time>
      </trkpt>
      <trkpt lat="40.332390" lon="-3.539306">
        <ele>537.893211</ele>
        <time>2021-03-24T23:11:21.579Z</time>
      </trkpt>
      <trkpt lat="40.332488" lon="-3.538590">
        <ele>538.222793</ele>
        <time>2021-03-24T23:11:28.337Z</time>
      </trkpt>
      <trkpt lat="40.332730" lon="-3.537332">
        <ele>538.810615</ele>
        <time>2021-03-24T23:11:42.055Z</time>
      </trkpt>
      <trkpt lat="40.332780" lon="-3.537025">
        <ele>538.988377</ele>
        <time>2021-03-24T23:11:47.344Z</time>
      </trkpt>
      <trkpt lat="40.332856" lon="-3.536535">
        <ele>539.427748</ele>
        <time>2021-03-24T23:11:53.068Z</time>
      </trkpt>
      <trkpt lat="40.332921" lon="-3.536184">
        <ele>539.745131</ele>
        <time>2021-03-24T23:11:57.295Z</time>
      </trkpt>
      <trkpt lat="40.333130" lon="-3.535595">
        <ele>540.315988</ele>
        <time>2021-03-24T23:12:05.168Z</time>
      </trkpt>
      <trkpt lat="40.333431" lon="-3.533071">
        <ele>542.054619</ele>
        <time>2021-03-24T23:12:33.615Z</time>
      </trkpt>
      <trkpt lat="40.333378" lon="-3.532574">
        <ele>542.353649</ele>
        <time>2021-03-24T23:12:38.333Z</time>
      </trkpt>
      <trkpt lat="40.333212" lon="-3.531983">
        <ele>542.257438</ele>
        <time>2021-03-24T23:12:43.919Z</time>
      </trkpt>
      <trkpt lat="40.333104" lon="-3.531676">
        <ele>542.175120</ele>
        <time>2021-03-24T23:12:46.819Z</time>
      </trkpt>
      <trkpt lat="40.332046" lon="-3.529998">
        <ele>541.383960</ele>
        <time>2021-03-24T23:13:04.380Z</time>
      </trkpt>
      <trkpt lat="40.330786" lon="-3.528537">
        <ele>540.022963</ele>
        <time>2021-03-24T23:13:21.620Z</time>
      </trkpt>
      <trkpt lat="40.329135" lon="-3.526460">
        <ele>538.252450</ele>
        <time>2021-03-24T23:13:45.239Z</time>
      </trkpt>
      <trkpt lat="40.328917" lon="-3.526209">
        <ele>538.059626</ele>
        <time>2021-03-24T23:13:48.330Z</time>
      </trkpt>
      <trkpt lat="40.328355" lon="-3.525978">
        <ele>537.668120</ele>
        <time>2021-03-24T23:13:54.690Z</time>
      </trkpt>
      <trkpt lat="40.328095" lon="-3.525737">
        <ele>537.609683</ele>
        <time>2021-03-24T23:13:58.180Z</time>
      </trkpt>
      <trkpt lat="40.326005" lon="-3.523383">
        <ele>537.023808</ele>
        <time>2021-03-24T23:14:29.350Z</time>
      </trkpt>
      <trkpt lat="40.325788" lon="-3.523056">
        <ele>536.942105</ele>
        <time>2021-03-24T23:14:32.959Z</time>
      </trkpt>
      <trkpt lat="40.325645" lon="-3.522538">
        <ele>536.698266</ele>
        <time>2021-03-24T23:14:37.419Z</time>
      </trkpt>
      <trkpt lat="40.325635" lon="-3.522351">
        <ele>536.574383</ele>
        <time>2021-03-24T23:14:38.809Z</time>
      </trkpt>
      <trkpt lat="40.325747" lon="-3.522040">
        <ele>536.347083</ele>
        <time>2021-03-24T23:14:41.594Z</time>
      </trkpt>
      <trkpt lat="40.325646" lon="-3.521990">
        <ele>536.253505</ele>
        <time>2021-03-24T23:14:43.358Z</time>
      </trkpt>
      <trkpt lat="40.325289" lon="-3.521481">
        <ele>535.796438</ele>
        <time>2021-03-24T23:14:52.727Z</time>
      </trkpt>
      <trkpt lat="40.325068" lon="-3.521076">
        <ele>535.467299</ele>
        <time>2021-03-24T23:14:59.427Z</time>
      </trkpt>
      <trkpt lat="40.324852" lon="-3.520529">
        <ele>535.211484</ele>
        <time>2021-03-24T23:15:07.731Z</time>
      </trkpt>
      <trkpt lat="40.324812" lon="-3.520442">
        <ele>535.181302</ele>
        <time>2021-03-24T23:15:09.034Z</time>
      </trkpt>
      <trkpt lat="40.324466" lon="-3.519815">
        <ele>534.951360</ele>
        <time>2021-03-24T23:15:19.758Z</time>
      </trkpt>
      <trkpt lat="40.323703" lon="-3.518809">
        <ele>534.601591</ele>
        <time>2021-03-24T23:15:40.404Z</time>
      </trkpt>
      <trkpt lat="40.323443" lon="-3.518570">
        <ele>534.562982</ele>
        <time>2021-03-24T23:15:46.794Z</time>
      </trkpt>
      <trkpt lat="40.323063" lon="-3.518402">
        <ele>534.514218</ele>
        <time>2021-03-24T23:15:54.854Z</time>
      </trkpt>
      <trkpt lat="40.322991" lon="-3.518200">
        <ele>534.493545</ele>
        <time>2021-03-24T23:15:58.277Z</time>
      </trkpt>
      <trkpt lat="40.322981" lon="-3.517805">
        <ele>534.456903</ele>
        <time>2021-03-24T23:16:04.078Z</time>
      </trkpt>
      <trkpt lat="40.322915" lon="-3.517610">
        <ele>534.437123</ele>
        <time>2021-03-24T23:16:06.947Z</time>
      </trkpt>
      <trkpt lat="40.322430" lon="-3.516656">
        <ele>533.475457</ele>
        <time>2021-03-24T23:16:22.136Z</time>
      </trkpt>
      <trkpt lat="40.322118" lon="-3.516607">
        <ele>533.051002</ele>
        <time>2021-03-24T23:16:27.404Z</time>
      </trkpt>
      <trkpt lat="40.322028" lon="-3.516498">
        <ele>532.885532</ele>
        <time>2021-03-24T23:16:29.358Z</time>
      </trkpt>
      <trkpt lat="40.321832" lon="-3.516413">
        <ele>532.606681</ele>
        <time>2021-03-24T23:16:32.824Z</time>
      </trkpt>
      <trkpt lat="40.321497" lon="-3.516236">
        <ele>532.118833</ele>
        <time>2021-03-24T23:16:38.910Z</time>
      </trkpt>
      <trkpt lat="40.321239" lon="-3.516274">
        <ele>532.035016</ele>
        <time>2021-03-24T23:16:43.320Z</time>
      </trkpt>
      <trkpt lat="40.321225" lon="-3.516267">
        <ele>532.039586</ele>
        <time>2021-03-24T23:16:43.572Z</time>
      </trkpt>
      <trkpt lat="40.321120" lon="-3.516218">
        <ele>532.073576</ele>
        <time>2021-03-24T23:16:45.590Z</time>
      </trkpt>
      <trkpt lat="40.321005" lon="-3.515987">
        <ele>532.137727</ele>
        <time>2021-03-24T23:16:49.255Z</time>
      </trkpt>
      <trkpt lat="40.321004" lon="-3.515880">
        <ele>532.162609</ele>
        <time>2021-03-24T23:16:50.721Z</time>
      </trkpt>
      <trkpt lat="40.321073" lon="-3.515759">
        <ele>532.197744</ele>
        <time>2021-03-24T23:16:53.091Z</time>
      </trkpt>
      <trkpt lat="40.321101" lon="-3.515689">
        <ele>532.216125</ele>
        <time>2021-03-24T23:16:54.052Z</time>
      </trkpt>
      <trkpt lat="40.321111" lon="-3.515447">
        <ele>532.272480</ele>
        <time>2021-03-24T23:16:57.499Z</time>
      </trkpt>
      <trkpt lat="40.320949" lon="-3.515110">
        <ele>532.365118</ele>
        <time>2021-03-24T23:17:04.514Z</time>
      </trkpt>
      <trkpt lat="40.321017" lon="-3.514941">
        <ele>532.409552</ele>
        <time>2021-03-24T23:17:08.039Z</time>
      </trkpt>
      <trkpt lat="40.321027" lon="-3.514914">
        <ele>532.416532</ele>
        <time>2021-03-24T23:17:08.699Z</time>
      </trkpt>
      <trkpt lat="40.321176" lon="-3.514676">
        <ele>532.488140</ele>
        <time>2021-03-24T23:17:14.340Z</time>
      </trkpt>
      <trkpt lat="40.321357" lon="-3.514477">
        <ele>532.643205</ele>
        <time>2021-03-24T23:17:19.897Z</time>
      </trkpt>
      <trkpt lat="40.321911" lon="-3.514897">
        <ele>533.467546</ele>
        <time>2021-03-24T23:17:33.673Z</time>
      </trkpt>
      <trkpt lat="40.322106" lon="-3.514926">
        <ele>533.720366</ele>
        <time>2021-03-24T23:17:38.039Z</time>
      </trkpt>
      <trkpt lat="40.320979" lon="-3.511960">
        <ele>535.385183</ele>
        <time>2021-03-24T23:18:12.625Z</time>
      </trkpt>
      <trkpt lat="40.320910" lon="-3.511783">
        <ele>535.433175</ele>
        <time>2021-03-24T23:18:14.373Z</time>
      </trkpt>
      <trkpt lat="40.320778" lon="-3.511471">
        <ele>535.325899</ele>
        <time>2021-03-24T23:18:17.399Z</time>
      </trkpt>
      <trkpt lat="40.320642" lon="-3.511282">
        <ele>535.247766</ele>
        <time>2021-03-24T23:18:19.650Z</time>
      </trkpt>
      <trkpt lat="40.320412" lon="-3.511058">
        <ele>535.134802</ele>
        <time>2021-03-24T23:18:22.950Z</time>
      </trkpt>
      <trkpt lat="40.320139" lon="-3.511027">
        <ele>535.026749</ele>
        <time>2021-03-24T23:18:25.897Z</time>
      </trkpt>
      <trkpt lat="40.319869" lon="-3.510996">
        <ele>534.919874</ele>
        <time>2021-03-24T23:18:28.829Z</time>
      </trkpt>
      <trkpt lat="40.318395" lon="-3.510814">
        <ele>534.305964</ele>
        <time>2021-03-24T23:18:44.622Z</time>
      </trkpt>
      <trkpt lat="40.318315" lon="-3.510801">
        <ele>534.271713</ele>
        <time>2021-03-24T23:18:45.510Z</time>
      </trkpt>
      <trkpt lat="40.318325" lon="-3.510749">
        <ele>534.254340</ele>
        <time>2021-03-24T23:18:48.316Z</time>
      </trkpt>
      <trkpt lat="40.318393" lon="-3.510657">
        <ele>534.212830</ele>
        <time>2021-03-24T23:18:55.146Z</time>
      </trkpt>
      <trkpt lat="40.318411" lon="-3.510599">
        <ele>534.192544</ele>
        <time>2021-03-24T23:18:58.510Z</time>
      </trkpt>
      <trkpt lat="40.318309" lon="-3.510346">
        <ele>534.099830</ele>
        <time>2021-03-24T23:19:13.706Z</time>
      </trkpt>
      <trkpt lat="40.317916" lon="-3.509554">
        <ele>533.872050</ele>
        <time>2021-03-24T23:20:03.807Z</time>
      </trkpt>
      <trkpt lat="40.317517" lon="-3.509167">
        <ele>533.760359</ele>
        <time>2021-03-24T23:20:38.311Z</time>
      </trkpt>
      <trkpt lat="40.317191" lon="-3.508981">
        <ele>533.680345</ele>
        <time>2021-03-24T23:21:03.010Z</time>
      </trkpt>
      <trkpt lat="40.316893" lon="-3.507767">
        <ele>533.511554</ele>
        <time>2021-03-24T23:22:10.717Z</time>
      </trkpt>
      <trkpt lat="40.316768" lon="-3.507527">
        <ele>533.488246</ele>
        <time>2021-03-24T23:22:26.152Z</time>
      </trkpt>
      <trkpt lat="40.316760" lon="-3.507400">
        <ele>533.478026</ele>
        <time>2021-03-24T23:22:32.904Z</time>
      </trkpt>
      <trkpt lat="40.316585" lon="-3.506962">
        <ele>533.438369</ele>
        <time>2021-03-24T23:22:59.150Z</time>
      </trkpt>
      <trkpt lat="40.316565" lon="-3.506731">
        <ele>533.419725</ele>
        <time>2021-03-24T23:23:11.483Z</time>
      </trkpt>
      <trkpt lat="40.316629" lon="-3.506653">
        <ele>533.410536</ele>
        <time>2021-03-24T23:23:17.556Z</time>
      </trkpt>
      <trkpt lat="40.316699" lon="-3.506680">
        <ele>533.402862</ele>
        <time>2021-03-24T23:23:22.575Z</time>
      </trkpt>
      <trkpt lat="40.316846" lon="-3.507005">
        <ele>533.372557</ele>
        <time>2021-03-24T23:23:42.610Z</time>
      </trkpt>
      <trkpt lat="40.316942" lon="-3.507122">
        <ele>533.356128</ele>
        <time>2021-03-24T23:23:51.721Z</time>
      </trkpt>
      <trkpt lat="40.317040" lon="-3.507157">
        <ele>533.341693</ele>
        <time>2021-03-24T23:23:58.805Z</time>
      </trkpt>
      <trkpt lat="40.317200" lon="-3.506940">
        <ele>533.308981</ele>
        <time>2021-03-24T23:24:14.836Z</time>
      </trkpt>
      <trkpt lat="40.317001" lon="-3.506491">
        <ele>533.252702</ele>
        <time>2021-03-24T23:24:42.428Z</time>
      </trkpt>
      <trkpt lat="40.316968" lon="-3.506011">
        <ele>533.200476</ele>
        <time>2021-03-24T23:25:08.009Z</time>
      </trkpt>
      <trkpt lat="40.317014" lon="-3.505282">
        <ele>533.121207</ele>
        <time>2021-03-24T23:25:46.861Z</time>
      </trkpt>
      <trkpt lat="40.317376" lon="-3.503595">
        <ele>533.153108</ele>
        <time>2021-03-24T23:27:19.945Z</time>
      </trkpt>
      <trkpt lat="40.318176" lon="-3.500652">
        <ele>533.779633</ele>
        <time>2021-03-24T23:30:05.833Z</time>
      </trkpt>
      <trkpt lat="40.318131" lon="-3.499431">
        <ele>534.231102</ele>
        <time>2021-03-24T23:31:10.759Z</time>
      </trkpt>
      <trkpt lat="40.317785" lon="-3.498029">
        <ele>534.657484</ele>
        <time>2021-03-24T23:32:29.008Z</time>
      </trkpt>
      <trkpt lat="40.317704" lon="-3.496317">
        <ele>534.784169</ele>
        <time>2021-03-24T23:34:00.151Z</time>
      </trkpt>
      <trkpt lat="40.317678" lon="-3.495754">
        <ele>534.747914</ele>
        <time>2021-03-24T23:34:30.135Z</time>
      </trkpt>
      <trkpt lat="40.317724" lon="-3.495378">
        <ele>534.683099</ele>
        <time>2021-03-24T23:34:50.349Z</time>
      </trkpt>
      <trkpt lat="40.317872" lon="-3.494939">
        <ele>534.601402</ele>
        <time>2021-03-24T23:35:15.843Z</time>
      </trkpt>
      <trkpt lat="40.317901" lon="-3.494614">
        <ele>534.545708</ele>
        <time>2021-03-24T23:35:33.218Z</time>
      </trkpt>
      <trkpt lat="40.318223" lon="-3.493332">
        <ele>534.324368</ele>
        <time>2021-03-24T23:36:44.865Z</time>
      </trkpt>
      <trkpt lat="40.318380" lon="-3.493126">
        <ele>534.279703</ele>
        <time>2021-03-24T23:37:00.321Z</time>
      </trkpt>
      <trkpt lat="40.319061" lon="-3.491814">
        <ele>534.041018</ele>
        <time>2021-03-24T23:38:24.555Z</time>
      </trkpt>
      <trkpt lat="40.319160" lon="-3.491398">
        <ele>534.091456</ele>
        <time>2021-03-24T23:38:47.674Z</time>
      </trkpt>
      <trkpt lat="40.319274" lon="-3.491220">
        <ele>534.118361</ele>
        <time>2021-03-24T23:38:59.997Z</time>
      </trkpt>
      <trkpt lat="40.319374" lon="-3.490898">
        <ele>534.158602</ele>
        <time>2021-03-24T23:39:18.443Z</time>
      </trkpt>
      <trkpt lat="40.319438" lon="-3.490272">
        <ele>534.231703</ele>
        <time>2021-03-24T23:39:52.013Z</time>
      </trkpt>
      <trkpt lat="40.319585" lon="-3.489607">
        <ele>534.311839</ele>
        <time>2021-03-24T23:40:28.786Z</time>
      </trkpt>
      <trkpt lat="40.320071" lon="-3.488465">
        <ele>534.691747</ele>
        <time>2021-03-24T23:41:38.216Z</time>
      </trkpt>
      <trkpt lat="40.320203" lon="-3.488387">
        <ele>534.746948</ele>
        <time>2021-03-24T23:41:41.196Z</time>
      </trkpt>
      <trkpt lat="40.320955" lon="-3.487667">
        <ele>535.061139</ele>
        <time>2021-03-24T23:41:59.892Z</time>
      </trkpt>
      <trkpt lat="40.321183" lon="-3.487214">
        <ele>535.157113</ele>
        <time>2021-03-24T23:42:08.071Z</time>
      </trkpt>
      <trkpt lat="40.321792" lon="-3.486366">
        <ele>535.363090</ele>
        <time>2021-03-24T23:42:25.468Z</time>
      </trkpt>
      <trkpt lat="40.322195" lon="-3.485609">
        <ele>535.506028</ele>
        <time>2021-03-24T23:42:39.178Z</time>
      </trkpt>
      <trkpt lat="40.322415" lon="-3.485299">
        <ele>535.567261</ele>
        <time>2021-03-24T23:42:45.429Z</time>
      </trkpt>
      <trkpt lat="40.322748" lon="-3.485007">
        <ele>535.643223</ele>
        <time>2021-03-24T23:42:53.234Z</time>
      </trkpt>
      <trkpt lat="40.322696" lon="-3.484868">
        <ele>535.665609</ele>
        <time>2021-03-24T23:42:55.454Z</time>
      </trkpt>
      <trkpt lat="40.322221" lon="-3.483884">
        <ele>535.969900</ele>
        <time>2021-03-24T23:43:13.509Z</time>
      </trkpt>
      <trkpt lat="40.321883" lon="-3.482994">
        <ele>536.364179</ele>
        <time>2021-03-24T23:43:29.055Z</time>
      </trkpt>
      <trkpt lat="40.321807" lon="-3.482847">
        <ele>536.434608</ele>
        <time>2021-03-24T23:43:31.915Z</time>
      </trkpt>
      <trkpt lat="40.321667" lon="-3.482775">
        <ele>536.512820</ele>
        <time>2021-03-24T23:43:34.041Z</time>
      </trkpt>
      <trkpt lat="40.318285" lon="-3.481771">
        <ele>538.621895</ele>
        <time>2021-03-24T23:44:22.127Z</time>
      </trkpt>
      <trkpt lat="40.317722" lon="-3.481778">
        <ele>539.066153</ele>
        <time>2021-03-24T23:44:30.300Z</time>
      </trkpt>
      <trkpt lat="40.317289" lon="-3.481499">
        <ele>539.752870</ele>
        <time>2021-03-24T23:44:37.711Z</time>
      </trkpt>
      <trkpt lat="40.316987" lon="-3.481301">
        <ele>540.233470</ele>
        <time>2021-03-24T23:44:43.085Z</time>
      </trkpt>
      <trkpt lat="40.316789" lon="-3.481123">
        <ele>540.575168</ele>
        <time>2021-03-24T23:44:47.018Z</time>
      </trkpt>
      <trkpt lat="40.316696" lon="-3.480935">
        <ele>540.818393</ele>
        <time>2021-03-24T23:44:50.010Z</time>
      </trkpt>
      <trkpt lat="40.316629" lon="-3.480822">
        <ele>540.973755</ele>
        <time>2021-03-24T23:44:51.875Z</time>
      </trkpt>
      <trkpt lat="40.316533" lon="-3.480660">
        <ele>541.196439</ele>
        <time>2021-03-24T23:44:54.607Z</time>
      </trkpt>
      <trkpt lat="40.316367" lon="-3.480165">
        <ele>541.918148</ele>
        <time>2021-03-24T23:45:02.263Z</time>
      </trkpt>
      <trkpt lat="40.316270" lon="-3.478566">
        <ele>544.483374</ele>
        <time>2021-03-24T23:45:24.847Z</time>
      </trkpt>
      <trkpt lat="40.316169" lon="-3.478457">
        <ele>544.757709</ele>
        <time>2021-03-24T23:45:28.364Z</time>
      </trkpt>
      <trkpt lat="40.316047" lon="-3.478167">
        <ele>545.283856</ele>
        <time>2021-03-24T23:45:34.641Z</time>
      </trkpt>
      <trkpt lat="40.316014" lon="-3.477937">
        <ele>545.577053</ele>
        <time>2021-03-24T23:45:39.476Z</time>
      </trkpt>
      <trkpt lat="40.316006" lon="-3.477234">
        <ele>546.457860</ele>
        <time>2021-03-24T23:45:52.962Z</time>
      </trkpt>
      <trkpt lat="40.316006" lon="-3.477170">
        <ele>546.538039</ele>
        <time>2021-03-24T23:45:54.315Z</time>
      </trkpt>
      <trkpt lat="40.316006" lon="-3.477009">
        <ele>546.739737</ele>
        <time>2021-03-24T23:45:57.362Z</time>
      </trkpt>
      <trkpt lat="40.316002" lon="-3.476837">
        <ele>546.955317</ele>
        <time>2021-03-24T23:46:00.414Z</time>
      </trkpt>
      <trkpt lat="40.316152" lon="-3.476634">
        <ele>547.309458</ele>
        <time>2021-03-24T23:46:05.518Z</time>
      </trkpt>
      <trkpt lat="40.316115" lon="-3.476026">
        <ele>548.073573</ele>
        <time>2021-03-24T23:46:12.567Z</time>
      </trkpt>
      <trkpt lat="40.316105" lon="-3.475953">
        <ele>548.166490</ele>
        <time>2021-03-24T23:46:13.448Z</time>
      </trkpt>
      <trkpt lat="40.316061" lon="-3.475573">
        <ele>548.422164</ele>
        <time>2021-03-24T23:46:17.823Z</time>
      </trkpt>
      <trkpt lat="40.316006" lon="-3.475022">
        <ele>548.745510</ele>
        <time>2021-03-24T23:46:24.220Z</time>
      </trkpt>
      <trkpt lat="40.316013" lon="-3.474886">
        <ele>548.824825</ele>
        <time>2021-03-24T23:46:25.576Z</time>
      </trkpt>
      <trkpt lat="40.315964" lon="-3.474532">
        <ele>549.034173</ele>
        <time>2021-03-24T23:46:29.576Z</time>
      </trkpt>
      <trkpt lat="40.315877" lon="-3.474108">
        <ele>549.289664</ele>
        <time>2021-03-24T23:46:34.077Z</time>
      </trkpt>
      <trkpt lat="40.315272" lon="-3.471156">
        <ele>551.202436</ele>
        <time>2021-03-24T23:47:07.229Z</time>
      </trkpt>
      <trkpt lat="40.315183" lon="-3.470822">
        <ele>551.641529</ele>
        <time>2021-03-24T23:47:11.833Z</time>
      </trkpt>
      <trkpt lat="40.314854" lon="-3.469586">
        <ele>553.266249</ele>
        <time>2021-03-24T23:47:29.295Z</time>
      </trkpt>
      <trkpt lat="40.313216" lon="-3.467543">
        <ele>557.740920</ele>
        <time>2021-03-24T23:48:10.025Z</time>
      </trkpt>
      <trkpt lat="40.312968" lon="-3.467124">
        <ele>558.773927</ele>
        <time>2021-03-24T23:48:18.055Z</time>
      </trkpt>
      <trkpt lat="40.312380" lon="-3.465791">
        <ele>561.773114</ele>
        <time>2021-03-24T23:48:41.859Z</time>
      </trkpt>
      <trkpt lat="40.312277" lon="-3.465557">
        <ele>562.293146</ele>
        <time>2021-03-24T23:48:46.218Z</time>
      </trkpt>
      <trkpt lat="40.311046" lon="-3.462825">
        <ele>567.995845</ele>
        <time>2021-03-24T23:49:32.777Z</time>
      </trkpt>
      <trkpt lat="40.309531" lon="-3.459529">
        <ele>574.350244</ele>
        <time>2021-03-24T23:50:27.009Z</time>
      </trkpt>
      <trkpt lat="40.308315" lon="-3.456884">
        <ele>579.445351</ele>
        <time>2021-03-24T23:51:12.103Z</time>
      </trkpt>
      <trkpt lat="40.306460" lon="-3.452811">
        <ele>581.615656</ele>
        <time>2021-03-24T23:52:11.959Z</time>
      </trkpt>
      <trkpt lat="40.306311" lon="-3.452487">
        <ele>581.615656</ele>
        <time>2021-03-24T23:52:16.326Z</time>
      </trkpt>
      <trkpt lat="40.306320" lon="-3.452505">
        <ele>581.615656</ele>
        <time>2021-03-24T23:52:16.481Z</time>
      </trkpt>
    </trkseg>
  </trk>
</gpx>
